<?xml version="1.0" encoding="UTF-8" standalone="no" ?>
<gpx xmlns="http://www.topografix.com/GPX/1/1" xmlns:xsi="http://www.w3.org/2001/XMLSchema-instance" xsi:schemaLocation="http://www.topografix.com/GPX/1/1 http://www.topografix.com/GPX/1/1/gpx.xsd" version="1.1" creator="VisuGPX - https://www.visugpx.com">
  <metadata>
    <name>Pointe des Arbennes (de romme au reposoir)</name>
    <desc><![CDATA[1ère descente à optimiser (une plus directe est possible)]]></desc>
  </metadata>
  <trk>
    <name><![CDATA[20190204121844-vvypx]]></name>
    <trkseg>
      <trkpt lat="46.0293" lon="6.57497">
        <ele>1303.2</ele>
        <time>2019-01-29T10:23:28Z</time>
      </trkpt>
      <trkpt lat="46.02929" lon="6.57497">
        <ele>1292.63</ele>
        <time>2019-01-29T10:23:29Z</time>
      </trkpt>
      <trkpt lat="46.02929" lon="6.57496">
        <ele>1292.63</ele>
        <time>2019-01-29T10:23:30Z</time>
      </trkpt>
      <trkpt lat="46.02927" lon="6.57496">
        <ele>1304.17</ele>
        <time>2019-01-29T10:23:33Z</time>
      </trkpt>
      <trkpt lat="46.02927" lon="6.57495">
        <ele>1304.17</ele>
        <time>2019-01-29T10:23:34Z</time>
      </trkpt>
      <trkpt lat="46.02923" lon="6.57496">
        <ele>1304.17</ele>
        <time>2019-01-29T10:23:36Z</time>
      </trkpt>
      <trkpt lat="46.02902" lon="6.57502">
        <ele>1307.53</ele>
        <time>2019-01-29T10:23:59Z</time>
      </trkpt>
      <trkpt lat="46.02882" lon="6.57512">
        <ele>1310.41</ele>
        <time>2019-01-29T10:24:16Z</time>
      </trkpt>
      <trkpt lat="46.02877" lon="6.57515">
        <ele>1311.38</ele>
        <time>2019-01-29T10:24:20Z</time>
      </trkpt>
      <trkpt lat="46.02877" lon="6.57516">
        <ele>1311.38</ele>
        <time>2019-01-29T10:24:21Z</time>
      </trkpt>
      <trkpt lat="46.02876" lon="6.57517">
        <ele>1311.38</ele>
        <time>2019-01-29T10:24:22Z</time>
      </trkpt>
      <trkpt lat="46.02876" lon="6.57518">
        <ele>1311.38</ele>
        <time>2019-01-29T10:24:23Z</time>
      </trkpt>
      <trkpt lat="46.02875" lon="6.57518">
        <ele>1311.86</ele>
        <time>2019-01-29T10:24:24Z</time>
      </trkpt>
      <trkpt lat="46.02875" lon="6.57519">
        <ele>1311.86</ele>
        <time>2019-01-29T10:24:25Z</time>
      </trkpt>
      <trkpt lat="46.02874" lon="6.5752">
        <ele>1311.86</ele>
        <time>2019-01-29T10:24:26Z</time>
      </trkpt>
      <trkpt lat="46.02873" lon="6.57521">
        <ele>1312.34</ele>
        <time>2019-01-29T10:24:27Z</time>
      </trkpt>
      <trkpt lat="46.02872" lon="6.57521">
        <ele>1312.34</ele>
        <time>2019-01-29T10:24:28Z</time>
      </trkpt>
      <trkpt lat="46.02871" lon="6.57522">
        <ele>1312.82</ele>
        <time>2019-01-29T10:24:29Z</time>
      </trkpt>
      <trkpt lat="46.02859" lon="6.57526">
        <ele>1314.74</ele>
        <time>2019-01-29T10:24:40Z</time>
      </trkpt>
      <trkpt lat="46.02857" lon="6.57527">
        <ele>1314.74</ele>
        <time>2019-01-29T10:24:41Z</time>
      </trkpt>
      <trkpt lat="46.02856" lon="6.57527">
        <ele>1314.74</ele>
        <time>2019-01-29T10:24:42Z</time>
      </trkpt>
      <trkpt lat="46.02851" lon="6.57529">
        <ele>1316.18</ele>
        <time>2019-01-29T10:24:48Z</time>
      </trkpt>
      <trkpt lat="46.0285" lon="6.57529">
        <ele>1316.18</ele>
        <time>2019-01-29T10:24:49Z</time>
      </trkpt>
      <trkpt lat="46.0283" lon="6.57533">
        <ele>1318.59</ele>
        <time>2019-01-29T10:25:05Z</time>
      </trkpt>
      <trkpt lat="46.0281" lon="6.57539">
        <ele>1320.51</ele>
        <time>2019-01-29T10:25:20Z</time>
      </trkpt>
      <trkpt lat="46.02795" lon="6.57547">
        <ele>1323.39</ele>
        <time>2019-01-29T10:25:36Z</time>
      </trkpt>
      <trkpt lat="46.02784" lon="6.57556">
        <ele>1326.28</ele>
        <time>2019-01-29T10:25:49Z</time>
      </trkpt>
      <trkpt lat="46.02767" lon="6.57566">
        <ele>1329.16</ele>
        <time>2019-01-29T10:26:05Z</time>
      </trkpt>
      <trkpt lat="46.02752" lon="6.5758">
        <ele>1332.52</ele>
        <time>2019-01-29T10:26:22Z</time>
      </trkpt>
      <trkpt lat="46.02737" lon="6.5759">
        <ele>1335.41</ele>
        <time>2019-01-29T10:26:37Z</time>
      </trkpt>
      <trkpt lat="46.02722" lon="6.576">
        <ele>1338.77</ele>
        <time>2019-01-29T10:26:51Z</time>
      </trkpt>
      <trkpt lat="46.0271" lon="6.57608">
        <ele>1341.66</ele>
        <time>2019-01-29T10:27:05Z</time>
      </trkpt>
      <trkpt lat="46.02703" lon="6.57614">
        <ele>1343.58</ele>
        <time>2019-01-29T10:27:13Z</time>
      </trkpt>
      <trkpt lat="46.02703" lon="6.57614">
        <ele>1344.06</ele>
        <time>2019-01-29T10:27:14Z</time>
      </trkpt>
      <trkpt lat="46.02702" lon="6.57615">
        <ele>1344.06</ele>
        <time>2019-01-29T10:27:15Z</time>
      </trkpt>
      <trkpt lat="46.02692" lon="6.57621">
        <ele>1347.43</ele>
        <time>2019-01-29T10:27:27Z</time>
      </trkpt>
      <trkpt lat="46.02682" lon="6.57632">
        <ele>1350.31</ele>
        <time>2019-01-29T10:27:40Z</time>
      </trkpt>
      <trkpt lat="46.02678" lon="6.57635">
        <ele>1351.27</ele>
        <time>2019-01-29T10:27:44Z</time>
      </trkpt>
      <trkpt lat="46.02664" lon="6.57647">
        <ele>1354.15</ele>
        <time>2019-01-29T10:28:00Z</time>
      </trkpt>
      <trkpt lat="46.02655" lon="6.57654">
        <ele>1355.6</ele>
        <time>2019-01-29T10:28:08Z</time>
      </trkpt>
      <trkpt lat="46.02654" lon="6.57655">
        <ele>1356.08</ele>
        <time>2019-01-29T10:28:09Z</time>
      </trkpt>
      <trkpt lat="46.02653" lon="6.57656">
        <ele>1356.08</ele>
        <time>2019-01-29T10:28:10Z</time>
      </trkpt>
      <trkpt lat="46.02653" lon="6.57658">
        <ele>1356.56</ele>
        <time>2019-01-29T10:28:11Z</time>
      </trkpt>
      <trkpt lat="46.02651" lon="6.57659">
        <ele>1356.56</ele>
        <time>2019-01-29T10:28:12Z</time>
      </trkpt>
      <trkpt lat="46.02651" lon="6.5766">
        <ele>1357.04</ele>
        <time>2019-01-29T10:28:13Z</time>
      </trkpt>
      <trkpt lat="46.02642" lon="6.57668">
        <ele>1359.92</ele>
        <time>2019-01-29T10:28:26Z</time>
      </trkpt>
      <trkpt lat="46.02636" lon="6.57677">
        <ele>1362.81</ele>
        <time>2019-01-29T10:28:38Z</time>
      </trkpt>
      <trkpt lat="46.02635" lon="6.57678">
        <ele>1363.29</ele>
        <time>2019-01-29T10:28:39Z</time>
      </trkpt>
      <trkpt lat="46.02627" lon="6.57687">
        <ele>1366.17</ele>
        <time>2019-01-29T10:28:52Z</time>
      </trkpt>
      <trkpt lat="46.02619" lon="6.57697">
        <ele>1369.54</ele>
        <time>2019-01-29T10:29:04Z</time>
      </trkpt>
      <trkpt lat="46.02606" lon="6.57703">
        <ele>1372.42</ele>
        <time>2019-01-29T10:29:17Z</time>
      </trkpt>
      <trkpt lat="46.02597" lon="6.57698">
        <ele>1375.78</ele>
        <time>2019-01-29T10:29:29Z</time>
      </trkpt>
      <trkpt lat="46.02587" lon="6.57691">
        <ele>1378.67</ele>
        <time>2019-01-29T10:29:41Z</time>
      </trkpt>
      <trkpt lat="46.02584" lon="6.5769">
        <ele>1380.11</ele>
        <time>2019-01-29T10:29:45Z</time>
      </trkpt>
      <trkpt lat="46.02578" lon="6.577">
        <ele>1382.99</ele>
        <time>2019-01-29T10:29:58Z</time>
      </trkpt>
      <trkpt lat="46.02577" lon="6.5771">
        <ele>1385.4</ele>
        <time>2019-01-29T10:30:08Z</time>
      </trkpt>
      <trkpt lat="46.02575" lon="6.5772">
        <ele>1388.76</ele>
        <time>2019-01-29T10:30:21Z</time>
      </trkpt>
      <trkpt lat="46.02574" lon="6.57722">
        <ele>1388.76</ele>
        <time>2019-01-29T10:30:22Z</time>
      </trkpt>
      <trkpt lat="46.0257" lon="6.57735">
        <ele>1392.13</ele>
        <time>2019-01-29T10:30:36Z</time>
      </trkpt>
      <trkpt lat="46.02568" lon="6.57748">
        <ele>1395.01</ele>
        <time>2019-01-29T10:30:48Z</time>
      </trkpt>
      <trkpt lat="46.02559" lon="6.5775">
        <ele>1397.41</ele>
        <time>2019-01-29T10:30:58Z</time>
      </trkpt>
      <trkpt lat="46.02548" lon="6.57738">
        <ele>1400.78</ele>
        <time>2019-01-29T10:31:13Z</time>
      </trkpt>
      <trkpt lat="46.02541" lon="6.57732">
        <ele>1403.18</ele>
        <time>2019-01-29T10:31:22Z</time>
      </trkpt>
      <trkpt lat="46.0254" lon="6.57731">
        <ele>1403.18</ele>
        <time>2019-01-29T10:31:23Z</time>
      </trkpt>
      <trkpt lat="46.02539" lon="6.57731">
        <ele>1403.66</ele>
        <time>2019-01-29T10:31:25Z</time>
      </trkpt>
      <trkpt lat="46.02538" lon="6.57731">
        <ele>1403.66</ele>
        <time>2019-01-29T10:31:26Z</time>
      </trkpt>
      <trkpt lat="46.02534" lon="6.5773">
        <ele>1404.62</ele>
        <time>2019-01-29T10:31:30Z</time>
      </trkpt>
      <trkpt lat="46.02529" lon="6.57729">
        <ele>1406.07</ele>
        <time>2019-01-29T10:31:36Z</time>
      </trkpt>
      <trkpt lat="46.02528" lon="6.57729">
        <ele>1406.55</ele>
        <time>2019-01-29T10:31:37Z</time>
      </trkpt>
      <trkpt lat="46.02526" lon="6.5773">
        <ele>1407.03</ele>
        <time>2019-01-29T10:31:40Z</time>
      </trkpt>
      <trkpt lat="46.02527" lon="6.57739">
        <ele>1409.43</ele>
        <time>2019-01-29T10:31:49Z</time>
      </trkpt>
      <trkpt lat="46.02527" lon="6.57754">
        <ele>1412.79</ele>
        <time>2019-01-29T10:32:02Z</time>
      </trkpt>
      <trkpt lat="46.02526" lon="6.57763">
        <ele>1414.24</ele>
        <time>2019-01-29T10:32:10Z</time>
      </trkpt>
      <trkpt lat="46.02526" lon="6.57764">
        <ele>1414.72</ele>
        <time>2019-01-29T10:32:11Z</time>
      </trkpt>
      <trkpt lat="46.02526" lon="6.57765">
        <ele>1414.72</ele>
        <time>2019-01-29T10:32:12Z</time>
      </trkpt>
      <trkpt lat="46.02526" lon="6.57776">
        <ele>1417.12</ele>
        <time>2019-01-29T10:32:22Z</time>
      </trkpt>
      <trkpt lat="46.02526" lon="6.57781">
        <ele>1418.08</ele>
        <time>2019-01-29T10:32:26Z</time>
      </trkpt>
      <trkpt lat="46.02517" lon="6.57784">
        <ele>1420.49</ele>
        <time>2019-01-29T10:32:36Z</time>
      </trkpt>
      <trkpt lat="46.02511" lon="6.57781">
        <ele>1422.41</ele>
        <time>2019-01-29T10:32:44Z</time>
      </trkpt>
      <trkpt lat="46.02509" lon="6.5778">
        <ele>1422.89</ele>
        <time>2019-01-29T10:32:46Z</time>
      </trkpt>
      <trkpt lat="46.02499" lon="6.57775">
        <ele>1425.77</ele>
        <time>2019-01-29T10:32:59Z</time>
      </trkpt>
      <trkpt lat="46.02489" lon="6.5777">
        <ele>1429.14</ele>
        <time>2019-01-29T10:33:13Z</time>
      </trkpt>
      <trkpt lat="46.02484" lon="6.57773">
        <ele>1430.58</ele>
        <time>2019-01-29T10:33:20Z</time>
      </trkpt>
      <trkpt lat="46.02487" lon="6.5778">
        <ele>1432.5</ele>
        <time>2019-01-29T10:33:27Z</time>
      </trkpt>
      <trkpt lat="46.02487" lon="6.5779">
        <ele>1434.42</ele>
        <time>2019-01-29T10:33:36Z</time>
      </trkpt>
      <trkpt lat="46.02488" lon="6.57794">
        <ele>1434.91</ele>
        <time>2019-01-29T10:33:40Z</time>
      </trkpt>
      <trkpt lat="46.02487" lon="6.57796">
        <ele>1435.39</ele>
        <time>2019-01-29T10:33:41Z</time>
      </trkpt>
      <trkpt lat="46.02483" lon="6.57808">
        <ele>1438.27</ele>
        <time>2019-01-29T10:33:56Z</time>
      </trkpt>
      <trkpt lat="46.02481" lon="6.57807">
        <ele>1438.75</ele>
        <time>2019-01-29T10:33:58Z</time>
      </trkpt>
      <trkpt lat="46.02476" lon="6.57803">
        <ele>1440.19</ele>
        <time>2019-01-29T10:34:05Z</time>
      </trkpt>
      <trkpt lat="46.02472" lon="6.578">
        <ele>1442.11</ele>
        <time>2019-01-29T10:34:12Z</time>
      </trkpt>
      <trkpt lat="46.02467" lon="6.57804">
        <ele>1445</ele>
        <time>2019-01-29T10:34:26Z</time>
      </trkpt>
      <trkpt lat="46.02468" lon="6.57818">
        <ele>1447.88</ele>
        <time>2019-01-29T10:34:39Z</time>
      </trkpt>
      <trkpt lat="46.02468" lon="6.5782">
        <ele>1448.36</ele>
        <time>2019-01-29T10:34:41Z</time>
      </trkpt>
      <trkpt lat="46.0247" lon="6.57829">
        <ele>1450.77</ele>
        <time>2019-01-29T10:34:50Z</time>
      </trkpt>
      <trkpt lat="46.0247" lon="6.57832">
        <ele>1451.25</ele>
        <time>2019-01-29T10:34:53Z</time>
      </trkpt>
      <trkpt lat="46.0247" lon="6.57833">
        <ele>1451.25</ele>
        <time>2019-01-29T10:34:54Z</time>
      </trkpt>
      <trkpt lat="46.0247" lon="6.57834">
        <ele>1451.73</ele>
        <time>2019-01-29T10:34:55Z</time>
      </trkpt>
      <trkpt lat="46.02469" lon="6.5785">
        <ele>1454.61</ele>
        <time>2019-01-29T10:35:09Z</time>
      </trkpt>
      <trkpt lat="46.02467" lon="6.57863">
        <ele>1457.98</ele>
        <time>2019-01-29T10:35:22Z</time>
      </trkpt>
      <trkpt lat="46.0246" lon="6.57865">
        <ele>1460.38</ele>
        <time>2019-01-29T10:35:30Z</time>
      </trkpt>
      <trkpt lat="46.02451" lon="6.57855">
        <ele>1463.26</ele>
        <time>2019-01-29T10:35:45Z</time>
      </trkpt>
      <trkpt lat="46.02444" lon="6.5785">
        <ele>1466.15</ele>
        <time>2019-01-29T10:35:58Z</time>
      </trkpt>
      <trkpt lat="46.02435" lon="6.57845">
        <ele>1469.51</ele>
        <time>2019-01-29T10:36:11Z</time>
      </trkpt>
      <trkpt lat="46.02426" lon="6.57843">
        <ele>1472.4</ele>
        <time>2019-01-29T10:36:24Z</time>
      </trkpt>
      <trkpt lat="46.02417" lon="6.57837">
        <ele>1475.28</ele>
        <time>2019-01-29T10:36:38Z</time>
      </trkpt>
      <trkpt lat="46.02409" lon="6.57833">
        <ele>1478.16</ele>
        <time>2019-01-29T10:36:52Z</time>
      </trkpt>
      <trkpt lat="46.02405" lon="6.57833">
        <ele>1479.61</ele>
        <time>2019-01-29T10:36:56Z</time>
      </trkpt>
      <trkpt lat="46.02396" lon="6.57833">
        <ele>1482.97</ele>
        <time>2019-01-29T10:37:10Z</time>
      </trkpt>
      <trkpt lat="46.02394" lon="6.57833">
        <ele>1483.45</ele>
        <time>2019-01-29T10:37:12Z</time>
      </trkpt>
      <trkpt lat="46.02391" lon="6.57833">
        <ele>1483.93</ele>
        <time>2019-01-29T10:37:16Z</time>
      </trkpt>
      <trkpt lat="46.02394" lon="6.57839">
        <ele>1486.34</ele>
        <time>2019-01-29T10:37:24Z</time>
      </trkpt>
      <trkpt lat="46.02395" lon="6.57853">
        <ele>1489.22</ele>
        <time>2019-01-29T10:37:37Z</time>
      </trkpt>
      <trkpt lat="46.02397" lon="6.57869">
        <ele>1492.1</ele>
        <time>2019-01-29T10:37:52Z</time>
      </trkpt>
      <trkpt lat="46.02398" lon="6.57885">
        <ele>1494.99</ele>
        <time>2019-01-29T10:38:08Z</time>
      </trkpt>
      <trkpt lat="46.024" lon="6.57898">
        <ele>1498.35</ele>
        <time>2019-01-29T10:38:22Z</time>
      </trkpt>
      <trkpt lat="46.02399" lon="6.57902">
        <ele>1498.83</ele>
        <time>2019-01-29T10:38:25Z</time>
      </trkpt>
      <trkpt lat="46.024" lon="6.57908">
        <ele>1500.27</ele>
        <time>2019-01-29T10:38:31Z</time>
      </trkpt>
      <trkpt lat="46.02399" lon="6.5792">
        <ele>1503.64</ele>
        <time>2019-01-29T10:38:45Z</time>
      </trkpt>
      <trkpt lat="46.02395" lon="6.57918">
        <ele>1504.12</ele>
        <time>2019-01-29T10:38:50Z</time>
      </trkpt>
      <trkpt lat="46.02388" lon="6.5791">
        <ele>1507.48</ele>
        <time>2019-01-29T10:39:04Z</time>
      </trkpt>
      <trkpt lat="46.0238" lon="6.57903">
        <ele>1510.85</ele>
        <time>2019-01-29T10:39:19Z</time>
      </trkpt>
      <trkpt lat="46.02375" lon="6.579">
        <ele>1513.73</ele>
        <time>2019-01-29T10:39:31Z</time>
      </trkpt>
      <trkpt lat="46.02365" lon="6.57894">
        <ele>1516.62</ele>
        <time>2019-01-29T10:39:46Z</time>
      </trkpt>
      <trkpt lat="46.0236" lon="6.57894">
        <ele>1519.98</ele>
        <time>2019-01-29T10:40:01Z</time>
      </trkpt>
      <trkpt lat="46.02362" lon="6.579">
        <ele>1521.42</ele>
        <time>2019-01-29T10:40:06Z</time>
      </trkpt>
      <trkpt lat="46.02361" lon="6.57902">
        <ele>1521.42</ele>
        <time>2019-01-29T10:40:08Z</time>
      </trkpt>
      <trkpt lat="46.02366" lon="6.5792">
        <ele>1524.79</ele>
        <time>2019-01-29T10:40:24Z</time>
      </trkpt>
      <trkpt lat="46.02366" lon="6.57922">
        <ele>1524.79</ele>
        <time>2019-01-29T10:40:26Z</time>
      </trkpt>
      <trkpt lat="46.02369" lon="6.57942">
        <ele>1528.15</ele>
        <time>2019-01-29T10:40:43Z</time>
      </trkpt>
      <trkpt lat="46.02372" lon="6.57963">
        <ele>1531.04</ele>
        <time>2019-01-29T10:40:59Z</time>
      </trkpt>
      <trkpt lat="46.0237" lon="6.57973">
        <ele>1533.44</ele>
        <time>2019-01-29T10:41:08Z</time>
      </trkpt>
      <trkpt lat="46.0237" lon="6.57975">
        <ele>1533.92</ele>
        <time>2019-01-29T10:41:10Z</time>
      </trkpt>
      <trkpt lat="46.02366" lon="6.57991">
        <ele>1536.8</ele>
        <time>2019-01-29T10:41:25Z</time>
      </trkpt>
      <trkpt lat="46.02363" lon="6.58009">
        <ele>1540.17</ele>
        <time>2019-01-29T10:41:41Z</time>
      </trkpt>
      <trkpt lat="46.02363" lon="6.5802">
        <ele>1542.57</ele>
        <time>2019-01-29T10:41:52Z</time>
      </trkpt>
      <trkpt lat="46.02362" lon="6.58024">
        <ele>1543.05</ele>
        <time>2019-01-29T10:41:55Z</time>
      </trkpt>
      <trkpt lat="46.02361" lon="6.58041">
        <ele>1546.42</ele>
        <time>2019-01-29T10:42:10Z</time>
      </trkpt>
      <trkpt lat="46.02358" lon="6.58055">
        <ele>1549.3</ele>
        <time>2019-01-29T10:42:24Z</time>
      </trkpt>
      <trkpt lat="46.02353" lon="6.58072">
        <ele>1552.67</ele>
        <time>2019-01-29T10:42:39Z</time>
      </trkpt>
      <trkpt lat="46.02345" lon="6.58076">
        <ele>1554.59</ele>
        <time>2019-01-29T10:42:49Z</time>
      </trkpt>
      <trkpt lat="46.02345" lon="6.58075">
        <ele>1554.59</ele>
        <time>2019-01-29T10:42:50Z</time>
      </trkpt>
      <trkpt lat="46.02334" lon="6.5805">
        <ele>1557.95</ele>
        <time>2019-01-29T10:43:10Z</time>
      </trkpt>
      <trkpt lat="46.02334" lon="6.58049">
        <ele>1557.95</ele>
        <time>2019-01-29T10:43:11Z</time>
      </trkpt>
      <trkpt lat="46.02333" lon="6.58047">
        <ele>1558.43</ele>
        <time>2019-01-29T10:43:12Z</time>
      </trkpt>
      <trkpt lat="46.02333" lon="6.58045">
        <ele>1558.43</ele>
        <time>2019-01-29T10:43:13Z</time>
      </trkpt>
      <trkpt lat="46.02333" lon="6.58044">
        <ele>1558.43</ele>
        <time>2019-01-29T10:43:14Z</time>
      </trkpt>
      <trkpt lat="46.02333" lon="6.58042">
        <ele>1558.92</ele>
        <time>2019-01-29T10:43:15Z</time>
      </trkpt>
      <trkpt lat="46.02332" lon="6.58041">
        <ele>1558.92</ele>
        <time>2019-01-29T10:43:16Z</time>
      </trkpt>
      <trkpt lat="46.02332" lon="6.5804">
        <ele>1558.92</ele>
        <time>2019-01-29T10:43:17Z</time>
      </trkpt>
      <trkpt lat="46.02332" lon="6.58038">
        <ele>1559.4</ele>
        <time>2019-01-29T10:43:18Z</time>
      </trkpt>
      <trkpt lat="46.0233" lon="6.58031">
        <ele>1560.36</ele>
        <time>2019-01-29T10:43:24Z</time>
      </trkpt>
      <trkpt lat="46.02325" lon="6.58021">
        <ele>1561.32</ele>
        <time>2019-01-29T10:43:31Z</time>
      </trkpt>
      <trkpt lat="46.02324" lon="6.5802">
        <ele>1561.32</ele>
        <time>2019-01-29T10:43:32Z</time>
      </trkpt>
      <trkpt lat="46.02323" lon="6.58019">
        <ele>1561.8</ele>
        <time>2019-01-29T10:43:33Z</time>
      </trkpt>
      <trkpt lat="46.02318" lon="6.58011">
        <ele>1562.76</ele>
        <time>2019-01-29T10:43:40Z</time>
      </trkpt>
      <trkpt lat="46.02317" lon="6.58011">
        <ele>1563.24</ele>
        <time>2019-01-29T10:43:41Z</time>
      </trkpt>
      <trkpt lat="46.02316" lon="6.5801">
        <ele>1563.24</ele>
        <time>2019-01-29T10:43:42Z</time>
      </trkpt>
      <trkpt lat="46.02313" lon="6.58007">
        <ele>1563.72</ele>
        <time>2019-01-29T10:43:45Z</time>
      </trkpt>
      <trkpt lat="46.02312" lon="6.58005">
        <ele>1564.2</ele>
        <time>2019-01-29T10:43:47Z</time>
      </trkpt>
      <trkpt lat="46.02311" lon="6.58004">
        <ele>1564.2</ele>
        <time>2019-01-29T10:43:48Z</time>
      </trkpt>
      <trkpt lat="46.0231" lon="6.58001">
        <ele>1564.68</ele>
        <time>2019-01-29T10:43:51Z</time>
      </trkpt>
      <trkpt lat="46.0231" lon="6.58">
        <ele>1565.16</ele>
        <time>2019-01-29T10:43:52Z</time>
      </trkpt>
      <trkpt lat="46.02309" lon="6.57998">
        <ele>1565.16</ele>
        <time>2019-01-29T10:43:53Z</time>
      </trkpt>
      <trkpt lat="46.02308" lon="6.57997">
        <ele>1565.16</ele>
        <time>2019-01-29T10:43:54Z</time>
      </trkpt>
      <trkpt lat="46.02307" lon="6.57996">
        <ele>1565.16</ele>
        <time>2019-01-29T10:43:55Z</time>
      </trkpt>
      <trkpt lat="46.02303" lon="6.57989">
        <ele>1567.09</ele>
        <time>2019-01-29T10:44:03Z</time>
      </trkpt>
      <trkpt lat="46.02302" lon="6.57988">
        <ele>1567.57</ele>
        <time>2019-01-29T10:44:04Z</time>
      </trkpt>
      <trkpt lat="46.02302" lon="6.57987">
        <ele>1567.57</ele>
        <time>2019-01-29T10:44:05Z</time>
      </trkpt>
      <trkpt lat="46.02301" lon="6.57986">
        <ele>1567.57</ele>
        <time>2019-01-29T10:44:06Z</time>
      </trkpt>
      <trkpt lat="46.02301" lon="6.57985">
        <ele>1568.05</ele>
        <time>2019-01-29T10:44:07Z</time>
      </trkpt>
      <trkpt lat="46.023" lon="6.57984">
        <ele>1568.05</ele>
        <time>2019-01-29T10:44:08Z</time>
      </trkpt>
      <trkpt lat="46.02299" lon="6.57983">
        <ele>1568.53</ele>
        <time>2019-01-29T10:44:09Z</time>
      </trkpt>
      <trkpt lat="46.02299" lon="6.57982">
        <ele>1569.01</ele>
        <time>2019-01-29T10:44:10Z</time>
      </trkpt>
      <trkpt lat="46.02299" lon="6.5798">
        <ele>1569.01</ele>
        <time>2019-01-29T10:44:11Z</time>
      </trkpt>
      <trkpt lat="46.02298" lon="6.57979">
        <ele>1569.01</ele>
        <time>2019-01-29T10:44:12Z</time>
      </trkpt>
      <trkpt lat="46.02297" lon="6.57978">
        <ele>1569.01</ele>
        <time>2019-01-29T10:44:13Z</time>
      </trkpt>
      <trkpt lat="46.02296" lon="6.57977">
        <ele>1569.49</ele>
        <time>2019-01-29T10:44:14Z</time>
      </trkpt>
      <trkpt lat="46.02291" lon="6.57973">
        <ele>1570.93</ele>
        <time>2019-01-29T10:44:20Z</time>
      </trkpt>
      <trkpt lat="46.02291" lon="6.57972">
        <ele>1571.41</ele>
        <time>2019-01-29T10:44:21Z</time>
      </trkpt>
      <trkpt lat="46.0229" lon="6.57971">
        <ele>1571.41</ele>
        <time>2019-01-29T10:44:22Z</time>
      </trkpt>
      <trkpt lat="46.02289" lon="6.5797">
        <ele>1571.41</ele>
        <time>2019-01-29T10:44:23Z</time>
      </trkpt>
      <trkpt lat="46.02289" lon="6.5797">
        <ele>1571.41</ele>
        <time>2019-01-29T10:44:24Z</time>
      </trkpt>
      <trkpt lat="46.02288" lon="6.57969">
        <ele>1571.89</ele>
        <time>2019-01-29T10:44:25Z</time>
      </trkpt>
      <trkpt lat="46.02288" lon="6.57968">
        <ele>1571.89</ele>
        <time>2019-01-29T10:44:26Z</time>
      </trkpt>
      <trkpt lat="46.02288" lon="6.57967">
        <ele>1571.89</ele>
        <time>2019-01-29T10:44:27Z</time>
      </trkpt>
      <trkpt lat="46.02286" lon="6.57966">
        <ele>1571.89</ele>
        <time>2019-01-29T10:44:28Z</time>
      </trkpt>
      <trkpt lat="46.02284" lon="6.57966">
        <ele>1572.37</ele>
        <time>2019-01-29T10:44:29Z</time>
      </trkpt>
      <trkpt lat="46.02283" lon="6.57966">
        <ele>1572.37</ele>
        <time>2019-01-29T10:44:30Z</time>
      </trkpt>
      <trkpt lat="46.02283" lon="6.57965">
        <ele>1572.37</ele>
        <time>2019-01-29T10:44:31Z</time>
      </trkpt>
      <trkpt lat="46.02282" lon="6.57964">
        <ele>1572.37</ele>
        <time>2019-01-29T10:44:32Z</time>
      </trkpt>
      <trkpt lat="46.02282" lon="6.57962">
        <ele>1572.37</ele>
        <time>2019-01-29T10:44:33Z</time>
      </trkpt>
      <trkpt lat="46.02281" lon="6.57961">
        <ele>1572.85</ele>
        <time>2019-01-29T10:44:34Z</time>
      </trkpt>
      <trkpt lat="46.0228" lon="6.57961">
        <ele>1572.85</ele>
        <time>2019-01-29T10:44:35Z</time>
      </trkpt>
      <trkpt lat="46.02264" lon="6.57949">
        <ele>1576.22</ele>
        <time>2019-01-29T10:44:52Z</time>
      </trkpt>
      <trkpt lat="46.02258" lon="6.57942">
        <ele>1577.66</ele>
        <time>2019-01-29T10:45:01Z</time>
      </trkpt>
      <trkpt lat="46.02257" lon="6.57941">
        <ele>1578.14</ele>
        <time>2019-01-29T10:45:02Z</time>
      </trkpt>
      <trkpt lat="46.02256" lon="6.57941">
        <ele>1578.14</ele>
        <time>2019-01-29T10:45:03Z</time>
      </trkpt>
      <trkpt lat="46.02255" lon="6.5794">
        <ele>1578.62</ele>
        <time>2019-01-29T10:45:04Z</time>
      </trkpt>
      <trkpt lat="46.02253" lon="6.57938">
        <ele>1579.1</ele>
        <time>2019-01-29T10:45:07Z</time>
      </trkpt>
      <trkpt lat="46.02253" lon="6.57937">
        <ele>1579.1</ele>
        <time>2019-01-29T10:45:08Z</time>
      </trkpt>
      <trkpt lat="46.02252" lon="6.57936">
        <ele>1579.58</ele>
        <time>2019-01-29T10:45:09Z</time>
      </trkpt>
      <trkpt lat="46.0225" lon="6.57934">
        <ele>1580.06</ele>
        <time>2019-01-29T10:45:11Z</time>
      </trkpt>
      <trkpt lat="46.0225" lon="6.57934">
        <ele>1580.06</ele>
        <time>2019-01-29T10:45:12Z</time>
      </trkpt>
      <trkpt lat="46.02247" lon="6.57929">
        <ele>1581.99</ele>
        <time>2019-01-29T10:45:20Z</time>
      </trkpt>
      <trkpt lat="46.02246" lon="6.57928">
        <ele>1581.99</ele>
        <time>2019-01-29T10:45:21Z</time>
      </trkpt>
      <trkpt lat="46.0224" lon="6.57924">
        <ele>1583.43</ele>
        <time>2019-01-29T10:45:28Z</time>
      </trkpt>
      <trkpt lat="46.0224" lon="6.57924">
        <ele>1583.91</ele>
        <time>2019-01-29T10:45:29Z</time>
      </trkpt>
      <trkpt lat="46.02236" lon="6.57925">
        <ele>1585.35</ele>
        <time>2019-01-29T10:45:34Z</time>
      </trkpt>
      <trkpt lat="46.02236" lon="6.57927">
        <ele>1585.83</ele>
        <time>2019-01-29T10:45:36Z</time>
      </trkpt>
      <trkpt lat="46.02236" lon="6.57928">
        <ele>1585.83</ele>
        <time>2019-01-29T10:45:38Z</time>
      </trkpt>
      <trkpt lat="46.02238" lon="6.57929">
        <ele>1586.31</ele>
        <time>2019-01-29T10:45:39Z</time>
      </trkpt>
      <trkpt lat="46.02238" lon="6.57932">
        <ele>1586.31</ele>
        <time>2019-01-29T10:45:41Z</time>
      </trkpt>
      <trkpt lat="46.02239" lon="6.57935">
        <ele>1586.79</ele>
        <time>2019-01-29T10:45:43Z</time>
      </trkpt>
      <trkpt lat="46.02245" lon="6.57947">
        <ele>1588.24</ele>
        <time>2019-01-29T10:45:54Z</time>
      </trkpt>
      <trkpt lat="46.02246" lon="6.57948">
        <ele>1588.24</ele>
        <time>2019-01-29T10:45:55Z</time>
      </trkpt>
      <trkpt lat="46.02249" lon="6.57955">
        <ele>1589.2</ele>
        <time>2019-01-29T10:46:01Z</time>
      </trkpt>
      <trkpt lat="46.0225" lon="6.57957">
        <ele>1589.2</ele>
        <time>2019-01-29T10:46:02Z</time>
      </trkpt>
      <trkpt lat="46.0225" lon="6.57958">
        <ele>1589.68</ele>
        <time>2019-01-29T10:46:03Z</time>
      </trkpt>
      <trkpt lat="46.02251" lon="6.57963">
        <ele>1590.64</ele>
        <time>2019-01-29T10:46:06Z</time>
      </trkpt>
      <trkpt lat="46.02252" lon="6.57965">
        <ele>1590.64</ele>
        <time>2019-01-29T10:46:08Z</time>
      </trkpt>
      <trkpt lat="46.02251" lon="6.5797">
        <ele>1592.08</ele>
        <time>2019-01-29T10:46:15Z</time>
      </trkpt>
      <trkpt lat="46.0225" lon="6.57969">
        <ele>1592.56</ele>
        <time>2019-01-29T10:46:17Z</time>
      </trkpt>
      <trkpt lat="46.02249" lon="6.57968">
        <ele>1593.04</ele>
        <time>2019-01-29T10:46:19Z</time>
      </trkpt>
      <trkpt lat="46.02247" lon="6.57966">
        <ele>1594.48</ele>
        <time>2019-01-29T10:46:24Z</time>
      </trkpt>
      <trkpt lat="46.02245" lon="6.57966">
        <ele>1594.96</ele>
        <time>2019-01-29T10:46:25Z</time>
      </trkpt>
      <trkpt lat="46.02244" lon="6.57966">
        <ele>1594.96</ele>
        <time>2019-01-29T10:46:26Z</time>
      </trkpt>
      <trkpt lat="46.02243" lon="6.57965">
        <ele>1594.96</ele>
        <time>2019-01-29T10:46:27Z</time>
      </trkpt>
      <trkpt lat="46.02243" lon="6.57964">
        <ele>1595.45</ele>
        <time>2019-01-29T10:46:28Z</time>
      </trkpt>
      <trkpt lat="46.02243" lon="6.57964">
        <ele>1595.45</ele>
        <time>2019-01-29T10:46:29Z</time>
      </trkpt>
      <trkpt lat="46.02239" lon="6.57963">
        <ele>1597.37</ele>
        <time>2019-01-29T10:46:37Z</time>
      </trkpt>
      <trkpt lat="46.02238" lon="6.57963">
        <ele>1597.85</ele>
        <time>2019-01-29T10:46:38Z</time>
      </trkpt>
      <trkpt lat="46.0223" lon="6.5796">
        <ele>1601.21</ele>
        <time>2019-01-29T10:46:50Z</time>
      </trkpt>
      <trkpt lat="46.02225" lon="6.57958">
        <ele>1602.17</ele>
        <time>2019-01-29T10:46:56Z</time>
      </trkpt>
      <trkpt lat="46.02223" lon="6.57958">
        <ele>1602.17</ele>
        <time>2019-01-29T10:46:57Z</time>
      </trkpt>
      <trkpt lat="46.02222" lon="6.57957">
        <ele>1602.66</ele>
        <time>2019-01-29T10:46:58Z</time>
      </trkpt>
      <trkpt lat="46.02221" lon="6.57957">
        <ele>1603.14</ele>
        <time>2019-01-29T10:46:59Z</time>
      </trkpt>
      <trkpt lat="46.0222" lon="6.57958">
        <ele>1603.14</ele>
        <time>2019-01-29T10:47:00Z</time>
      </trkpt>
      <trkpt lat="46.02218" lon="6.57958">
        <ele>1603.62</ele>
        <time>2019-01-29T10:47:01Z</time>
      </trkpt>
      <trkpt lat="46.02217" lon="6.57958">
        <ele>1603.62</ele>
        <time>2019-01-29T10:47:02Z</time>
      </trkpt>
      <trkpt lat="46.02216" lon="6.57959">
        <ele>1604.1</ele>
        <time>2019-01-29T10:47:03Z</time>
      </trkpt>
      <trkpt lat="46.02213" lon="6.57959">
        <ele>1605.06</ele>
        <time>2019-01-29T10:47:07Z</time>
      </trkpt>
      <trkpt lat="46.02211" lon="6.57956">
        <ele>1606.02</ele>
        <time>2019-01-29T10:47:11Z</time>
      </trkpt>
      <trkpt lat="46.02211" lon="6.57954">
        <ele>1606.5</ele>
        <time>2019-01-29T10:47:13Z</time>
      </trkpt>
      <trkpt lat="46.02208" lon="6.57952">
        <ele>1608.9</ele>
        <time>2019-01-29T10:47:25Z</time>
      </trkpt>
      <trkpt lat="46.02207" lon="6.57961">
        <ele>1611.79</ele>
        <time>2019-01-29T10:47:37Z</time>
      </trkpt>
      <trkpt lat="46.02205" lon="6.57964">
        <ele>1612.75</ele>
        <time>2019-01-29T10:47:41Z</time>
      </trkpt>
      <trkpt lat="46.02205" lon="6.57965">
        <ele>1613.23</ele>
        <time>2019-01-29T10:47:42Z</time>
      </trkpt>
      <trkpt lat="46.02205" lon="6.57966">
        <ele>1613.23</ele>
        <time>2019-01-29T10:47:43Z</time>
      </trkpt>
      <trkpt lat="46.02205" lon="6.57967">
        <ele>1613.71</ele>
        <time>2019-01-29T10:47:44Z</time>
      </trkpt>
      <trkpt lat="46.02204" lon="6.57966">
        <ele>1614.67</ele>
        <time>2019-01-29T10:47:49Z</time>
      </trkpt>
      <trkpt lat="46.02203" lon="6.57965">
        <ele>1614.67</ele>
        <time>2019-01-29T10:47:50Z</time>
      </trkpt>
      <trkpt lat="46.02202" lon="6.57964">
        <ele>1614.67</ele>
        <time>2019-01-29T10:47:51Z</time>
      </trkpt>
      <trkpt lat="46.02202" lon="6.57964">
        <ele>1614.67</ele>
        <time>2019-01-29T10:47:52Z</time>
      </trkpt>
      <trkpt lat="46.02202" lon="6.57963">
        <ele>1615.15</ele>
        <time>2019-01-29T10:47:53Z</time>
      </trkpt>
      <trkpt lat="46.022" lon="6.5796">
        <ele>1616.11</ele>
        <time>2019-01-29T10:47:57Z</time>
      </trkpt>
      <trkpt lat="46.02198" lon="6.57958">
        <ele>1618.04</ele>
        <time>2019-01-29T10:48:07Z</time>
      </trkpt>
      <trkpt lat="46.02198" lon="6.57961">
        <ele>1619</ele>
        <time>2019-01-29T10:48:10Z</time>
      </trkpt>
      <trkpt lat="46.02198" lon="6.57963">
        <ele>1619</ele>
        <time>2019-01-29T10:48:11Z</time>
      </trkpt>
      <trkpt lat="46.02198" lon="6.57964">
        <ele>1619</ele>
        <time>2019-01-29T10:48:12Z</time>
      </trkpt>
      <trkpt lat="46.02197" lon="6.57965">
        <ele>1619</ele>
        <time>2019-01-29T10:48:13Z</time>
      </trkpt>
      <trkpt lat="46.02196" lon="6.57968">
        <ele>1619.96</ele>
        <time>2019-01-29T10:48:15Z</time>
      </trkpt>
      <trkpt lat="46.02195" lon="6.57969">
        <ele>1620.44</ele>
        <time>2019-01-29T10:48:16Z</time>
      </trkpt>
      <trkpt lat="46.02188" lon="6.57968">
        <ele>1622.36</ele>
        <time>2019-01-29T10:48:27Z</time>
      </trkpt>
      <trkpt lat="46.02187" lon="6.57967">
        <ele>1622.36</ele>
        <time>2019-01-29T10:48:29Z</time>
      </trkpt>
      <trkpt lat="46.02187" lon="6.57966">
        <ele>1622.84</ele>
        <time>2019-01-29T10:48:30Z</time>
      </trkpt>
      <trkpt lat="46.02184" lon="6.5796">
        <ele>1626.21</ele>
        <time>2019-01-29T10:48:42Z</time>
      </trkpt>
      <trkpt lat="46.02179" lon="6.5796">
        <ele>1627.17</ele>
        <time>2019-01-29T10:48:47Z</time>
      </trkpt>
      <trkpt lat="46.02178" lon="6.5796">
        <ele>1627.65</ele>
        <time>2019-01-29T10:48:48Z</time>
      </trkpt>
      <trkpt lat="46.02177" lon="6.57961">
        <ele>1627.65</ele>
        <time>2019-01-29T10:48:49Z</time>
      </trkpt>
      <trkpt lat="46.02176" lon="6.57961">
        <ele>1628.13</ele>
        <time>2019-01-29T10:48:50Z</time>
      </trkpt>
      <trkpt lat="46.02174" lon="6.57962">
        <ele>1628.13</ele>
        <time>2019-01-29T10:48:51Z</time>
      </trkpt>
      <trkpt lat="46.02173" lon="6.57963">
        <ele>1629.09</ele>
        <time>2019-01-29T10:48:53Z</time>
      </trkpt>
      <trkpt lat="46.02173" lon="6.57964">
        <ele>1629.09</ele>
        <time>2019-01-29T10:48:54Z</time>
      </trkpt>
      <trkpt lat="46.02172" lon="6.57966">
        <ele>1629.57</ele>
        <time>2019-01-29T10:48:55Z</time>
      </trkpt>
      <trkpt lat="46.02172" lon="6.57967">
        <ele>1629.57</ele>
        <time>2019-01-29T10:48:57Z</time>
      </trkpt>
      <trkpt lat="46.02172" lon="6.57968">
        <ele>1630.53</ele>
        <time>2019-01-29T10:48:59Z</time>
      </trkpt>
      <trkpt lat="46.02173" lon="6.5797">
        <ele>1631.49</ele>
        <time>2019-01-29T10:49:03Z</time>
      </trkpt>
      <trkpt lat="46.02173" lon="6.57973">
        <ele>1631.98</ele>
        <time>2019-01-29T10:49:07Z</time>
      </trkpt>
      <trkpt lat="46.02174" lon="6.57975">
        <ele>1632.46</ele>
        <time>2019-01-29T10:49:10Z</time>
      </trkpt>
      <trkpt lat="46.02173" lon="6.57975">
        <ele>1632.94</ele>
        <time>2019-01-29T10:49:11Z</time>
      </trkpt>
      <trkpt lat="46.02172" lon="6.57976">
        <ele>1633.42</ele>
        <time>2019-01-29T10:49:13Z</time>
      </trkpt>
      <trkpt lat="46.02173" lon="6.57973">
        <ele>1634.38</ele>
        <time>2019-01-29T10:49:17Z</time>
      </trkpt>
      <trkpt lat="46.02173" lon="6.5797">
        <ele>1635.82</ele>
        <time>2019-01-29T10:49:23Z</time>
      </trkpt>
      <trkpt lat="46.02172" lon="6.57968">
        <ele>1636.78</ele>
        <time>2019-01-29T10:49:26Z</time>
      </trkpt>
      <trkpt lat="46.02172" lon="6.57968">
        <ele>1636.78</ele>
        <time>2019-01-29T10:49:27Z</time>
      </trkpt>
      <trkpt lat="46.02169" lon="6.57966">
        <ele>1637.74</ele>
        <time>2019-01-29T10:49:30Z</time>
      </trkpt>
      <trkpt lat="46.02168" lon="6.57966">
        <ele>1638.22</ele>
        <time>2019-01-29T10:49:31Z</time>
      </trkpt>
      <trkpt lat="46.02167" lon="6.57965">
        <ele>1638.22</ele>
        <time>2019-01-29T10:49:32Z</time>
      </trkpt>
      <trkpt lat="46.02169" lon="6.57963">
        <ele>1639.19</ele>
        <time>2019-01-29T10:49:36Z</time>
      </trkpt>
      <trkpt lat="46.02165" lon="6.57956">
        <ele>1640.63</ele>
        <time>2019-01-29T10:49:44Z</time>
      </trkpt>
      <trkpt lat="46.02164" lon="6.57955">
        <ele>1641.11</ele>
        <time>2019-01-29T10:49:45Z</time>
      </trkpt>
      <trkpt lat="46.02163" lon="6.57956">
        <ele>1641.11</ele>
        <time>2019-01-29T10:49:46Z</time>
      </trkpt>
      <trkpt lat="46.02161" lon="6.57955">
        <ele>1641.59</ele>
        <time>2019-01-29T10:49:48Z</time>
      </trkpt>
      <trkpt lat="46.02161" lon="6.57954">
        <ele>1641.59</ele>
        <time>2019-01-29T10:49:49Z</time>
      </trkpt>
      <trkpt lat="46.0216" lon="6.57953">
        <ele>1641.59</ele>
        <time>2019-01-29T10:49:50Z</time>
      </trkpt>
      <trkpt lat="46.02159" lon="6.57951">
        <ele>1643.03</ele>
        <time>2019-01-29T10:49:54Z</time>
      </trkpt>
      <trkpt lat="46.02159" lon="6.57951">
        <ele>1643.51</ele>
        <time>2019-01-29T10:49:55Z</time>
      </trkpt>
      <trkpt lat="46.02158" lon="6.5795">
        <ele>1643.99</ele>
        <time>2019-01-29T10:49:56Z</time>
      </trkpt>
      <trkpt lat="46.02155" lon="6.57947">
        <ele>1645.43</ele>
        <time>2019-01-29T10:50:02Z</time>
      </trkpt>
      <trkpt lat="46.02155" lon="6.57945">
        <ele>1645.43</ele>
        <time>2019-01-29T10:50:04Z</time>
      </trkpt>
      <trkpt lat="46.02154" lon="6.57942">
        <ele>1646.88</ele>
        <time>2019-01-29T10:50:08Z</time>
      </trkpt>
      <trkpt lat="46.02153" lon="6.57939">
        <ele>1648.8</ele>
        <time>2019-01-29T10:50:16Z</time>
      </trkpt>
      <trkpt lat="46.0215" lon="6.57938">
        <ele>1649.28</ele>
        <time>2019-01-29T10:50:18Z</time>
      </trkpt>
      <trkpt lat="46.02148" lon="6.57937">
        <ele>1650.24</ele>
        <time>2019-01-29T10:50:22Z</time>
      </trkpt>
      <trkpt lat="46.02147" lon="6.57936">
        <ele>1650.72</ele>
        <time>2019-01-29T10:50:24Z</time>
      </trkpt>
      <trkpt lat="46.02145" lon="6.57933">
        <ele>1653.12</ele>
        <time>2019-01-29T10:50:33Z</time>
      </trkpt>
      <trkpt lat="46.02144" lon="6.57932">
        <ele>1653.12</ele>
        <time>2019-01-29T10:50:34Z</time>
      </trkpt>
      <trkpt lat="46.02137" lon="6.57928">
        <ele>1656.49</ele>
        <time>2019-01-29T10:50:47Z</time>
      </trkpt>
      <trkpt lat="46.02136" lon="6.57928">
        <ele>1656.49</ele>
        <time>2019-01-29T10:50:48Z</time>
      </trkpt>
      <trkpt lat="46.02131" lon="6.57923">
        <ele>1657.93</ele>
        <time>2019-01-29T10:50:56Z</time>
      </trkpt>
      <trkpt lat="46.02131" lon="6.57922">
        <ele>1657.93</ele>
        <time>2019-01-29T10:50:57Z</time>
      </trkpt>
      <trkpt lat="46.02127" lon="6.57918">
        <ele>1661.3</ele>
        <time>2019-01-29T10:51:09Z</time>
      </trkpt>
      <trkpt lat="46.02125" lon="6.57916">
        <ele>1661.78</ele>
        <time>2019-01-29T10:51:13Z</time>
      </trkpt>
      <trkpt lat="46.02125" lon="6.57913">
        <ele>1663.22</ele>
        <time>2019-01-29T10:51:17Z</time>
      </trkpt>
      <trkpt lat="46.02124" lon="6.57913">
        <ele>1663.22</ele>
        <time>2019-01-29T10:51:18Z</time>
      </trkpt>
      <trkpt lat="46.02117" lon="6.57907">
        <ele>1666.58</ele>
        <time>2019-01-29T10:51:31Z</time>
      </trkpt>
      <trkpt lat="46.02113" lon="6.57906">
        <ele>1667.54</ele>
        <time>2019-01-29T10:51:36Z</time>
      </trkpt>
      <trkpt lat="46.02113" lon="6.57906">
        <ele>1668.02</ele>
        <time>2019-01-29T10:51:37Z</time>
      </trkpt>
      <trkpt lat="46.02113" lon="6.57906">
        <ele>1668.99</ele>
        <time>2019-01-29T10:51:42Z</time>
      </trkpt>
      <trkpt lat="46.02112" lon="6.57907">
        <ele>1669.47</ele>
        <time>2019-01-29T10:51:43Z</time>
      </trkpt>
      <trkpt lat="46.02112" lon="6.57912">
        <ele>1670.43</ele>
        <time>2019-01-29T10:51:48Z</time>
      </trkpt>
      <trkpt lat="46.02112" lon="6.57916">
        <ele>1671.39</ele>
        <time>2019-01-29T10:51:52Z</time>
      </trkpt>
      <trkpt lat="46.02111" lon="6.57917">
        <ele>1671.39</ele>
        <time>2019-01-29T10:51:54Z</time>
      </trkpt>
      <trkpt lat="46.02112" lon="6.5792">
        <ele>1671.39</ele>
        <time>2019-01-29T10:51:57Z</time>
      </trkpt>
      <trkpt lat="46.02112" lon="6.5792">
        <ele>1671.87</ele>
        <time>2019-01-29T10:51:58Z</time>
      </trkpt>
      <trkpt lat="46.02115" lon="6.57926">
        <ele>1673.79</ele>
        <time>2019-01-29T10:52:07Z</time>
      </trkpt>
      <trkpt lat="46.02115" lon="6.5793">
        <ele>1674.75</ele>
        <time>2019-01-29T10:52:11Z</time>
      </trkpt>
      <trkpt lat="46.02115" lon="6.57932">
        <ele>1675.23</ele>
        <time>2019-01-29T10:52:13Z</time>
      </trkpt>
      <trkpt lat="46.02115" lon="6.57933">
        <ele>1675.72</ele>
        <time>2019-01-29T10:52:14Z</time>
      </trkpt>
      <trkpt lat="46.02114" lon="6.57934">
        <ele>1675.72</ele>
        <time>2019-01-29T10:52:15Z</time>
      </trkpt>
      <trkpt lat="46.02113" lon="6.57937">
        <ele>1676.68</ele>
        <time>2019-01-29T10:52:19Z</time>
      </trkpt>
      <trkpt lat="46.02112" lon="6.57941">
        <ele>1677.64</ele>
        <time>2019-01-29T10:52:23Z</time>
      </trkpt>
      <trkpt lat="46.02111" lon="6.57944">
        <ele>1678.12</ele>
        <time>2019-01-29T10:52:25Z</time>
      </trkpt>
      <trkpt lat="46.02111" lon="6.57945">
        <ele>1678.6</ele>
        <time>2019-01-29T10:52:26Z</time>
      </trkpt>
      <trkpt lat="46.02109" lon="6.57946">
        <ele>1678.6</ele>
        <time>2019-01-29T10:52:27Z</time>
      </trkpt>
      <trkpt lat="46.02104" lon="6.57947">
        <ele>1679.56</ele>
        <time>2019-01-29T10:52:33Z</time>
      </trkpt>
      <trkpt lat="46.02103" lon="6.57943">
        <ele>1681.48</ele>
        <time>2019-01-29T10:52:39Z</time>
      </trkpt>
      <trkpt lat="46.02101" lon="6.57942">
        <ele>1681.96</ele>
        <time>2019-01-29T10:52:41Z</time>
      </trkpt>
      <trkpt lat="46.021" lon="6.57941">
        <ele>1681.96</ele>
        <time>2019-01-29T10:52:42Z</time>
      </trkpt>
      <trkpt lat="46.021" lon="6.57939">
        <ele>1682.93</ele>
        <time>2019-01-29T10:52:45Z</time>
      </trkpt>
      <trkpt lat="46.021" lon="6.57938">
        <ele>1683.41</ele>
        <time>2019-01-29T10:52:47Z</time>
      </trkpt>
      <trkpt lat="46.02099" lon="6.57937">
        <ele>1683.89</ele>
        <time>2019-01-29T10:52:49Z</time>
      </trkpt>
      <trkpt lat="46.021" lon="6.57939">
        <ele>1685.33</ele>
        <time>2019-01-29T10:52:55Z</time>
      </trkpt>
      <trkpt lat="46.02099" lon="6.57939">
        <ele>1685.33</ele>
        <time>2019-01-29T10:52:56Z</time>
      </trkpt>
      <trkpt lat="46.02098" lon="6.57944">
        <ele>1686.29</ele>
        <time>2019-01-29T10:53:01Z</time>
      </trkpt>
      <trkpt lat="46.02098" lon="6.57944">
        <ele>1686.29</ele>
        <time>2019-01-29T10:53:02Z</time>
      </trkpt>
      <trkpt lat="46.02097" lon="6.57943">
        <ele>1686.77</ele>
        <time>2019-01-29T10:53:04Z</time>
      </trkpt>
      <trkpt lat="46.02095" lon="6.57943">
        <ele>1687.25</ele>
        <time>2019-01-29T10:53:06Z</time>
      </trkpt>
      <trkpt lat="46.02095" lon="6.57942">
        <ele>1688.21</ele>
        <time>2019-01-29T10:53:10Z</time>
      </trkpt>
      <trkpt lat="46.02093" lon="6.57946">
        <ele>1689.17</ele>
        <time>2019-01-29T10:53:14Z</time>
      </trkpt>
      <trkpt lat="46.02093" lon="6.57951">
        <ele>1690.62</ele>
        <time>2019-01-29T10:53:21Z</time>
      </trkpt>
      <trkpt lat="46.02093" lon="6.57952">
        <ele>1691.1</ele>
        <time>2019-01-29T10:53:22Z</time>
      </trkpt>
      <trkpt lat="46.02089" lon="6.57954">
        <ele>1693.98</ele>
        <time>2019-01-29T10:53:41Z</time>
      </trkpt>
      <trkpt lat="46.02089" lon="6.57957">
        <ele>1694.94</ele>
        <time>2019-01-29T10:53:44Z</time>
      </trkpt>
      <trkpt lat="46.02091" lon="6.57958">
        <ele>1695.9</ele>
        <time>2019-01-29T10:53:47Z</time>
      </trkpt>
      <trkpt lat="46.02093" lon="6.5796">
        <ele>1697.34</ele>
        <time>2019-01-29T10:53:52Z</time>
      </trkpt>
      <trkpt lat="46.02092" lon="6.57968">
        <ele>1699.75</ele>
        <time>2019-01-29T10:54:02Z</time>
      </trkpt>
      <trkpt lat="46.02092" lon="6.57968">
        <ele>1699.75</ele>
        <time>2019-01-29T10:54:04Z</time>
      </trkpt>
      <trkpt lat="46.02095" lon="6.57967">
        <ele>1700.23</ele>
        <time>2019-01-29T10:54:11Z</time>
      </trkpt>
      <trkpt lat="46.02096" lon="6.57966">
        <ele>1700.23</ele>
        <time>2019-01-29T10:54:12Z</time>
      </trkpt>
      <trkpt lat="46.02085" lon="6.57971">
        <ele>1700.23</ele>
        <time>2019-01-29T10:54:37Z</time>
      </trkpt>
      <trkpt lat="46.02083" lon="6.57967">
        <ele>1701.19</ele>
        <time>2019-01-29T10:54:45Z</time>
      </trkpt>
      <trkpt lat="46.02083" lon="6.57966">
        <ele>1701.19</ele>
        <time>2019-01-29T10:54:46Z</time>
      </trkpt>
      <trkpt lat="46.02083" lon="6.57965">
        <ele>1701.19</ele>
        <time>2019-01-29T10:54:47Z</time>
      </trkpt>
      <trkpt lat="46.02082" lon="6.57965">
        <ele>1701.67</ele>
        <time>2019-01-29T10:54:48Z</time>
      </trkpt>
      <trkpt lat="46.02082" lon="6.57964">
        <ele>1701.67</ele>
        <time>2019-01-29T10:54:49Z</time>
      </trkpt>
      <trkpt lat="46.02084" lon="6.57962">
        <ele>1703.59</ele>
        <time>2019-01-29T10:54:56Z</time>
      </trkpt>
      <trkpt lat="46.02083" lon="6.57963">
        <ele>1704.55</ele>
        <time>2019-01-29T10:55:02Z</time>
      </trkpt>
      <trkpt lat="46.02082" lon="6.57974">
        <ele>1707.92</ele>
        <time>2019-01-29T10:55:16Z</time>
      </trkpt>
      <trkpt lat="46.02078" lon="6.57971">
        <ele>1710.8</ele>
        <time>2019-01-29T10:55:27Z</time>
      </trkpt>
      <trkpt lat="46.02077" lon="6.57969">
        <ele>1711.28</ele>
        <time>2019-01-29T10:55:28Z</time>
      </trkpt>
      <trkpt lat="46.02071" lon="6.57957">
        <ele>1714.17</ele>
        <time>2019-01-29T10:55:43Z</time>
      </trkpt>
      <trkpt lat="46.02072" lon="6.57949">
        <ele>1717.53</ele>
        <time>2019-01-29T10:55:58Z</time>
      </trkpt>
      <trkpt lat="46.02066" lon="6.57958">
        <ele>1720.9</ele>
        <time>2019-01-29T10:56:10Z</time>
      </trkpt>
      <trkpt lat="46.0206" lon="6.57963">
        <ele>1722.82</ele>
        <time>2019-01-29T10:56:18Z</time>
      </trkpt>
      <trkpt lat="46.02054" lon="6.57968">
        <ele>1724.26</ele>
        <time>2019-01-29T10:56:24Z</time>
      </trkpt>
      <trkpt lat="46.02053" lon="6.57969">
        <ele>1724.74</ele>
        <time>2019-01-29T10:56:26Z</time>
      </trkpt>
      <trkpt lat="46.02052" lon="6.5797">
        <ele>1725.22</ele>
        <time>2019-01-29T10:56:27Z</time>
      </trkpt>
      <trkpt lat="46.02051" lon="6.57971">
        <ele>1725.7</ele>
        <time>2019-01-29T10:56:29Z</time>
      </trkpt>
      <trkpt lat="46.02051" lon="6.5797">
        <ele>1725.7</ele>
        <time>2019-01-29T10:56:30Z</time>
      </trkpt>
      <trkpt lat="46.0205" lon="6.57974">
        <ele>1727.63</ele>
        <time>2019-01-29T10:56:38Z</time>
      </trkpt>
      <trkpt lat="46.0205" lon="6.57976">
        <ele>1727.63</ele>
        <time>2019-01-29T10:56:40Z</time>
      </trkpt>
      <trkpt lat="46.02041" lon="6.57975">
        <ele>1730.99</ele>
        <time>2019-01-29T10:56:53Z</time>
      </trkpt>
      <trkpt lat="46.0204" lon="6.57975">
        <ele>1730.99</ele>
        <time>2019-01-29T10:56:54Z</time>
      </trkpt>
      <trkpt lat="46.02039" lon="6.57974">
        <ele>1731.47</ele>
        <time>2019-01-29T10:56:55Z</time>
      </trkpt>
      <trkpt lat="46.02038" lon="6.57974">
        <ele>1731.95</ele>
        <time>2019-01-29T10:56:56Z</time>
      </trkpt>
      <trkpt lat="46.02037" lon="6.57973">
        <ele>1731.95</ele>
        <time>2019-01-29T10:56:57Z</time>
      </trkpt>
      <trkpt lat="46.02036" lon="6.57972">
        <ele>1732.43</ele>
        <time>2019-01-29T10:56:59Z</time>
      </trkpt>
      <trkpt lat="46.02039" lon="6.57968">
        <ele>1733.39</ele>
        <time>2019-01-29T10:57:03Z</time>
      </trkpt>
      <trkpt lat="46.02039" lon="6.57967">
        <ele>1733.39</ele>
        <time>2019-01-29T10:57:04Z</time>
      </trkpt>
      <trkpt lat="46.02039" lon="6.57966">
        <ele>1733.88</ele>
        <time>2019-01-29T10:57:05Z</time>
      </trkpt>
      <trkpt lat="46.0204" lon="6.57962">
        <ele>1735.32</ele>
        <time>2019-01-29T10:57:10Z</time>
      </trkpt>
      <trkpt lat="46.02039" lon="6.57963">
        <ele>1735.8</ele>
        <time>2019-01-29T10:57:11Z</time>
      </trkpt>
      <trkpt lat="46.02037" lon="6.57963">
        <ele>1735.8</ele>
        <time>2019-01-29T10:57:12Z</time>
      </trkpt>
      <trkpt lat="46.02033" lon="6.57964">
        <ele>1736.76</ele>
        <time>2019-01-29T10:57:16Z</time>
      </trkpt>
      <trkpt lat="46.02032" lon="6.57965">
        <ele>1737.24</ele>
        <time>2019-01-29T10:57:18Z</time>
      </trkpt>
      <trkpt lat="46.02029" lon="6.57968">
        <ele>1737.72</ele>
        <time>2019-01-29T10:57:21Z</time>
      </trkpt>
      <trkpt lat="46.02029" lon="6.57969">
        <ele>1738.2</ele>
        <time>2019-01-29T10:57:22Z</time>
      </trkpt>
      <trkpt lat="46.02027" lon="6.57972">
        <ele>1741.08</ele>
        <time>2019-01-29T10:57:36Z</time>
      </trkpt>
      <trkpt lat="46.02019" lon="6.57975">
        <ele>1743.97</ele>
        <time>2019-01-29T10:57:48Z</time>
      </trkpt>
      <trkpt lat="46.02012" lon="6.57984">
        <ele>1747.33</ele>
        <time>2019-01-29T10:58:02Z</time>
      </trkpt>
      <trkpt lat="46.02007" lon="6.57994">
        <ele>1750.22</ele>
        <time>2019-01-29T10:58:15Z</time>
      </trkpt>
      <trkpt lat="46.02003" lon="6.58002">
        <ele>1753.58</ele>
        <time>2019-01-29T10:58:27Z</time>
      </trkpt>
      <trkpt lat="46.01995" lon="6.58005">
        <ele>1756.47</ele>
        <time>2019-01-29T10:58:40Z</time>
      </trkpt>
      <trkpt lat="46.01986" lon="6.58008">
        <ele>1759.83</ele>
        <time>2019-01-29T10:58:54Z</time>
      </trkpt>
      <trkpt lat="46.01985" lon="6.58008">
        <ele>1760.31</ele>
        <time>2019-01-29T10:58:56Z</time>
      </trkpt>
      <trkpt lat="46.01984" lon="6.58009">
        <ele>1760.79</ele>
        <time>2019-01-29T10:58:57Z</time>
      </trkpt>
      <trkpt lat="46.0198" lon="6.58015">
        <ele>1764.16</ele>
        <time>2019-01-29T10:59:10Z</time>
      </trkpt>
      <trkpt lat="46.01976" lon="6.58026">
        <ele>1767.52</ele>
        <time>2019-01-29T10:59:23Z</time>
      </trkpt>
      <trkpt lat="46.01975" lon="6.58028">
        <ele>1768</ele>
        <time>2019-01-29T10:59:25Z</time>
      </trkpt>
      <trkpt lat="46.0197" lon="6.58035">
        <ele>1771.37</ele>
        <time>2019-01-29T10:59:38Z</time>
      </trkpt>
      <trkpt lat="46.01964" lon="6.58039">
        <ele>1774.25</ele>
        <time>2019-01-29T10:59:51Z</time>
      </trkpt>
      <trkpt lat="46.01952" lon="6.58042">
        <ele>1777.13</ele>
        <time>2019-01-29T11:00:05Z</time>
      </trkpt>
      <trkpt lat="46.01941" lon="6.58046">
        <ele>1780.02</ele>
        <time>2019-01-29T11:00:20Z</time>
      </trkpt>
      <trkpt lat="46.0193" lon="6.58047">
        <ele>1783.38</ele>
        <time>2019-01-29T11:00:35Z</time>
      </trkpt>
      <trkpt lat="46.01919" lon="6.58053">
        <ele>1786.75</ele>
        <time>2019-01-29T11:00:49Z</time>
      </trkpt>
      <trkpt lat="46.01909" lon="6.58057">
        <ele>1789.63</ele>
        <time>2019-01-29T11:01:04Z</time>
      </trkpt>
      <trkpt lat="46.01898" lon="6.58062">
        <ele>1793</ele>
        <time>2019-01-29T11:01:19Z</time>
      </trkpt>
      <trkpt lat="46.01892" lon="6.58065">
        <ele>1795.88</ele>
        <time>2019-01-29T11:01:32Z</time>
      </trkpt>
      <trkpt lat="46.01882" lon="6.58072">
        <ele>1799.24</ele>
        <time>2019-01-29T11:01:47Z</time>
      </trkpt>
      <trkpt lat="46.0188" lon="6.58076">
        <ele>1802.61</ele>
        <time>2019-01-29T11:01:59Z</time>
      </trkpt>
      <trkpt lat="46.01886" lon="6.58088">
        <ele>1805.49</ele>
        <time>2019-01-29T11:02:16Z</time>
      </trkpt>
      <trkpt lat="46.01878" lon="6.58094">
        <ele>1808.38</ele>
        <time>2019-01-29T11:02:30Z</time>
      </trkpt>
      <trkpt lat="46.01872" lon="6.58103">
        <ele>1811.74</ele>
        <time>2019-01-29T11:02:45Z</time>
      </trkpt>
      <trkpt lat="46.01856" lon="6.58103">
        <ele>1814.63</ele>
        <time>2019-01-29T11:03:03Z</time>
      </trkpt>
      <trkpt lat="46.01843" lon="6.58087">
        <ele>1817.99</ele>
        <time>2019-01-29T11:03:22Z</time>
      </trkpt>
      <trkpt lat="46.0183" lon="6.58068">
        <ele>1820.87</ele>
        <time>2019-01-29T11:03:42Z</time>
      </trkpt>
      <trkpt lat="46.01813" lon="6.5806">
        <ele>1824.24</ele>
        <time>2019-01-29T11:04:00Z</time>
      </trkpt>
      <trkpt lat="46.018" lon="6.58057">
        <ele>1827.12</ele>
        <time>2019-01-29T11:04:16Z</time>
      </trkpt>
      <trkpt lat="46.01799" lon="6.58057">
        <ele>1827.12</ele>
        <time>2019-01-29T11:04:17Z</time>
      </trkpt>
      <trkpt lat="46.01798" lon="6.58057">
        <ele>1827.6</ele>
        <time>2019-01-29T11:04:18Z</time>
      </trkpt>
      <trkpt lat="46.01797" lon="6.58057">
        <ele>1827.6</ele>
        <time>2019-01-29T11:04:19Z</time>
      </trkpt>
      <trkpt lat="46.01796" lon="6.58058">
        <ele>1827.6</ele>
        <time>2019-01-29T11:04:20Z</time>
      </trkpt>
      <trkpt lat="46.01795" lon="6.58057">
        <ele>1828.08</ele>
        <time>2019-01-29T11:04:21Z</time>
      </trkpt>
      <trkpt lat="46.01794" lon="6.58056">
        <ele>1828.08</ele>
        <time>2019-01-29T11:04:22Z</time>
      </trkpt>
      <trkpt lat="46.01776" lon="6.58046">
        <ele>1830.97</ele>
        <time>2019-01-29T11:04:42Z</time>
      </trkpt>
      <trkpt lat="46.01772" lon="6.58044">
        <ele>1831.93</ele>
        <time>2019-01-29T11:04:46Z</time>
      </trkpt>
      <trkpt lat="46.0177" lon="6.58043">
        <ele>1832.41</ele>
        <time>2019-01-29T11:04:49Z</time>
      </trkpt>
      <trkpt lat="46.01757" lon="6.58037">
        <ele>1835.77</ele>
        <time>2019-01-29T11:05:05Z</time>
      </trkpt>
      <trkpt lat="46.01745" lon="6.58039">
        <ele>1838.66</ele>
        <time>2019-01-29T11:05:22Z</time>
      </trkpt>
      <trkpt lat="46.01746" lon="6.58048">
        <ele>1842.02</ele>
        <time>2019-01-29T11:05:34Z</time>
      </trkpt>
      <trkpt lat="46.01748" lon="6.58059">
        <ele>1844.91</ele>
        <time>2019-01-29T11:05:48Z</time>
      </trkpt>
      <trkpt lat="46.0175" lon="6.5807">
        <ele>1847.79</ele>
        <time>2019-01-29T11:05:59Z</time>
      </trkpt>
      <trkpt lat="46.01745" lon="6.58071">
        <ele>1849.23</ele>
        <time>2019-01-29T11:06:06Z</time>
      </trkpt>
      <trkpt lat="46.01734" lon="6.58071">
        <ele>1852.12</ele>
        <time>2019-01-29T11:06:20Z</time>
      </trkpt>
      <trkpt lat="46.01728" lon="6.58069">
        <ele>1854.04</ele>
        <time>2019-01-29T11:06:28Z</time>
      </trkpt>
      <trkpt lat="46.01712" lon="6.58061">
        <ele>1857.4</ele>
        <time>2019-01-29T11:06:48Z</time>
      </trkpt>
      <trkpt lat="46.017" lon="6.58058">
        <ele>1860.29</ele>
        <time>2019-01-29T11:07:05Z</time>
      </trkpt>
      <trkpt lat="46.01695" lon="6.58055">
        <ele>1861.73</ele>
        <time>2019-01-29T11:07:12Z</time>
      </trkpt>
      <trkpt lat="46.01688" lon="6.58051">
        <ele>1864.61</ele>
        <time>2019-01-29T11:07:26Z</time>
      </trkpt>
      <trkpt lat="46.01686" lon="6.58054">
        <ele>1865.58</ele>
        <time>2019-01-29T11:07:30Z</time>
      </trkpt>
      <trkpt lat="46.01677" lon="6.58058">
        <ele>1868.94</ele>
        <time>2019-01-29T11:07:43Z</time>
      </trkpt>
      <trkpt lat="46.01668" lon="6.58064">
        <ele>1871.82</ele>
        <time>2019-01-29T11:07:56Z</time>
      </trkpt>
      <trkpt lat="46.01659" lon="6.5807">
        <ele>1875.19</ele>
        <time>2019-01-29T11:08:09Z</time>
      </trkpt>
      <trkpt lat="46.0165" lon="6.58076">
        <ele>1878.07</ele>
        <time>2019-01-29T11:08:23Z</time>
      </trkpt>
      <trkpt lat="46.01641" lon="6.58079">
        <ele>1881.44</ele>
        <time>2019-01-29T11:08:37Z</time>
      </trkpt>
      <trkpt lat="46.01631" lon="6.58082">
        <ele>1884.32</ele>
        <time>2019-01-29T11:08:51Z</time>
      </trkpt>
      <trkpt lat="46.01619" lon="6.58082">
        <ele>1887.69</ele>
        <time>2019-01-29T11:09:07Z</time>
      </trkpt>
      <trkpt lat="46.01615" lon="6.58087">
        <ele>1889.61</ele>
        <time>2019-01-29T11:09:15Z</time>
      </trkpt>
      <trkpt lat="46.01608" lon="6.58093">
        <ele>1892.97</ele>
        <time>2019-01-29T11:09:27Z</time>
      </trkpt>
      <trkpt lat="46.01607" lon="6.58093">
        <ele>1893.45</ele>
        <time>2019-01-29T11:09:28Z</time>
      </trkpt>
      <trkpt lat="46.01588" lon="6.5809">
        <ele>1896.34</ele>
        <time>2019-01-29T11:09:48Z</time>
      </trkpt>
      <trkpt lat="46.01579" lon="6.58087">
        <ele>1897.78</ele>
        <time>2019-01-29T11:09:58Z</time>
      </trkpt>
      <trkpt lat="46.0157" lon="6.58086">
        <ele>1900.18</ele>
        <time>2019-01-29T11:10:08Z</time>
      </trkpt>
      <trkpt lat="46.01569" lon="6.58087">
        <ele>1900.18</ele>
        <time>2019-01-29T11:10:09Z</time>
      </trkpt>
      <trkpt lat="46.01568" lon="6.58087">
        <ele>1900.18</ele>
        <time>2019-01-29T11:10:10Z</time>
      </trkpt>
      <trkpt lat="46.01567" lon="6.58086">
        <ele>1900.18</ele>
        <time>2019-01-29T11:10:11Z</time>
      </trkpt>
      <trkpt lat="46.01566" lon="6.58086">
        <ele>1900.66</ele>
        <time>2019-01-29T11:10:12Z</time>
      </trkpt>
      <trkpt lat="46.01565" lon="6.58086">
        <ele>1900.66</ele>
        <time>2019-01-29T11:10:13Z</time>
      </trkpt>
      <trkpt lat="46.01564" lon="6.58086">
        <ele>1901.14</ele>
        <time>2019-01-29T11:10:14Z</time>
      </trkpt>
      <trkpt lat="46.01563" lon="6.58086">
        <ele>1901.14</ele>
        <time>2019-01-29T11:10:15Z</time>
      </trkpt>
      <trkpt lat="46.01562" lon="6.58086">
        <ele>1901.63</ele>
        <time>2019-01-29T11:10:16Z</time>
      </trkpt>
      <trkpt lat="46.01548" lon="6.5808">
        <ele>1904.51</ele>
        <time>2019-01-29T11:10:32Z</time>
      </trkpt>
      <trkpt lat="46.01543" lon="6.58077">
        <ele>1905.47</ele>
        <time>2019-01-29T11:10:38Z</time>
      </trkpt>
      <trkpt lat="46.01542" lon="6.58076">
        <ele>1905.95</ele>
        <time>2019-01-29T11:10:39Z</time>
      </trkpt>
      <trkpt lat="46.01541" lon="6.58075">
        <ele>1905.95</ele>
        <time>2019-01-29T11:10:40Z</time>
      </trkpt>
      <trkpt lat="46.0154" lon="6.58074">
        <ele>1906.43</ele>
        <time>2019-01-29T11:10:41Z</time>
      </trkpt>
      <trkpt lat="46.0154" lon="6.58074">
        <ele>1906.43</ele>
        <time>2019-01-29T11:10:42Z</time>
      </trkpt>
      <trkpt lat="46.01538" lon="6.58073">
        <ele>1906.43</ele>
        <time>2019-01-29T11:10:43Z</time>
      </trkpt>
      <trkpt lat="46.01523" lon="6.58064">
        <ele>1909.32</ele>
        <time>2019-01-29T11:11:01Z</time>
      </trkpt>
      <trkpt lat="46.01521" lon="6.58064">
        <ele>1909.32</ele>
        <time>2019-01-29T11:11:02Z</time>
      </trkpt>
      <trkpt lat="46.0152" lon="6.58064">
        <ele>1909.32</ele>
        <time>2019-01-29T11:11:03Z</time>
      </trkpt>
      <trkpt lat="46.0152" lon="6.58063">
        <ele>1909.8</ele>
        <time>2019-01-29T11:11:04Z</time>
      </trkpt>
      <trkpt lat="46.01518" lon="6.58063">
        <ele>1909.8</ele>
        <time>2019-01-29T11:11:05Z</time>
      </trkpt>
      <trkpt lat="46.01514" lon="6.58063">
        <ele>1911.24</ele>
        <time>2019-01-29T11:11:10Z</time>
      </trkpt>
      <trkpt lat="46.01497" lon="6.58058">
        <ele>1914.12</ele>
        <time>2019-01-29T11:11:28Z</time>
      </trkpt>
      <trkpt lat="46.01483" lon="6.58057">
        <ele>1917.01</ele>
        <time>2019-01-29T11:11:43Z</time>
      </trkpt>
      <trkpt lat="46.01475" lon="6.58057">
        <ele>1918.93</ele>
        <time>2019-01-29T11:11:52Z</time>
      </trkpt>
      <trkpt lat="46.01473" lon="6.58057">
        <ele>1919.41</ele>
        <time>2019-01-29T11:11:54Z</time>
      </trkpt>
      <trkpt lat="46.01461" lon="6.58055">
        <ele>1921.81</ele>
        <time>2019-01-29T11:12:05Z</time>
      </trkpt>
      <trkpt lat="46.01461" lon="6.58055">
        <ele>1921.81</ele>
        <time>2019-01-29T11:12:06Z</time>
      </trkpt>
      <trkpt lat="46.0146" lon="6.58055">
        <ele>1921.81</ele>
        <time>2019-01-29T11:12:07Z</time>
      </trkpt>
      <trkpt lat="46.01451" lon="6.58056">
        <ele>1923.25</ele>
        <time>2019-01-29T11:12:17Z</time>
      </trkpt>
      <trkpt lat="46.0145" lon="6.58056">
        <ele>1923.25</ele>
        <time>2019-01-29T11:12:18Z</time>
      </trkpt>
      <trkpt lat="46.01449" lon="6.58056">
        <ele>1923.74</ele>
        <time>2019-01-29T11:12:19Z</time>
      </trkpt>
      <trkpt lat="46.01448" lon="6.58055">
        <ele>1923.74</ele>
        <time>2019-01-29T11:12:20Z</time>
      </trkpt>
      <trkpt lat="46.01447" lon="6.58056">
        <ele>1923.74</ele>
        <time>2019-01-29T11:12:21Z</time>
      </trkpt>
      <trkpt lat="46.01446" lon="6.58056">
        <ele>1924.22</ele>
        <time>2019-01-29T11:12:22Z</time>
      </trkpt>
      <trkpt lat="46.01446" lon="6.58056">
        <ele>1924.22</ele>
        <time>2019-01-29T11:12:23Z</time>
      </trkpt>
      <trkpt lat="46.01441" lon="6.58059">
        <ele>1925.18</ele>
        <time>2019-01-29T11:12:28Z</time>
      </trkpt>
      <trkpt lat="46.01439" lon="6.58059">
        <ele>1925.66</ele>
        <time>2019-01-29T11:12:30Z</time>
      </trkpt>
      <trkpt lat="46.01438" lon="6.5806">
        <ele>1926.14</ele>
        <time>2019-01-29T11:12:31Z</time>
      </trkpt>
      <trkpt lat="46.01437" lon="6.5806">
        <ele>1926.14</ele>
        <time>2019-01-29T11:12:32Z</time>
      </trkpt>
      <trkpt lat="46.01436" lon="6.5806">
        <ele>1926.62</ele>
        <time>2019-01-29T11:12:33Z</time>
      </trkpt>
      <trkpt lat="46.01436" lon="6.58061">
        <ele>1926.62</ele>
        <time>2019-01-29T11:12:34Z</time>
      </trkpt>
      <trkpt lat="46.01419" lon="6.58065">
        <ele>1929.5</ele>
        <time>2019-01-29T11:12:51Z</time>
      </trkpt>
      <trkpt lat="46.014" lon="6.58073">
        <ele>1932.39</ele>
        <time>2019-01-29T11:13:10Z</time>
      </trkpt>
      <trkpt lat="46.01392" lon="6.58074">
        <ele>1933.83</ele>
        <time>2019-01-29T11:13:18Z</time>
      </trkpt>
      <trkpt lat="46.01391" lon="6.58074">
        <ele>1933.83</ele>
        <time>2019-01-29T11:13:19Z</time>
      </trkpt>
      <trkpt lat="46.0139" lon="6.58074">
        <ele>1933.83</ele>
        <time>2019-01-29T11:13:20Z</time>
      </trkpt>
      <trkpt lat="46.01389" lon="6.58074">
        <ele>1933.83</ele>
        <time>2019-01-29T11:13:21Z</time>
      </trkpt>
      <trkpt lat="46.01388" lon="6.58075">
        <ele>1934.31</ele>
        <time>2019-01-29T11:13:22Z</time>
      </trkpt>
      <trkpt lat="46.01388" lon="6.58075">
        <ele>1934.31</ele>
        <time>2019-01-29T11:13:23Z</time>
      </trkpt>
      <trkpt lat="46.01387" lon="6.58075">
        <ele>1934.79</ele>
        <time>2019-01-29T11:13:24Z</time>
      </trkpt>
      <trkpt lat="46.01386" lon="6.58075">
        <ele>1934.79</ele>
        <time>2019-01-29T11:13:25Z</time>
      </trkpt>
      <trkpt lat="46.01385" lon="6.58076">
        <ele>1934.79</ele>
        <time>2019-01-29T11:13:26Z</time>
      </trkpt>
      <trkpt lat="46.01384" lon="6.58076">
        <ele>1935.27</ele>
        <time>2019-01-29T11:13:27Z</time>
      </trkpt>
      <trkpt lat="46.01383" lon="6.58076">
        <ele>1935.75</ele>
        <time>2019-01-29T11:13:28Z</time>
      </trkpt>
      <trkpt lat="46.01382" lon="6.58077">
        <ele>1936.23</ele>
        <time>2019-01-29T11:13:29Z</time>
      </trkpt>
      <trkpt lat="46.01381" lon="6.58077">
        <ele>1936.23</ele>
        <time>2019-01-29T11:13:30Z</time>
      </trkpt>
      <trkpt lat="46.0138" lon="6.58077">
        <ele>1936.23</ele>
        <time>2019-01-29T11:13:31Z</time>
      </trkpt>
      <trkpt lat="46.01356" lon="6.58086">
        <ele>1939.12</ele>
        <time>2019-01-29T11:13:53Z</time>
      </trkpt>
      <trkpt lat="46.01353" lon="6.58086">
        <ele>1939.6</ele>
        <time>2019-01-29T11:13:56Z</time>
      </trkpt>
      <trkpt lat="46.01352" lon="6.58086">
        <ele>1939.6</ele>
        <time>2019-01-29T11:13:57Z</time>
      </trkpt>
      <trkpt lat="46.01351" lon="6.58086">
        <ele>1940.08</ele>
        <time>2019-01-29T11:13:58Z</time>
      </trkpt>
      <trkpt lat="46.01334" lon="6.58087">
        <ele>1942.96</ele>
        <time>2019-01-29T11:14:16Z</time>
      </trkpt>
      <trkpt lat="46.01319" lon="6.58089">
        <ele>1946.33</ele>
        <time>2019-01-29T11:14:31Z</time>
      </trkpt>
      <trkpt lat="46.01307" lon="6.58089">
        <ele>1947.77</ele>
        <time>2019-01-29T11:14:42Z</time>
      </trkpt>
      <trkpt lat="46.01306" lon="6.58089">
        <ele>1948.25</ele>
        <time>2019-01-29T11:14:43Z</time>
      </trkpt>
      <trkpt lat="46.01294" lon="6.58091">
        <ele>1950.17</ele>
        <time>2019-01-29T11:14:54Z</time>
      </trkpt>
      <trkpt lat="46.01293" lon="6.58091">
        <ele>1950.17</ele>
        <time>2019-01-29T11:14:55Z</time>
      </trkpt>
      <trkpt lat="46.0127" lon="6.58095">
        <ele>1953.54</ele>
        <time>2019-01-29T11:15:16Z</time>
      </trkpt>
      <trkpt lat="46.01269" lon="6.58095">
        <ele>1954.02</ele>
        <time>2019-01-29T11:15:17Z</time>
      </trkpt>
      <trkpt lat="46.01267" lon="6.58095">
        <ele>1954.02</ele>
        <time>2019-01-29T11:15:18Z</time>
      </trkpt>
      <trkpt lat="46.01264" lon="6.58096">
        <ele>1954.02</ele>
        <time>2019-01-29T11:15:21Z</time>
      </trkpt>
      <trkpt lat="46.01263" lon="6.58096">
        <ele>1954.02</ele>
        <time>2019-01-29T11:15:22Z</time>
      </trkpt>
      <trkpt lat="46.01262" lon="6.58096">
        <ele>1954.02</ele>
        <time>2019-01-29T11:15:23Z</time>
      </trkpt>
      <trkpt lat="46.01261" lon="6.58097">
        <ele>1954.02</ele>
        <time>2019-01-29T11:15:24Z</time>
      </trkpt>
      <trkpt lat="46.01259" lon="6.58097">
        <ele>1954.5</ele>
        <time>2019-01-29T11:15:25Z</time>
      </trkpt>
      <trkpt lat="46.01258" lon="6.58097">
        <ele>1954.5</ele>
        <time>2019-01-29T11:15:26Z</time>
      </trkpt>
      <trkpt lat="46.01257" lon="6.58097">
        <ele>1954.5</ele>
        <time>2019-01-29T11:15:27Z</time>
      </trkpt>
      <trkpt lat="46.01256" lon="6.58098">
        <ele>1954.5</ele>
        <time>2019-01-29T11:15:28Z</time>
      </trkpt>
      <trkpt lat="46.01255" lon="6.58098">
        <ele>1954.5</ele>
        <time>2019-01-29T11:15:29Z</time>
      </trkpt>
      <trkpt lat="46.01254" lon="6.58098">
        <ele>1954.98</ele>
        <time>2019-01-29T11:15:30Z</time>
      </trkpt>
      <trkpt lat="46.01253" lon="6.58099">
        <ele>1954.98</ele>
        <time>2019-01-29T11:15:31Z</time>
      </trkpt>
      <trkpt lat="46.01252" lon="6.58099">
        <ele>1954.98</ele>
        <time>2019-01-29T11:15:32Z</time>
      </trkpt>
      <trkpt lat="46.01251" lon="6.58099">
        <ele>1954.98</ele>
        <time>2019-01-29T11:15:33Z</time>
      </trkpt>
      <trkpt lat="46.0125" lon="6.581">
        <ele>1954.98</ele>
        <time>2019-01-29T11:15:34Z</time>
      </trkpt>
      <trkpt lat="46.01249" lon="6.581">
        <ele>1955.46</ele>
        <time>2019-01-29T11:15:35Z</time>
      </trkpt>
      <trkpt lat="46.01248" lon="6.58101">
        <ele>1955.46</ele>
        <time>2019-01-29T11:15:36Z</time>
      </trkpt>
      <trkpt lat="46.01247" lon="6.58101">
        <ele>1955.46</ele>
        <time>2019-01-29T11:15:37Z</time>
      </trkpt>
      <trkpt lat="46.01246" lon="6.58101">
        <ele>1955.46</ele>
        <time>2019-01-29T11:15:38Z</time>
      </trkpt>
      <trkpt lat="46.01245" lon="6.58101">
        <ele>1955.94</ele>
        <time>2019-01-29T11:15:39Z</time>
      </trkpt>
      <trkpt lat="46.01243" lon="6.58102">
        <ele>1955.94</ele>
        <time>2019-01-29T11:15:40Z</time>
      </trkpt>
      <trkpt lat="46.01242" lon="6.58102">
        <ele>1956.42</ele>
        <time>2019-01-29T11:15:41Z</time>
      </trkpt>
      <trkpt lat="46.01241" lon="6.58103">
        <ele>1956.42</ele>
        <time>2019-01-29T11:15:42Z</time>
      </trkpt>
      <trkpt lat="46.0124" lon="6.58103">
        <ele>1956.42</ele>
        <time>2019-01-29T11:15:43Z</time>
      </trkpt>
      <trkpt lat="46.01239" lon="6.58103">
        <ele>1956.42</ele>
        <time>2019-01-29T11:15:44Z</time>
      </trkpt>
      <trkpt lat="46.01235" lon="6.58105">
        <ele>1957.38</ele>
        <time>2019-01-29T11:15:48Z</time>
      </trkpt>
      <trkpt lat="46.01234" lon="6.58106">
        <ele>1957.86</ele>
        <time>2019-01-29T11:15:49Z</time>
      </trkpt>
      <trkpt lat="46.01233" lon="6.58106">
        <ele>1957.86</ele>
        <time>2019-01-29T11:15:50Z</time>
      </trkpt>
      <trkpt lat="46.01218" lon="6.58111">
        <ele>1960.75</ele>
        <time>2019-01-29T11:16:05Z</time>
      </trkpt>
      <trkpt lat="46.01217" lon="6.58111">
        <ele>1960.75</ele>
        <time>2019-01-29T11:16:06Z</time>
      </trkpt>
      <trkpt lat="46.01216" lon="6.5811">
        <ele>1960.75</ele>
        <time>2019-01-29T11:16:07Z</time>
      </trkpt>
      <trkpt lat="46.01215" lon="6.58108">
        <ele>1960.75</ele>
        <time>2019-01-29T11:16:08Z</time>
      </trkpt>
      <trkpt lat="46.01214" lon="6.58107">
        <ele>1960.75</ele>
        <time>2019-01-29T11:16:09Z</time>
      </trkpt>
      <trkpt lat="46.01213" lon="6.58106">
        <ele>1960.75</ele>
        <time>2019-01-29T11:16:10Z</time>
      </trkpt>
      <trkpt lat="46.01201" lon="6.58099">
        <ele>1963.63</ele>
        <time>2019-01-29T11:16:24Z</time>
      </trkpt>
      <trkpt lat="46.01188" lon="6.58092">
        <ele>1966.99</ele>
        <time>2019-01-29T11:16:39Z</time>
      </trkpt>
      <trkpt lat="46.01162" lon="6.5808">
        <ele>1969.4</ele>
        <time>2019-01-29T11:17:04Z</time>
      </trkpt>
      <trkpt lat="46.01161" lon="6.58079">
        <ele>1969.4</ele>
        <time>2019-01-29T11:17:05Z</time>
      </trkpt>
      <trkpt lat="46.0116" lon="6.58079">
        <ele>1969.4</ele>
        <time>2019-01-29T11:17:06Z</time>
      </trkpt>
      <trkpt lat="46.01159" lon="6.58078">
        <ele>1969.88</ele>
        <time>2019-01-29T11:17:07Z</time>
      </trkpt>
      <trkpt lat="46.01158" lon="6.58077">
        <ele>1969.88</ele>
        <time>2019-01-29T11:17:08Z</time>
      </trkpt>
      <trkpt lat="46.01157" lon="6.58077">
        <ele>1970.36</ele>
        <time>2019-01-29T11:17:09Z</time>
      </trkpt>
      <trkpt lat="46.01145" lon="6.5807">
        <ele>1971.8</ele>
        <time>2019-01-29T11:17:21Z</time>
      </trkpt>
      <trkpt lat="46.01143" lon="6.5807">
        <ele>1972.28</ele>
        <time>2019-01-29T11:17:23Z</time>
      </trkpt>
      <trkpt lat="46.01142" lon="6.58069">
        <ele>1972.76</ele>
        <time>2019-01-29T11:17:24Z</time>
      </trkpt>
      <trkpt lat="46.01141" lon="6.58068">
        <ele>1972.76</ele>
        <time>2019-01-29T11:17:25Z</time>
      </trkpt>
      <trkpt lat="46.0114" lon="6.58067">
        <ele>1972.76</ele>
        <time>2019-01-29T11:17:26Z</time>
      </trkpt>
      <trkpt lat="46.01126" lon="6.58055">
        <ele>1975.17</ele>
        <time>2019-01-29T11:17:42Z</time>
      </trkpt>
      <trkpt lat="46.01116" lon="6.58045">
        <ele>1978.05</ele>
        <time>2019-01-29T11:17:56Z</time>
      </trkpt>
      <trkpt lat="46.01111" lon="6.58042">
        <ele>1981.41</ele>
        <time>2019-01-29T11:18:08Z</time>
      </trkpt>
      <trkpt lat="46.01108" lon="6.58051">
        <ele>1984.3</ele>
        <time>2019-01-29T11:18:19Z</time>
      </trkpt>
      <trkpt lat="46.01107" lon="6.58052">
        <ele>1984.78</ele>
        <time>2019-01-29T11:18:20Z</time>
      </trkpt>
      <trkpt lat="46.01104" lon="6.58058">
        <ele>1986.7</ele>
        <time>2019-01-29T11:18:28Z</time>
      </trkpt>
      <trkpt lat="46.01104" lon="6.58061">
        <ele>1987.18</ele>
        <time>2019-01-29T11:18:30Z</time>
      </trkpt>
      <trkpt lat="46.011" lon="6.58071">
        <ele>1989.59</ele>
        <time>2019-01-29T11:18:41Z</time>
      </trkpt>
      <trkpt lat="46.011" lon="6.58073">
        <ele>1990.07</ele>
        <time>2019-01-29T11:18:43Z</time>
      </trkpt>
      <trkpt lat="46.01097" lon="6.58077">
        <ele>1991.51</ele>
        <time>2019-01-29T11:18:49Z</time>
      </trkpt>
      <trkpt lat="46.01096" lon="6.58078">
        <ele>1991.99</ele>
        <time>2019-01-29T11:18:50Z</time>
      </trkpt>
      <trkpt lat="46.01093" lon="6.58091">
        <ele>1994.87</ele>
        <time>2019-01-29T11:19:04Z</time>
      </trkpt>
      <trkpt lat="46.01085" lon="6.58099">
        <ele>1998.24</ele>
        <time>2019-01-29T11:19:17Z</time>
      </trkpt>
      <trkpt lat="46.01078" lon="6.58104">
        <ele>2001.12</ele>
        <time>2019-01-29T11:19:29Z</time>
      </trkpt>
      <trkpt lat="46.01075" lon="6.58107">
        <ele>2002.08</ele>
        <time>2019-01-29T11:19:33Z</time>
      </trkpt>
      <trkpt lat="46.01066" lon="6.58111">
        <ele>2004.49</ele>
        <time>2019-01-29T11:19:44Z</time>
      </trkpt>
      <trkpt lat="46.01065" lon="6.58111">
        <ele>2004.97</ele>
        <time>2019-01-29T11:19:45Z</time>
      </trkpt>
      <trkpt lat="46.01054" lon="6.58119">
        <ele>2007.85</ele>
        <time>2019-01-29T11:20:01Z</time>
      </trkpt>
      <trkpt lat="46.01049" lon="6.58131">
        <ele>2011.22</ele>
        <time>2019-01-29T11:20:14Z</time>
      </trkpt>
      <trkpt lat="46.01048" lon="6.58134">
        <ele>2011.7</ele>
        <time>2019-01-29T11:20:18Z</time>
      </trkpt>
      <trkpt lat="46.01047" lon="6.58135">
        <ele>2012.18</ele>
        <time>2019-01-29T11:20:19Z</time>
      </trkpt>
      <trkpt lat="46.01043" lon="6.58147">
        <ele>2014.1</ele>
        <time>2019-01-29T11:20:30Z</time>
      </trkpt>
      <trkpt lat="46.01042" lon="6.58148">
        <ele>2014.1</ele>
        <time>2019-01-29T11:20:31Z</time>
      </trkpt>
      <trkpt lat="46.01032" lon="6.58165">
        <ele>2016.98</ele>
        <time>2019-01-29T11:20:49Z</time>
      </trkpt>
      <trkpt lat="46.01022" lon="6.58184">
        <ele>2020.35</ele>
        <time>2019-01-29T11:21:07Z</time>
      </trkpt>
      <trkpt lat="46.01014" lon="6.58196">
        <ele>2023.23</ele>
        <time>2019-01-29T11:21:20Z</time>
      </trkpt>
      <trkpt lat="46.01013" lon="6.58198">
        <ele>2024.19</ele>
        <time>2019-01-29T11:21:23Z</time>
      </trkpt>
      <trkpt lat="46.01012" lon="6.58199">
        <ele>2024.19</ele>
        <time>2019-01-29T11:21:24Z</time>
      </trkpt>
      <trkpt lat="46.01005" lon="6.58207">
        <ele>2027.56</ele>
        <time>2019-01-29T11:21:36Z</time>
      </trkpt>
      <trkpt lat="46.00996" lon="6.58215">
        <ele>2030.92</ele>
        <time>2019-01-29T11:21:48Z</time>
      </trkpt>
      <trkpt lat="46.00991" lon="6.58207">
        <ele>2032.84</ele>
        <time>2019-01-29T11:21:56Z</time>
      </trkpt>
      <trkpt lat="46.00987" lon="6.58192">
        <ele>2036.21</ele>
        <time>2019-01-29T11:22:09Z</time>
      </trkpt>
      <trkpt lat="46.00983" lon="6.58188">
        <ele>2039.09</ele>
        <time>2019-01-29T11:22:21Z</time>
      </trkpt>
      <trkpt lat="46.00981" lon="6.58191">
        <ele>2040.54</ele>
        <time>2019-01-29T11:22:25Z</time>
      </trkpt>
      <trkpt lat="46.00979" lon="6.58193">
        <ele>2041.02</ele>
        <time>2019-01-29T11:22:28Z</time>
      </trkpt>
      <trkpt lat="46.00978" lon="6.58195">
        <ele>2041.02</ele>
        <time>2019-01-29T11:22:30Z</time>
      </trkpt>
      <trkpt lat="46.0097" lon="6.58204">
        <ele>2044.38</ele>
        <time>2019-01-29T11:22:43Z</time>
      </trkpt>
      <trkpt lat="46.00962" lon="6.58201">
        <ele>2047.75</ele>
        <time>2019-01-29T11:22:56Z</time>
      </trkpt>
      <trkpt lat="46.00961" lon="6.58198">
        <ele>2048.23</ele>
        <time>2019-01-29T11:22:59Z</time>
      </trkpt>
      <trkpt lat="46.00961" lon="6.58197">
        <ele>2048.71</ele>
        <time>2019-01-29T11:23:00Z</time>
      </trkpt>
      <trkpt lat="46.00961" lon="6.58196">
        <ele>2048.71</ele>
        <time>2019-01-29T11:23:01Z</time>
      </trkpt>
      <trkpt lat="46.00961" lon="6.58194">
        <ele>2049.19</ele>
        <time>2019-01-29T11:23:02Z</time>
      </trkpt>
      <trkpt lat="46.00957" lon="6.5818">
        <ele>2052.07</ele>
        <time>2019-01-29T11:23:15Z</time>
      </trkpt>
      <trkpt lat="46.00956" lon="6.58177">
        <ele>2053.03</ele>
        <time>2019-01-29T11:23:18Z</time>
      </trkpt>
      <trkpt lat="46.00956" lon="6.58176">
        <ele>2053.03</ele>
        <time>2019-01-29T11:23:19Z</time>
      </trkpt>
      <trkpt lat="46.00956" lon="6.58171">
        <ele>2053.99</ele>
        <time>2019-01-29T11:23:23Z</time>
      </trkpt>
      <trkpt lat="46.00955" lon="6.58169">
        <ele>2054.96</ele>
        <time>2019-01-29T11:23:25Z</time>
      </trkpt>
      <trkpt lat="46.00955" lon="6.58167">
        <ele>2054.96</ele>
        <time>2019-01-29T11:23:26Z</time>
      </trkpt>
      <trkpt lat="46.00954" lon="6.58164">
        <ele>2055.44</ele>
        <time>2019-01-29T11:23:28Z</time>
      </trkpt>
      <trkpt lat="46.00953" lon="6.58161">
        <ele>2055.92</ele>
        <time>2019-01-29T11:23:30Z</time>
      </trkpt>
      <trkpt lat="46.00953" lon="6.5816">
        <ele>2056.4</ele>
        <time>2019-01-29T11:23:31Z</time>
      </trkpt>
      <trkpt lat="46.00952" lon="6.58159">
        <ele>2056.4</ele>
        <time>2019-01-29T11:23:32Z</time>
      </trkpt>
      <trkpt lat="46.00952" lon="6.58158">
        <ele>2056.4</ele>
        <time>2019-01-29T11:23:33Z</time>
      </trkpt>
      <trkpt lat="46.00951" lon="6.58154">
        <ele>2057.36</ele>
        <time>2019-01-29T11:23:37Z</time>
      </trkpt>
      <trkpt lat="46.0095" lon="6.58151">
        <ele>2057.84</ele>
        <time>2019-01-29T11:23:40Z</time>
      </trkpt>
      <trkpt lat="46.0095" lon="6.58141">
        <ele>2059.76</ele>
        <time>2019-01-29T11:23:49Z</time>
      </trkpt>
      <trkpt lat="46.0095" lon="6.58139">
        <ele>2060.24</ele>
        <time>2019-01-29T11:23:51Z</time>
      </trkpt>
      <trkpt lat="46.0095" lon="6.58137">
        <ele>2060.24</ele>
        <time>2019-01-29T11:23:53Z</time>
      </trkpt>
      <trkpt lat="46.0095" lon="6.58135">
        <ele>2060.72</ele>
        <time>2019-01-29T11:23:54Z</time>
      </trkpt>
      <trkpt lat="46.0095" lon="6.58134">
        <ele>2060.72</ele>
        <time>2019-01-29T11:23:55Z</time>
      </trkpt>
      <trkpt lat="46.0095" lon="6.58133">
        <ele>2060.72</ele>
        <time>2019-01-29T11:23:56Z</time>
      </trkpt>
      <trkpt lat="46.0095" lon="6.58131">
        <ele>2061.2</ele>
        <time>2019-01-29T11:23:57Z</time>
      </trkpt>
      <trkpt lat="46.0095" lon="6.5813">
        <ele>2061.2</ele>
        <time>2019-01-29T11:23:58Z</time>
      </trkpt>
      <trkpt lat="46.00952" lon="6.58081">
        <ele>2061.68</ele>
        <time>2019-01-29T11:24:28Z</time>
      </trkpt>
      <trkpt lat="46.00952" lon="6.5808">
        <ele>2061.68</ele>
        <time>2019-01-29T11:24:29Z</time>
      </trkpt>
      <trkpt lat="46.00953" lon="6.58078">
        <ele>2061.68</ele>
        <time>2019-01-29T11:24:30Z</time>
      </trkpt>
      <trkpt lat="46.00953" lon="6.58076">
        <ele>2062.17</ele>
        <time>2019-01-29T11:24:31Z</time>
      </trkpt>
      <trkpt lat="46.00953" lon="6.58075">
        <ele>2062.17</ele>
        <time>2019-01-29T11:24:32Z</time>
      </trkpt>
      <trkpt lat="46.00954" lon="6.58074">
        <ele>2062.17</ele>
        <time>2019-01-29T11:24:33Z</time>
      </trkpt>
      <trkpt lat="46.00954" lon="6.58071">
        <ele>2062.17</ele>
        <time>2019-01-29T11:24:35Z</time>
      </trkpt>
      <trkpt lat="46.00955" lon="6.58069">
        <ele>2062.17</ele>
        <time>2019-01-29T11:24:36Z</time>
      </trkpt>
      <trkpt lat="46.00955" lon="6.58068">
        <ele>2062.17</ele>
        <time>2019-01-29T11:24:37Z</time>
      </trkpt>
      <trkpt lat="46.00958" lon="6.58055">
        <ele>2062.17</ele>
        <time>2019-01-29T11:24:45Z</time>
      </trkpt>
      <trkpt lat="46.00958" lon="6.58053">
        <ele>2062.17</ele>
        <time>2019-01-29T11:24:46Z</time>
      </trkpt>
      <trkpt lat="46.00958" lon="6.58052">
        <ele>2062.65</ele>
        <time>2019-01-29T11:24:47Z</time>
      </trkpt>
      <trkpt lat="46.00959" lon="6.5805">
        <ele>2062.65</ele>
        <time>2019-01-29T11:24:48Z</time>
      </trkpt>
      <trkpt lat="46.00959" lon="6.58048">
        <ele>2062.65</ele>
        <time>2019-01-29T11:24:49Z</time>
      </trkpt>
      <trkpt lat="46.0096" lon="6.58046">
        <ele>2062.65</ele>
        <time>2019-01-29T11:24:50Z</time>
      </trkpt>
      <trkpt lat="46.0096" lon="6.58045">
        <ele>2062.65</ele>
        <time>2019-01-29T11:24:51Z</time>
      </trkpt>
      <trkpt lat="46.0096" lon="6.58044">
        <ele>2062.65</ele>
        <time>2019-01-29T11:24:52Z</time>
      </trkpt>
      <trkpt lat="46.0096" lon="6.58042">
        <ele>2063.13</ele>
        <time>2019-01-29T11:24:53Z</time>
      </trkpt>
      <trkpt lat="46.0096" lon="6.58041">
        <ele>2063.13</ele>
        <time>2019-01-29T11:24:54Z</time>
      </trkpt>
      <trkpt lat="46.00961" lon="6.58038">
        <ele>2063.13</ele>
        <time>2019-01-29T11:24:56Z</time>
      </trkpt>
      <trkpt lat="46.00961" lon="6.58036">
        <ele>2063.61</ele>
        <time>2019-01-29T11:24:57Z</time>
      </trkpt>
      <trkpt lat="46.00961" lon="6.58035">
        <ele>2063.61</ele>
        <time>2019-01-29T11:24:58Z</time>
      </trkpt>
      <trkpt lat="46.00969" lon="6.58">
        <ele>2064.57</ele>
        <time>2019-01-29T11:25:20Z</time>
      </trkpt>
      <trkpt lat="46.00975" lon="6.57982">
        <ele>2066.01</ele>
        <time>2019-01-29T11:25:32Z</time>
      </trkpt>
      <trkpt lat="46.00975" lon="6.5798">
        <ele>2066.01</ele>
        <time>2019-01-29T11:25:33Z</time>
      </trkpt>
      <trkpt lat="46.00976" lon="6.57978">
        <ele>2066.01</ele>
        <time>2019-01-29T11:25:34Z</time>
      </trkpt>
      <trkpt lat="46.00976" lon="6.57976">
        <ele>2066.01</ele>
        <time>2019-01-29T11:25:35Z</time>
      </trkpt>
      <trkpt lat="46.00977" lon="6.57974">
        <ele>2066.01</ele>
        <time>2019-01-29T11:25:36Z</time>
      </trkpt>
      <trkpt lat="46.00977" lon="6.57972">
        <ele>2066.01</ele>
        <time>2019-01-29T11:25:37Z</time>
      </trkpt>
      <trkpt lat="46.00977" lon="6.5797">
        <ele>2066.01</ele>
        <time>2019-01-29T11:25:38Z</time>
      </trkpt>
      <trkpt lat="46.00978" lon="6.57968">
        <ele>2066.01</ele>
        <time>2019-01-29T11:25:39Z</time>
      </trkpt>
      <trkpt lat="46.00978" lon="6.57966">
        <ele>2066.01</ele>
        <time>2019-01-29T11:25:40Z</time>
      </trkpt>
      <trkpt lat="46.00978" lon="6.57964">
        <ele>2066.01</ele>
        <time>2019-01-29T11:25:41Z</time>
      </trkpt>
      <trkpt lat="46.00979" lon="6.57961">
        <ele>2066.01</ele>
        <time>2019-01-29T11:25:43Z</time>
      </trkpt>
      <trkpt lat="46.00979" lon="6.5796">
        <ele>2066.01</ele>
        <time>2019-01-29T11:25:44Z</time>
      </trkpt>
      <trkpt lat="46.0098" lon="6.57959">
        <ele>2066.01</ele>
        <time>2019-01-29T11:25:45Z</time>
      </trkpt>
      <trkpt lat="46.00981" lon="6.57957">
        <ele>2066.49</ele>
        <time>2019-01-29T11:25:46Z</time>
      </trkpt>
      <trkpt lat="46.00981" lon="6.57956">
        <ele>2066.49</ele>
        <time>2019-01-29T11:25:47Z</time>
      </trkpt>
      <trkpt lat="46.00981" lon="6.57954">
        <ele>2066.49</ele>
        <time>2019-01-29T11:25:48Z</time>
      </trkpt>
      <trkpt lat="46.00982" lon="6.57953">
        <ele>2066.49</ele>
        <time>2019-01-29T11:25:49Z</time>
      </trkpt>
      <trkpt lat="46.00982" lon="6.57951">
        <ele>2066.49</ele>
        <time>2019-01-29T11:25:50Z</time>
      </trkpt>
      <trkpt lat="46.00983" lon="6.57949">
        <ele>2066.49</ele>
        <time>2019-01-29T11:25:51Z</time>
      </trkpt>
      <trkpt lat="46.00983" lon="6.57948">
        <ele>2066.49</ele>
        <time>2019-01-29T11:25:52Z</time>
      </trkpt>
      <trkpt lat="46.00983" lon="6.57947">
        <ele>2066.97</ele>
        <time>2019-01-29T11:25:53Z</time>
      </trkpt>
      <trkpt lat="46.00986" lon="6.57932">
        <ele>2067.93</ele>
        <time>2019-01-29T11:26:04Z</time>
      </trkpt>
      <trkpt lat="46.00986" lon="6.57931">
        <ele>2068.41</ele>
        <time>2019-01-29T11:26:05Z</time>
      </trkpt>
      <trkpt lat="46.00992" lon="6.57913">
        <ele>2069.38</ele>
        <time>2019-01-29T11:26:17Z</time>
      </trkpt>
      <trkpt lat="46.00992" lon="6.57912">
        <ele>2069.38</ele>
        <time>2019-01-29T11:26:18Z</time>
      </trkpt>
      <trkpt lat="46.00992" lon="6.5791">
        <ele>2069.38</ele>
        <time>2019-01-29T11:26:19Z</time>
      </trkpt>
      <trkpt lat="46.00993" lon="6.57909">
        <ele>2069.38</ele>
        <time>2019-01-29T11:26:20Z</time>
      </trkpt>
      <trkpt lat="46.00993" lon="6.57907">
        <ele>2069.86</ele>
        <time>2019-01-29T11:26:21Z</time>
      </trkpt>
      <trkpt lat="46.00993" lon="6.57905">
        <ele>2069.86</ele>
        <time>2019-01-29T11:26:22Z</time>
      </trkpt>
      <trkpt lat="46.00993" lon="6.57904">
        <ele>2069.86</ele>
        <time>2019-01-29T11:26:23Z</time>
      </trkpt>
      <trkpt lat="46.00993" lon="6.57901">
        <ele>2070.34</ele>
        <time>2019-01-29T11:26:38Z</time>
      </trkpt>
      <trkpt lat="46.00991" lon="6.57901">
        <ele>2070.34</ele>
        <time>2019-01-29T11:26:56Z</time>
      </trkpt>
      <trkpt lat="46.00991" lon="6.57901">
        <ele>2070.34</ele>
        <time>2019-01-29T11:27:07Z</time>
      </trkpt>
      <trkpt lat="46.00993" lon="6.57902">
        <ele>2070.34</ele>
        <time>2019-01-29T11:27:19Z</time>
      </trkpt>
      <trkpt lat="46.00993" lon="6.57902">
        <ele>2069.86</ele>
        <time>2019-01-29T11:27:32Z</time>
      </trkpt>
      <trkpt lat="46.00993" lon="6.57902">
        <ele>2069.86</ele>
        <time>2019-01-29T11:27:47Z</time>
      </trkpt>
      <trkpt lat="46.00994" lon="6.57902">
        <ele>2070.34</ele>
        <time>2019-01-29T11:28:02Z</time>
      </trkpt>
      <trkpt lat="46.00994" lon="6.57902">
        <ele>2070.34</ele>
        <time>2019-01-29T11:28:17Z</time>
      </trkpt>
      <trkpt lat="46.00992" lon="6.57879">
        <ele>2069.38</ele>
        <time>2019-01-29T11:28:35Z</time>
      </trkpt>
      <trkpt lat="46.00982" lon="6.57857">
        <ele>2066.01</ele>
        <time>2019-01-29T11:28:46Z</time>
      </trkpt>
      <trkpt lat="46.00975" lon="6.57841">
        <ele>2062.65</ele>
        <time>2019-01-29T11:28:50Z</time>
      </trkpt>
      <trkpt lat="46.00965" lon="6.57824">
        <ele>2059.28</ele>
        <time>2019-01-29T11:28:53Z</time>
      </trkpt>
      <trkpt lat="46.00958" lon="6.5781">
        <ele>2055.44</ele>
        <time>2019-01-29T11:28:55Z</time>
      </trkpt>
      <trkpt lat="46.00949" lon="6.57795">
        <ele>2051.59</ele>
        <time>2019-01-29T11:28:57Z</time>
      </trkpt>
      <trkpt lat="46.0094" lon="6.57779">
        <ele>2047.26</ele>
        <time>2019-01-29T11:28:59Z</time>
      </trkpt>
      <trkpt lat="46.0093" lon="6.57761">
        <ele>2041.98</ele>
        <time>2019-01-29T11:29:01Z</time>
      </trkpt>
      <trkpt lat="46.0092" lon="6.57743">
        <ele>2037.17</ele>
        <time>2019-01-29T11:29:03Z</time>
      </trkpt>
      <trkpt lat="46.0091" lon="6.57725">
        <ele>2032.84</ele>
        <time>2019-01-29T11:29:05Z</time>
      </trkpt>
      <trkpt lat="46.00901" lon="6.5771">
        <ele>2029</ele>
        <time>2019-01-29T11:29:07Z</time>
      </trkpt>
      <trkpt lat="46.00893" lon="6.57695">
        <ele>2026.12</ele>
        <time>2019-01-29T11:29:09Z</time>
      </trkpt>
      <trkpt lat="46.00889" lon="6.57688">
        <ele>2024.67</ele>
        <time>2019-01-29T11:29:10Z</time>
      </trkpt>
      <trkpt lat="46.00878" lon="6.57673">
        <ele>2022.27</ele>
        <time>2019-01-29T11:29:14Z</time>
      </trkpt>
      <trkpt lat="46.00863" lon="6.57649">
        <ele>2022.75</ele>
        <time>2019-01-29T11:29:33Z</time>
      </trkpt>
      <trkpt lat="46.00862" lon="6.57647">
        <ele>2022.75</ele>
        <time>2019-01-29T11:29:34Z</time>
      </trkpt>
      <trkpt lat="46.00859" lon="6.57639">
        <ele>2022.27</ele>
        <time>2019-01-29T11:29:38Z</time>
      </trkpt>
      <trkpt lat="46.00859" lon="6.57638">
        <ele>2022.27</ele>
        <time>2019-01-29T11:29:39Z</time>
      </trkpt>
      <trkpt lat="46.00858" lon="6.57636">
        <ele>2022.27</ele>
        <time>2019-01-29T11:29:40Z</time>
      </trkpt>
      <trkpt lat="46.00857" lon="6.57634">
        <ele>2021.79</ele>
        <time>2019-01-29T11:29:41Z</time>
      </trkpt>
      <trkpt lat="46.00857" lon="6.57633">
        <ele>2021.79</ele>
        <time>2019-01-29T11:29:42Z</time>
      </trkpt>
      <trkpt lat="46.00856" lon="6.57631">
        <ele>2021.79</ele>
        <time>2019-01-29T11:29:43Z</time>
      </trkpt>
      <trkpt lat="46.00855" lon="6.5763">
        <ele>2021.79</ele>
        <time>2019-01-29T11:29:44Z</time>
      </trkpt>
      <trkpt lat="46.00855" lon="6.57628">
        <ele>2021.79</ele>
        <time>2019-01-29T11:29:45Z</time>
      </trkpt>
      <trkpt lat="46.00854" lon="6.57627">
        <ele>2021.79</ele>
        <time>2019-01-29T11:29:46Z</time>
      </trkpt>
      <trkpt lat="46.00847" lon="6.57604">
        <ele>2020.35</ele>
        <time>2019-01-29T11:29:57Z</time>
      </trkpt>
      <trkpt lat="46.00846" lon="6.57602">
        <ele>2019.87</ele>
        <time>2019-01-29T11:29:58Z</time>
      </trkpt>
      <trkpt lat="46.00825" lon="6.5757">
        <ele>2019.87</ele>
        <time>2019-01-29T11:30:20Z</time>
      </trkpt>
      <trkpt lat="46.00824" lon="6.57568">
        <ele>2020.35</ele>
        <time>2019-01-29T11:30:21Z</time>
      </trkpt>
      <trkpt lat="46.00818" lon="6.57557">
        <ele>2023.23</ele>
        <time>2019-01-29T11:30:33Z</time>
      </trkpt>
      <trkpt lat="46.00811" lon="6.57555">
        <ele>2026.6</ele>
        <time>2019-01-29T11:30:45Z</time>
      </trkpt>
      <trkpt lat="46.00803" lon="6.5755">
        <ele>2029.48</ele>
        <time>2019-01-29T11:30:56Z</time>
      </trkpt>
      <trkpt lat="46.00799" lon="6.5754">
        <ele>2031.4</ele>
        <time>2019-01-29T11:31:05Z</time>
      </trkpt>
      <trkpt lat="46.00797" lon="6.57535">
        <ele>2032.84</ele>
        <time>2019-01-29T11:31:10Z</time>
      </trkpt>
      <trkpt lat="46.00795" lon="6.57532">
        <ele>2033.33</ele>
        <time>2019-01-29T11:31:13Z</time>
      </trkpt>
      <trkpt lat="46.00794" lon="6.57531">
        <ele>2033.81</ele>
        <time>2019-01-29T11:31:15Z</time>
      </trkpt>
      <trkpt lat="46.00793" lon="6.57529">
        <ele>2033.81</ele>
        <time>2019-01-29T11:31:17Z</time>
      </trkpt>
      <trkpt lat="46.00792" lon="6.57527">
        <ele>2034.77</ele>
        <time>2019-01-29T11:31:19Z</time>
      </trkpt>
      <trkpt lat="46.00787" lon="6.57517">
        <ele>2037.17</ele>
        <time>2019-01-29T11:31:30Z</time>
      </trkpt>
      <trkpt lat="46.00786" lon="6.57515">
        <ele>2037.17</ele>
        <time>2019-01-29T11:31:31Z</time>
      </trkpt>
      <trkpt lat="46.00785" lon="6.57506">
        <ele>2038.13</ele>
        <time>2019-01-29T11:31:38Z</time>
      </trkpt>
      <trkpt lat="46.00785" lon="6.57503">
        <ele>2038.61</ele>
        <time>2019-01-29T11:31:40Z</time>
      </trkpt>
      <trkpt lat="46.00782" lon="6.5749">
        <ele>2041.02</ele>
        <time>2019-01-29T11:31:50Z</time>
      </trkpt>
      <trkpt lat="46.0078" lon="6.57483">
        <ele>2042.94</ele>
        <time>2019-01-29T11:31:59Z</time>
      </trkpt>
      <trkpt lat="46.00777" lon="6.57478">
        <ele>2044.86</ele>
        <time>2019-01-29T11:32:07Z</time>
      </trkpt>
      <trkpt lat="46.00777" lon="6.57477">
        <ele>2045.34</ele>
        <time>2019-01-29T11:32:09Z</time>
      </trkpt>
      <trkpt lat="46.00772" lon="6.57469">
        <ele>2047.75</ele>
        <time>2019-01-29T11:32:19Z</time>
      </trkpt>
      <trkpt lat="46.00771" lon="6.57466">
        <ele>2048.71</ele>
        <time>2019-01-29T11:32:23Z</time>
      </trkpt>
      <trkpt lat="46.0077" lon="6.57466">
        <ele>2049.19</ele>
        <time>2019-01-29T11:32:24Z</time>
      </trkpt>
      <trkpt lat="46.00769" lon="6.57464">
        <ele>2049.19</ele>
        <time>2019-01-29T11:32:26Z</time>
      </trkpt>
      <trkpt lat="46.00768" lon="6.57462">
        <ele>2049.67</ele>
        <time>2019-01-29T11:32:28Z</time>
      </trkpt>
      <trkpt lat="46.00764" lon="6.57454">
        <ele>2051.59</ele>
        <time>2019-01-29T11:32:37Z</time>
      </trkpt>
      <trkpt lat="46.00763" lon="6.57453">
        <ele>2052.07</ele>
        <time>2019-01-29T11:32:38Z</time>
      </trkpt>
      <trkpt lat="46.00731" lon="6.57405">
        <ele>2053.51</ele>
        <time>2019-01-29T11:33:15Z</time>
      </trkpt>
      <trkpt lat="46.00708" lon="6.57374">
        <ele>2053.99</ele>
        <time>2019-01-29T11:33:37Z</time>
      </trkpt>
      <trkpt lat="46.00707" lon="6.57373">
        <ele>2053.99</ele>
        <time>2019-01-29T11:33:38Z</time>
      </trkpt>
      <trkpt lat="46.00706" lon="6.57372">
        <ele>2053.99</ele>
        <time>2019-01-29T11:33:39Z</time>
      </trkpt>
      <trkpt lat="46.00705" lon="6.57371">
        <ele>2053.99</ele>
        <time>2019-01-29T11:33:40Z</time>
      </trkpt>
      <trkpt lat="46.00704" lon="6.5737">
        <ele>2053.99</ele>
        <time>2019-01-29T11:33:41Z</time>
      </trkpt>
      <trkpt lat="46.00674" lon="6.57321">
        <ele>2056.4</ele>
        <time>2019-01-29T11:34:16Z</time>
      </trkpt>
      <trkpt lat="46.00644" lon="6.57272">
        <ele>2056.88</ele>
        <time>2019-01-29T11:34:47Z</time>
      </trkpt>
      <trkpt lat="46.00643" lon="6.5727">
        <ele>2056.88</ele>
        <time>2019-01-29T11:34:48Z</time>
      </trkpt>
      <trkpt lat="46.0064" lon="6.57258">
        <ele>2056.88</ele>
        <time>2019-01-29T11:34:56Z</time>
      </trkpt>
      <trkpt lat="46.00637" lon="6.57258">
        <ele>2056.4</ele>
        <time>2019-01-29T11:35:02Z</time>
      </trkpt>
      <trkpt lat="46.00636" lon="6.57259">
        <ele>2055.44</ele>
        <time>2019-01-29T11:35:03Z</time>
      </trkpt>
      <trkpt lat="46.00635" lon="6.57259">
        <ele>2053.99</ele>
        <time>2019-01-29T11:35:06Z</time>
      </trkpt>
      <trkpt lat="46.00635" lon="6.57257">
        <ele>2053.99</ele>
        <time>2019-01-29T11:35:07Z</time>
      </trkpt>
      <trkpt lat="46.00634" lon="6.57255">
        <ele>2053.99</ele>
        <time>2019-01-29T11:35:08Z</time>
      </trkpt>
      <trkpt lat="46.00635" lon="6.57252">
        <ele>2053.99</ele>
        <time>2019-01-29T11:35:09Z</time>
      </trkpt>
      <trkpt lat="46.00634" lon="6.57249">
        <ele>2053.51</ele>
        <time>2019-01-29T11:35:10Z</time>
      </trkpt>
      <trkpt lat="46.00634" lon="6.57245">
        <ele>2053.03</ele>
        <time>2019-01-29T11:35:11Z</time>
      </trkpt>
      <trkpt lat="46.00634" lon="6.57221">
        <ele>2049.67</ele>
        <time>2019-01-29T11:35:16Z</time>
      </trkpt>
      <trkpt lat="46.00635" lon="6.57204">
        <ele>2046.78</ele>
        <time>2019-01-29T11:35:21Z</time>
      </trkpt>
      <trkpt lat="46.00639" lon="6.57183">
        <ele>2043.42</ele>
        <time>2019-01-29T11:35:27Z</time>
      </trkpt>
      <trkpt lat="46.0064" lon="6.5717">
        <ele>2041.02</ele>
        <time>2019-01-29T11:35:31Z</time>
      </trkpt>
      <trkpt lat="46.00638" lon="6.57168">
        <ele>2040.54</ele>
        <time>2019-01-29T11:35:32Z</time>
      </trkpt>
      <trkpt lat="46.00636" lon="6.57167">
        <ele>2039.57</ele>
        <time>2019-01-29T11:35:33Z</time>
      </trkpt>
      <trkpt lat="46.00632" lon="6.57167">
        <ele>2038.61</ele>
        <time>2019-01-29T11:35:34Z</time>
      </trkpt>
      <trkpt lat="46.00629" lon="6.57168">
        <ele>2038.61</ele>
        <time>2019-01-29T11:35:35Z</time>
      </trkpt>
      <trkpt lat="46.00626" lon="6.57169">
        <ele>2037.65</ele>
        <time>2019-01-29T11:35:36Z</time>
      </trkpt>
      <trkpt lat="46.00623" lon="6.5717">
        <ele>2036.69</ele>
        <time>2019-01-29T11:35:37Z</time>
      </trkpt>
      <trkpt lat="46.00612" lon="6.57175">
        <ele>2033.81</ele>
        <time>2019-01-29T11:35:40Z</time>
      </trkpt>
      <trkpt lat="46.00594" lon="6.57178">
        <ele>2029.96</ele>
        <time>2019-01-29T11:35:43Z</time>
      </trkpt>
      <trkpt lat="46.00586" lon="6.57179">
        <ele>2026.6</ele>
        <time>2019-01-29T11:35:44Z</time>
      </trkpt>
      <trkpt lat="46.00579" lon="6.57179">
        <ele>2023.71</ele>
        <time>2019-01-29T11:35:45Z</time>
      </trkpt>
      <trkpt lat="46.00572" lon="6.57177">
        <ele>2021.79</ele>
        <time>2019-01-29T11:35:46Z</time>
      </trkpt>
      <trkpt lat="46.0056" lon="6.57174">
        <ele>2018.43</ele>
        <time>2019-01-29T11:35:48Z</time>
      </trkpt>
      <trkpt lat="46.00548" lon="6.57171">
        <ele>2016.5</ele>
        <time>2019-01-29T11:35:51Z</time>
      </trkpt>
      <trkpt lat="46.0053" lon="6.57168">
        <ele>2016.98</ele>
        <time>2019-01-29T11:36:03Z</time>
      </trkpt>
      <trkpt lat="46.00529" lon="6.57169">
        <ele>2017.46</ele>
        <time>2019-01-29T11:36:04Z</time>
      </trkpt>
      <trkpt lat="46.00528" lon="6.57169">
        <ele>2017.46</ele>
        <time>2019-01-29T11:36:05Z</time>
      </trkpt>
      <trkpt lat="46.00526" lon="6.5717">
        <ele>2017.46</ele>
        <time>2019-01-29T11:36:06Z</time>
      </trkpt>
      <trkpt lat="46.00525" lon="6.5717">
        <ele>2017.94</ele>
        <time>2019-01-29T11:36:07Z</time>
      </trkpt>
      <trkpt lat="46.00524" lon="6.5717">
        <ele>2018.43</ele>
        <time>2019-01-29T11:36:08Z</time>
      </trkpt>
      <trkpt lat="46.00523" lon="6.5717">
        <ele>2018.43</ele>
        <time>2019-01-29T11:36:09Z</time>
      </trkpt>
      <trkpt lat="46.00522" lon="6.5717">
        <ele>2018.43</ele>
        <time>2019-01-29T11:36:10Z</time>
      </trkpt>
      <trkpt lat="46.00521" lon="6.5717">
        <ele>2018.91</ele>
        <time>2019-01-29T11:36:11Z</time>
      </trkpt>
      <trkpt lat="46.0052" lon="6.5717">
        <ele>2018.91</ele>
        <time>2019-01-29T11:36:12Z</time>
      </trkpt>
      <trkpt lat="46.00518" lon="6.5717">
        <ele>2019.39</ele>
        <time>2019-01-29T11:36:13Z</time>
      </trkpt>
      <trkpt lat="46.00517" lon="6.5717">
        <ele>2019.39</ele>
        <time>2019-01-29T11:36:14Z</time>
      </trkpt>
      <trkpt lat="46.00515" lon="6.57171">
        <ele>2019.39</ele>
        <time>2019-01-29T11:36:15Z</time>
      </trkpt>
      <trkpt lat="46.00514" lon="6.57171">
        <ele>2019.87</ele>
        <time>2019-01-29T11:36:16Z</time>
      </trkpt>
      <trkpt lat="46.00513" lon="6.57171">
        <ele>2019.87</ele>
        <time>2019-01-29T11:36:17Z</time>
      </trkpt>
      <trkpt lat="46.00505" lon="6.57173">
        <ele>2020.35</ele>
        <time>2019-01-29T11:36:23Z</time>
      </trkpt>
      <trkpt lat="46.00503" lon="6.57172">
        <ele>2019.87</ele>
        <time>2019-01-29T11:36:24Z</time>
      </trkpt>
      <trkpt lat="46.00502" lon="6.57171">
        <ele>2019.87</ele>
        <time>2019-01-29T11:36:25Z</time>
      </trkpt>
      <trkpt lat="46.00501" lon="6.57171">
        <ele>2019.87</ele>
        <time>2019-01-29T11:36:26Z</time>
      </trkpt>
      <trkpt lat="46.005" lon="6.5717">
        <ele>2020.35</ele>
        <time>2019-01-29T11:36:27Z</time>
      </trkpt>
      <trkpt lat="46.00498" lon="6.57169">
        <ele>2020.35</ele>
        <time>2019-01-29T11:36:28Z</time>
      </trkpt>
      <trkpt lat="46.0048" lon="6.57161">
        <ele>2023.23</ele>
        <time>2019-01-29T11:36:46Z</time>
      </trkpt>
      <trkpt lat="46.00475" lon="6.57158">
        <ele>2024.19</ele>
        <time>2019-01-29T11:36:51Z</time>
      </trkpt>
      <trkpt lat="46.00474" lon="6.57158">
        <ele>2024.19</ele>
        <time>2019-01-29T11:36:52Z</time>
      </trkpt>
      <trkpt lat="46.00472" lon="6.57157">
        <ele>2024.67</ele>
        <time>2019-01-29T11:36:53Z</time>
      </trkpt>
      <trkpt lat="46.00472" lon="6.57157">
        <ele>2024.67</ele>
        <time>2019-01-29T11:36:54Z</time>
      </trkpt>
      <trkpt lat="46.00471" lon="6.57156">
        <ele>2024.67</ele>
        <time>2019-01-29T11:36:55Z</time>
      </trkpt>
      <trkpt lat="46.0047" lon="6.57156">
        <ele>2025.15</ele>
        <time>2019-01-29T11:36:56Z</time>
      </trkpt>
      <trkpt lat="46.00469" lon="6.57155">
        <ele>2025.15</ele>
        <time>2019-01-29T11:36:57Z</time>
      </trkpt>
      <trkpt lat="46.00468" lon="6.57155">
        <ele>2025.64</ele>
        <time>2019-01-29T11:36:58Z</time>
      </trkpt>
      <trkpt lat="46.00467" lon="6.57154">
        <ele>2025.64</ele>
        <time>2019-01-29T11:36:59Z</time>
      </trkpt>
      <trkpt lat="46.00466" lon="6.57153">
        <ele>2025.64</ele>
        <time>2019-01-29T11:37:00Z</time>
      </trkpt>
      <trkpt lat="46.00465" lon="6.57152">
        <ele>2025.64</ele>
        <time>2019-01-29T11:37:01Z</time>
      </trkpt>
      <trkpt lat="46.00464" lon="6.57151">
        <ele>2026.12</ele>
        <time>2019-01-29T11:37:02Z</time>
      </trkpt>
      <trkpt lat="46.0045" lon="6.57144">
        <ele>2029</ele>
        <time>2019-01-29T11:37:16Z</time>
      </trkpt>
      <trkpt lat="46.00448" lon="6.57143">
        <ele>2029.48</ele>
        <time>2019-01-29T11:37:18Z</time>
      </trkpt>
      <trkpt lat="46.00447" lon="6.57142">
        <ele>2029.48</ele>
        <time>2019-01-29T11:37:19Z</time>
      </trkpt>
      <trkpt lat="46.00446" lon="6.57142">
        <ele>2029.96</ele>
        <time>2019-01-29T11:37:20Z</time>
      </trkpt>
      <trkpt lat="46.0043" lon="6.57127">
        <ele>2031.88</ele>
        <time>2019-01-29T11:37:37Z</time>
      </trkpt>
      <trkpt lat="46.0043" lon="6.57127">
        <ele>2032.36</ele>
        <time>2019-01-29T11:37:38Z</time>
      </trkpt>
      <trkpt lat="46.00425" lon="6.57122">
        <ele>2032.84</ele>
        <time>2019-01-29T11:37:43Z</time>
      </trkpt>
      <trkpt lat="46.00425" lon="6.57122">
        <ele>2032.84</ele>
        <time>2019-01-29T11:37:44Z</time>
      </trkpt>
      <trkpt lat="46.00424" lon="6.57121">
        <ele>2033.33</ele>
        <time>2019-01-29T11:37:45Z</time>
      </trkpt>
      <trkpt lat="46.00422" lon="6.5712">
        <ele>2033.33</ele>
        <time>2019-01-29T11:37:46Z</time>
      </trkpt>
      <trkpt lat="46.00422" lon="6.5712">
        <ele>2033.33</ele>
        <time>2019-01-29T11:37:47Z</time>
      </trkpt>
      <trkpt lat="46.0042" lon="6.57119">
        <ele>2033.81</ele>
        <time>2019-01-29T11:37:48Z</time>
      </trkpt>
      <trkpt lat="46.00386" lon="6.57094">
        <ele>2036.69</ele>
        <time>2019-01-29T11:38:20Z</time>
      </trkpt>
      <trkpt lat="46.0038" lon="6.57089">
        <ele>2036.69</ele>
        <time>2019-01-29T11:38:26Z</time>
      </trkpt>
      <trkpt lat="46.00379" lon="6.57089">
        <ele>2037.17</ele>
        <time>2019-01-29T11:38:27Z</time>
      </trkpt>
      <trkpt lat="46.00335" lon="6.57068">
        <ele>2034.29</ele>
        <time>2019-01-29T11:38:57Z</time>
      </trkpt>
      <trkpt lat="46.0029" lon="6.57048">
        <ele>2035.73</ele>
        <time>2019-01-29T11:39:31Z</time>
      </trkpt>
      <trkpt lat="46.00256" lon="6.57028">
        <ele>2032.36</ele>
        <time>2019-01-29T11:39:52Z</time>
      </trkpt>
      <trkpt lat="46.0025" lon="6.57027">
        <ele>2031.4</ele>
        <time>2019-01-29T11:39:56Z</time>
      </trkpt>
      <trkpt lat="46.00249" lon="6.57026">
        <ele>2031.4</ele>
        <time>2019-01-29T11:39:57Z</time>
      </trkpt>
      <trkpt lat="46.0024" lon="6.57021">
        <ele>2032.36</ele>
        <time>2019-01-29T11:40:04Z</time>
      </trkpt>
      <trkpt lat="46.00239" lon="6.57021">
        <ele>2032.36</ele>
        <time>2019-01-29T11:40:05Z</time>
      </trkpt>
      <trkpt lat="46.00238" lon="6.57021">
        <ele>2032.84</ele>
        <time>2019-01-29T11:40:06Z</time>
      </trkpt>
      <trkpt lat="46.00237" lon="6.5702">
        <ele>2032.84</ele>
        <time>2019-01-29T11:40:07Z</time>
      </trkpt>
      <trkpt lat="46.00235" lon="6.5702">
        <ele>2032.84</ele>
        <time>2019-01-29T11:40:08Z</time>
      </trkpt>
      <trkpt lat="46.00209" lon="6.57006">
        <ele>2032.36</ele>
        <time>2019-01-29T11:40:28Z</time>
      </trkpt>
      <trkpt lat="46.00208" lon="6.57006">
        <ele>2032.36</ele>
        <time>2019-01-29T11:40:29Z</time>
      </trkpt>
      <trkpt lat="46.00207" lon="6.57005">
        <ele>2032.36</ele>
        <time>2019-01-29T11:40:30Z</time>
      </trkpt>
      <trkpt lat="46.00205" lon="6.57005">
        <ele>2032.36</ele>
        <time>2019-01-29T11:40:31Z</time>
      </trkpt>
      <trkpt lat="46.00204" lon="6.57005">
        <ele>2032.36</ele>
        <time>2019-01-29T11:40:32Z</time>
      </trkpt>
      <trkpt lat="46.00199" lon="6.57003">
        <ele>2032.84</ele>
        <time>2019-01-29T11:40:36Z</time>
      </trkpt>
      <trkpt lat="46.00198" lon="6.57002">
        <ele>2032.84</ele>
        <time>2019-01-29T11:40:37Z</time>
      </trkpt>
      <trkpt lat="46.00184" lon="6.56996">
        <ele>2032.84</ele>
        <time>2019-01-29T11:40:47Z</time>
      </trkpt>
      <trkpt lat="46.00183" lon="6.56996">
        <ele>2032.84</ele>
        <time>2019-01-29T11:40:48Z</time>
      </trkpt>
      <trkpt lat="46.00138" lon="6.56973">
        <ele>2033.81</ele>
        <time>2019-01-29T11:41:23Z</time>
      </trkpt>
      <trkpt lat="46.00137" lon="6.56973">
        <ele>2033.81</ele>
        <time>2019-01-29T11:41:24Z</time>
      </trkpt>
      <trkpt lat="46.00136" lon="6.56973">
        <ele>2033.81</ele>
        <time>2019-01-29T11:41:25Z</time>
      </trkpt>
      <trkpt lat="46.00134" lon="6.56972">
        <ele>2034.29</ele>
        <time>2019-01-29T11:41:26Z</time>
      </trkpt>
      <trkpt lat="46.00126" lon="6.56967">
        <ele>2034.77</ele>
        <time>2019-01-29T11:41:34Z</time>
      </trkpt>
      <trkpt lat="46.00124" lon="6.56966">
        <ele>2034.77</ele>
        <time>2019-01-29T11:41:35Z</time>
      </trkpt>
      <trkpt lat="46.0011" lon="6.56958">
        <ele>2035.25</ele>
        <time>2019-01-29T11:41:47Z</time>
      </trkpt>
      <trkpt lat="46.00109" lon="6.56958">
        <ele>2035.25</ele>
        <time>2019-01-29T11:41:48Z</time>
      </trkpt>
      <trkpt lat="46.00107" lon="6.56957">
        <ele>2035.25</ele>
        <time>2019-01-29T11:41:49Z</time>
      </trkpt>
      <trkpt lat="46.00105" lon="6.56957">
        <ele>2035.25</ele>
        <time>2019-01-29T11:41:50Z</time>
      </trkpt>
      <trkpt lat="46.00104" lon="6.56956">
        <ele>2035.25</ele>
        <time>2019-01-29T11:41:51Z</time>
      </trkpt>
      <trkpt lat="46.00103" lon="6.56955">
        <ele>2034.77</ele>
        <time>2019-01-29T11:41:52Z</time>
      </trkpt>
      <trkpt lat="46.00101" lon="6.56955">
        <ele>2034.77</ele>
        <time>2019-01-29T11:41:53Z</time>
      </trkpt>
      <trkpt lat="46.00099" lon="6.56953">
        <ele>2034.77</ele>
        <time>2019-01-29T11:41:55Z</time>
      </trkpt>
      <trkpt lat="46.00098" lon="6.56953">
        <ele>2034.77</ele>
        <time>2019-01-29T11:41:56Z</time>
      </trkpt>
      <trkpt lat="46.00096" lon="6.56952">
        <ele>2034.77</ele>
        <time>2019-01-29T11:41:57Z</time>
      </trkpt>
      <trkpt lat="46.00095" lon="6.56952">
        <ele>2034.77</ele>
        <time>2019-01-29T11:41:58Z</time>
      </trkpt>
      <trkpt lat="46.00094" lon="6.56951">
        <ele>2035.25</ele>
        <time>2019-01-29T11:41:59Z</time>
      </trkpt>
      <trkpt lat="46.00093" lon="6.56951">
        <ele>2035.25</ele>
        <time>2019-01-29T11:42:00Z</time>
      </trkpt>
      <trkpt lat="46.00092" lon="6.5695">
        <ele>2035.25</ele>
        <time>2019-01-29T11:42:01Z</time>
      </trkpt>
      <trkpt lat="46.00091" lon="6.56949">
        <ele>2035.25</ele>
        <time>2019-01-29T11:42:02Z</time>
      </trkpt>
      <trkpt lat="46.0009" lon="6.56948">
        <ele>2035.25</ele>
        <time>2019-01-29T11:42:03Z</time>
      </trkpt>
      <trkpt lat="46.00061" lon="6.56928">
        <ele>2035.25</ele>
        <time>2019-01-29T11:42:27Z</time>
      </trkpt>
      <trkpt lat="46.0006" lon="6.56927">
        <ele>2035.25</ele>
        <time>2019-01-29T11:42:28Z</time>
      </trkpt>
      <trkpt lat="46.00019" lon="6.56906">
        <ele>2033.81</ele>
        <time>2019-01-29T11:42:56Z</time>
      </trkpt>
      <trkpt lat="46.00006" lon="6.56899">
        <ele>2032.84</ele>
        <time>2019-01-29T11:43:05Z</time>
      </trkpt>
      <trkpt lat="46.00005" lon="6.56898">
        <ele>2032.36</ele>
        <time>2019-01-29T11:43:06Z</time>
      </trkpt>
      <trkpt lat="45.99997" lon="6.56892">
        <ele>2032.36</ele>
        <time>2019-01-29T11:43:12Z</time>
      </trkpt>
      <trkpt lat="45.99995" lon="6.56891">
        <ele>2032.36</ele>
        <time>2019-01-29T11:43:13Z</time>
      </trkpt>
      <trkpt lat="45.99994" lon="6.5689">
        <ele>2032.36</ele>
        <time>2019-01-29T11:43:14Z</time>
      </trkpt>
      <trkpt lat="45.99993" lon="6.56889">
        <ele>2032.36</ele>
        <time>2019-01-29T11:43:15Z</time>
      </trkpt>
      <trkpt lat="45.99991" lon="6.56888">
        <ele>2032.36</ele>
        <time>2019-01-29T11:43:16Z</time>
      </trkpt>
      <trkpt lat="45.9999" lon="6.56887">
        <ele>2032.36</ele>
        <time>2019-01-29T11:43:17Z</time>
      </trkpt>
      <trkpt lat="45.99948" lon="6.56855">
        <ele>2031.88</ele>
        <time>2019-01-29T11:43:48Z</time>
      </trkpt>
      <trkpt lat="45.99946" lon="6.56852">
        <ele>2032.36</ele>
        <time>2019-01-29T11:43:53Z</time>
      </trkpt>
      <trkpt lat="45.99945" lon="6.56851">
        <ele>2031.88</ele>
        <time>2019-01-29T11:43:54Z</time>
      </trkpt>
      <trkpt lat="45.9994" lon="6.56848">
        <ele>2032.36</ele>
        <time>2019-01-29T11:44:00Z</time>
      </trkpt>
      <trkpt lat="45.99939" lon="6.56848">
        <ele>2032.36</ele>
        <time>2019-01-29T11:44:01Z</time>
      </trkpt>
      <trkpt lat="45.99938" lon="6.56848">
        <ele>2032.36</ele>
        <time>2019-01-29T11:44:02Z</time>
      </trkpt>
      <trkpt lat="45.99937" lon="6.56847">
        <ele>2032.84</ele>
        <time>2019-01-29T11:44:03Z</time>
      </trkpt>
      <trkpt lat="45.99922" lon="6.56843">
        <ele>2033.33</ele>
        <time>2019-01-29T11:44:17Z</time>
      </trkpt>
      <trkpt lat="45.99921" lon="6.56843">
        <ele>2033.81</ele>
        <time>2019-01-29T11:44:18Z</time>
      </trkpt>
      <trkpt lat="45.99919" lon="6.56843">
        <ele>2033.81</ele>
        <time>2019-01-29T11:44:19Z</time>
      </trkpt>
      <trkpt lat="45.99918" lon="6.56844">
        <ele>2033.81</ele>
        <time>2019-01-29T11:44:20Z</time>
      </trkpt>
      <trkpt lat="45.99917" lon="6.56843">
        <ele>2033.81</ele>
        <time>2019-01-29T11:44:21Z</time>
      </trkpt>
      <trkpt lat="45.99916" lon="6.56844">
        <ele>2034.29</ele>
        <time>2019-01-29T11:44:22Z</time>
      </trkpt>
      <trkpt lat="45.99915" lon="6.56844">
        <ele>2034.29</ele>
        <time>2019-01-29T11:44:23Z</time>
      </trkpt>
      <trkpt lat="45.99888" lon="6.56842">
        <ele>2037.17</ele>
        <time>2019-01-29T11:44:45Z</time>
      </trkpt>
      <trkpt lat="45.99883" lon="6.56843">
        <ele>2037.65</ele>
        <time>2019-01-29T11:44:49Z</time>
      </trkpt>
      <trkpt lat="45.99882" lon="6.56842">
        <ele>2037.65</ele>
        <time>2019-01-29T11:44:50Z</time>
      </trkpt>
      <trkpt lat="45.9988" lon="6.56843">
        <ele>2038.13</ele>
        <time>2019-01-29T11:44:51Z</time>
      </trkpt>
      <trkpt lat="45.99879" lon="6.56843">
        <ele>2038.13</ele>
        <time>2019-01-29T11:44:52Z</time>
      </trkpt>
      <trkpt lat="45.99878" lon="6.56843">
        <ele>2038.13</ele>
        <time>2019-01-29T11:44:53Z</time>
      </trkpt>
      <trkpt lat="45.99858" lon="6.56844">
        <ele>2041.02</ele>
        <time>2019-01-29T11:45:10Z</time>
      </trkpt>
      <trkpt lat="45.99857" lon="6.56844">
        <ele>2041.02</ele>
        <time>2019-01-29T11:45:11Z</time>
      </trkpt>
      <trkpt lat="45.99856" lon="6.56843">
        <ele>2041.02</ele>
        <time>2019-01-29T11:45:12Z</time>
      </trkpt>
      <trkpt lat="45.99855" lon="6.56844">
        <ele>2041.5</ele>
        <time>2019-01-29T11:45:13Z</time>
      </trkpt>
      <trkpt lat="45.99854" lon="6.56844">
        <ele>2041.5</ele>
        <time>2019-01-29T11:45:14Z</time>
      </trkpt>
      <trkpt lat="45.99853" lon="6.56844">
        <ele>2041.98</ele>
        <time>2019-01-29T11:45:15Z</time>
      </trkpt>
      <trkpt lat="45.99852" lon="6.56844">
        <ele>2041.98</ele>
        <time>2019-01-29T11:45:16Z</time>
      </trkpt>
      <trkpt lat="45.99851" lon="6.56844">
        <ele>2041.98</ele>
        <time>2019-01-29T11:45:17Z</time>
      </trkpt>
      <trkpt lat="45.99849" lon="6.56844">
        <ele>2042.46</ele>
        <time>2019-01-29T11:45:18Z</time>
      </trkpt>
      <trkpt lat="45.99848" lon="6.56843">
        <ele>2042.46</ele>
        <time>2019-01-29T11:45:19Z</time>
      </trkpt>
      <trkpt lat="45.99847" lon="6.56844">
        <ele>2042.46</ele>
        <time>2019-01-29T11:45:20Z</time>
      </trkpt>
      <trkpt lat="45.99825" lon="6.56844">
        <ele>2043.42</ele>
        <time>2019-01-29T11:45:38Z</time>
      </trkpt>
      <trkpt lat="45.99823" lon="6.56844">
        <ele>2043.42</ele>
        <time>2019-01-29T11:45:39Z</time>
      </trkpt>
      <trkpt lat="45.998" lon="6.56841">
        <ele>2044.86</ele>
        <time>2019-01-29T11:45:57Z</time>
      </trkpt>
      <trkpt lat="45.99798" lon="6.5684">
        <ele>2044.86</ele>
        <time>2019-01-29T11:45:58Z</time>
      </trkpt>
      <trkpt lat="45.99797" lon="6.5684">
        <ele>2044.86</ele>
        <time>2019-01-29T11:45:59Z</time>
      </trkpt>
      <trkpt lat="45.99795" lon="6.56839">
        <ele>2044.86</ele>
        <time>2019-01-29T11:46:00Z</time>
      </trkpt>
      <trkpt lat="45.99794" lon="6.56838">
        <ele>2044.86</ele>
        <time>2019-01-29T11:46:01Z</time>
      </trkpt>
      <trkpt lat="45.99792" lon="6.56838">
        <ele>2044.86</ele>
        <time>2019-01-29T11:46:02Z</time>
      </trkpt>
      <trkpt lat="45.99791" lon="6.56838">
        <ele>2044.86</ele>
        <time>2019-01-29T11:46:03Z</time>
      </trkpt>
      <trkpt lat="45.99789" lon="6.56837">
        <ele>2044.86</ele>
        <time>2019-01-29T11:46:04Z</time>
      </trkpt>
      <trkpt lat="45.99788" lon="6.56836">
        <ele>2044.86</ele>
        <time>2019-01-29T11:46:05Z</time>
      </trkpt>
      <trkpt lat="45.99786" lon="6.56835">
        <ele>2044.38</ele>
        <time>2019-01-29T11:46:06Z</time>
      </trkpt>
      <trkpt lat="45.99765" lon="6.5683">
        <ele>2041.02</ele>
        <time>2019-01-29T11:46:16Z</time>
      </trkpt>
      <trkpt lat="45.99754" lon="6.56829">
        <ele>2038.13</ele>
        <time>2019-01-29T11:46:20Z</time>
      </trkpt>
      <trkpt lat="45.99731" lon="6.56828">
        <ele>2037.17</ele>
        <time>2019-01-29T11:46:34Z</time>
      </trkpt>
      <trkpt lat="45.99706" lon="6.56834">
        <ele>2037.65</ele>
        <time>2019-01-29T11:46:52Z</time>
      </trkpt>
      <trkpt lat="45.99704" lon="6.56836">
        <ele>2038.13</ele>
        <time>2019-01-29T11:46:54Z</time>
      </trkpt>
      <trkpt lat="45.99702" lon="6.56836">
        <ele>2038.13</ele>
        <time>2019-01-29T11:46:55Z</time>
      </trkpt>
      <trkpt lat="45.99701" lon="6.56837">
        <ele>2037.65</ele>
        <time>2019-01-29T11:46:56Z</time>
      </trkpt>
      <trkpt lat="45.99674" lon="6.56852">
        <ele>2040.05</ele>
        <time>2019-01-29T11:47:20Z</time>
      </trkpt>
      <trkpt lat="45.99672" lon="6.56854">
        <ele>2040.05</ele>
        <time>2019-01-29T11:47:22Z</time>
      </trkpt>
      <trkpt lat="45.99671" lon="6.56854">
        <ele>2040.05</ele>
        <time>2019-01-29T11:47:23Z</time>
      </trkpt>
      <trkpt lat="45.99669" lon="6.56857">
        <ele>2040.54</ele>
        <time>2019-01-29T11:47:25Z</time>
      </trkpt>
      <trkpt lat="45.99668" lon="6.56858">
        <ele>2040.54</ele>
        <time>2019-01-29T11:47:26Z</time>
      </trkpt>
      <trkpt lat="45.99666" lon="6.56859">
        <ele>2041.02</ele>
        <time>2019-01-29T11:47:27Z</time>
      </trkpt>
      <trkpt lat="45.99665" lon="6.5686">
        <ele>2041.02</ele>
        <time>2019-01-29T11:47:28Z</time>
      </trkpt>
      <trkpt lat="45.99664" lon="6.56861">
        <ele>2041.02</ele>
        <time>2019-01-29T11:47:29Z</time>
      </trkpt>
      <trkpt lat="45.99663" lon="6.56861">
        <ele>2041.02</ele>
        <time>2019-01-29T11:47:30Z</time>
      </trkpt>
      <trkpt lat="45.99663" lon="6.56862">
        <ele>2041.02</ele>
        <time>2019-01-29T11:47:31Z</time>
      </trkpt>
      <trkpt lat="45.99662" lon="6.56863">
        <ele>2041.02</ele>
        <time>2019-01-29T11:47:32Z</time>
      </trkpt>
      <trkpt lat="45.99661" lon="6.56864">
        <ele>2041.02</ele>
        <time>2019-01-29T11:47:33Z</time>
      </trkpt>
      <trkpt lat="45.99639" lon="6.56887">
        <ele>2043.9</ele>
        <time>2019-01-29T11:47:57Z</time>
      </trkpt>
      <trkpt lat="45.99636" lon="6.56889">
        <ele>2043.9</ele>
        <time>2019-01-29T11:48:00Z</time>
      </trkpt>
      <trkpt lat="45.99635" lon="6.5689">
        <ele>2044.38</ele>
        <time>2019-01-29T11:48:01Z</time>
      </trkpt>
      <trkpt lat="45.99634" lon="6.56891">
        <ele>2044.38</ele>
        <time>2019-01-29T11:48:02Z</time>
      </trkpt>
      <trkpt lat="45.99633" lon="6.56892">
        <ele>2044.38</ele>
        <time>2019-01-29T11:48:03Z</time>
      </trkpt>
      <trkpt lat="45.99632" lon="6.56893">
        <ele>2044.38</ele>
        <time>2019-01-29T11:48:04Z</time>
      </trkpt>
      <trkpt lat="45.99599" lon="6.56921">
        <ele>2045.82</ele>
        <time>2019-01-29T11:48:35Z</time>
      </trkpt>
      <trkpt lat="45.99588" lon="6.56931">
        <ele>2046.3</ele>
        <time>2019-01-29T11:48:46Z</time>
      </trkpt>
      <trkpt lat="45.99587" lon="6.56932">
        <ele>2046.3</ele>
        <time>2019-01-29T11:48:47Z</time>
      </trkpt>
      <trkpt lat="45.99551" lon="6.56971">
        <ele>2049.19</ele>
        <time>2019-01-29T11:49:22Z</time>
      </trkpt>
      <trkpt lat="45.99525" lon="6.5701">
        <ele>2049.67</ele>
        <time>2019-01-29T11:49:54Z</time>
      </trkpt>
      <trkpt lat="45.99524" lon="6.57011">
        <ele>2050.15</ele>
        <time>2019-01-29T11:49:55Z</time>
      </trkpt>
      <trkpt lat="45.99523" lon="6.57012">
        <ele>2050.15</ele>
        <time>2019-01-29T11:49:56Z</time>
      </trkpt>
      <trkpt lat="45.99522" lon="6.57014">
        <ele>2050.15</ele>
        <time>2019-01-29T11:49:57Z</time>
      </trkpt>
      <trkpt lat="45.99522" lon="6.57015">
        <ele>2050.15</ele>
        <time>2019-01-29T11:49:58Z</time>
      </trkpt>
      <trkpt lat="45.99521" lon="6.57017">
        <ele>2050.15</ele>
        <time>2019-01-29T11:49:59Z</time>
      </trkpt>
      <trkpt lat="45.9952" lon="6.57018">
        <ele>2050.15</ele>
        <time>2019-01-29T11:50:00Z</time>
      </trkpt>
      <trkpt lat="45.99519" lon="6.57019">
        <ele>2050.15</ele>
        <time>2019-01-29T11:50:01Z</time>
      </trkpt>
      <trkpt lat="45.99518" lon="6.57021">
        <ele>2050.15</ele>
        <time>2019-01-29T11:50:02Z</time>
      </trkpt>
      <trkpt lat="45.99517" lon="6.57022">
        <ele>2050.15</ele>
        <time>2019-01-29T11:50:03Z</time>
      </trkpt>
      <trkpt lat="45.99516" lon="6.57023">
        <ele>2050.15</ele>
        <time>2019-01-29T11:50:04Z</time>
      </trkpt>
      <trkpt lat="45.99514" lon="6.57025">
        <ele>2049.67</ele>
        <time>2019-01-29T11:50:05Z</time>
      </trkpt>
      <trkpt lat="45.99494" lon="6.57055">
        <ele>2046.78</ele>
        <time>2019-01-29T11:50:22Z</time>
      </trkpt>
      <trkpt lat="45.99478" lon="6.5708">
        <ele>2043.42</ele>
        <time>2019-01-29T11:50:33Z</time>
      </trkpt>
      <trkpt lat="45.99463" lon="6.5711">
        <ele>2044.86</ele>
        <time>2019-01-29T11:50:54Z</time>
      </trkpt>
      <trkpt lat="45.99462" lon="6.57112">
        <ele>2045.34</ele>
        <time>2019-01-29T11:50:55Z</time>
      </trkpt>
      <trkpt lat="45.99462" lon="6.57113">
        <ele>2045.34</ele>
        <time>2019-01-29T11:50:56Z</time>
      </trkpt>
      <trkpt lat="45.99461" lon="6.57114">
        <ele>2045.34</ele>
        <time>2019-01-29T11:50:57Z</time>
      </trkpt>
      <trkpt lat="45.9946" lon="6.57116">
        <ele>2045.34</ele>
        <time>2019-01-29T11:50:58Z</time>
      </trkpt>
      <trkpt lat="45.99454" lon="6.57127">
        <ele>2046.3</ele>
        <time>2019-01-29T11:51:06Z</time>
      </trkpt>
      <trkpt lat="45.99454" lon="6.57128">
        <ele>2046.3</ele>
        <time>2019-01-29T11:51:07Z</time>
      </trkpt>
      <trkpt lat="45.99453" lon="6.57129">
        <ele>2046.3</ele>
        <time>2019-01-29T11:51:08Z</time>
      </trkpt>
      <trkpt lat="45.99452" lon="6.57131">
        <ele>2046.78</ele>
        <time>2019-01-29T11:51:09Z</time>
      </trkpt>
      <trkpt lat="45.99452" lon="6.57132">
        <ele>2046.78</ele>
        <time>2019-01-29T11:51:10Z</time>
      </trkpt>
      <trkpt lat="45.99443" lon="6.57151">
        <ele>2049.19</ele>
        <time>2019-01-29T11:51:26Z</time>
      </trkpt>
      <trkpt lat="45.99443" lon="6.57152">
        <ele>2049.19</ele>
        <time>2019-01-29T11:51:27Z</time>
      </trkpt>
      <trkpt lat="45.99432" lon="6.57176">
        <ele>2052.55</ele>
        <time>2019-01-29T11:51:46Z</time>
      </trkpt>
      <trkpt lat="45.99427" lon="6.57192">
        <ele>2053.99</ele>
        <time>2019-01-29T11:51:58Z</time>
      </trkpt>
      <trkpt lat="45.99427" lon="6.57194">
        <ele>2054.47</ele>
        <time>2019-01-29T11:51:59Z</time>
      </trkpt>
      <trkpt lat="45.9942" lon="6.57215">
        <ele>2057.36</ele>
        <time>2019-01-29T11:52:16Z</time>
      </trkpt>
      <trkpt lat="45.9942" lon="6.57217">
        <ele>2057.36</ele>
        <time>2019-01-29T11:52:17Z</time>
      </trkpt>
      <trkpt lat="45.99418" lon="6.57224">
        <ele>2058.8</ele>
        <time>2019-01-29T11:52:23Z</time>
      </trkpt>
      <trkpt lat="45.99418" lon="6.57225">
        <ele>2058.8</ele>
        <time>2019-01-29T11:52:24Z</time>
      </trkpt>
      <trkpt lat="45.99417" lon="6.57232">
        <ele>2060.24</ele>
        <time>2019-01-29T11:52:31Z</time>
      </trkpt>
      <trkpt lat="45.99417" lon="6.57235">
        <ele>2061.2</ele>
        <time>2019-01-29T11:52:34Z</time>
      </trkpt>
      <trkpt lat="45.99415" lon="6.57242">
        <ele>2062.65</ele>
        <time>2019-01-29T11:52:41Z</time>
      </trkpt>
      <trkpt lat="45.99415" lon="6.57248">
        <ele>2064.09</ele>
        <time>2019-01-29T11:52:46Z</time>
      </trkpt>
      <trkpt lat="45.99414" lon="6.57251">
        <ele>2064.57</ele>
        <time>2019-01-29T11:52:49Z</time>
      </trkpt>
      <trkpt lat="45.99412" lon="6.57265">
        <ele>2066.97</ele>
        <time>2019-01-29T11:53:01Z</time>
      </trkpt>
      <trkpt lat="45.99412" lon="6.57266">
        <ele>2067.45</ele>
        <time>2019-01-29T11:53:02Z</time>
      </trkpt>
      <trkpt lat="45.99413" lon="6.5727">
        <ele>2067.93</ele>
        <time>2019-01-29T11:53:05Z</time>
      </trkpt>
      <trkpt lat="45.99413" lon="6.57271">
        <ele>2067.93</ele>
        <time>2019-01-29T11:53:06Z</time>
      </trkpt>
      <trkpt lat="45.99412" lon="6.57273">
        <ele>2068.41</ele>
        <time>2019-01-29T11:53:07Z</time>
      </trkpt>
      <trkpt lat="45.99412" lon="6.57306">
        <ele>2070.34</ele>
        <time>2019-01-29T11:53:59Z</time>
      </trkpt>
      <trkpt lat="45.99413" lon="6.57307">
        <ele>2070.34</ele>
        <time>2019-01-29T11:54:00Z</time>
      </trkpt>
      <trkpt lat="45.99414" lon="6.57311">
        <ele>2070.82</ele>
        <time>2019-01-29T11:54:02Z</time>
      </trkpt>
      <trkpt lat="45.99414" lon="6.57312">
        <ele>2070.82</ele>
        <time>2019-01-29T11:54:03Z</time>
      </trkpt>
      <trkpt lat="45.99439" lon="6.57349">
        <ele>2074.18</ele>
        <time>2019-01-29T11:54:36Z</time>
      </trkpt>
      <trkpt lat="45.99445" lon="6.57355">
        <ele>2077.07</ele>
        <time>2019-01-29T11:54:49Z</time>
      </trkpt>
      <trkpt lat="45.99447" lon="6.57359">
        <ele>2078.03</ele>
        <time>2019-01-29T11:54:53Z</time>
      </trkpt>
      <trkpt lat="45.99449" lon="6.57362">
        <ele>2078.99</ele>
        <time>2019-01-29T11:54:57Z</time>
      </trkpt>
      <trkpt lat="45.9945" lon="6.57362">
        <ele>2078.99</ele>
        <time>2019-01-29T11:54:58Z</time>
      </trkpt>
      <trkpt lat="45.99451" lon="6.57363">
        <ele>2079.47</ele>
        <time>2019-01-29T11:54:59Z</time>
      </trkpt>
      <trkpt lat="45.99451" lon="6.57364">
        <ele>2079.47</ele>
        <time>2019-01-29T11:55:00Z</time>
      </trkpt>
      <trkpt lat="45.99453" lon="6.57366">
        <ele>2080.43</ele>
        <time>2019-01-29T11:55:02Z</time>
      </trkpt>
      <trkpt lat="45.99454" lon="6.5737">
        <ele>2080.91</ele>
        <time>2019-01-29T11:55:06Z</time>
      </trkpt>
      <trkpt lat="45.99454" lon="6.57371">
        <ele>2081.39</ele>
        <time>2019-01-29T11:55:07Z</time>
      </trkpt>
      <trkpt lat="45.99455" lon="6.57372">
        <ele>2081.39</ele>
        <time>2019-01-29T11:55:08Z</time>
      </trkpt>
      <trkpt lat="45.99455" lon="6.57373">
        <ele>2081.39</ele>
        <time>2019-01-29T11:55:09Z</time>
      </trkpt>
      <trkpt lat="45.99458" lon="6.57383">
        <ele>2082.83</ele>
        <time>2019-01-29T11:55:18Z</time>
      </trkpt>
      <trkpt lat="45.99458" lon="6.57389">
        <ele>2083.79</ele>
        <time>2019-01-29T11:55:23Z</time>
      </trkpt>
      <trkpt lat="45.9946" lon="6.57404">
        <ele>2086.68</ele>
        <time>2019-01-29T11:55:36Z</time>
      </trkpt>
      <trkpt lat="45.99461" lon="6.57412">
        <ele>2088.6</ele>
        <time>2019-01-29T11:55:45Z</time>
      </trkpt>
      <trkpt lat="45.99461" lon="6.57421">
        <ele>2090.04</ele>
        <time>2019-01-29T11:55:54Z</time>
      </trkpt>
      <trkpt lat="45.99461" lon="6.57423">
        <ele>2090.52</ele>
        <time>2019-01-29T11:55:56Z</time>
      </trkpt>
      <trkpt lat="45.99461" lon="6.57426">
        <ele>2091</ele>
        <time>2019-01-29T11:55:58Z</time>
      </trkpt>
      <trkpt lat="45.99462" lon="6.5743">
        <ele>2091.49</ele>
        <time>2019-01-29T11:56:02Z</time>
      </trkpt>
      <trkpt lat="45.99462" lon="6.57431">
        <ele>2091.97</ele>
        <time>2019-01-29T11:56:03Z</time>
      </trkpt>
      <trkpt lat="45.99462" lon="6.57433">
        <ele>2091.97</ele>
        <time>2019-01-29T11:56:05Z</time>
      </trkpt>
      <trkpt lat="45.99462" lon="6.57436">
        <ele>2092.93</ele>
        <time>2019-01-29T11:56:08Z</time>
      </trkpt>
      <trkpt lat="45.99463" lon="6.5744">
        <ele>2093.89</ele>
        <time>2019-01-29T11:56:12Z</time>
      </trkpt>
      <trkpt lat="45.99463" lon="6.57443">
        <ele>2094.37</ele>
        <time>2019-01-29T11:56:15Z</time>
      </trkpt>
      <trkpt lat="45.99463" lon="6.57445">
        <ele>2094.85</ele>
        <time>2019-01-29T11:56:17Z</time>
      </trkpt>
      <trkpt lat="45.99468" lon="6.57454">
        <ele>2098.21</ele>
        <time>2019-01-29T11:56:29Z</time>
      </trkpt>
      <trkpt lat="45.99468" lon="6.57455">
        <ele>2098.21</ele>
        <time>2019-01-29T11:56:30Z</time>
      </trkpt>
      <trkpt lat="45.9947" lon="6.57462">
        <ele>2099.66</ele>
        <time>2019-01-29T11:56:37Z</time>
      </trkpt>
      <trkpt lat="45.99472" lon="6.57467">
        <ele>2100.62</ele>
        <time>2019-01-29T11:56:41Z</time>
      </trkpt>
      <trkpt lat="45.99473" lon="6.5747">
        <ele>2100.62</ele>
        <time>2019-01-29T11:56:44Z</time>
      </trkpt>
      <trkpt lat="45.99472" lon="6.57472">
        <ele>2101.1</ele>
        <time>2019-01-29T11:56:46Z</time>
      </trkpt>
      <trkpt lat="45.99473" lon="6.57478">
        <ele>2102.54</ele>
        <time>2019-01-29T11:56:52Z</time>
      </trkpt>
      <trkpt lat="45.99472" lon="6.57493">
        <ele>2105.91</ele>
        <time>2019-01-29T11:57:07Z</time>
      </trkpt>
      <trkpt lat="45.99472" lon="6.57495">
        <ele>2106.39</ele>
        <time>2019-01-29T11:57:09Z</time>
      </trkpt>
      <trkpt lat="45.99471" lon="6.57503">
        <ele>2107.83</ele>
        <time>2019-01-29T11:57:16Z</time>
      </trkpt>
      <trkpt lat="45.99471" lon="6.57505">
        <ele>2108.79</ele>
        <time>2019-01-29T11:57:18Z</time>
      </trkpt>
      <trkpt lat="45.99471" lon="6.5751">
        <ele>2109.27</ele>
        <time>2019-01-29T11:57:23Z</time>
      </trkpt>
      <trkpt lat="45.9947" lon="6.57525">
        <ele>2112.63</ele>
        <time>2019-01-29T11:57:38Z</time>
      </trkpt>
      <trkpt lat="45.99468" lon="6.57539">
        <ele>2115.52</ele>
        <time>2019-01-29T11:57:51Z</time>
      </trkpt>
      <trkpt lat="45.99464" lon="6.57554">
        <ele>2118.4</ele>
        <time>2019-01-29T11:58:05Z</time>
      </trkpt>
      <trkpt lat="45.9946" lon="6.57566">
        <ele>2121.77</ele>
        <time>2019-01-29T11:58:18Z</time>
      </trkpt>
      <trkpt lat="45.9946" lon="6.57567">
        <ele>2122.25</ele>
        <time>2019-01-29T11:58:20Z</time>
      </trkpt>
      <trkpt lat="45.99459" lon="6.5757">
        <ele>2122.73</ele>
        <time>2019-01-29T11:58:23Z</time>
      </trkpt>
      <trkpt lat="45.99458" lon="6.57574">
        <ele>2123.69</ele>
        <time>2019-01-29T11:58:27Z</time>
      </trkpt>
      <trkpt lat="45.99457" lon="6.57578">
        <ele>2124.65</ele>
        <time>2019-01-29T11:58:31Z</time>
      </trkpt>
      <trkpt lat="45.99451" lon="6.57588">
        <ele>2127.53</ele>
        <time>2019-01-29T11:58:45Z</time>
      </trkpt>
      <trkpt lat="45.99443" lon="6.57594">
        <ele>2130.9</ele>
        <time>2019-01-29T11:58:58Z</time>
      </trkpt>
      <trkpt lat="45.99434" lon="6.57596">
        <ele>2133.78</ele>
        <time>2019-01-29T11:59:11Z</time>
      </trkpt>
      <trkpt lat="45.99424" lon="6.57598">
        <ele>2137.15</ele>
        <time>2019-01-29T11:59:24Z</time>
      </trkpt>
      <trkpt lat="45.99417" lon="6.57598">
        <ele>2139.55</ele>
        <time>2019-01-29T11:59:34Z</time>
      </trkpt>
      <trkpt lat="45.99413" lon="6.57598">
        <ele>2140.99</ele>
        <time>2019-01-29T11:59:40Z</time>
      </trkpt>
      <trkpt lat="45.99404" lon="6.57592">
        <ele>2143.88</ele>
        <time>2019-01-29T11:59:53Z</time>
      </trkpt>
      <trkpt lat="45.99403" lon="6.57591">
        <ele>2144.36</ele>
        <time>2019-01-29T11:59:55Z</time>
      </trkpt>
      <trkpt lat="45.99399" lon="6.57587">
        <ele>2145.8</ele>
        <time>2019-01-29T12:00:02Z</time>
      </trkpt>
      <trkpt lat="45.99398" lon="6.57586">
        <ele>2146.28</ele>
        <time>2019-01-29T12:00:04Z</time>
      </trkpt>
      <trkpt lat="45.99394" lon="6.57582">
        <ele>2147.72</ele>
        <time>2019-01-29T12:00:11Z</time>
      </trkpt>
      <trkpt lat="45.99392" lon="6.57576">
        <ele>2148.68</ele>
        <time>2019-01-29T12:00:17Z</time>
      </trkpt>
      <trkpt lat="45.99391" lon="6.57574">
        <ele>2149.16</ele>
        <time>2019-01-29T12:00:19Z</time>
      </trkpt>
      <trkpt lat="45.99389" lon="6.57569">
        <ele>2150.13</ele>
        <time>2019-01-29T12:00:24Z</time>
      </trkpt>
      <trkpt lat="45.99387" lon="6.57565">
        <ele>2150.61</ele>
        <time>2019-01-29T12:00:28Z</time>
      </trkpt>
      <trkpt lat="45.99382" lon="6.57558">
        <ele>2151.57</ele>
        <time>2019-01-29T12:00:37Z</time>
      </trkpt>
      <trkpt lat="45.99382" lon="6.57557">
        <ele>2152.05</ele>
        <time>2019-01-29T12:00:38Z</time>
      </trkpt>
      <trkpt lat="45.99376" lon="6.57547">
        <ele>2153.97</ele>
        <time>2019-01-29T12:00:49Z</time>
      </trkpt>
      <trkpt lat="45.99375" lon="6.57544">
        <ele>2153.97</ele>
        <time>2019-01-29T12:00:51Z</time>
      </trkpt>
      <trkpt lat="45.99374" lon="6.57543">
        <ele>2154.45</ele>
        <time>2019-01-29T12:00:52Z</time>
      </trkpt>
      <trkpt lat="45.99365" lon="6.57529">
        <ele>2155.41</ele>
        <time>2019-01-29T12:01:05Z</time>
      </trkpt>
      <trkpt lat="45.99365" lon="6.57528">
        <ele>2155.89</ele>
        <time>2019-01-29T12:01:06Z</time>
      </trkpt>
      <trkpt lat="45.99361" lon="6.57518">
        <ele>2155.41</ele>
        <time>2019-01-29T12:01:58Z</time>
      </trkpt>
      <trkpt lat="45.99351" lon="6.57504">
        <ele>2156.86</ele>
        <time>2019-01-29T12:02:36Z</time>
      </trkpt>
      <trkpt lat="45.9935" lon="6.57503">
        <ele>2156.86</ele>
        <time>2019-01-29T12:02:37Z</time>
      </trkpt>
      <trkpt lat="45.99346" lon="6.57496">
        <ele>2157.82</ele>
        <time>2019-01-29T12:02:43Z</time>
      </trkpt>
      <trkpt lat="45.99346" lon="6.57496">
        <ele>2157.82</ele>
        <time>2019-01-29T12:02:44Z</time>
      </trkpt>
      <trkpt lat="45.99345" lon="6.57494">
        <ele>2158.3</ele>
        <time>2019-01-29T12:02:45Z</time>
      </trkpt>
      <trkpt lat="45.99344" lon="6.57493">
        <ele>2158.78</ele>
        <time>2019-01-29T12:02:46Z</time>
      </trkpt>
      <trkpt lat="45.99343" lon="6.57492">
        <ele>2158.78</ele>
        <time>2019-01-29T12:02:47Z</time>
      </trkpt>
      <trkpt lat="45.99342" lon="6.57491">
        <ele>2158.78</ele>
        <time>2019-01-29T12:02:48Z</time>
      </trkpt>
      <trkpt lat="45.99341" lon="6.5749">
        <ele>2159.26</ele>
        <time>2019-01-29T12:02:49Z</time>
      </trkpt>
      <trkpt lat="45.99341" lon="6.57489">
        <ele>2159.26</ele>
        <time>2019-01-29T12:02:50Z</time>
      </trkpt>
      <trkpt lat="45.9934" lon="6.57488">
        <ele>2159.26</ele>
        <time>2019-01-29T12:02:51Z</time>
      </trkpt>
      <trkpt lat="45.99339" lon="6.57487">
        <ele>2159.26</ele>
        <time>2019-01-29T12:02:52Z</time>
      </trkpt>
      <trkpt lat="45.99339" lon="6.57486">
        <ele>2159.26</ele>
        <time>2019-01-29T12:02:53Z</time>
      </trkpt>
      <trkpt lat="45.99338" lon="6.57485">
        <ele>2159.26</ele>
        <time>2019-01-29T12:02:54Z</time>
      </trkpt>
      <trkpt lat="45.99337" lon="6.57485">
        <ele>2159.74</ele>
        <time>2019-01-29T12:02:55Z</time>
      </trkpt>
      <trkpt lat="45.99337" lon="6.57484">
        <ele>2159.74</ele>
        <time>2019-01-29T12:02:56Z</time>
      </trkpt>
      <trkpt lat="45.99332" lon="6.57474">
        <ele>2160.7</ele>
        <time>2019-01-29T12:03:04Z</time>
      </trkpt>
      <trkpt lat="45.99326" lon="6.57469">
        <ele>2161.66</ele>
        <time>2019-01-29T12:03:11Z</time>
      </trkpt>
      <trkpt lat="45.99325" lon="6.57468">
        <ele>2161.66</ele>
        <time>2019-01-29T12:03:12Z</time>
      </trkpt>
      <trkpt lat="45.9932" lon="6.57462">
        <ele>2162.14</ele>
        <time>2019-01-29T12:03:18Z</time>
      </trkpt>
      <trkpt lat="45.99319" lon="6.57462">
        <ele>2162.14</ele>
        <time>2019-01-29T12:03:19Z</time>
      </trkpt>
      <trkpt lat="45.99318" lon="6.57461">
        <ele>2162.62</ele>
        <time>2019-01-29T12:03:20Z</time>
      </trkpt>
      <trkpt lat="45.99306" lon="6.57444">
        <ele>2163.58</ele>
        <time>2019-01-29T12:03:34Z</time>
      </trkpt>
      <trkpt lat="45.99303" lon="6.5744">
        <ele>2164.06</ele>
        <time>2019-01-29T12:03:38Z</time>
      </trkpt>
      <trkpt lat="45.99302" lon="6.57439">
        <ele>2164.06</ele>
        <time>2019-01-29T12:03:39Z</time>
      </trkpt>
      <trkpt lat="45.99301" lon="6.57438">
        <ele>2164.06</ele>
        <time>2019-01-29T12:03:40Z</time>
      </trkpt>
      <trkpt lat="45.99289" lon="6.57425">
        <ele>2165.51</ele>
        <time>2019-01-29T12:03:52Z</time>
      </trkpt>
      <trkpt lat="45.99289" lon="6.57424">
        <ele>2165.51</ele>
        <time>2019-01-29T12:03:53Z</time>
      </trkpt>
      <trkpt lat="45.99287" lon="6.57423">
        <ele>2165.51</ele>
        <time>2019-01-29T12:03:54Z</time>
      </trkpt>
      <trkpt lat="45.99286" lon="6.57422">
        <ele>2165.99</ele>
        <time>2019-01-29T12:03:55Z</time>
      </trkpt>
      <trkpt lat="45.99286" lon="6.57421">
        <ele>2165.99</ele>
        <time>2019-01-29T12:03:56Z</time>
      </trkpt>
      <trkpt lat="45.99285" lon="6.5742">
        <ele>2165.99</ele>
        <time>2019-01-29T12:03:57Z</time>
      </trkpt>
      <trkpt lat="45.99284" lon="6.57419">
        <ele>2165.99</ele>
        <time>2019-01-29T12:03:58Z</time>
      </trkpt>
      <trkpt lat="45.99283" lon="6.57418">
        <ele>2165.99</ele>
        <time>2019-01-29T12:03:59Z</time>
      </trkpt>
      <trkpt lat="45.99282" lon="6.57418">
        <ele>2165.99</ele>
        <time>2019-01-29T12:04:00Z</time>
      </trkpt>
      <trkpt lat="45.99273" lon="6.5741">
        <ele>2167.43</ele>
        <time>2019-01-29T12:04:11Z</time>
      </trkpt>
      <trkpt lat="45.99272" lon="6.57409">
        <ele>2167.91</ele>
        <time>2019-01-29T12:04:13Z</time>
      </trkpt>
      <trkpt lat="45.99271" lon="6.57408">
        <ele>2167.91</ele>
        <time>2019-01-29T12:04:14Z</time>
      </trkpt>
      <trkpt lat="45.99263" lon="6.57402">
        <ele>2171.27</ele>
        <time>2019-01-29T12:04:25Z</time>
      </trkpt>
      <trkpt lat="45.99258" lon="6.57396">
        <ele>2173.2</ele>
        <time>2019-01-29T12:04:32Z</time>
      </trkpt>
      <trkpt lat="45.99258" lon="6.57395">
        <ele>2173.2</ele>
        <time>2019-01-29T12:04:33Z</time>
      </trkpt>
      <trkpt lat="45.99251" lon="6.57389">
        <ele>2175.12</ele>
        <time>2019-01-29T12:04:42Z</time>
      </trkpt>
      <trkpt lat="45.9925" lon="6.57388">
        <ele>2175.6</ele>
        <time>2019-01-29T12:04:43Z</time>
      </trkpt>
      <trkpt lat="45.99249" lon="6.57387">
        <ele>2175.6</ele>
        <time>2019-01-29T12:04:44Z</time>
      </trkpt>
      <trkpt lat="45.99248" lon="6.57387">
        <ele>2175.6</ele>
        <time>2019-01-29T12:04:45Z</time>
      </trkpt>
      <trkpt lat="45.99242" lon="6.57382">
        <ele>2176.56</ele>
        <time>2019-01-29T12:04:52Z</time>
      </trkpt>
      <trkpt lat="45.99241" lon="6.57382">
        <ele>2176.56</ele>
        <time>2019-01-29T12:04:53Z</time>
      </trkpt>
      <trkpt lat="45.99235" lon="6.57376">
        <ele>2178.48</ele>
        <time>2019-01-29T12:05:02Z</time>
      </trkpt>
      <trkpt lat="45.99232" lon="6.57375">
        <ele>2178.97</ele>
        <time>2019-01-29T12:05:05Z</time>
      </trkpt>
      <trkpt lat="45.99228" lon="6.5737">
        <ele>2180.89</ele>
        <time>2019-01-29T12:05:12Z</time>
      </trkpt>
      <trkpt lat="45.99227" lon="6.57368">
        <ele>2181.37</ele>
        <time>2019-01-29T12:05:14Z</time>
      </trkpt>
      <trkpt lat="45.99226" lon="6.57366">
        <ele>2182.33</ele>
        <time>2019-01-29T12:05:16Z</time>
      </trkpt>
      <trkpt lat="45.99226" lon="6.57365">
        <ele>2182.33</ele>
        <time>2019-01-29T12:05:17Z</time>
      </trkpt>
      <trkpt lat="45.99217" lon="6.57347">
        <ele>2185.69</ele>
        <time>2019-01-29T12:05:35Z</time>
      </trkpt>
      <trkpt lat="45.99214" lon="6.57344">
        <ele>2186.18</ele>
        <time>2019-01-29T12:05:40Z</time>
      </trkpt>
      <trkpt lat="45.99213" lon="6.57343">
        <ele>2186.66</ele>
        <time>2019-01-29T12:05:42Z</time>
      </trkpt>
      <trkpt lat="45.99212" lon="6.57342">
        <ele>2187.14</ele>
        <time>2019-01-29T12:05:43Z</time>
      </trkpt>
      <trkpt lat="45.99201" lon="6.57329">
        <ele>2190.02</ele>
        <time>2019-01-29T12:06:00Z</time>
      </trkpt>
      <trkpt lat="45.99188" lon="6.57316">
        <ele>2193.39</ele>
        <time>2019-01-29T12:06:16Z</time>
      </trkpt>
      <trkpt lat="45.99173" lon="6.57301">
        <ele>2196.27</ele>
        <time>2019-01-29T12:06:36Z</time>
      </trkpt>
      <trkpt lat="45.99171" lon="6.57297">
        <ele>2197.23</ele>
        <time>2019-01-29T12:06:39Z</time>
      </trkpt>
      <trkpt lat="45.9917" lon="6.57296">
        <ele>2197.23</ele>
        <time>2019-01-29T12:06:40Z</time>
      </trkpt>
      <trkpt lat="45.9917" lon="6.57296">
        <ele>2197.23</ele>
        <time>2019-01-29T12:06:41Z</time>
      </trkpt>
      <trkpt lat="45.99169" lon="6.57294">
        <ele>2197.23</ele>
        <time>2019-01-29T12:06:42Z</time>
      </trkpt>
      <trkpt lat="45.99169" lon="6.57293">
        <ele>2197.71</ele>
        <time>2019-01-29T12:06:43Z</time>
      </trkpt>
      <trkpt lat="45.99168" lon="6.57292">
        <ele>2197.71</ele>
        <time>2019-01-29T12:06:44Z</time>
      </trkpt>
      <trkpt lat="45.99163" lon="6.57286">
        <ele>2199.63</ele>
        <time>2019-01-29T12:06:52Z</time>
      </trkpt>
      <trkpt lat="45.99163" lon="6.57285">
        <ele>2199.63</ele>
        <time>2019-01-29T12:06:53Z</time>
      </trkpt>
      <trkpt lat="45.9916" lon="6.57279">
        <ele>2201.56</ele>
        <time>2019-01-29T12:07:00Z</time>
      </trkpt>
      <trkpt lat="45.99158" lon="6.57276">
        <ele>2202.52</ele>
        <time>2019-01-29T12:07:04Z</time>
      </trkpt>
      <trkpt lat="45.99157" lon="6.57275">
        <ele>2203</ele>
        <time>2019-01-29T12:07:05Z</time>
      </trkpt>
      <trkpt lat="45.99156" lon="6.57273">
        <ele>2203</ele>
        <time>2019-01-29T12:07:07Z</time>
      </trkpt>
      <trkpt lat="45.99153" lon="6.57265">
        <ele>2205.4</ele>
        <time>2019-01-29T12:07:17Z</time>
      </trkpt>
      <trkpt lat="45.99152" lon="6.57264">
        <ele>2205.88</ele>
        <time>2019-01-29T12:07:19Z</time>
      </trkpt>
      <trkpt lat="45.99146" lon="6.57254">
        <ele>2208.77</ele>
        <time>2019-01-29T12:07:34Z</time>
      </trkpt>
      <trkpt lat="45.99145" lon="6.57253">
        <ele>2209.25</ele>
        <time>2019-01-29T12:07:35Z</time>
      </trkpt>
      <trkpt lat="45.9914" lon="6.57246">
        <ele>2212.13</ele>
        <time>2019-01-29T12:07:49Z</time>
      </trkpt>
      <trkpt lat="45.99139" lon="6.57242">
        <ele>2213.57</ele>
        <time>2019-01-29T12:07:54Z</time>
      </trkpt>
      <trkpt lat="45.99137" lon="6.57239">
        <ele>2214.53</ele>
        <time>2019-01-29T12:07:58Z</time>
      </trkpt>
      <trkpt lat="45.99136" lon="6.57237">
        <ele>2214.53</ele>
        <time>2019-01-29T12:08:00Z</time>
      </trkpt>
      <trkpt lat="45.99131" lon="6.57228">
        <ele>2217.9</ele>
        <time>2019-01-29T12:08:15Z</time>
      </trkpt>
      <trkpt lat="45.99131" lon="6.57219">
        <ele>2220.78</ele>
        <time>2019-01-29T12:08:27Z</time>
      </trkpt>
      <trkpt lat="45.99132" lon="6.57211">
        <ele>2223.67</ele>
        <time>2019-01-29T12:08:39Z</time>
      </trkpt>
      <trkpt lat="45.99131" lon="6.57205">
        <ele>2227.03</ele>
        <time>2019-01-29T12:08:54Z</time>
      </trkpt>
      <trkpt lat="45.9913" lon="6.57199">
        <ele>2229.92</ele>
        <time>2019-01-29T12:09:08Z</time>
      </trkpt>
      <trkpt lat="45.99132" lon="6.57192">
        <ele>2232.8</ele>
        <time>2019-01-29T12:09:23Z</time>
      </trkpt>
      <trkpt lat="45.99129" lon="6.57187">
        <ele>2235.68</ele>
        <time>2019-01-29T12:09:39Z</time>
      </trkpt>
      <trkpt lat="45.99126" lon="6.57185">
        <ele>2237.13</ele>
        <time>2019-01-29T12:09:44Z</time>
      </trkpt>
      <trkpt lat="45.99123" lon="6.57184">
        <ele>2237.61</ele>
        <time>2019-01-29T12:09:48Z</time>
      </trkpt>
      <trkpt lat="45.99118" lon="6.57176">
        <ele>2240.97</ele>
        <time>2019-01-29T12:10:00Z</time>
      </trkpt>
      <trkpt lat="45.99117" lon="6.57175">
        <ele>2240.97</ele>
        <time>2019-01-29T12:10:01Z</time>
      </trkpt>
      <trkpt lat="45.99112" lon="6.57169">
        <ele>2242.89</ele>
        <time>2019-01-29T12:10:10Z</time>
      </trkpt>
      <trkpt lat="45.99107" lon="6.5716">
        <ele>2245.78</ele>
        <time>2019-01-29T12:10:23Z</time>
      </trkpt>
      <trkpt lat="45.99107" lon="6.57159">
        <ele>2246.26</ele>
        <time>2019-01-29T12:10:24Z</time>
      </trkpt>
      <trkpt lat="45.99104" lon="6.57154">
        <ele>2247.7</ele>
        <time>2019-01-29T12:10:31Z</time>
      </trkpt>
      <trkpt lat="45.99099" lon="6.57146">
        <ele>2250.58</ele>
        <time>2019-01-29T12:10:43Z</time>
      </trkpt>
      <trkpt lat="45.99098" lon="6.57145">
        <ele>2251.54</ele>
        <time>2019-01-29T12:10:45Z</time>
      </trkpt>
      <trkpt lat="45.99096" lon="6.57142">
        <ele>2252.51</ele>
        <time>2019-01-29T12:10:49Z</time>
      </trkpt>
      <trkpt lat="45.99093" lon="6.57138">
        <ele>2253.47</ele>
        <time>2019-01-29T12:10:55Z</time>
      </trkpt>
      <trkpt lat="45.99091" lon="6.57136">
        <ele>2254.43</ele>
        <time>2019-01-29T12:10:59Z</time>
      </trkpt>
      <trkpt lat="45.9909" lon="6.57134">
        <ele>2254.91</ele>
        <time>2019-01-29T12:11:01Z</time>
      </trkpt>
      <trkpt lat="45.99089" lon="6.57134">
        <ele>2254.91</ele>
        <time>2019-01-29T12:11:02Z</time>
      </trkpt>
      <trkpt lat="45.99087" lon="6.57131">
        <ele>2255.87</ele>
        <time>2019-01-29T12:11:06Z</time>
      </trkpt>
      <trkpt lat="45.99083" lon="6.57127">
        <ele>2256.83</ele>
        <time>2019-01-29T12:11:13Z</time>
      </trkpt>
      <trkpt lat="45.99075" lon="6.57118">
        <ele>2258.75</ele>
        <time>2019-01-29T12:11:26Z</time>
      </trkpt>
      <trkpt lat="45.99074" lon="6.57118">
        <ele>2259.24</ele>
        <time>2019-01-29T12:11:27Z</time>
      </trkpt>
      <trkpt lat="45.99073" lon="6.57117">
        <ele>2259.24</ele>
        <time>2019-01-29T12:11:28Z</time>
      </trkpt>
      <trkpt lat="45.99072" lon="6.57116">
        <ele>2259.24</ele>
        <time>2019-01-29T12:11:29Z</time>
      </trkpt>
      <trkpt lat="45.99072" lon="6.57115">
        <ele>2259.24</ele>
        <time>2019-01-29T12:11:30Z</time>
      </trkpt>
      <trkpt lat="45.99071" lon="6.57114">
        <ele>2259.24</ele>
        <time>2019-01-29T12:11:31Z</time>
      </trkpt>
      <trkpt lat="45.9907" lon="6.57113">
        <ele>2259.24</ele>
        <time>2019-01-29T12:11:32Z</time>
      </trkpt>
      <trkpt lat="45.99069" lon="6.57113">
        <ele>2259.24</ele>
        <time>2019-01-29T12:11:33Z</time>
      </trkpt>
      <trkpt lat="45.99063" lon="6.57107">
        <ele>2260.2</ele>
        <time>2019-01-29T12:11:41Z</time>
      </trkpt>
      <trkpt lat="45.99062" lon="6.57106">
        <ele>2260.68</ele>
        <time>2019-01-29T12:11:42Z</time>
      </trkpt>
      <trkpt lat="45.99034" lon="6.5709">
        <ele>2261.64</ele>
        <time>2019-01-29T12:12:09Z</time>
      </trkpt>
      <trkpt lat="45.99032" lon="6.57089">
        <ele>2261.64</ele>
        <time>2019-01-29T12:12:10Z</time>
      </trkpt>
      <trkpt lat="45.99009" lon="6.57077">
        <ele>2265</ele>
        <time>2019-01-29T12:12:31Z</time>
      </trkpt>
      <trkpt lat="45.98993" lon="6.57068">
        <ele>2266.93</ele>
        <time>2019-01-29T12:12:45Z</time>
      </trkpt>
      <trkpt lat="45.98992" lon="6.57067">
        <ele>2266.93</ele>
        <time>2019-01-29T12:12:46Z</time>
      </trkpt>
      <trkpt lat="45.98991" lon="6.57066">
        <ele>2266.93</ele>
        <time>2019-01-29T12:12:47Z</time>
      </trkpt>
      <trkpt lat="45.9899" lon="6.57066">
        <ele>2266.93</ele>
        <time>2019-01-29T12:12:48Z</time>
      </trkpt>
      <trkpt lat="45.98989" lon="6.57065">
        <ele>2267.41</ele>
        <time>2019-01-29T12:12:49Z</time>
      </trkpt>
      <trkpt lat="45.98988" lon="6.57064">
        <ele>2267.41</ele>
        <time>2019-01-29T12:12:50Z</time>
      </trkpt>
      <trkpt lat="45.98987" lon="6.57064">
        <ele>2267.41</ele>
        <time>2019-01-29T12:12:51Z</time>
      </trkpt>
      <trkpt lat="45.98986" lon="6.57063">
        <ele>2267.41</ele>
        <time>2019-01-29T12:12:52Z</time>
      </trkpt>
      <trkpt lat="45.98982" lon="6.5706">
        <ele>2268.37</ele>
        <time>2019-01-29T12:12:56Z</time>
      </trkpt>
      <trkpt lat="45.98966" lon="6.5705">
        <ele>2270.77</ele>
        <time>2019-01-29T12:13:11Z</time>
      </trkpt>
      <trkpt lat="45.98965" lon="6.57049">
        <ele>2271.25</ele>
        <time>2019-01-29T12:13:12Z</time>
      </trkpt>
      <trkpt lat="45.98964" lon="6.57049">
        <ele>2271.25</ele>
        <time>2019-01-29T12:13:13Z</time>
      </trkpt>
      <trkpt lat="45.98963" lon="6.57048">
        <ele>2271.25</ele>
        <time>2019-01-29T12:13:14Z</time>
      </trkpt>
      <trkpt lat="45.98961" lon="6.57048">
        <ele>2271.73</ele>
        <time>2019-01-29T12:13:15Z</time>
      </trkpt>
      <trkpt lat="45.9895" lon="6.57042">
        <ele>2274.62</ele>
        <time>2019-01-29T12:13:28Z</time>
      </trkpt>
      <trkpt lat="45.98948" lon="6.57041">
        <ele>2274.62</ele>
        <time>2019-01-29T12:13:30Z</time>
      </trkpt>
      <trkpt lat="45.98947" lon="6.57041">
        <ele>2274.62</ele>
        <time>2019-01-29T12:13:31Z</time>
      </trkpt>
      <trkpt lat="45.98946" lon="6.5704">
        <ele>2274.62</ele>
        <time>2019-01-29T12:13:32Z</time>
      </trkpt>
      <trkpt lat="45.98945" lon="6.5704">
        <ele>2275.1</ele>
        <time>2019-01-29T12:13:33Z</time>
      </trkpt>
      <trkpt lat="45.98944" lon="6.57039">
        <ele>2275.1</ele>
        <time>2019-01-29T12:13:34Z</time>
      </trkpt>
      <trkpt lat="45.98943" lon="6.57039">
        <ele>2275.58</ele>
        <time>2019-01-29T12:13:35Z</time>
      </trkpt>
      <trkpt lat="45.98942" lon="6.57038">
        <ele>2275.58</ele>
        <time>2019-01-29T12:13:36Z</time>
      </trkpt>
      <trkpt lat="45.98938" lon="6.57036">
        <ele>2275.58</ele>
        <time>2019-01-29T12:13:40Z</time>
      </trkpt>
      <trkpt lat="45.98936" lon="6.57036">
        <ele>2275.58</ele>
        <time>2019-01-29T12:13:42Z</time>
      </trkpt>
      <trkpt lat="45.98935" lon="6.57035">
        <ele>2275.58</ele>
        <time>2019-01-29T12:13:43Z</time>
      </trkpt>
      <trkpt lat="45.98934" lon="6.57034">
        <ele>2275.58</ele>
        <time>2019-01-29T12:13:44Z</time>
      </trkpt>
      <trkpt lat="45.98933" lon="6.57033">
        <ele>2276.06</ele>
        <time>2019-01-29T12:13:45Z</time>
      </trkpt>
      <trkpt lat="45.98932" lon="6.57033">
        <ele>2276.06</ele>
        <time>2019-01-29T12:13:46Z</time>
      </trkpt>
      <trkpt lat="45.98926" lon="6.5703">
        <ele>2275.58</ele>
        <time>2019-01-29T12:13:51Z</time>
      </trkpt>
      <trkpt lat="45.98925" lon="6.57029">
        <ele>2275.58</ele>
        <time>2019-01-29T12:13:52Z</time>
      </trkpt>
      <trkpt lat="45.98886" lon="6.57012">
        <ele>2274.62</ele>
        <time>2019-01-29T12:14:22Z</time>
      </trkpt>
      <trkpt lat="45.98885" lon="6.57012">
        <ele>2274.62</ele>
        <time>2019-01-29T12:14:23Z</time>
      </trkpt>
      <trkpt lat="45.98883" lon="6.57012">
        <ele>2274.62</ele>
        <time>2019-01-29T12:14:24Z</time>
      </trkpt>
      <trkpt lat="45.98882" lon="6.57012">
        <ele>2274.62</ele>
        <time>2019-01-29T12:14:25Z</time>
      </trkpt>
      <trkpt lat="45.9888" lon="6.57012">
        <ele>2274.62</ele>
        <time>2019-01-29T12:14:26Z</time>
      </trkpt>
      <trkpt lat="45.98879" lon="6.57012">
        <ele>2274.62</ele>
        <time>2019-01-29T12:14:27Z</time>
      </trkpt>
      <trkpt lat="45.9887" lon="6.57012">
        <ele>2274.62</ele>
        <time>2019-01-29T12:14:33Z</time>
      </trkpt>
      <trkpt lat="45.98868" lon="6.57012">
        <ele>2274.62</ele>
        <time>2019-01-29T12:14:34Z</time>
      </trkpt>
      <trkpt lat="45.98854" lon="6.5701">
        <ele>2276.06</ele>
        <time>2019-01-29T12:14:45Z</time>
      </trkpt>
      <trkpt lat="45.98853" lon="6.57011">
        <ele>2276.06</ele>
        <time>2019-01-29T12:14:46Z</time>
      </trkpt>
      <trkpt lat="45.98851" lon="6.57011">
        <ele>2276.06</ele>
        <time>2019-01-29T12:14:47Z</time>
      </trkpt>
      <trkpt lat="45.9885" lon="6.57011">
        <ele>2276.06</ele>
        <time>2019-01-29T12:14:48Z</time>
      </trkpt>
      <trkpt lat="45.98848" lon="6.57011">
        <ele>2276.06</ele>
        <time>2019-01-29T12:14:49Z</time>
      </trkpt>
      <trkpt lat="45.98806" lon="6.56992">
        <ele>2278.94</ele>
        <time>2019-01-29T12:15:26Z</time>
      </trkpt>
      <trkpt lat="45.98802" lon="6.56989">
        <ele>2279.42</ele>
        <time>2019-01-29T12:15:30Z</time>
      </trkpt>
      <trkpt lat="45.98783" lon="6.56981">
        <ele>2282.79</ele>
        <time>2019-01-29T12:15:47Z</time>
      </trkpt>
      <trkpt lat="45.98776" lon="6.56978">
        <ele>2284.23</ele>
        <time>2019-01-29T12:15:55Z</time>
      </trkpt>
      <trkpt lat="45.98774" lon="6.56977">
        <ele>2284.71</ele>
        <time>2019-01-29T12:15:57Z</time>
      </trkpt>
      <trkpt lat="45.98771" lon="6.56977">
        <ele>2285.19</ele>
        <time>2019-01-29T12:16:00Z</time>
      </trkpt>
      <trkpt lat="45.9877" lon="6.56977">
        <ele>2285.67</ele>
        <time>2019-01-29T12:16:01Z</time>
      </trkpt>
      <trkpt lat="45.98768" lon="6.56976">
        <ele>2286.15</ele>
        <time>2019-01-29T12:16:03Z</time>
      </trkpt>
      <trkpt lat="45.98758" lon="6.56973">
        <ele>2289.04</ele>
        <time>2019-01-29T12:16:16Z</time>
      </trkpt>
      <trkpt lat="45.98757" lon="6.56972">
        <ele>2289.52</ele>
        <time>2019-01-29T12:16:17Z</time>
      </trkpt>
      <trkpt lat="45.98756" lon="6.56972">
        <ele>2290</ele>
        <time>2019-01-29T12:16:18Z</time>
      </trkpt>
      <trkpt lat="45.98748" lon="6.56969">
        <ele>2291.92</ele>
        <time>2019-01-29T12:16:27Z</time>
      </trkpt>
      <trkpt lat="45.98748" lon="6.56969">
        <ele>2292.4</ele>
        <time>2019-01-29T12:16:28Z</time>
      </trkpt>
      <trkpt lat="45.98747" lon="6.56969">
        <ele>2292.4</ele>
        <time>2019-01-29T12:16:29Z</time>
      </trkpt>
      <trkpt lat="45.98746" lon="6.56968">
        <ele>2292.4</ele>
        <time>2019-01-29T12:16:30Z</time>
      </trkpt>
      <trkpt lat="45.9874" lon="6.56964">
        <ele>2294.8</ele>
        <time>2019-01-29T12:16:39Z</time>
      </trkpt>
      <trkpt lat="45.98738" lon="6.56964">
        <ele>2295.28</ele>
        <time>2019-01-29T12:16:41Z</time>
      </trkpt>
      <trkpt lat="45.98738" lon="6.56963">
        <ele>2295.77</ele>
        <time>2019-01-29T12:16:42Z</time>
      </trkpt>
      <trkpt lat="45.98736" lon="6.56961">
        <ele>2296.25</ele>
        <time>2019-01-29T12:16:46Z</time>
      </trkpt>
      <trkpt lat="45.98732" lon="6.5696">
        <ele>2297.69</ele>
        <time>2019-01-29T12:16:51Z</time>
      </trkpt>
      <trkpt lat="45.98727" lon="6.56957">
        <ele>2299.61</ele>
        <time>2019-01-29T12:17:00Z</time>
      </trkpt>
      <trkpt lat="45.98722" lon="6.56956">
        <ele>2300.57</ele>
        <time>2019-01-29T12:17:06Z</time>
      </trkpt>
      <trkpt lat="45.98715" lon="6.56954">
        <ele>2303.94</ele>
        <time>2019-01-29T12:17:16Z</time>
      </trkpt>
      <trkpt lat="45.98706" lon="6.5695">
        <ele>2306.82</ele>
        <time>2019-01-29T12:17:29Z</time>
      </trkpt>
      <trkpt lat="45.98695" lon="6.56948">
        <ele>2310.19</ele>
        <time>2019-01-29T12:17:44Z</time>
      </trkpt>
      <trkpt lat="45.98687" lon="6.5694">
        <ele>2313.55</ele>
        <time>2019-01-29T12:17:58Z</time>
      </trkpt>
      <trkpt lat="45.98683" lon="6.56934">
        <ele>2316.43</ele>
        <time>2019-01-29T12:18:11Z</time>
      </trkpt>
      <trkpt lat="45.98681" lon="6.56934">
        <ele>2317.4</ele>
        <time>2019-01-29T12:18:14Z</time>
      </trkpt>
      <trkpt lat="45.98678" lon="6.56934">
        <ele>2317.88</ele>
        <time>2019-01-29T12:18:18Z</time>
      </trkpt>
      <trkpt lat="45.98673" lon="6.56925">
        <ele>2321.24</ele>
        <time>2019-01-29T12:18:32Z</time>
      </trkpt>
      <trkpt lat="45.98671" lon="6.56926">
        <ele>2322.68</ele>
        <time>2019-01-29T12:18:36Z</time>
      </trkpt>
      <trkpt lat="45.9867" lon="6.56927">
        <ele>2323.16</ele>
        <time>2019-01-29T12:18:37Z</time>
      </trkpt>
      <trkpt lat="45.98663" lon="6.56931">
        <ele>2325.57</ele>
        <time>2019-01-29T12:18:47Z</time>
      </trkpt>
      <trkpt lat="45.98649" lon="6.56935">
        <ele>2328.45</ele>
        <time>2019-01-29T12:19:10Z</time>
      </trkpt>
      <trkpt lat="45.98645" lon="6.56928">
        <ele>2331.81</ele>
        <time>2019-01-29T12:19:22Z</time>
      </trkpt>
      <trkpt lat="45.98633" lon="6.56931">
        <ele>2334.7</ele>
        <time>2019-01-29T12:19:37Z</time>
      </trkpt>
      <trkpt lat="45.9863" lon="6.5693">
        <ele>2335.18</ele>
        <time>2019-01-29T12:19:40Z</time>
      </trkpt>
      <trkpt lat="45.98628" lon="6.56929">
        <ele>2336.14</ele>
        <time>2019-01-29T12:19:43Z</time>
      </trkpt>
      <trkpt lat="45.98623" lon="6.56925">
        <ele>2338.06</ele>
        <time>2019-01-29T12:19:52Z</time>
      </trkpt>
      <trkpt lat="45.98622" lon="6.56922">
        <ele>2338.54</ele>
        <time>2019-01-29T12:19:54Z</time>
      </trkpt>
      <trkpt lat="45.98621" lon="6.56921">
        <ele>2338.54</ele>
        <time>2019-01-29T12:19:55Z</time>
      </trkpt>
      <trkpt lat="45.98614" lon="6.56919">
        <ele>2339.99</ele>
        <time>2019-01-29T12:20:06Z</time>
      </trkpt>
      <trkpt lat="45.98616" lon="6.5692">
        <ele>2341.43</ele>
        <time>2019-01-29T12:21:05Z</time>
      </trkpt>
      <trkpt lat="45.98579" lon="6.56949">
        <ele>2339.02</ele>
        <time>2019-01-29T12:21:56Z</time>
      </trkpt>
      <trkpt lat="45.98548" lon="6.56987">
        <ele>2336.14</ele>
        <time>2019-01-29T12:22:23Z</time>
      </trkpt>
      <trkpt lat="45.98533" lon="6.57003">
        <ele>2332.78</ele>
        <time>2019-01-29T12:22:34Z</time>
      </trkpt>
      <trkpt lat="45.98507" lon="6.57059">
        <ele>2332.78</ele>
        <time>2019-01-29T12:23:10Z</time>
      </trkpt>
      <trkpt lat="45.98496" lon="6.57099">
        <ele>2336.14</ele>
        <time>2019-01-29T12:23:38Z</time>
      </trkpt>
      <trkpt lat="45.98485" lon="6.57128">
        <ele>2339.02</ele>
        <time>2019-01-29T12:24:02Z</time>
      </trkpt>
      <trkpt lat="45.98485" lon="6.57129">
        <ele>2339.02</ele>
        <time>2019-01-29T12:24:03Z</time>
      </trkpt>
      <trkpt lat="45.98484" lon="6.5713">
        <ele>2339.51</ele>
        <time>2019-01-29T12:24:04Z</time>
      </trkpt>
      <trkpt lat="45.98484" lon="6.57131">
        <ele>2339.51</ele>
        <time>2019-01-29T12:24:05Z</time>
      </trkpt>
      <trkpt lat="45.98484" lon="6.57132">
        <ele>2339.99</ele>
        <time>2019-01-29T12:24:06Z</time>
      </trkpt>
      <trkpt lat="45.98483" lon="6.57134">
        <ele>2339.99</ele>
        <time>2019-01-29T12:24:07Z</time>
      </trkpt>
      <trkpt lat="45.9848" lon="6.57145">
        <ele>2341.43</ele>
        <time>2019-01-29T12:24:17Z</time>
      </trkpt>
      <trkpt lat="45.98475" lon="6.57162">
        <ele>2344.31</ele>
        <time>2019-01-29T12:24:32Z</time>
      </trkpt>
      <trkpt lat="45.98465" lon="6.57185">
        <ele>2347.2</ele>
        <time>2019-01-29T12:24:53Z</time>
      </trkpt>
      <trkpt lat="45.98458" lon="6.57202">
        <ele>2350.56</ele>
        <time>2019-01-29T12:25:10Z</time>
      </trkpt>
      <trkpt lat="45.98455" lon="6.57211">
        <ele>2353.44</ele>
        <time>2019-01-29T12:25:21Z</time>
      </trkpt>
      <trkpt lat="45.98451" lon="6.57226">
        <ele>2356.33</ele>
        <time>2019-01-29T12:25:38Z</time>
      </trkpt>
      <trkpt lat="45.98446" lon="6.57242">
        <ele>2359.69</ele>
        <time>2019-01-29T12:25:54Z</time>
      </trkpt>
      <trkpt lat="45.98443" lon="6.57251">
        <ele>2361.62</ele>
        <time>2019-01-29T12:26:03Z</time>
      </trkpt>
      <trkpt lat="45.98438" lon="6.57265">
        <ele>2364.98</ele>
        <time>2019-01-29T12:26:19Z</time>
      </trkpt>
      <trkpt lat="45.98434" lon="6.57274">
        <ele>2366.9</ele>
        <time>2019-01-29T12:26:29Z</time>
      </trkpt>
      <trkpt lat="45.98431" lon="6.57284">
        <ele>2369.79</ele>
        <time>2019-01-29T12:26:41Z</time>
      </trkpt>
      <trkpt lat="45.98428" lon="6.57295">
        <ele>2373.15</ele>
        <time>2019-01-29T12:26:53Z</time>
      </trkpt>
      <trkpt lat="45.98426" lon="6.57304">
        <ele>2375.07</ele>
        <time>2019-01-29T12:27:04Z</time>
      </trkpt>
      <trkpt lat="45.98424" lon="6.57316">
        <ele>2378.44</ele>
        <time>2019-01-29T12:27:18Z</time>
      </trkpt>
      <trkpt lat="45.98423" lon="6.57329">
        <ele>2381.8</ele>
        <time>2019-01-29T12:27:32Z</time>
      </trkpt>
      <trkpt lat="45.98421" lon="6.5734">
        <ele>2384.69</ele>
        <time>2019-01-29T12:27:44Z</time>
      </trkpt>
      <trkpt lat="45.98412" lon="6.57343">
        <ele>2388.05</ele>
        <time>2019-01-29T12:28:07Z</time>
      </trkpt>
      <trkpt lat="45.98403" lon="6.57339">
        <ele>2390.94</ele>
        <time>2019-01-29T12:28:20Z</time>
      </trkpt>
      <trkpt lat="45.98401" lon="6.57338">
        <ele>2391.9</ele>
        <time>2019-01-29T12:28:23Z</time>
      </trkpt>
      <trkpt lat="45.98393" lon="6.57336">
        <ele>2394.78</ele>
        <time>2019-01-29T12:28:38Z</time>
      </trkpt>
      <trkpt lat="45.98385" lon="6.57333">
        <ele>2398.15</ele>
        <time>2019-01-29T12:28:51Z</time>
      </trkpt>
      <trkpt lat="45.98381" lon="6.57332">
        <ele>2398.63</ele>
        <time>2019-01-29T12:28:56Z</time>
      </trkpt>
      <trkpt lat="45.9838" lon="6.57332">
        <ele>2399.11</ele>
        <time>2019-01-29T12:28:58Z</time>
      </trkpt>
      <trkpt lat="45.98373" lon="6.57331">
        <ele>2401.99</ele>
        <time>2019-01-29T12:29:09Z</time>
      </trkpt>
      <trkpt lat="45.98366" lon="6.5733">
        <ele>2405.36</ele>
        <time>2019-01-29T12:29:21Z</time>
      </trkpt>
      <trkpt lat="45.98359" lon="6.57332">
        <ele>2408.72</ele>
        <time>2019-01-29T12:29:33Z</time>
      </trkpt>
      <trkpt lat="45.98359" lon="6.57341">
        <ele>2411.6</ele>
        <time>2019-01-29T12:29:45Z</time>
      </trkpt>
      <trkpt lat="45.98362" lon="6.57348">
        <ele>2413.53</ele>
        <time>2019-01-29T12:29:53Z</time>
      </trkpt>
      <trkpt lat="45.98364" lon="6.57364">
        <ele>2416.41</ele>
        <time>2019-01-29T12:30:10Z</time>
      </trkpt>
      <trkpt lat="45.98362" lon="6.57377">
        <ele>2419.78</ele>
        <time>2019-01-29T12:30:23Z</time>
      </trkpt>
      <trkpt lat="45.98363" lon="6.57386">
        <ele>2422.18</ele>
        <time>2019-01-29T12:30:32Z</time>
      </trkpt>
      <trkpt lat="45.98363" lon="6.57393">
        <ele>2423.62</ele>
        <time>2019-01-29T12:30:39Z</time>
      </trkpt>
      <trkpt lat="45.98361" lon="6.57401">
        <ele>2426.99</ele>
        <time>2019-01-29T12:30:48Z</time>
      </trkpt>
      <trkpt lat="45.98355" lon="6.57401">
        <ele>2426.99</ele>
        <time>2019-01-29T12:30:58Z</time>
      </trkpt>
      <trkpt lat="45.98348" lon="6.57402">
        <ele>2430.35</ele>
        <time>2019-01-29T12:31:08Z</time>
      </trkpt>
      <trkpt lat="45.98345" lon="6.57401">
        <ele>2433.71</ele>
        <time>2019-01-29T12:31:13Z</time>
      </trkpt>
      <trkpt lat="45.98336" lon="6.57409">
        <ele>2436.12</ele>
        <time>2019-01-29T12:31:30Z</time>
      </trkpt>
      <trkpt lat="45.98325" lon="6.57433">
        <ele>2438.04</ele>
        <time>2019-01-29T12:31:55Z</time>
      </trkpt>
      <trkpt lat="45.98323" lon="6.57436">
        <ele>2439.48</ele>
        <time>2019-01-29T12:31:58Z</time>
      </trkpt>
      <trkpt lat="45.98318" lon="6.57444">
        <ele>2440.92</ele>
        <time>2019-01-29T12:32:09Z</time>
      </trkpt>
      <trkpt lat="45.98312" lon="6.57459">
        <ele>2443.81</ele>
        <time>2019-01-29T12:32:25Z</time>
      </trkpt>
      <trkpt lat="45.98304" lon="6.57473">
        <ele>2447.17</ele>
        <time>2019-01-29T12:32:42Z</time>
      </trkpt>
      <trkpt lat="45.983" lon="6.5748">
        <ele>2450.06</ele>
        <time>2019-01-29T12:32:52Z</time>
      </trkpt>
      <trkpt lat="45.98294" lon="6.57484">
        <ele>2453.42</ele>
        <time>2019-01-29T12:33:04Z</time>
      </trkpt>
      <trkpt lat="45.98293" lon="6.57495">
        <ele>2456.31</ele>
        <time>2019-01-29T12:33:20Z</time>
      </trkpt>
      <trkpt lat="45.98294" lon="6.57499">
        <ele>2456.79</ele>
        <time>2019-01-29T12:34:16Z</time>
      </trkpt>
      <trkpt lat="45.98295" lon="6.57499">
        <ele>2456.31</ele>
        <time>2019-01-29T12:35:03Z</time>
      </trkpt>
      <trkpt lat="45.98291" lon="6.57501">
        <ele>2459.19</ele>
        <time>2019-01-29T12:35:21Z</time>
      </trkpt>
      <trkpt lat="45.98289" lon="6.57503">
        <ele>2462.55</ele>
        <time>2019-01-29T12:35:41Z</time>
      </trkpt>
      <trkpt lat="45.98292" lon="6.57498">
        <ele>2460.63</ele>
        <time>2019-01-29T12:37:29Z</time>
      </trkpt>
      <trkpt lat="45.98296" lon="6.57496">
        <ele>2457.75</ele>
        <time>2019-01-29T12:37:54Z</time>
      </trkpt>
      <trkpt lat="45.98297" lon="6.57495">
        <ele>2456.79</ele>
        <time>2019-01-29T12:37:56Z</time>
      </trkpt>
      <trkpt lat="45.98298" lon="6.57502">
        <ele>2457.27</ele>
        <time>2019-01-29T12:38:34Z</time>
      </trkpt>
      <trkpt lat="45.98296" lon="6.57494">
        <ele>2455.82</ele>
        <time>2019-01-29T12:39:27Z</time>
      </trkpt>
      <trkpt lat="45.98294" lon="6.57497">
        <ele>2456.31</ele>
        <time>2019-01-29T12:40:13Z</time>
      </trkpt>
      <trkpt lat="45.98294" lon="6.57497">
        <ele>2456.79</ele>
        <time>2019-01-29T12:40:38Z</time>
      </trkpt>
      <trkpt lat="45.98295" lon="6.57496">
        <ele>2456.79</ele>
        <time>2019-01-29T12:41:08Z</time>
      </trkpt>
      <trkpt lat="45.98298" lon="6.57494">
        <ele>2455.82</ele>
        <time>2019-01-29T12:41:48Z</time>
      </trkpt>
      <trkpt lat="45.98297" lon="6.57494">
        <ele>2456.31</ele>
        <time>2019-01-29T12:41:51Z</time>
      </trkpt>
      <trkpt lat="45.98297" lon="6.57495">
        <ele>2456.79</ele>
        <time>2019-01-29T12:42:18Z</time>
      </trkpt>
      <trkpt lat="45.98296" lon="6.57494">
        <ele>2456.79</ele>
        <time>2019-01-29T12:44:06Z</time>
      </trkpt>
      <trkpt lat="45.98297" lon="6.57494">
        <ele>2456.79</ele>
        <time>2019-01-29T12:45:01Z</time>
      </trkpt>
      <trkpt lat="45.98297" lon="6.57495">
        <ele>2456.79</ele>
        <time>2019-01-29T12:45:40Z</time>
      </trkpt>
      <trkpt lat="45.98299" lon="6.57494">
        <ele>2456.79</ele>
        <time>2019-01-29T12:46:12Z</time>
      </trkpt>
      <trkpt lat="45.98296" lon="6.57491">
        <ele>2456.31</ele>
        <time>2019-01-29T12:47:08Z</time>
      </trkpt>
      <trkpt lat="45.98296" lon="6.57488">
        <ele>2456.31</ele>
        <time>2019-01-29T12:47:09Z</time>
      </trkpt>
      <trkpt lat="45.98297" lon="6.57486">
        <ele>2455.34</ele>
        <time>2019-01-29T12:47:10Z</time>
      </trkpt>
      <trkpt lat="45.983" lon="6.57483">
        <ele>2453.9</ele>
        <time>2019-01-29T12:47:11Z</time>
      </trkpt>
      <trkpt lat="45.98304" lon="6.57477">
        <ele>2452.46</ele>
        <time>2019-01-29T12:47:12Z</time>
      </trkpt>
      <trkpt lat="45.98307" lon="6.57468">
        <ele>2451.02</ele>
        <time>2019-01-29T12:47:13Z</time>
      </trkpt>
      <trkpt lat="45.9831" lon="6.57459">
        <ele>2448.13</ele>
        <time>2019-01-29T12:47:14Z</time>
      </trkpt>
      <trkpt lat="45.98313" lon="6.57449">
        <ele>2445.73</ele>
        <time>2019-01-29T12:47:15Z</time>
      </trkpt>
      <trkpt lat="45.98315" lon="6.57441">
        <ele>2444.29</ele>
        <time>2019-01-29T12:47:16Z</time>
      </trkpt>
      <trkpt lat="45.98318" lon="6.57436">
        <ele>2442.37</ele>
        <time>2019-01-29T12:47:17Z</time>
      </trkpt>
      <trkpt lat="45.98319" lon="6.57435">
        <ele>2441.41</ele>
        <time>2019-01-29T12:47:18Z</time>
      </trkpt>
      <trkpt lat="45.9832" lon="6.57435">
        <ele>2440.44</ele>
        <time>2019-01-29T12:47:19Z</time>
      </trkpt>
      <trkpt lat="45.98321" lon="6.57438">
        <ele>2440.44</ele>
        <time>2019-01-29T12:47:38Z</time>
      </trkpt>
      <trkpt lat="45.98323" lon="6.57437">
        <ele>2360.65</ele>
        <time>2019-01-29T12:49:21Z</time>
      </trkpt>
      <trkpt lat="45.98323" lon="6.57437">
        <ele>2360.65</ele>
        <time>2019-01-29T12:49:22Z</time>
      </trkpt>
      <trkpt lat="45.98322" lon="6.57437">
        <ele>2362.58</ele>
        <time>2019-01-29T12:49:41Z</time>
      </trkpt>
      <trkpt lat="45.98321" lon="6.57436">
        <ele>2362.58</ele>
        <time>2019-01-29T12:49:42Z</time>
      </trkpt>
      <trkpt lat="45.98325" lon="6.57436">
        <ele>2361.62</ele>
        <time>2019-01-29T12:50:53Z</time>
      </trkpt>
      <trkpt lat="45.98326" lon="6.57435">
        <ele>2361.14</ele>
        <time>2019-01-29T12:50:54Z</time>
      </trkpt>
      <trkpt lat="45.98328" lon="6.57432">
        <ele>2361.14</ele>
        <time>2019-01-29T12:50:55Z</time>
      </trkpt>
      <trkpt lat="45.98337" lon="6.57418">
        <ele>2359.69</ele>
        <time>2019-01-29T12:50:59Z</time>
      </trkpt>
      <trkpt lat="45.98341" lon="6.57413">
        <ele>2359.21</ele>
        <time>2019-01-29T12:51:00Z</time>
      </trkpt>
      <trkpt lat="45.98344" lon="6.57408">
        <ele>2357.77</ele>
        <time>2019-01-29T12:51:01Z</time>
      </trkpt>
      <trkpt lat="45.98348" lon="6.57403">
        <ele>2356.81</ele>
        <time>2019-01-29T12:51:02Z</time>
      </trkpt>
      <trkpt lat="45.9835" lon="6.57396">
        <ele>2355.85</ele>
        <time>2019-01-29T12:51:03Z</time>
      </trkpt>
      <trkpt lat="45.98354" lon="6.57392">
        <ele>2354.41</ele>
        <time>2019-01-29T12:51:04Z</time>
      </trkpt>
      <trkpt lat="45.9836" lon="6.57389">
        <ele>2352.48</ele>
        <time>2019-01-29T12:51:05Z</time>
      </trkpt>
      <trkpt lat="45.98364" lon="6.57382">
        <ele>2349.6</ele>
        <time>2019-01-29T12:51:06Z</time>
      </trkpt>
      <trkpt lat="45.98367" lon="6.57373">
        <ele>2346.23</ele>
        <time>2019-01-29T12:51:07Z</time>
      </trkpt>
      <trkpt lat="45.98372" lon="6.57366">
        <ele>2342.87</ele>
        <time>2019-01-29T12:51:08Z</time>
      </trkpt>
      <trkpt lat="45.98379" lon="6.57358">
        <ele>2339.02</ele>
        <time>2019-01-29T12:51:09Z</time>
      </trkpt>
      <trkpt lat="45.98383" lon="6.57345">
        <ele>2335.18</ele>
        <time>2019-01-29T12:51:10Z</time>
      </trkpt>
      <trkpt lat="45.9839" lon="6.57335">
        <ele>2331.81</ele>
        <time>2019-01-29T12:51:11Z</time>
      </trkpt>
      <trkpt lat="45.98398" lon="6.57326">
        <ele>2325.57</ele>
        <time>2019-01-29T12:51:12Z</time>
      </trkpt>
      <trkpt lat="45.98405" lon="6.57315">
        <ele>2319.8</ele>
        <time>2019-01-29T12:51:13Z</time>
      </trkpt>
      <trkpt lat="45.98413" lon="6.57305">
        <ele>2313.55</ele>
        <time>2019-01-29T12:51:14Z</time>
      </trkpt>
      <trkpt lat="45.98422" lon="6.57294">
        <ele>2307.78</ele>
        <time>2019-01-29T12:51:15Z</time>
      </trkpt>
      <trkpt lat="45.98431" lon="6.57282">
        <ele>2302.98</ele>
        <time>2019-01-29T12:51:16Z</time>
      </trkpt>
      <trkpt lat="45.98439" lon="6.57267">
        <ele>2298.65</ele>
        <time>2019-01-29T12:51:17Z</time>
      </trkpt>
      <trkpt lat="45.98446" lon="6.57251">
        <ele>2293.36</ele>
        <time>2019-01-29T12:51:18Z</time>
      </trkpt>
      <trkpt lat="45.98452" lon="6.57235">
        <ele>2287.59</ele>
        <time>2019-01-29T12:51:19Z</time>
      </trkpt>
      <trkpt lat="45.98457" lon="6.5722">
        <ele>2285.19</ele>
        <time>2019-01-29T12:51:20Z</time>
      </trkpt>
      <trkpt lat="45.98461" lon="6.57204">
        <ele>2281.83</ele>
        <time>2019-01-29T12:51:21Z</time>
      </trkpt>
      <trkpt lat="45.98465" lon="6.5719">
        <ele>2275.58</ele>
        <time>2019-01-29T12:51:22Z</time>
      </trkpt>
      <trkpt lat="45.98471" lon="6.57176">
        <ele>2272.69</ele>
        <time>2019-01-29T12:51:23Z</time>
      </trkpt>
      <trkpt lat="45.98475" lon="6.57163">
        <ele>2270.77</ele>
        <time>2019-01-29T12:51:24Z</time>
      </trkpt>
      <trkpt lat="45.98478" lon="6.57151">
        <ele>2268.37</ele>
        <time>2019-01-29T12:51:25Z</time>
      </trkpt>
      <trkpt lat="45.9848" lon="6.57139">
        <ele>2266.45</ele>
        <time>2019-01-29T12:51:26Z</time>
      </trkpt>
      <trkpt lat="45.98482" lon="6.57128">
        <ele>2265</ele>
        <time>2019-01-29T12:51:27Z</time>
      </trkpt>
      <trkpt lat="45.98482" lon="6.57116">
        <ele>2264.04</ele>
        <time>2019-01-29T12:51:28Z</time>
      </trkpt>
      <trkpt lat="45.9848" lon="6.57083">
        <ele>2259.72</ele>
        <time>2019-01-29T12:51:31Z</time>
      </trkpt>
      <trkpt lat="45.9848" lon="6.57049">
        <ele>2254.91</ele>
        <time>2019-01-29T12:51:34Z</time>
      </trkpt>
      <trkpt lat="45.98481" lon="6.57018">
        <ele>2252.03</ele>
        <time>2019-01-29T12:51:37Z</time>
      </trkpt>
      <trkpt lat="45.98477" lon="6.56984">
        <ele>2248.66</ele>
        <time>2019-01-29T12:51:41Z</time>
      </trkpt>
      <trkpt lat="45.98472" lon="6.56955">
        <ele>2245.3</ele>
        <time>2019-01-29T12:51:45Z</time>
      </trkpt>
      <trkpt lat="45.98469" lon="6.56941">
        <ele>2243.37</ele>
        <time>2019-01-29T12:51:47Z</time>
      </trkpt>
      <trkpt lat="45.98469" lon="6.56933">
        <ele>2243.37</ele>
        <time>2019-01-29T12:51:48Z</time>
      </trkpt>
      <trkpt lat="45.98469" lon="6.56927">
        <ele>2242.41</ele>
        <time>2019-01-29T12:51:49Z</time>
      </trkpt>
      <trkpt lat="45.98466" lon="6.56916">
        <ele>2242.89</ele>
        <time>2019-01-29T12:52:19Z</time>
      </trkpt>
      <trkpt lat="45.98465" lon="6.56912">
        <ele>2242.41</ele>
        <time>2019-01-29T12:52:22Z</time>
      </trkpt>
      <trkpt lat="45.98464" lon="6.56904">
        <ele>2241.45</ele>
        <time>2019-01-29T12:52:31Z</time>
      </trkpt>
      <trkpt lat="45.98464" lon="6.56901">
        <ele>2241.45</ele>
        <time>2019-01-29T12:52:33Z</time>
      </trkpt>
      <trkpt lat="45.98463" lon="6.569">
        <ele>2241.45</ele>
        <time>2019-01-29T12:52:34Z</time>
      </trkpt>
      <trkpt lat="45.98463" lon="6.56898">
        <ele>2241.45</ele>
        <time>2019-01-29T12:52:35Z</time>
      </trkpt>
      <trkpt lat="45.98461" lon="6.56883">
        <ele>2239.53</ele>
        <time>2019-01-29T12:52:45Z</time>
      </trkpt>
      <trkpt lat="45.9846" lon="6.56881">
        <ele>2239.05</ele>
        <time>2019-01-29T12:52:46Z</time>
      </trkpt>
      <trkpt lat="45.9846" lon="6.56879">
        <ele>2239.05</ele>
        <time>2019-01-29T12:52:47Z</time>
      </trkpt>
      <trkpt lat="45.98459" lon="6.56877">
        <ele>2238.57</ele>
        <time>2019-01-29T12:52:48Z</time>
      </trkpt>
      <trkpt lat="45.98459" lon="6.56875">
        <ele>2238.57</ele>
        <time>2019-01-29T12:52:49Z</time>
      </trkpt>
      <trkpt lat="45.98454" lon="6.56839">
        <ele>2235.2</ele>
        <time>2019-01-29T12:53:03Z</time>
      </trkpt>
      <trkpt lat="45.98454" lon="6.56823">
        <ele>2233.28</ele>
        <time>2019-01-29T12:53:07Z</time>
      </trkpt>
      <trkpt lat="45.9845" lon="6.56797">
        <ele>2230.4</ele>
        <time>2019-01-29T12:53:14Z</time>
      </trkpt>
      <trkpt lat="45.98449" lon="6.56766">
        <ele>2227.03</ele>
        <time>2019-01-29T12:53:20Z</time>
      </trkpt>
      <trkpt lat="45.98449" lon="6.56741">
        <ele>2224.15</ele>
        <time>2019-01-29T12:53:25Z</time>
      </trkpt>
      <trkpt lat="45.98451" lon="6.56721">
        <ele>2223.19</ele>
        <time>2019-01-29T12:53:51Z</time>
      </trkpt>
      <trkpt lat="45.98449" lon="6.56721">
        <ele>2222.22</ele>
        <time>2019-01-29T12:53:52Z</time>
      </trkpt>
      <trkpt lat="45.98445" lon="6.56722">
        <ele>2219.82</ele>
        <time>2019-01-29T12:53:53Z</time>
      </trkpt>
      <trkpt lat="45.98441" lon="6.56723">
        <ele>2218.38</ele>
        <time>2019-01-29T12:53:54Z</time>
      </trkpt>
      <trkpt lat="45.98437" lon="6.56718">
        <ele>2216.94</ele>
        <time>2019-01-29T12:53:55Z</time>
      </trkpt>
      <trkpt lat="45.98435" lon="6.56712">
        <ele>2215.5</ele>
        <time>2019-01-29T12:53:56Z</time>
      </trkpt>
      <trkpt lat="45.98433" lon="6.56708">
        <ele>2213.09</ele>
        <time>2019-01-29T12:53:57Z</time>
      </trkpt>
      <trkpt lat="45.98427" lon="6.56708">
        <ele>2210.21</ele>
        <time>2019-01-29T12:53:58Z</time>
      </trkpt>
      <trkpt lat="45.98422" lon="6.56705">
        <ele>2206.84</ele>
        <time>2019-01-29T12:53:59Z</time>
      </trkpt>
      <trkpt lat="45.98419" lon="6.56699">
        <ele>2204.44</ele>
        <time>2019-01-29T12:54:00Z</time>
      </trkpt>
      <trkpt lat="45.98416" lon="6.56694">
        <ele>2202.04</ele>
        <time>2019-01-29T12:54:01Z</time>
      </trkpt>
      <trkpt lat="45.98409" lon="6.56694">
        <ele>2198.67</ele>
        <time>2019-01-29T12:54:02Z</time>
      </trkpt>
      <trkpt lat="45.98403" lon="6.56692">
        <ele>2195.31</ele>
        <time>2019-01-29T12:54:03Z</time>
      </trkpt>
      <trkpt lat="45.98398" lon="6.56687">
        <ele>2191.94</ele>
        <time>2019-01-29T12:54:04Z</time>
      </trkpt>
      <trkpt lat="45.98394" lon="6.56683">
        <ele>2190.02</ele>
        <time>2019-01-29T12:54:05Z</time>
      </trkpt>
      <trkpt lat="45.98389" lon="6.56681">
        <ele>2185.21</ele>
        <time>2019-01-29T12:54:06Z</time>
      </trkpt>
      <trkpt lat="45.98382" lon="6.56678">
        <ele>2181.37</ele>
        <time>2019-01-29T12:54:07Z</time>
      </trkpt>
      <trkpt lat="45.98377" lon="6.56674">
        <ele>2175.6</ele>
        <time>2019-01-29T12:54:08Z</time>
      </trkpt>
      <trkpt lat="45.98372" lon="6.56672">
        <ele>2173.2</ele>
        <time>2019-01-29T12:54:09Z</time>
      </trkpt>
      <trkpt lat="45.98365" lon="6.56672">
        <ele>2168.39</ele>
        <time>2019-01-29T12:54:10Z</time>
      </trkpt>
      <trkpt lat="45.98359" lon="6.56669">
        <ele>2165.03</ele>
        <time>2019-01-29T12:54:11Z</time>
      </trkpt>
      <trkpt lat="45.98353" lon="6.56664">
        <ele>2161.18</ele>
        <time>2019-01-29T12:54:12Z</time>
      </trkpt>
      <trkpt lat="45.98346" lon="6.56662">
        <ele>2156.37</ele>
        <time>2019-01-29T12:54:13Z</time>
      </trkpt>
      <trkpt lat="45.98339" lon="6.5666">
        <ele>2151.57</ele>
        <time>2019-01-29T12:54:14Z</time>
      </trkpt>
      <trkpt lat="45.98333" lon="6.56657">
        <ele>2148.2</ele>
        <time>2019-01-29T12:54:15Z</time>
      </trkpt>
      <trkpt lat="45.98327" lon="6.56654">
        <ele>2145.32</ele>
        <time>2019-01-29T12:54:16Z</time>
      </trkpt>
      <trkpt lat="45.98319" lon="6.56652">
        <ele>2142.44</ele>
        <time>2019-01-29T12:54:17Z</time>
      </trkpt>
      <trkpt lat="45.98314" lon="6.56647">
        <ele>2139.55</ele>
        <time>2019-01-29T12:54:18Z</time>
      </trkpt>
      <trkpt lat="45.98309" lon="6.56642">
        <ele>2134.74</ele>
        <time>2019-01-29T12:54:19Z</time>
      </trkpt>
      <trkpt lat="45.98304" lon="6.56639">
        <ele>2130.9</ele>
        <time>2019-01-29T12:54:20Z</time>
      </trkpt>
      <trkpt lat="45.98301" lon="6.56642">
        <ele>2128.5</ele>
        <time>2019-01-29T12:54:21Z</time>
      </trkpt>
      <trkpt lat="45.983" lon="6.56646">
        <ele>2128.02</ele>
        <time>2019-01-29T12:54:22Z</time>
      </trkpt>
      <trkpt lat="45.98301" lon="6.56647">
        <ele>2128.02</ele>
        <time>2019-01-29T12:54:23Z</time>
      </trkpt>
      <trkpt lat="45.98302" lon="6.56649">
        <ele>2126.09</ele>
        <time>2019-01-29T12:54:27Z</time>
      </trkpt>
      <trkpt lat="45.98301" lon="6.5665">
        <ele>2126.09</ele>
        <time>2019-01-29T12:54:30Z</time>
      </trkpt>
      <trkpt lat="45.98299" lon="6.56649">
        <ele>2125.61</ele>
        <time>2019-01-29T12:54:31Z</time>
      </trkpt>
      <trkpt lat="45.98296" lon="6.56646">
        <ele>2124.65</ele>
        <time>2019-01-29T12:54:32Z</time>
      </trkpt>
      <trkpt lat="45.98292" lon="6.56643">
        <ele>2124.17</ele>
        <time>2019-01-29T12:54:33Z</time>
      </trkpt>
      <trkpt lat="45.98285" lon="6.56642">
        <ele>2121.77</ele>
        <time>2019-01-29T12:54:34Z</time>
      </trkpt>
      <trkpt lat="45.98278" lon="6.56643">
        <ele>2118.4</ele>
        <time>2019-01-29T12:54:35Z</time>
      </trkpt>
      <trkpt lat="45.9827" lon="6.56643">
        <ele>2113.6</ele>
        <time>2019-01-29T12:54:36Z</time>
      </trkpt>
      <trkpt lat="45.98261" lon="6.56644">
        <ele>2108.31</ele>
        <time>2019-01-29T12:54:37Z</time>
      </trkpt>
      <trkpt lat="45.98252" lon="6.56644">
        <ele>2103.5</ele>
        <time>2019-01-29T12:54:38Z</time>
      </trkpt>
      <trkpt lat="45.98245" lon="6.56642">
        <ele>2100.14</ele>
        <time>2019-01-29T12:54:39Z</time>
      </trkpt>
      <trkpt lat="45.98232" lon="6.56637">
        <ele>2096.77</ele>
        <time>2019-01-29T12:54:41Z</time>
      </trkpt>
      <trkpt lat="45.98227" lon="6.56632">
        <ele>2096.29</ele>
        <time>2019-01-29T12:54:42Z</time>
      </trkpt>
      <trkpt lat="45.98222" lon="6.56626">
        <ele>2095.33</ele>
        <time>2019-01-29T12:54:43Z</time>
      </trkpt>
      <trkpt lat="45.98216" lon="6.56623">
        <ele>2093.41</ele>
        <time>2019-01-29T12:54:44Z</time>
      </trkpt>
      <trkpt lat="45.98212" lon="6.5662">
        <ele>2091</ele>
        <time>2019-01-29T12:54:45Z</time>
      </trkpt>
      <trkpt lat="45.98208" lon="6.56617">
        <ele>2089.56</ele>
        <time>2019-01-29T12:54:46Z</time>
      </trkpt>
      <trkpt lat="45.98204" lon="6.56614">
        <ele>2088.6</ele>
        <time>2019-01-29T12:54:47Z</time>
      </trkpt>
      <trkpt lat="45.98201" lon="6.5661">
        <ele>2087.64</ele>
        <time>2019-01-29T12:54:48Z</time>
      </trkpt>
      <trkpt lat="45.982" lon="6.56605">
        <ele>2087.16</ele>
        <time>2019-01-29T12:54:49Z</time>
      </trkpt>
      <trkpt lat="45.98202" lon="6.56599">
        <ele>2086.2</ele>
        <time>2019-01-29T12:54:50Z</time>
      </trkpt>
      <trkpt lat="45.98205" lon="6.56596">
        <ele>2085.24</ele>
        <time>2019-01-29T12:54:51Z</time>
      </trkpt>
      <trkpt lat="45.98207" lon="6.56595">
        <ele>2084.76</ele>
        <time>2019-01-29T12:54:52Z</time>
      </trkpt>
      <trkpt lat="45.98208" lon="6.56594">
        <ele>2084.28</ele>
        <time>2019-01-29T12:54:53Z</time>
      </trkpt>
      <trkpt lat="45.98209" lon="6.56593">
        <ele>2084.28</ele>
        <time>2019-01-29T12:54:54Z</time>
      </trkpt>
      <trkpt lat="45.98208" lon="6.56591">
        <ele>2083.79</ele>
        <time>2019-01-29T12:54:55Z</time>
      </trkpt>
      <trkpt lat="45.98207" lon="6.5659">
        <ele>2083.31</ele>
        <time>2019-01-29T12:54:56Z</time>
      </trkpt>
      <trkpt lat="45.98205" lon="6.56589">
        <ele>2082.35</ele>
        <time>2019-01-29T12:54:57Z</time>
      </trkpt>
      <trkpt lat="45.98204" lon="6.56588">
        <ele>2081.39</ele>
        <time>2019-01-29T12:54:58Z</time>
      </trkpt>
      <trkpt lat="45.98202" lon="6.56587">
        <ele>2080.91</ele>
        <time>2019-01-29T12:54:59Z</time>
      </trkpt>
      <trkpt lat="45.98202" lon="6.56584">
        <ele>2080.91</ele>
        <time>2019-01-29T12:55:00Z</time>
      </trkpt>
      <trkpt lat="45.98202" lon="6.56582">
        <ele>2080.43</ele>
        <time>2019-01-29T12:55:01Z</time>
      </trkpt>
      <trkpt lat="45.98206" lon="6.56584">
        <ele>2079.47</ele>
        <time>2019-01-29T12:56:29Z</time>
      </trkpt>
      <trkpt lat="45.98205" lon="6.56584">
        <ele>2079.95</ele>
        <time>2019-01-29T12:57:31Z</time>
      </trkpt>
      <trkpt lat="45.98206" lon="6.56583">
        <ele>2079.95</ele>
        <time>2019-01-29T12:57:32Z</time>
      </trkpt>
      <trkpt lat="45.98205" lon="6.56581">
        <ele>2079.47</ele>
        <time>2019-01-29T12:57:33Z</time>
      </trkpt>
      <trkpt lat="45.98204" lon="6.5658">
        <ele>2078.51</ele>
        <time>2019-01-29T12:57:34Z</time>
      </trkpt>
      <trkpt lat="45.98203" lon="6.5658">
        <ele>2078.03</ele>
        <time>2019-01-29T12:57:35Z</time>
      </trkpt>
      <trkpt lat="45.98202" lon="6.5658">
        <ele>2077.55</ele>
        <time>2019-01-29T12:57:36Z</time>
      </trkpt>
      <trkpt lat="45.98186" lon="6.5659">
        <ele>2076.1</ele>
        <time>2019-01-29T12:57:56Z</time>
      </trkpt>
      <trkpt lat="45.98184" lon="6.56591">
        <ele>2075.62</ele>
        <time>2019-01-29T12:57:57Z</time>
      </trkpt>
      <trkpt lat="45.98181" lon="6.56594">
        <ele>2073.7</ele>
        <time>2019-01-29T12:58:00Z</time>
      </trkpt>
      <trkpt lat="45.98178" lon="6.56591">
        <ele>2072.26</ele>
        <time>2019-01-29T12:58:13Z</time>
      </trkpt>
      <trkpt lat="45.98175" lon="6.56584">
        <ele>2070.82</ele>
        <time>2019-01-29T12:58:15Z</time>
      </trkpt>
      <trkpt lat="45.98174" lon="6.56579">
        <ele>2069.38</ele>
        <time>2019-01-29T12:58:16Z</time>
      </trkpt>
      <trkpt lat="45.98175" lon="6.56576">
        <ele>2067.45</ele>
        <time>2019-01-29T12:58:17Z</time>
      </trkpt>
      <trkpt lat="45.98177" lon="6.56574">
        <ele>2066.97</ele>
        <time>2019-01-29T12:58:18Z</time>
      </trkpt>
      <trkpt lat="45.98179" lon="6.56572">
        <ele>2066.49</ele>
        <time>2019-01-29T12:58:21Z</time>
      </trkpt>
      <trkpt lat="45.9818" lon="6.5657">
        <ele>2066.01</ele>
        <time>2019-01-29T12:58:22Z</time>
      </trkpt>
      <trkpt lat="45.98182" lon="6.56567">
        <ele>2064.57</ele>
        <time>2019-01-29T12:58:24Z</time>
      </trkpt>
      <trkpt lat="45.98178" lon="6.56564">
        <ele>2063.13</ele>
        <time>2019-01-29T12:58:43Z</time>
      </trkpt>
      <trkpt lat="45.98176" lon="6.56561">
        <ele>2062.17</ele>
        <time>2019-01-29T12:58:44Z</time>
      </trkpt>
      <trkpt lat="45.98175" lon="6.56557">
        <ele>2060.24</ele>
        <time>2019-01-29T12:58:45Z</time>
      </trkpt>
      <trkpt lat="45.98176" lon="6.56554">
        <ele>2059.28</ele>
        <time>2019-01-29T12:58:46Z</time>
      </trkpt>
      <trkpt lat="45.98176" lon="6.5655">
        <ele>2057.36</ele>
        <time>2019-01-29T12:58:47Z</time>
      </trkpt>
      <trkpt lat="45.98174" lon="6.56545">
        <ele>2055.44</ele>
        <time>2019-01-29T12:58:48Z</time>
      </trkpt>
      <trkpt lat="45.98173" lon="6.56539">
        <ele>2053.51</ele>
        <time>2019-01-29T12:58:49Z</time>
      </trkpt>
      <trkpt lat="45.98175" lon="6.56533">
        <ele>2050.63</ele>
        <time>2019-01-29T12:58:50Z</time>
      </trkpt>
      <trkpt lat="45.98177" lon="6.56527">
        <ele>2047.75</ele>
        <time>2019-01-29T12:58:51Z</time>
      </trkpt>
      <trkpt lat="45.98177" lon="6.5652">
        <ele>2046.3</ele>
        <time>2019-01-29T12:58:52Z</time>
      </trkpt>
      <trkpt lat="45.98177" lon="6.56512">
        <ele>2041.02</ele>
        <time>2019-01-29T12:58:53Z</time>
      </trkpt>
      <trkpt lat="45.98178" lon="6.56503">
        <ele>2037.17</ele>
        <time>2019-01-29T12:58:54Z</time>
      </trkpt>
      <trkpt lat="45.98179" lon="6.56492">
        <ele>2033.33</ele>
        <time>2019-01-29T12:58:55Z</time>
      </trkpt>
      <trkpt lat="45.9818" lon="6.56483">
        <ele>2029</ele>
        <time>2019-01-29T12:58:56Z</time>
      </trkpt>
      <trkpt lat="45.98181" lon="6.56475">
        <ele>2025.64</ele>
        <time>2019-01-29T12:58:57Z</time>
      </trkpt>
      <trkpt lat="45.98182" lon="6.56466">
        <ele>2020.83</ele>
        <time>2019-01-29T12:58:58Z</time>
      </trkpt>
      <trkpt lat="45.98184" lon="6.56458">
        <ele>2017.46</ele>
        <time>2019-01-29T12:58:59Z</time>
      </trkpt>
      <trkpt lat="45.98188" lon="6.56448">
        <ele>2014.1</ele>
        <time>2019-01-29T12:59:01Z</time>
      </trkpt>
      <trkpt lat="45.98189" lon="6.56441">
        <ele>2011.7</ele>
        <time>2019-01-29T12:59:02Z</time>
      </trkpt>
      <trkpt lat="45.98191" lon="6.56434">
        <ele>2008.81</ele>
        <time>2019-01-29T12:59:03Z</time>
      </trkpt>
      <trkpt lat="45.9819" lon="6.56424">
        <ele>2006.41</ele>
        <time>2019-01-29T12:59:04Z</time>
      </trkpt>
      <trkpt lat="45.9819" lon="6.56414">
        <ele>2002.56</ele>
        <time>2019-01-29T12:59:05Z</time>
      </trkpt>
      <trkpt lat="45.98189" lon="6.56404">
        <ele>1997.28</ele>
        <time>2019-01-29T12:59:06Z</time>
      </trkpt>
      <trkpt lat="45.98187" lon="6.56392">
        <ele>1993.43</ele>
        <time>2019-01-29T12:59:07Z</time>
      </trkpt>
      <trkpt lat="45.98186" lon="6.56381">
        <ele>1990.55</ele>
        <time>2019-01-29T12:59:08Z</time>
      </trkpt>
      <trkpt lat="45.98186" lon="6.56368">
        <ele>1984.78</ele>
        <time>2019-01-29T12:59:09Z</time>
      </trkpt>
      <trkpt lat="45.98187" lon="6.56355">
        <ele>1979.01</ele>
        <time>2019-01-29T12:59:10Z</time>
      </trkpt>
      <trkpt lat="45.98189" lon="6.56346">
        <ele>1976.13</ele>
        <time>2019-01-29T12:59:11Z</time>
      </trkpt>
      <trkpt lat="45.98192" lon="6.56337">
        <ele>1973.72</ele>
        <time>2019-01-29T12:59:12Z</time>
      </trkpt>
      <trkpt lat="45.98197" lon="6.56321">
        <ele>1968.92</ele>
        <time>2019-01-29T12:59:14Z</time>
      </trkpt>
      <trkpt lat="45.982" lon="6.56314">
        <ele>1967.48</ele>
        <time>2019-01-29T12:59:15Z</time>
      </trkpt>
      <trkpt lat="45.982" lon="6.56307">
        <ele>1966.03</ele>
        <time>2019-01-29T12:59:16Z</time>
      </trkpt>
      <trkpt lat="45.98198" lon="6.56302">
        <ele>1965.55</ele>
        <time>2019-01-29T12:59:17Z</time>
      </trkpt>
      <trkpt lat="45.98197" lon="6.56297">
        <ele>1964.11</ele>
        <time>2019-01-29T12:59:18Z</time>
      </trkpt>
      <trkpt lat="45.98195" lon="6.56292">
        <ele>1963.63</ele>
        <time>2019-01-29T12:59:19Z</time>
      </trkpt>
      <trkpt lat="45.98194" lon="6.56286">
        <ele>1962.67</ele>
        <time>2019-01-29T12:59:20Z</time>
      </trkpt>
      <trkpt lat="45.98194" lon="6.56281">
        <ele>1961.71</ele>
        <time>2019-01-29T12:59:21Z</time>
      </trkpt>
      <trkpt lat="45.98195" lon="6.56274">
        <ele>1960.75</ele>
        <time>2019-01-29T12:59:23Z</time>
      </trkpt>
      <trkpt lat="45.98193" lon="6.56259">
        <ele>1957.38</ele>
        <time>2019-01-29T12:59:33Z</time>
      </trkpt>
      <trkpt lat="45.98191" lon="6.56263">
        <ele>1956.9</ele>
        <time>2019-01-29T12:59:53Z</time>
      </trkpt>
      <trkpt lat="45.9819" lon="6.56261">
        <ele>1956.42</ele>
        <time>2019-01-29T12:59:54Z</time>
      </trkpt>
      <trkpt lat="45.98189" lon="6.56259">
        <ele>1956.42</ele>
        <time>2019-01-29T12:59:55Z</time>
      </trkpt>
      <trkpt lat="45.98187" lon="6.56256">
        <ele>1956.42</ele>
        <time>2019-01-29T12:59:56Z</time>
      </trkpt>
      <trkpt lat="45.98185" lon="6.56253">
        <ele>1955.94</ele>
        <time>2019-01-29T12:59:57Z</time>
      </trkpt>
      <trkpt lat="45.98174" lon="6.56239">
        <ele>1952.57</ele>
        <time>2019-01-29T13:00:02Z</time>
      </trkpt>
      <trkpt lat="45.98163" lon="6.56221">
        <ele>1948.73</ele>
        <time>2019-01-29T13:00:08Z</time>
      </trkpt>
      <trkpt lat="45.98153" lon="6.56211">
        <ele>1945.36</ele>
        <time>2019-01-29T13:00:11Z</time>
      </trkpt>
      <trkpt lat="45.98146" lon="6.56202">
        <ele>1942.48</ele>
        <time>2019-01-29T13:00:13Z</time>
      </trkpt>
      <trkpt lat="45.98144" lon="6.56195">
        <ele>1941.04</ele>
        <time>2019-01-29T13:00:14Z</time>
      </trkpt>
      <trkpt lat="45.98141" lon="6.56186">
        <ele>1940.08</ele>
        <time>2019-01-29T13:00:15Z</time>
      </trkpt>
      <trkpt lat="45.98135" lon="6.56167">
        <ele>1934.79</ele>
        <time>2019-01-29T13:00:17Z</time>
      </trkpt>
      <trkpt lat="45.98131" lon="6.56158">
        <ele>1931.91</ele>
        <time>2019-01-29T13:00:18Z</time>
      </trkpt>
      <trkpt lat="45.98127" lon="6.56151">
        <ele>1929.5</ele>
        <time>2019-01-29T13:00:19Z</time>
      </trkpt>
      <trkpt lat="45.98118" lon="6.56136">
        <ele>1925.18</ele>
        <time>2019-01-29T13:00:21Z</time>
      </trkpt>
      <trkpt lat="45.98111" lon="6.5612">
        <ele>1921.81</ele>
        <time>2019-01-29T13:00:24Z</time>
      </trkpt>
      <trkpt lat="45.98094" lon="6.56078">
        <ele>1918.45</ele>
        <time>2019-01-29T13:00:33Z</time>
      </trkpt>
      <trkpt lat="45.98088" lon="6.56072">
        <ele>1916.53</ele>
        <time>2019-01-29T13:00:36Z</time>
      </trkpt>
      <trkpt lat="45.98088" lon="6.56069">
        <ele>1916.04</ele>
        <time>2019-01-29T13:00:37Z</time>
      </trkpt>
      <trkpt lat="45.98088" lon="6.56053">
        <ele>1915.56</ele>
        <time>2019-01-29T13:00:40Z</time>
      </trkpt>
      <trkpt lat="45.98088" lon="6.56048">
        <ele>1915.56</ele>
        <time>2019-01-29T13:00:41Z</time>
      </trkpt>
      <trkpt lat="45.98089" lon="6.56046">
        <ele>1912.2</ele>
        <time>2019-01-29T13:00:42Z</time>
      </trkpt>
      <trkpt lat="45.98088" lon="6.56046">
        <ele>1909.8</ele>
        <time>2019-01-29T13:00:46Z</time>
      </trkpt>
      <trkpt lat="45.98087" lon="6.56045">
        <ele>1909.8</ele>
        <time>2019-01-29T13:01:01Z</time>
      </trkpt>
      <trkpt lat="45.98085" lon="6.56043">
        <ele>1909.32</ele>
        <time>2019-01-29T13:01:02Z</time>
      </trkpt>
      <trkpt lat="45.98081" lon="6.56041">
        <ele>1908.83</ele>
        <time>2019-01-29T13:01:03Z</time>
      </trkpt>
      <trkpt lat="45.98078" lon="6.56039">
        <ele>1907.39</ele>
        <time>2019-01-29T13:01:04Z</time>
      </trkpt>
      <trkpt lat="45.98076" lon="6.56037">
        <ele>1906.43</ele>
        <time>2019-01-29T13:01:05Z</time>
      </trkpt>
      <trkpt lat="45.98073" lon="6.56034">
        <ele>1905.95</ele>
        <time>2019-01-29T13:01:06Z</time>
      </trkpt>
      <trkpt lat="45.98071" lon="6.5603">
        <ele>1904.03</ele>
        <time>2019-01-29T13:01:07Z</time>
      </trkpt>
      <trkpt lat="45.98069" lon="6.56027">
        <ele>1902.59</ele>
        <time>2019-01-29T13:01:08Z</time>
      </trkpt>
      <trkpt lat="45.98065" lon="6.56024">
        <ele>1901.14</ele>
        <time>2019-01-29T13:01:09Z</time>
      </trkpt>
      <trkpt lat="45.98061" lon="6.56021">
        <ele>1899.22</ele>
        <time>2019-01-29T13:01:10Z</time>
      </trkpt>
      <trkpt lat="45.98057" lon="6.56015">
        <ele>1896.34</ele>
        <time>2019-01-29T13:01:11Z</time>
      </trkpt>
      <trkpt lat="45.98054" lon="6.56007">
        <ele>1893.93</ele>
        <time>2019-01-29T13:01:12Z</time>
      </trkpt>
      <trkpt lat="45.98052" lon="6.55999">
        <ele>1891.05</ele>
        <time>2019-01-29T13:01:13Z</time>
      </trkpt>
      <trkpt lat="45.98052" lon="6.5599">
        <ele>1889.61</ele>
        <time>2019-01-29T13:01:14Z</time>
      </trkpt>
      <trkpt lat="45.98052" lon="6.55982">
        <ele>1887.21</ele>
        <time>2019-01-29T13:01:15Z</time>
      </trkpt>
      <trkpt lat="45.98051" lon="6.55974">
        <ele>1884.32</ele>
        <time>2019-01-29T13:01:16Z</time>
      </trkpt>
      <trkpt lat="45.98049" lon="6.55966">
        <ele>1881.44</ele>
        <time>2019-01-29T13:01:17Z</time>
      </trkpt>
      <trkpt lat="45.98048" lon="6.55957">
        <ele>1879.03</ele>
        <time>2019-01-29T13:01:18Z</time>
      </trkpt>
      <trkpt lat="45.98046" lon="6.55947">
        <ele>1875.19</ele>
        <time>2019-01-29T13:01:19Z</time>
      </trkpt>
      <trkpt lat="45.98041" lon="6.55925">
        <ele>1869.9</ele>
        <time>2019-01-29T13:01:21Z</time>
      </trkpt>
      <trkpt lat="45.98036" lon="6.55904">
        <ele>1864.61</ele>
        <time>2019-01-29T13:01:23Z</time>
      </trkpt>
      <trkpt lat="45.98033" lon="6.55895">
        <ele>1861.73</ele>
        <time>2019-01-29T13:01:24Z</time>
      </trkpt>
      <trkpt lat="45.98029" lon="6.55883">
        <ele>1858.37</ele>
        <time>2019-01-29T13:01:26Z</time>
      </trkpt>
      <trkpt lat="45.98029" lon="6.5588">
        <ele>1857.4</ele>
        <time>2019-01-29T13:01:27Z</time>
      </trkpt>
      <trkpt lat="45.9803" lon="6.55879">
        <ele>1855.48</ele>
        <time>2019-01-29T13:01:30Z</time>
      </trkpt>
      <trkpt lat="45.98026" lon="6.5588">
        <ele>1855</ele>
        <time>2019-01-29T13:01:55Z</time>
      </trkpt>
      <trkpt lat="45.98025" lon="6.55878">
        <ele>1855</ele>
        <time>2019-01-29T13:01:56Z</time>
      </trkpt>
      <trkpt lat="45.98019" lon="6.55858">
        <ele>1849.71</ele>
        <time>2019-01-29T13:02:00Z</time>
      </trkpt>
      <trkpt lat="45.98016" lon="6.55852">
        <ele>1847.79</ele>
        <time>2019-01-29T13:02:01Z</time>
      </trkpt>
      <trkpt lat="45.98013" lon="6.55847">
        <ele>1846.35</ele>
        <time>2019-01-29T13:02:02Z</time>
      </trkpt>
      <trkpt lat="45.98008" lon="6.55836">
        <ele>1842.98</ele>
        <time>2019-01-29T13:02:04Z</time>
      </trkpt>
      <trkpt lat="45.98005" lon="6.55831">
        <ele>1842.02</ele>
        <time>2019-01-29T13:02:05Z</time>
      </trkpt>
      <trkpt lat="45.97998" lon="6.55821">
        <ele>1838.66</ele>
        <time>2019-01-29T13:02:07Z</time>
      </trkpt>
      <trkpt lat="45.97986" lon="6.55798">
        <ele>1834.33</ele>
        <time>2019-01-29T13:02:12Z</time>
      </trkpt>
      <trkpt lat="45.97983" lon="6.55793">
        <ele>1833.37</ele>
        <time>2019-01-29T13:02:13Z</time>
      </trkpt>
      <trkpt lat="45.97982" lon="6.55786">
        <ele>1831.93</ele>
        <time>2019-01-29T13:02:14Z</time>
      </trkpt>
      <trkpt lat="45.97977" lon="6.55772">
        <ele>1827.6</ele>
        <time>2019-01-29T13:02:16Z</time>
      </trkpt>
      <trkpt lat="45.97974" lon="6.55761">
        <ele>1824.24</ele>
        <time>2019-01-29T13:02:18Z</time>
      </trkpt>
      <trkpt lat="45.9797" lon="6.55751">
        <ele>1820.87</ele>
        <time>2019-01-29T13:02:22Z</time>
      </trkpt>
      <trkpt lat="45.9797" lon="6.55747">
        <ele>1819.43</ele>
        <time>2019-01-29T13:02:28Z</time>
      </trkpt>
      <trkpt lat="45.97969" lon="6.55745">
        <ele>1819.43</ele>
        <time>2019-01-29T13:02:29Z</time>
      </trkpt>
      <trkpt lat="45.97967" lon="6.55741">
        <ele>1819.43</ele>
        <time>2019-01-29T13:02:30Z</time>
      </trkpt>
      <trkpt lat="45.97965" lon="6.55736">
        <ele>1818.95</ele>
        <time>2019-01-29T13:02:31Z</time>
      </trkpt>
      <trkpt lat="45.97962" lon="6.55731">
        <ele>1817.99</ele>
        <time>2019-01-29T13:02:32Z</time>
      </trkpt>
      <trkpt lat="45.97953" lon="6.55717">
        <ele>1814.63</ele>
        <time>2019-01-29T13:02:36Z</time>
      </trkpt>
      <trkpt lat="45.97946" lon="6.55705">
        <ele>1811.74</ele>
        <time>2019-01-29T13:02:39Z</time>
      </trkpt>
      <trkpt lat="45.97941" lon="6.55699">
        <ele>1808.38</ele>
        <time>2019-01-29T13:02:43Z</time>
      </trkpt>
      <trkpt lat="45.9794" lon="6.55698">
        <ele>1807.9</ele>
        <time>2019-01-29T13:02:45Z</time>
      </trkpt>
      <trkpt lat="45.97938" lon="6.55695">
        <ele>1807.42</ele>
        <time>2019-01-29T13:02:48Z</time>
      </trkpt>
      <trkpt lat="45.97936" lon="6.55692">
        <ele>1806.94</ele>
        <time>2019-01-29T13:02:49Z</time>
      </trkpt>
      <trkpt lat="45.97934" lon="6.55689">
        <ele>1805.97</ele>
        <time>2019-01-29T13:02:50Z</time>
      </trkpt>
      <trkpt lat="45.97933" lon="6.55682">
        <ele>1804.53</ele>
        <time>2019-01-29T13:02:51Z</time>
      </trkpt>
      <trkpt lat="45.97933" lon="6.55675">
        <ele>1802.61</ele>
        <time>2019-01-29T13:02:52Z</time>
      </trkpt>
      <trkpt lat="45.97933" lon="6.55666">
        <ele>1801.17</ele>
        <time>2019-01-29T13:02:53Z</time>
      </trkpt>
      <trkpt lat="45.97934" lon="6.55658">
        <ele>1796.84</ele>
        <time>2019-01-29T13:02:54Z</time>
      </trkpt>
      <trkpt lat="45.97937" lon="6.55651">
        <ele>1793.96</ele>
        <time>2019-01-29T13:02:55Z</time>
      </trkpt>
      <trkpt lat="45.9794" lon="6.55642">
        <ele>1790.59</ele>
        <time>2019-01-29T13:02:56Z</time>
      </trkpt>
      <trkpt lat="45.97944" lon="6.55635">
        <ele>1787.23</ele>
        <time>2019-01-29T13:02:57Z</time>
      </trkpt>
      <trkpt lat="45.97948" lon="6.55631">
        <ele>1784.34</ele>
        <time>2019-01-29T13:02:58Z</time>
      </trkpt>
      <trkpt lat="45.97952" lon="6.55625">
        <ele>1782.42</ele>
        <time>2019-01-29T13:02:59Z</time>
      </trkpt>
      <trkpt lat="45.97955" lon="6.55617">
        <ele>1778.58</ele>
        <time>2019-01-29T13:03:00Z</time>
      </trkpt>
      <trkpt lat="45.97957" lon="6.55609">
        <ele>1775.21</ele>
        <time>2019-01-29T13:03:01Z</time>
      </trkpt>
      <trkpt lat="45.97959" lon="6.55602">
        <ele>1772.81</ele>
        <time>2019-01-29T13:03:02Z</time>
      </trkpt>
      <trkpt lat="45.9796" lon="6.55596">
        <ele>1769.92</ele>
        <time>2019-01-29T13:03:03Z</time>
      </trkpt>
      <trkpt lat="45.97957" lon="6.55592">
        <ele>1767.52</ele>
        <time>2019-01-29T13:03:04Z</time>
      </trkpt>
      <trkpt lat="45.97956" lon="6.5559">
        <ele>1766.08</ele>
        <time>2019-01-29T13:03:05Z</time>
      </trkpt>
      <trkpt lat="45.97955" lon="6.55588">
        <ele>1765.6</ele>
        <time>2019-01-29T13:03:06Z</time>
      </trkpt>
      <trkpt lat="45.97954" lon="6.55587">
        <ele>1764.64</ele>
        <time>2019-01-29T13:03:07Z</time>
      </trkpt>
      <trkpt lat="45.97952" lon="6.55586">
        <ele>1764.16</ele>
        <time>2019-01-29T13:03:08Z</time>
      </trkpt>
      <trkpt lat="45.97949" lon="6.55577">
        <ele>1760.79</ele>
        <time>2019-01-29T13:03:42Z</time>
      </trkpt>
      <trkpt lat="45.9795" lon="6.55578">
        <ele>1760.79</ele>
        <time>2019-01-29T13:04:34Z</time>
      </trkpt>
      <trkpt lat="45.97954" lon="6.55577">
        <ele>1760.79</ele>
        <time>2019-01-29T13:04:38Z</time>
      </trkpt>
      <trkpt lat="45.97956" lon="6.55577">
        <ele>1760.31</ele>
        <time>2019-01-29T13:04:39Z</time>
      </trkpt>
      <trkpt lat="45.97958" lon="6.55577">
        <ele>1759.83</ele>
        <time>2019-01-29T13:04:40Z</time>
      </trkpt>
      <trkpt lat="45.97969" lon="6.55575">
        <ele>1755.99</ele>
        <time>2019-01-29T13:04:44Z</time>
      </trkpt>
      <trkpt lat="45.97974" lon="6.55575">
        <ele>1755.02</ele>
        <time>2019-01-29T13:04:57Z</time>
      </trkpt>
      <trkpt lat="45.97975" lon="6.55576">
        <ele>1755.02</ele>
        <time>2019-01-29T13:04:58Z</time>
      </trkpt>
      <trkpt lat="45.97977" lon="6.55576">
        <ele>1754.54</ele>
        <time>2019-01-29T13:04:59Z</time>
      </trkpt>
      <trkpt lat="45.9798" lon="6.55576">
        <ele>1753.58</ele>
        <time>2019-01-29T13:05:00Z</time>
      </trkpt>
      <trkpt lat="45.97983" lon="6.55576">
        <ele>1752.62</ele>
        <time>2019-01-29T13:05:01Z</time>
      </trkpt>
      <trkpt lat="45.97986" lon="6.55577">
        <ele>1751.66</ele>
        <time>2019-01-29T13:05:02Z</time>
      </trkpt>
      <trkpt lat="45.98008" lon="6.55586">
        <ele>1749.74</ele>
        <time>2019-01-29T13:06:16Z</time>
      </trkpt>
      <trkpt lat="45.98011" lon="6.55586">
        <ele>1749.26</ele>
        <time>2019-01-29T13:06:21Z</time>
      </trkpt>
      <trkpt lat="45.98012" lon="6.55585">
        <ele>1749.26</ele>
        <time>2019-01-29T13:06:22Z</time>
      </trkpt>
      <trkpt lat="45.98014" lon="6.55585">
        <ele>1747.81</ele>
        <time>2019-01-29T13:06:23Z</time>
      </trkpt>
      <trkpt lat="45.98022" lon="6.55582">
        <ele>1744.45</ele>
        <time>2019-01-29T13:06:28Z</time>
      </trkpt>
      <trkpt lat="45.98025" lon="6.55581">
        <ele>1742.53</ele>
        <time>2019-01-29T13:06:33Z</time>
      </trkpt>
      <trkpt lat="45.98025" lon="6.5558">
        <ele>1742.53</ele>
        <time>2019-01-29T13:07:33Z</time>
      </trkpt>
      <trkpt lat="45.98024" lon="6.55582">
        <ele>1743.49</ele>
        <time>2019-01-29T13:10:48Z</time>
      </trkpt>
      <trkpt lat="45.98024" lon="6.55586">
        <ele>1743.97</ele>
        <time>2019-01-29T13:12:20Z</time>
      </trkpt>
      <trkpt lat="45.98024" lon="6.55586">
        <ele>1743.97</ele>
        <time>2019-01-29T13:12:25Z</time>
      </trkpt>
      <trkpt lat="45.97951" lon="6.5559">
        <ele>1764.64</ele>
        <time>2019-01-29T13:14:52Z</time>
      </trkpt>
      <trkpt lat="45.9795" lon="6.5559">
        <ele>1764.64</ele>
        <time>2019-01-29T13:14:53Z</time>
      </trkpt>
      <trkpt lat="45.9795" lon="6.5559">
        <ele>1764.64</ele>
        <time>2019-01-29T13:15:07Z</time>
      </trkpt>
      <trkpt lat="45.97951" lon="6.5559">
        <ele>1765.12</ele>
        <time>2019-01-29T13:15:09Z</time>
      </trkpt>
      <trkpt lat="45.97958" lon="6.55601">
        <ele>1767.04</ele>
        <time>2019-01-29T13:15:24Z</time>
      </trkpt>
      <trkpt lat="45.97958" lon="6.55602">
        <ele>1767.04</ele>
        <time>2019-01-29T13:15:25Z</time>
      </trkpt>
      <trkpt lat="45.97963" lon="6.55615">
        <ele>1770.41</ele>
        <time>2019-01-29T13:15:42Z</time>
      </trkpt>
      <trkpt lat="45.97965" lon="6.55627">
        <ele>1772.33</ele>
        <time>2019-01-29T13:15:55Z</time>
      </trkpt>
      <trkpt lat="45.97964" lon="6.55628">
        <ele>1772.81</ele>
        <time>2019-01-29T13:16:01Z</time>
      </trkpt>
      <trkpt lat="45.97954" lon="6.55626">
        <ele>1775.21</ele>
        <time>2019-01-29T13:16:16Z</time>
      </trkpt>
      <trkpt lat="45.97945" lon="6.55625">
        <ele>1777.13</ele>
        <time>2019-01-29T13:16:27Z</time>
      </trkpt>
      <trkpt lat="45.97944" lon="6.55625">
        <ele>1777.61</ele>
        <time>2019-01-29T13:16:29Z</time>
      </trkpt>
      <trkpt lat="45.97943" lon="6.55625">
        <ele>1777.61</ele>
        <time>2019-01-29T13:16:30Z</time>
      </trkpt>
      <trkpt lat="45.97942" lon="6.55625">
        <ele>1778.58</ele>
        <time>2019-01-29T13:16:37Z</time>
      </trkpt>
      <trkpt lat="45.9795" lon="6.55637">
        <ele>1781.46</ele>
        <time>2019-01-29T13:16:58Z</time>
      </trkpt>
      <trkpt lat="45.97949" lon="6.5565">
        <ele>1784.82</ele>
        <time>2019-01-29T13:17:25Z</time>
      </trkpt>
      <trkpt lat="45.97936" lon="6.55643">
        <ele>1787.23</ele>
        <time>2019-01-29T13:17:45Z</time>
      </trkpt>
      <trkpt lat="45.97925" lon="6.55632">
        <ele>1790.59</ele>
        <time>2019-01-29T13:18:20Z</time>
      </trkpt>
      <trkpt lat="45.97923" lon="6.55632">
        <ele>1791.07</ele>
        <time>2019-01-29T13:18:39Z</time>
      </trkpt>
      <trkpt lat="45.97923" lon="6.55642">
        <ele>1793.96</ele>
        <time>2019-01-29T13:19:07Z</time>
      </trkpt>
      <trkpt lat="45.97913" lon="6.55644">
        <ele>1797.32</ele>
        <time>2019-01-29T13:19:31Z</time>
      </trkpt>
      <trkpt lat="45.97916" lon="6.5565">
        <ele>1800.21</ele>
        <time>2019-01-29T13:20:20Z</time>
      </trkpt>
      <trkpt lat="45.97915" lon="6.55666">
        <ele>1803.57</ele>
        <time>2019-01-29T13:20:39Z</time>
      </trkpt>
      <trkpt lat="45.97912" lon="6.55676">
        <ele>1806.45</ele>
        <time>2019-01-29T13:21:00Z</time>
      </trkpt>
      <trkpt lat="45.97903" lon="6.55663">
        <ele>1809.82</ele>
        <time>2019-01-29T13:21:28Z</time>
      </trkpt>
      <trkpt lat="45.97897" lon="6.55665">
        <ele>1810.3</ele>
        <time>2019-01-29T13:21:37Z</time>
      </trkpt>
      <trkpt lat="45.97864" lon="6.55632">
        <ele>1812.22</ele>
        <time>2019-01-29T13:22:38Z</time>
      </trkpt>
      <trkpt lat="45.97864" lon="6.55629">
        <ele>1812.22</ele>
        <time>2019-01-29T13:22:39Z</time>
      </trkpt>
      <trkpt lat="45.97865" lon="6.55626">
        <ele>1811.26</ele>
        <time>2019-01-29T13:22:40Z</time>
      </trkpt>
      <trkpt lat="45.97867" lon="6.55622">
        <ele>1810.78</ele>
        <time>2019-01-29T13:22:41Z</time>
      </trkpt>
      <trkpt lat="45.97872" lon="6.55605">
        <ele>1806.94</ele>
        <time>2019-01-29T13:22:44Z</time>
      </trkpt>
      <trkpt lat="45.97873" lon="6.55593">
        <ele>1803.09</ele>
        <time>2019-01-29T13:22:47Z</time>
      </trkpt>
      <trkpt lat="45.97873" lon="6.55577">
        <ele>1799.24</ele>
        <time>2019-01-29T13:22:53Z</time>
      </trkpt>
      <trkpt lat="45.97872" lon="6.55564">
        <ele>1796.36</ele>
        <time>2019-01-29T13:22:58Z</time>
      </trkpt>
      <trkpt lat="45.97872" lon="6.55563">
        <ele>1795.88</ele>
        <time>2019-01-29T13:22:59Z</time>
      </trkpt>
      <trkpt lat="45.97872" lon="6.55561">
        <ele>1795.4</ele>
        <time>2019-01-29T13:23:00Z</time>
      </trkpt>
      <trkpt lat="45.97872" lon="6.55559">
        <ele>1795.4</ele>
        <time>2019-01-29T13:23:01Z</time>
      </trkpt>
      <trkpt lat="45.97872" lon="6.55556">
        <ele>1794.92</ele>
        <time>2019-01-29T13:23:02Z</time>
      </trkpt>
      <trkpt lat="45.97872" lon="6.55554">
        <ele>1794.44</ele>
        <time>2019-01-29T13:23:03Z</time>
      </trkpt>
      <trkpt lat="45.97871" lon="6.5555">
        <ele>1793.96</ele>
        <time>2019-01-29T13:23:05Z</time>
      </trkpt>
      <trkpt lat="45.97871" lon="6.55548">
        <ele>1793.96</ele>
        <time>2019-01-29T13:23:06Z</time>
      </trkpt>
      <trkpt lat="45.97869" lon="6.55522">
        <ele>1790.11</ele>
        <time>2019-01-29T13:23:18Z</time>
      </trkpt>
      <trkpt lat="45.97867" lon="6.55505">
        <ele>1787.23</ele>
        <time>2019-01-29T13:23:25Z</time>
      </trkpt>
      <trkpt lat="45.97865" lon="6.55489">
        <ele>1783.86</ele>
        <time>2019-01-29T13:23:32Z</time>
      </trkpt>
      <trkpt lat="45.97862" lon="6.55477">
        <ele>1782.42</ele>
        <time>2019-01-29T13:23:35Z</time>
      </trkpt>
      <trkpt lat="45.97861" lon="6.55471">
        <ele>1780.5</ele>
        <time>2019-01-29T13:23:36Z</time>
      </trkpt>
      <trkpt lat="45.97859" lon="6.55463">
        <ele>1777.13</ele>
        <time>2019-01-29T13:23:39Z</time>
      </trkpt>
      <trkpt lat="45.97853" lon="6.55453">
        <ele>1776.17</ele>
        <time>2019-01-29T13:23:46Z</time>
      </trkpt>
      <trkpt lat="45.97852" lon="6.55431">
        <ele>1772.81</ele>
        <time>2019-01-29T13:23:57Z</time>
      </trkpt>
      <trkpt lat="45.97851" lon="6.55407">
        <ele>1769.44</ele>
        <time>2019-01-29T13:24:09Z</time>
      </trkpt>
      <trkpt lat="45.97853" lon="6.55398">
        <ele>1767.52</ele>
        <time>2019-01-29T13:24:13Z</time>
      </trkpt>
      <trkpt lat="45.97855" lon="6.55396">
        <ele>1765.6</ele>
        <time>2019-01-29T13:26:52Z</time>
      </trkpt>
      <trkpt lat="45.97851" lon="6.55392">
        <ele>1765.6</ele>
        <time>2019-01-29T13:27:44Z</time>
      </trkpt>
      <trkpt lat="45.97853" lon="6.55389">
        <ele>1765.12</ele>
        <time>2019-01-29T13:27:45Z</time>
      </trkpt>
      <trkpt lat="45.97854" lon="6.55384">
        <ele>1764.16</ele>
        <time>2019-01-29T13:27:46Z</time>
      </trkpt>
      <trkpt lat="45.97856" lon="6.5537">
        <ele>1760.79</ele>
        <time>2019-01-29T13:27:48Z</time>
      </trkpt>
      <trkpt lat="45.97858" lon="6.55362">
        <ele>1758.39</ele>
        <time>2019-01-29T13:27:49Z</time>
      </trkpt>
      <trkpt lat="45.97858" lon="6.55354">
        <ele>1756.47</ele>
        <time>2019-01-29T13:27:50Z</time>
      </trkpt>
      <trkpt lat="45.97857" lon="6.55337">
        <ele>1751.18</ele>
        <time>2019-01-29T13:27:52Z</time>
      </trkpt>
      <trkpt lat="45.97855" lon="6.5533">
        <ele>1748.78</ele>
        <time>2019-01-29T13:27:53Z</time>
      </trkpt>
      <trkpt lat="45.97855" lon="6.55322">
        <ele>1746.85</ele>
        <time>2019-01-29T13:27:54Z</time>
      </trkpt>
      <trkpt lat="45.97854" lon="6.55317">
        <ele>1745.41</ele>
        <time>2019-01-29T13:27:55Z</time>
      </trkpt>
      <trkpt lat="45.97854" lon="6.55311">
        <ele>1743.49</ele>
        <time>2019-01-29T13:27:56Z</time>
      </trkpt>
      <trkpt lat="45.97853" lon="6.55305">
        <ele>1741.57</ele>
        <time>2019-01-29T13:27:57Z</time>
      </trkpt>
      <trkpt lat="45.97853" lon="6.55299">
        <ele>1740.12</ele>
        <time>2019-01-29T13:27:58Z</time>
      </trkpt>
      <trkpt lat="45.97852" lon="6.55292">
        <ele>1738.68</ele>
        <time>2019-01-29T13:27:59Z</time>
      </trkpt>
      <trkpt lat="45.97847" lon="6.55279">
        <ele>1735.32</ele>
        <time>2019-01-29T13:28:01Z</time>
      </trkpt>
      <trkpt lat="45.97845" lon="6.55271">
        <ele>1733.39</ele>
        <time>2019-01-29T13:28:02Z</time>
      </trkpt>
      <trkpt lat="45.97845" lon="6.55264">
        <ele>1731.95</ele>
        <time>2019-01-29T13:28:03Z</time>
      </trkpt>
      <trkpt lat="45.97844" lon="6.55247">
        <ele>1728.11</ele>
        <time>2019-01-29T13:28:05Z</time>
      </trkpt>
      <trkpt lat="45.97846" lon="6.55237">
        <ele>1725.7</ele>
        <time>2019-01-29T13:28:06Z</time>
      </trkpt>
      <trkpt lat="45.97846" lon="6.55228">
        <ele>1723.3</ele>
        <time>2019-01-29T13:28:07Z</time>
      </trkpt>
      <trkpt lat="45.97845" lon="6.5522">
        <ele>1720.42</ele>
        <time>2019-01-29T13:28:08Z</time>
      </trkpt>
      <trkpt lat="45.97844" lon="6.55213">
        <ele>1718.01</ele>
        <time>2019-01-29T13:28:09Z</time>
      </trkpt>
      <trkpt lat="45.97844" lon="6.55206">
        <ele>1716.57</ele>
        <time>2019-01-29T13:28:10Z</time>
      </trkpt>
      <trkpt lat="45.97848" lon="6.55199">
        <ele>1714.65</ele>
        <time>2019-01-29T13:28:11Z</time>
      </trkpt>
      <trkpt lat="45.97851" lon="6.55193">
        <ele>1713.21</ele>
        <time>2019-01-29T13:28:12Z</time>
      </trkpt>
      <trkpt lat="45.97852" lon="6.55185">
        <ele>1711.76</ele>
        <time>2019-01-29T13:28:13Z</time>
      </trkpt>
      <trkpt lat="45.97854" lon="6.55176">
        <ele>1709.84</ele>
        <time>2019-01-29T13:28:14Z</time>
      </trkpt>
      <trkpt lat="45.97853" lon="6.55167">
        <ele>1707.44</ele>
        <time>2019-01-29T13:28:15Z</time>
      </trkpt>
      <trkpt lat="45.97851" lon="6.55158">
        <ele>1704.55</ele>
        <time>2019-01-29T13:28:16Z</time>
      </trkpt>
      <trkpt lat="45.9785" lon="6.55148">
        <ele>1701.67</ele>
        <time>2019-01-29T13:28:17Z</time>
      </trkpt>
      <trkpt lat="45.97848" lon="6.55139">
        <ele>1699.27</ele>
        <time>2019-01-29T13:28:18Z</time>
      </trkpt>
      <trkpt lat="45.97848" lon="6.5513">
        <ele>1697.83</ele>
        <time>2019-01-29T13:28:19Z</time>
      </trkpt>
      <trkpt lat="45.97846" lon="6.55122">
        <ele>1694.94</ele>
        <time>2019-01-29T13:28:20Z</time>
      </trkpt>
      <trkpt lat="45.97845" lon="6.55116">
        <ele>1693.5</ele>
        <time>2019-01-29T13:28:21Z</time>
      </trkpt>
      <trkpt lat="45.97843" lon="6.55106">
        <ele>1691.58</ele>
        <time>2019-01-29T13:28:23Z</time>
      </trkpt>
      <trkpt lat="45.97842" lon="6.55099">
        <ele>1690.62</ele>
        <time>2019-01-29T13:28:24Z</time>
      </trkpt>
      <trkpt lat="45.97841" lon="6.55092">
        <ele>1689.17</ele>
        <time>2019-01-29T13:28:25Z</time>
      </trkpt>
      <trkpt lat="45.9784" lon="6.55084">
        <ele>1686.77</ele>
        <time>2019-01-29T13:28:26Z</time>
      </trkpt>
      <trkpt lat="45.97839" lon="6.55075">
        <ele>1685.33</ele>
        <time>2019-01-29T13:28:27Z</time>
      </trkpt>
      <trkpt lat="45.97837" lon="6.55067">
        <ele>1682.93</ele>
        <time>2019-01-29T13:28:28Z</time>
      </trkpt>
      <trkpt lat="45.97834" lon="6.5506">
        <ele>1681</ele>
        <time>2019-01-29T13:28:29Z</time>
      </trkpt>
      <trkpt lat="45.97833" lon="6.55056">
        <ele>1679.56</ele>
        <time>2019-01-29T13:28:30Z</time>
      </trkpt>
      <trkpt lat="45.97832" lon="6.55053">
        <ele>1678.6</ele>
        <time>2019-01-29T13:28:31Z</time>
      </trkpt>
      <trkpt lat="45.97831" lon="6.5505">
        <ele>1677.64</ele>
        <time>2019-01-29T13:28:32Z</time>
      </trkpt>
      <trkpt lat="45.9783" lon="6.55048">
        <ele>1677.16</ele>
        <time>2019-01-29T13:28:33Z</time>
      </trkpt>
      <trkpt lat="45.97825" lon="6.55034">
        <ele>1672.83</ele>
        <time>2019-01-29T13:28:38Z</time>
      </trkpt>
      <trkpt lat="45.97819" lon="6.55021">
        <ele>1669.95</ele>
        <time>2019-01-29T13:28:41Z</time>
      </trkpt>
      <trkpt lat="45.97815" lon="6.55012">
        <ele>1666.58</ele>
        <time>2019-01-29T13:28:44Z</time>
      </trkpt>
      <trkpt lat="45.97814" lon="6.55012">
        <ele>1665.14</ele>
        <time>2019-01-29T13:28:47Z</time>
      </trkpt>
      <trkpt lat="45.97814" lon="6.55011">
        <ele>1665.14</ele>
        <time>2019-01-29T13:28:49Z</time>
      </trkpt>
      <trkpt lat="45.97814" lon="6.55013">
        <ele>1664.66</ele>
        <time>2019-01-29T13:29:02Z</time>
      </trkpt>
      <trkpt lat="45.97817" lon="6.55012">
        <ele>1663.7</ele>
        <time>2019-01-29T13:29:03Z</time>
      </trkpt>
      <trkpt lat="45.97821" lon="6.55008">
        <ele>1662.74</ele>
        <time>2019-01-29T13:29:04Z</time>
      </trkpt>
      <trkpt lat="45.97824" lon="6.55004">
        <ele>1660.33</ele>
        <time>2019-01-29T13:29:05Z</time>
      </trkpt>
      <trkpt lat="45.97829" lon="6.55002">
        <ele>1657.93</ele>
        <time>2019-01-29T13:29:06Z</time>
      </trkpt>
      <trkpt lat="45.97834" lon="6.55002">
        <ele>1655.05</ele>
        <time>2019-01-29T13:29:07Z</time>
      </trkpt>
      <trkpt lat="45.97838" lon="6.55002">
        <ele>1653.12</ele>
        <time>2019-01-29T13:29:08Z</time>
      </trkpt>
      <trkpt lat="45.97843" lon="6.55001">
        <ele>1650.24</ele>
        <time>2019-01-29T13:29:09Z</time>
      </trkpt>
      <trkpt lat="45.97845" lon="6.55003">
        <ele>1648.32</ele>
        <time>2019-01-29T13:29:10Z</time>
      </trkpt>
      <trkpt lat="45.97847" lon="6.55004">
        <ele>1644.47</ele>
        <time>2019-01-29T13:29:12Z</time>
      </trkpt>
      <trkpt lat="45.97847" lon="6.55004">
        <ele>1643.51</ele>
        <time>2019-01-29T13:29:14Z</time>
      </trkpt>
      <trkpt lat="45.97851" lon="6.55005">
        <ele>1642.55</ele>
        <time>2019-01-29T13:29:17Z</time>
      </trkpt>
      <trkpt lat="45.97853" lon="6.55002">
        <ele>1641.59</ele>
        <time>2019-01-29T13:29:18Z</time>
      </trkpt>
      <trkpt lat="45.97853" lon="6.54998">
        <ele>1641.11</ele>
        <time>2019-01-29T13:29:19Z</time>
      </trkpt>
      <trkpt lat="45.97853" lon="6.54994">
        <ele>1640.15</ele>
        <time>2019-01-29T13:29:20Z</time>
      </trkpt>
      <trkpt lat="45.97853" lon="6.5499">
        <ele>1639.19</ele>
        <time>2019-01-29T13:29:21Z</time>
      </trkpt>
      <trkpt lat="45.97853" lon="6.54988">
        <ele>1638.22</ele>
        <time>2019-01-29T13:29:22Z</time>
      </trkpt>
      <trkpt lat="45.97854" lon="6.54987">
        <ele>1637.26</ele>
        <time>2019-01-29T13:29:23Z</time>
      </trkpt>
      <trkpt lat="45.97855" lon="6.54988">
        <ele>1636.78</ele>
        <time>2019-01-29T13:29:24Z</time>
      </trkpt>
      <trkpt lat="45.97857" lon="6.54984">
        <ele>1634.86</ele>
        <time>2019-01-29T13:29:41Z</time>
      </trkpt>
      <trkpt lat="45.97857" lon="6.54982">
        <ele>1634.38</ele>
        <time>2019-01-29T13:29:42Z</time>
      </trkpt>
      <trkpt lat="45.97856" lon="6.5498">
        <ele>1634.38</ele>
        <time>2019-01-29T13:29:43Z</time>
      </trkpt>
      <trkpt lat="45.97855" lon="6.54978">
        <ele>1633.9</ele>
        <time>2019-01-29T13:29:44Z</time>
      </trkpt>
      <trkpt lat="45.97854" lon="6.54975">
        <ele>1633.42</ele>
        <time>2019-01-29T13:29:45Z</time>
      </trkpt>
      <trkpt lat="45.97853" lon="6.54973">
        <ele>1632.94</ele>
        <time>2019-01-29T13:29:46Z</time>
      </trkpt>
      <trkpt lat="45.97853" lon="6.54969">
        <ele>1632.46</ele>
        <time>2019-01-29T13:29:47Z</time>
      </trkpt>
      <trkpt lat="45.97852" lon="6.54966">
        <ele>1631.98</ele>
        <time>2019-01-29T13:29:48Z</time>
      </trkpt>
      <trkpt lat="45.97845" lon="6.54947">
        <ele>1629.09</ele>
        <time>2019-01-29T13:29:55Z</time>
      </trkpt>
      <trkpt lat="45.97837" lon="6.54927">
        <ele>1625.73</ele>
        <time>2019-01-29T13:30:02Z</time>
      </trkpt>
      <trkpt lat="45.97835" lon="6.54925">
        <ele>1624.77</ele>
        <time>2019-01-29T13:30:03Z</time>
      </trkpt>
      <trkpt lat="45.97834" lon="6.54925">
        <ele>1624.28</ele>
        <time>2019-01-29T13:30:05Z</time>
      </trkpt>
      <trkpt lat="45.97807" lon="6.54906">
        <ele>1623.32</ele>
        <time>2019-01-29T13:31:52Z</time>
      </trkpt>
      <trkpt lat="45.97806" lon="6.54905">
        <ele>1623.32</ele>
        <time>2019-01-29T13:31:53Z</time>
      </trkpt>
      <trkpt lat="45.97799" lon="6.549">
        <ele>1622.36</ele>
        <time>2019-01-29T13:32:04Z</time>
      </trkpt>
      <trkpt lat="45.97799" lon="6.54897">
        <ele>1621.4</ele>
        <time>2019-01-29T13:32:16Z</time>
      </trkpt>
      <trkpt lat="45.97798" lon="6.54896">
        <ele>1621.4</ele>
        <time>2019-01-29T13:32:18Z</time>
      </trkpt>
      <trkpt lat="45.97778" lon="6.54887">
        <ele>1619.48</ele>
        <time>2019-01-29T13:33:30Z</time>
      </trkpt>
      <trkpt lat="45.97777" lon="6.54885">
        <ele>1619</ele>
        <time>2019-01-29T13:33:31Z</time>
      </trkpt>
      <trkpt lat="45.97769" lon="6.54874">
        <ele>1616.11</ele>
        <time>2019-01-29T13:33:38Z</time>
      </trkpt>
      <trkpt lat="45.97746" lon="6.54851">
        <ele>1613.71</ele>
        <time>2019-01-29T13:34:35Z</time>
      </trkpt>
      <trkpt lat="45.97744" lon="6.54851">
        <ele>1613.71</ele>
        <time>2019-01-29T13:34:36Z</time>
      </trkpt>
      <trkpt lat="45.97742" lon="6.5485">
        <ele>1613.23</ele>
        <time>2019-01-29T13:34:37Z</time>
      </trkpt>
      <trkpt lat="45.97739" lon="6.5485">
        <ele>1612.75</ele>
        <time>2019-01-29T13:34:38Z</time>
      </trkpt>
      <trkpt lat="45.97736" lon="6.5485">
        <ele>1611.79</ele>
        <time>2019-01-29T13:34:39Z</time>
      </trkpt>
      <trkpt lat="45.97734" lon="6.54849">
        <ele>1611.31</ele>
        <time>2019-01-29T13:34:40Z</time>
      </trkpt>
      <trkpt lat="45.97722" lon="6.54844">
        <ele>1608.42</ele>
        <time>2019-01-29T13:34:45Z</time>
      </trkpt>
      <trkpt lat="45.97709" lon="6.54838">
        <ele>1604.58</ele>
        <time>2019-01-29T13:34:51Z</time>
      </trkpt>
      <trkpt lat="45.97694" lon="6.54829">
        <ele>1601.21</ele>
        <time>2019-01-29T13:34:56Z</time>
      </trkpt>
      <trkpt lat="45.97686" lon="6.54824">
        <ele>1597.85</ele>
        <time>2019-01-29T13:34:59Z</time>
      </trkpt>
      <trkpt lat="45.97672" lon="6.54814">
        <ele>1594</ele>
        <time>2019-01-29T13:35:03Z</time>
      </trkpt>
      <trkpt lat="45.9766" lon="6.54801">
        <ele>1590.64</ele>
        <time>2019-01-29T13:35:06Z</time>
      </trkpt>
      <trkpt lat="45.97656" lon="6.54795">
        <ele>1586.79</ele>
        <time>2019-01-29T13:35:07Z</time>
      </trkpt>
      <trkpt lat="45.97646" lon="6.54782">
        <ele>1581.99</ele>
        <time>2019-01-29T13:35:09Z</time>
      </trkpt>
      <trkpt lat="45.97641" lon="6.54775">
        <ele>1579.58</ele>
        <time>2019-01-29T13:35:10Z</time>
      </trkpt>
      <trkpt lat="45.97639" lon="6.54768">
        <ele>1578.14</ele>
        <time>2019-01-29T13:35:11Z</time>
      </trkpt>
      <trkpt lat="45.97637" lon="6.54761">
        <ele>1577.18</ele>
        <time>2019-01-29T13:35:12Z</time>
      </trkpt>
      <trkpt lat="45.97637" lon="6.54753">
        <ele>1575.26</ele>
        <time>2019-01-29T13:35:13Z</time>
      </trkpt>
      <trkpt lat="45.97639" lon="6.54744">
        <ele>1573.33</ele>
        <time>2019-01-29T13:35:14Z</time>
      </trkpt>
      <trkpt lat="45.97639" lon="6.54735">
        <ele>1571.41</ele>
        <time>2019-01-29T13:35:15Z</time>
      </trkpt>
      <trkpt lat="45.97637" lon="6.54727">
        <ele>1568.53</ele>
        <time>2019-01-29T13:35:16Z</time>
      </trkpt>
      <trkpt lat="45.97635" lon="6.54719">
        <ele>1565.64</ele>
        <time>2019-01-29T13:35:17Z</time>
      </trkpt>
      <trkpt lat="45.97633" lon="6.5471">
        <ele>1564.2</ele>
        <time>2019-01-29T13:35:18Z</time>
      </trkpt>
      <trkpt lat="45.97629" lon="6.54703">
        <ele>1560.84</ele>
        <time>2019-01-29T13:35:19Z</time>
      </trkpt>
      <trkpt lat="45.97625" lon="6.54699">
        <ele>1558.92</ele>
        <time>2019-01-29T13:35:20Z</time>
      </trkpt>
      <trkpt lat="45.97621" lon="6.54696">
        <ele>1557.47</ele>
        <time>2019-01-29T13:35:21Z</time>
      </trkpt>
      <trkpt lat="45.97618" lon="6.54694">
        <ele>1556.51</ele>
        <time>2019-01-29T13:35:22Z</time>
      </trkpt>
      <trkpt lat="45.97614" lon="6.54691">
        <ele>1555.07</ele>
        <time>2019-01-29T13:35:23Z</time>
      </trkpt>
      <trkpt lat="45.97612" lon="6.54686">
        <ele>1554.59</ele>
        <time>2019-01-29T13:35:24Z</time>
      </trkpt>
      <trkpt lat="45.9761" lon="6.54681">
        <ele>1553.15</ele>
        <time>2019-01-29T13:35:25Z</time>
      </trkpt>
      <trkpt lat="45.97602" lon="6.54666">
        <ele>1549.78</ele>
        <time>2019-01-29T13:35:29Z</time>
      </trkpt>
      <trkpt lat="45.97597" lon="6.54662">
        <ele>1548.34</ele>
        <time>2019-01-29T13:35:32Z</time>
      </trkpt>
      <trkpt lat="45.97597" lon="6.54654">
        <ele>1547.38</ele>
        <time>2019-01-29T13:35:38Z</time>
      </trkpt>
      <trkpt lat="45.97595" lon="6.54651">
        <ele>1547.38</ele>
        <time>2019-01-29T13:35:39Z</time>
      </trkpt>
      <trkpt lat="45.97594" lon="6.54647">
        <ele>1546.42</ele>
        <time>2019-01-29T13:35:40Z</time>
      </trkpt>
      <trkpt lat="45.97592" lon="6.54645">
        <ele>1545.94</ele>
        <time>2019-01-29T13:35:41Z</time>
      </trkpt>
      <trkpt lat="45.9759" lon="6.54642">
        <ele>1545.46</ele>
        <time>2019-01-29T13:35:42Z</time>
      </trkpt>
      <trkpt lat="45.97586" lon="6.54627">
        <ele>1542.57</ele>
        <time>2019-01-29T13:35:46Z</time>
      </trkpt>
      <trkpt lat="45.97589" lon="6.54607">
        <ele>1538.25</ele>
        <time>2019-01-29T13:35:49Z</time>
      </trkpt>
      <trkpt lat="45.97595" lon="6.54586">
        <ele>1533.44</ele>
        <time>2019-01-29T13:35:52Z</time>
      </trkpt>
      <trkpt lat="45.97598" lon="6.54563">
        <ele>1529.59</ele>
        <time>2019-01-29T13:35:55Z</time>
      </trkpt>
      <trkpt lat="45.97598" lon="6.54556">
        <ele>1528.63</ele>
        <time>2019-01-29T13:35:56Z</time>
      </trkpt>
      <trkpt lat="45.97598" lon="6.54551">
        <ele>1527.67</ele>
        <time>2019-01-29T13:35:57Z</time>
      </trkpt>
      <trkpt lat="45.976" lon="6.54546">
        <ele>1526.71</ele>
        <time>2019-01-29T13:35:58Z</time>
      </trkpt>
      <trkpt lat="45.97605" lon="6.54536">
        <ele>1524.79</ele>
        <time>2019-01-29T13:36:00Z</time>
      </trkpt>
      <trkpt lat="45.9761" lon="6.54523">
        <ele>1520.94</ele>
        <time>2019-01-29T13:36:02Z</time>
      </trkpt>
      <trkpt lat="45.97615" lon="6.5451">
        <ele>1517.58</ele>
        <time>2019-01-29T13:36:04Z</time>
      </trkpt>
      <trkpt lat="45.97622" lon="6.54493">
        <ele>1513.73</ele>
        <time>2019-01-29T13:36:07Z</time>
      </trkpt>
      <trkpt lat="45.97624" lon="6.5449">
        <ele>1512.77</ele>
        <time>2019-01-29T13:36:08Z</time>
      </trkpt>
      <trkpt lat="45.97625" lon="6.54489">
        <ele>1512.29</ele>
        <time>2019-01-29T13:36:09Z</time>
      </trkpt>
      <trkpt lat="45.97626" lon="6.54489">
        <ele>1511.81</ele>
        <time>2019-01-29T13:36:10Z</time>
      </trkpt>
      <trkpt lat="45.97627" lon="6.5449">
        <ele>1510.85</ele>
        <time>2019-01-29T13:36:19Z</time>
      </trkpt>
      <trkpt lat="45.97627" lon="6.54475">
        <ele>1507.97</ele>
        <time>2019-01-29T13:37:39Z</time>
      </trkpt>
      <trkpt lat="45.97633" lon="6.54466">
        <ele>1504.12</ele>
        <time>2019-01-29T13:37:42Z</time>
      </trkpt>
      <trkpt lat="45.97636" lon="6.54464">
        <ele>1503.16</ele>
        <time>2019-01-29T13:37:43Z</time>
      </trkpt>
      <trkpt lat="45.97642" lon="6.54455">
        <ele>1498.83</ele>
        <time>2019-01-29T13:37:46Z</time>
      </trkpt>
      <trkpt lat="45.97641" lon="6.54453">
        <ele>1496.91</ele>
        <time>2019-01-29T13:37:49Z</time>
      </trkpt>
      <trkpt lat="45.97647" lon="6.54444">
        <ele>1494.03</ele>
        <time>2019-01-29T13:38:21Z</time>
      </trkpt>
      <trkpt lat="45.97646" lon="6.54442">
        <ele>1492.1</ele>
        <time>2019-01-29T13:38:25Z</time>
      </trkpt>
      <trkpt lat="45.97646" lon="6.54444">
        <ele>1491.62</ele>
        <time>2019-01-29T13:38:38Z</time>
      </trkpt>
      <trkpt lat="45.97647" lon="6.54442">
        <ele>1491.62</ele>
        <time>2019-01-29T13:38:44Z</time>
      </trkpt>
      <trkpt lat="45.97647" lon="6.54441">
        <ele>1490.66</ele>
        <time>2019-01-29T13:38:45Z</time>
      </trkpt>
      <trkpt lat="45.97649" lon="6.54438">
        <ele>1488.26</ele>
        <time>2019-01-29T13:38:49Z</time>
      </trkpt>
      <trkpt lat="45.97639" lon="6.54435">
        <ele>1488.26</ele>
        <time>2019-01-29T13:39:26Z</time>
      </trkpt>
      <trkpt lat="45.97641" lon="6.54439">
        <ele>1487.78</ele>
        <time>2019-01-29T13:39:54Z</time>
      </trkpt>
      <trkpt lat="45.97646" lon="6.54431">
        <ele>1484.89</ele>
        <time>2019-01-29T13:40:23Z</time>
      </trkpt>
      <trkpt lat="45.97647" lon="6.54429">
        <ele>1483.45</ele>
        <time>2019-01-29T13:40:41Z</time>
      </trkpt>
      <trkpt lat="45.97648" lon="6.54423">
        <ele>1481.53</ele>
        <time>2019-01-29T13:41:19Z</time>
      </trkpt>
      <trkpt lat="45.97648" lon="6.5442">
        <ele>1480.09</ele>
        <time>2019-01-29T13:41:24Z</time>
      </trkpt>
      <trkpt lat="45.97648" lon="6.54418">
        <ele>1478.65</ele>
        <time>2019-01-29T13:41:25Z</time>
      </trkpt>
      <trkpt lat="45.97651" lon="6.54416">
        <ele>1477.2</ele>
        <time>2019-01-29T13:41:26Z</time>
      </trkpt>
      <trkpt lat="45.97652" lon="6.54413">
        <ele>1475.28</ele>
        <time>2019-01-29T13:41:27Z</time>
      </trkpt>
      <trkpt lat="45.97651" lon="6.54413">
        <ele>1472.4</ele>
        <time>2019-01-29T13:41:30Z</time>
      </trkpt>
      <trkpt lat="45.97655" lon="6.54414">
        <ele>1470.95</ele>
        <time>2019-01-29T13:41:37Z</time>
      </trkpt>
      <trkpt lat="45.97659" lon="6.54415">
        <ele>1470.47</ele>
        <time>2019-01-29T13:41:38Z</time>
      </trkpt>
      <trkpt lat="45.97662" lon="6.54416">
        <ele>1469.03</ele>
        <time>2019-01-29T13:41:39Z</time>
      </trkpt>
      <trkpt lat="45.97665" lon="6.54417">
        <ele>1466.63</ele>
        <time>2019-01-29T13:41:40Z</time>
      </trkpt>
      <trkpt lat="45.97668" lon="6.54418">
        <ele>1465.19</ele>
        <time>2019-01-29T13:41:41Z</time>
      </trkpt>
      <trkpt lat="45.9767" lon="6.54418">
        <ele>1463.74</ele>
        <time>2019-01-29T13:41:42Z</time>
      </trkpt>
      <trkpt lat="45.97671" lon="6.54416">
        <ele>1460.86</ele>
        <time>2019-01-29T13:41:43Z</time>
      </trkpt>
      <trkpt lat="45.97672" lon="6.54414">
        <ele>1459.42</ele>
        <time>2019-01-29T13:41:44Z</time>
      </trkpt>
      <trkpt lat="45.97672" lon="6.54412">
        <ele>1456.53</ele>
        <time>2019-01-29T13:41:49Z</time>
      </trkpt>
      <trkpt lat="45.97676" lon="6.54413">
        <ele>1456.05</ele>
        <time>2019-01-29T13:41:51Z</time>
      </trkpt>
      <trkpt lat="45.97678" lon="6.54415">
        <ele>1455.57</ele>
        <time>2019-01-29T13:41:52Z</time>
      </trkpt>
      <trkpt lat="45.97679" lon="6.54418">
        <ele>1454.13</ele>
        <time>2019-01-29T13:41:53Z</time>
      </trkpt>
      <trkpt lat="45.9768" lon="6.5442">
        <ele>1453.17</ele>
        <time>2019-01-29T13:41:54Z</time>
      </trkpt>
      <trkpt lat="45.9768" lon="6.54423">
        <ele>1452.21</ele>
        <time>2019-01-29T13:41:55Z</time>
      </trkpt>
      <trkpt lat="45.97681" lon="6.54425">
        <ele>1451.25</ele>
        <time>2019-01-29T13:41:56Z</time>
      </trkpt>
      <trkpt lat="45.97687" lon="6.54439">
        <ele>1448.36</ele>
        <time>2019-01-29T13:42:05Z</time>
      </trkpt>
      <trkpt lat="45.9769" lon="6.5444">
        <ele>1445.96</ele>
        <time>2019-01-29T13:42:06Z</time>
      </trkpt>
      <trkpt lat="45.97693" lon="6.54441">
        <ele>1443.56</ele>
        <time>2019-01-29T13:42:07Z</time>
      </trkpt>
      <trkpt lat="45.97694" lon="6.54441">
        <ele>1441.63</ele>
        <time>2019-01-29T13:42:08Z</time>
      </trkpt>
      <trkpt lat="45.97694" lon="6.54442">
        <ele>1438.27</ele>
        <time>2019-01-29T13:42:11Z</time>
      </trkpt>
      <trkpt lat="45.97694" lon="6.54444">
        <ele>1437.79</ele>
        <time>2019-01-29T13:42:17Z</time>
      </trkpt>
      <trkpt lat="45.97694" lon="6.5445">
        <ele>1436.83</ele>
        <time>2019-01-29T13:42:28Z</time>
      </trkpt>
      <trkpt lat="45.97693" lon="6.54452">
        <ele>1436.83</ele>
        <time>2019-01-29T13:42:29Z</time>
      </trkpt>
      <trkpt lat="45.97693" lon="6.54464">
        <ele>1432.98</ele>
        <time>2019-01-29T13:42:36Z</time>
      </trkpt>
      <trkpt lat="45.97701" lon="6.54474">
        <ele>1428.18</ele>
        <time>2019-01-29T13:42:39Z</time>
      </trkpt>
      <trkpt lat="45.97711" lon="6.54477">
        <ele>1424.33</ele>
        <time>2019-01-29T13:42:41Z</time>
      </trkpt>
      <trkpt lat="45.97714" lon="6.54475">
        <ele>1422.89</ele>
        <time>2019-01-29T13:42:42Z</time>
      </trkpt>
      <trkpt lat="45.97717" lon="6.54474">
        <ele>1421.93</ele>
        <time>2019-01-29T13:42:43Z</time>
      </trkpt>
      <trkpt lat="45.97725" lon="6.54472">
        <ele>1419.52</ele>
        <time>2019-01-29T13:42:45Z</time>
      </trkpt>
      <trkpt lat="45.97727" lon="6.5447">
        <ele>1418.56</ele>
        <time>2019-01-29T13:42:46Z</time>
      </trkpt>
      <trkpt lat="45.97728" lon="6.54469">
        <ele>1417.6</ele>
        <time>2019-01-29T13:42:47Z</time>
      </trkpt>
      <trkpt lat="45.97727" lon="6.54469">
        <ele>1416.64</ele>
        <time>2019-01-29T13:42:49Z</time>
      </trkpt>
      <trkpt lat="45.9773" lon="6.5447">
        <ele>1416.64</ele>
        <time>2019-01-29T13:42:58Z</time>
      </trkpt>
      <trkpt lat="45.97732" lon="6.54472">
        <ele>1415.68</ele>
        <time>2019-01-29T13:42:59Z</time>
      </trkpt>
      <trkpt lat="45.97734" lon="6.54474">
        <ele>1415.2</ele>
        <time>2019-01-29T13:43:00Z</time>
      </trkpt>
      <trkpt lat="45.97736" lon="6.54476">
        <ele>1414.24</ele>
        <time>2019-01-29T13:43:01Z</time>
      </trkpt>
      <trkpt lat="45.97736" lon="6.54477">
        <ele>1413.28</ele>
        <time>2019-01-29T13:43:03Z</time>
      </trkpt>
      <trkpt lat="45.97734" lon="6.54477">
        <ele>1412.79</ele>
        <time>2019-01-29T13:43:06Z</time>
      </trkpt>
      <trkpt lat="45.97736" lon="6.54474">
        <ele>1410.39</ele>
        <time>2019-01-29T13:43:26Z</time>
      </trkpt>
      <trkpt lat="45.97738" lon="6.54475">
        <ele>1409.43</ele>
        <time>2019-01-29T13:43:29Z</time>
      </trkpt>
      <trkpt lat="45.97741" lon="6.54475">
        <ele>1407.51</ele>
        <time>2019-01-29T13:43:32Z</time>
      </trkpt>
      <trkpt lat="45.97741" lon="6.54475">
        <ele>1407.03</ele>
        <time>2019-01-29T13:43:36Z</time>
      </trkpt>
      <trkpt lat="45.97743" lon="6.54475">
        <ele>1404.62</ele>
        <time>2019-01-29T13:43:43Z</time>
      </trkpt>
      <trkpt lat="45.97743" lon="6.54469">
        <ele>1402.22</ele>
        <time>2019-01-29T13:43:49Z</time>
      </trkpt>
      <trkpt lat="45.97743" lon="6.54469">
        <ele>1401.26</ele>
        <time>2019-01-29T13:43:50Z</time>
      </trkpt>
      <trkpt lat="45.97742" lon="6.54469">
        <ele>1396.93</ele>
        <time>2019-01-29T13:43:52Z</time>
      </trkpt>
      <trkpt lat="45.97743" lon="6.54469">
        <ele>1395.49</ele>
        <time>2019-01-29T13:43:54Z</time>
      </trkpt>
      <trkpt lat="45.97743" lon="6.54469">
        <ele>1395.49</ele>
        <time>2019-01-29T13:44:01Z</time>
      </trkpt>
      <trkpt lat="45.97742" lon="6.54467">
        <ele>1395.97</ele>
        <time>2019-01-29T13:44:03Z</time>
      </trkpt>
      <trkpt lat="45.97741" lon="6.54466">
        <ele>1395.97</ele>
        <time>2019-01-29T13:44:04Z</time>
      </trkpt>
      <trkpt lat="45.97742" lon="6.54463">
        <ele>1395.97</ele>
        <time>2019-01-29T13:44:06Z</time>
      </trkpt>
      <trkpt lat="45.97743" lon="6.54461">
        <ele>1395.49</ele>
        <time>2019-01-29T13:44:07Z</time>
      </trkpt>
      <trkpt lat="45.97747" lon="6.5446">
        <ele>1395.01</ele>
        <time>2019-01-29T13:44:08Z</time>
      </trkpt>
      <trkpt lat="45.9775" lon="6.54459">
        <ele>1393.57</ele>
        <time>2019-01-29T13:44:09Z</time>
      </trkpt>
      <trkpt lat="45.97751" lon="6.54459">
        <ele>1392.61</ele>
        <time>2019-01-29T13:44:10Z</time>
      </trkpt>
      <trkpt lat="45.97754" lon="6.54458">
        <ele>1392.13</ele>
        <time>2019-01-29T13:44:12Z</time>
      </trkpt>
      <trkpt lat="45.97767" lon="6.54451">
        <ele>1387.8</ele>
        <time>2019-01-29T13:44:17Z</time>
      </trkpt>
      <trkpt lat="45.97773" lon="6.54448">
        <ele>1385.4</ele>
        <time>2019-01-29T13:44:18Z</time>
      </trkpt>
      <trkpt lat="45.9778" lon="6.54444">
        <ele>1383.47</ele>
        <time>2019-01-29T13:44:19Z</time>
      </trkpt>
      <trkpt lat="45.97784" lon="6.54437">
        <ele>1381.55</ele>
        <time>2019-01-29T13:44:20Z</time>
      </trkpt>
      <trkpt lat="45.97789" lon="6.5443">
        <ele>1378.19</ele>
        <time>2019-01-29T13:44:21Z</time>
      </trkpt>
      <trkpt lat="45.97793" lon="6.54423">
        <ele>1375.3</ele>
        <time>2019-01-29T13:44:22Z</time>
      </trkpt>
      <trkpt lat="45.97797" lon="6.54416">
        <ele>1373.38</ele>
        <time>2019-01-29T13:44:23Z</time>
      </trkpt>
      <trkpt lat="45.97799" lon="6.54408">
        <ele>1370.98</ele>
        <time>2019-01-29T13:44:24Z</time>
      </trkpt>
      <trkpt lat="45.97805" lon="6.54393">
        <ele>1367.13</ele>
        <time>2019-01-29T13:44:26Z</time>
      </trkpt>
      <trkpt lat="45.97809" lon="6.54384">
        <ele>1365.21</ele>
        <time>2019-01-29T13:44:27Z</time>
      </trkpt>
      <trkpt lat="45.97812" lon="6.54378">
        <ele>1363.29</ele>
        <time>2019-01-29T13:44:28Z</time>
      </trkpt>
      <trkpt lat="45.97813" lon="6.54371">
        <ele>1361.84</ele>
        <time>2019-01-29T13:44:29Z</time>
      </trkpt>
      <trkpt lat="45.97815" lon="6.54366">
        <ele>1360.88</ele>
        <time>2019-01-29T13:44:30Z</time>
      </trkpt>
      <trkpt lat="45.97818" lon="6.5436">
        <ele>1359.44</ele>
        <time>2019-01-29T13:44:31Z</time>
      </trkpt>
      <trkpt lat="45.97819" lon="6.54352">
        <ele>1358</ele>
        <time>2019-01-29T13:44:32Z</time>
      </trkpt>
      <trkpt lat="45.9782" lon="6.54345">
        <ele>1356.56</ele>
        <time>2019-01-29T13:44:33Z</time>
      </trkpt>
      <trkpt lat="45.97827" lon="6.54322">
        <ele>1352.23</ele>
        <time>2019-01-29T13:44:36Z</time>
      </trkpt>
      <trkpt lat="45.97831" lon="6.54305">
        <ele>1348.87</ele>
        <time>2019-01-29T13:44:38Z</time>
      </trkpt>
      <trkpt lat="45.97836" lon="6.54284">
        <ele>1345.02</ele>
        <time>2019-01-29T13:44:40Z</time>
      </trkpt>
      <trkpt lat="45.97841" lon="6.54265">
        <ele>1341.18</ele>
        <time>2019-01-29T13:44:42Z</time>
      </trkpt>
      <trkpt lat="45.97849" lon="6.54234">
        <ele>1336.37</ele>
        <time>2019-01-29T13:44:46Z</time>
      </trkpt>
      <trkpt lat="45.97849" lon="6.54225">
        <ele>1334.45</ele>
        <time>2019-01-29T13:44:48Z</time>
      </trkpt>
      <trkpt lat="45.97848" lon="6.54223">
        <ele>1333.97</ele>
        <time>2019-01-29T13:44:49Z</time>
      </trkpt>
      <trkpt lat="45.97847" lon="6.54221">
        <ele>1333.97</ele>
        <time>2019-01-29T13:44:50Z</time>
      </trkpt>
      <trkpt lat="45.97843" lon="6.54221">
        <ele>1333.01</ele>
        <time>2019-01-29T13:44:58Z</time>
      </trkpt>
      <trkpt lat="45.97836" lon="6.54217">
        <ele>1332.52</ele>
        <time>2019-01-29T13:45:20Z</time>
      </trkpt>
      <trkpt lat="45.97836" lon="6.54214">
        <ele>1332.04</ele>
        <time>2019-01-29T13:45:23Z</time>
      </trkpt>
      <trkpt lat="45.97836" lon="6.54211">
        <ele>1332.04</ele>
        <time>2019-01-29T13:45:24Z</time>
      </trkpt>
      <trkpt lat="45.97841" lon="6.54185">
        <ele>1328.68</ele>
        <time>2019-01-29T13:45:31Z</time>
      </trkpt>
      <trkpt lat="45.9784" lon="6.54173">
        <ele>1326.76</ele>
        <time>2019-01-29T13:45:39Z</time>
      </trkpt>
      <trkpt lat="45.97839" lon="6.54171">
        <ele>1326.76</ele>
        <time>2019-01-29T13:45:43Z</time>
      </trkpt>
      <trkpt lat="45.9784" lon="6.54146">
        <ele>1325.8</ele>
        <time>2019-01-29T13:46:35Z</time>
      </trkpt>
      <trkpt lat="45.97839" lon="6.54129">
        <ele>1325.31</ele>
        <time>2019-01-29T13:47:09Z</time>
      </trkpt>
      <trkpt lat="45.97838" lon="6.5412">
        <ele>1324.83</ele>
        <time>2019-01-29T13:47:23Z</time>
      </trkpt>
      <trkpt lat="45.97839" lon="6.54119">
        <ele>1324.83</ele>
        <time>2019-01-29T13:47:27Z</time>
      </trkpt>
      <trkpt lat="45.97838" lon="6.54118">
        <ele>1324.83</ele>
        <time>2019-01-29T13:47:29Z</time>
      </trkpt>
      <trkpt lat="45.97844" lon="6.54093">
        <ele>1323.87</ele>
        <time>2019-01-29T13:49:50Z</time>
      </trkpt>
      <trkpt lat="45.97838" lon="6.54092">
        <ele>1324.35</ele>
        <time>2019-01-29T13:50:35Z</time>
      </trkpt>
      <trkpt lat="45.9784" lon="6.54091">
        <ele>1324.35</ele>
        <time>2019-01-29T13:51:04Z</time>
      </trkpt>
      <trkpt lat="45.97841" lon="6.54088">
        <ele>1324.83</ele>
        <time>2019-01-29T13:51:33Z</time>
      </trkpt>
      <trkpt lat="45.97841" lon="6.54091">
        <ele>1325.31</ele>
        <time>2019-01-29T13:52:52Z</time>
      </trkpt>
      <trkpt lat="45.97842" lon="6.54091">
        <ele>1324.83</ele>
        <time>2019-01-29T13:52:55Z</time>
      </trkpt>
      <trkpt lat="45.9784" lon="6.54084">
        <ele>1325.31</ele>
        <time>2019-01-29T13:53:19Z</time>
      </trkpt>
      <trkpt lat="45.9784" lon="6.5408">
        <ele>1325.31</ele>
        <time>2019-01-29T13:53:22Z</time>
      </trkpt>
      <trkpt lat="45.9784" lon="6.54079">
        <ele>1325.31</ele>
        <time>2019-01-29T13:53:23Z</time>
      </trkpt>
      <trkpt lat="45.9784" lon="6.54077">
        <ele>1325.31</ele>
        <time>2019-01-29T13:53:24Z</time>
      </trkpt>
      <trkpt lat="45.97847" lon="6.54068">
        <ele>1327.24</ele>
        <time>2019-01-29T13:53:46Z</time>
      </trkpt>
      <trkpt lat="45.97848" lon="6.54068">
        <ele>1327.72</ele>
        <time>2019-01-29T13:53:47Z</time>
      </trkpt>
      <trkpt lat="45.97852" lon="6.54063">
        <ele>1328.2</ele>
        <time>2019-01-29T13:53:54Z</time>
      </trkpt>
      <trkpt lat="45.97853" lon="6.54062">
        <ele>1328.2</ele>
        <time>2019-01-29T13:53:55Z</time>
      </trkpt>
      <trkpt lat="45.97854" lon="6.54062">
        <ele>1328.68</ele>
        <time>2019-01-29T13:53:56Z</time>
      </trkpt>
      <trkpt lat="45.97885" lon="6.54064">
        <ele>1331.56</ele>
        <time>2019-01-29T13:54:32Z</time>
      </trkpt>
      <trkpt lat="45.97907" lon="6.54058">
        <ele>1334.93</ele>
        <time>2019-01-29T13:55:10Z</time>
      </trkpt>
      <trkpt lat="45.9792" lon="6.54056">
        <ele>1335.41</ele>
        <time>2019-01-29T13:55:44Z</time>
      </trkpt>
      <trkpt lat="45.97918" lon="6.54056">
        <ele>1335.41</ele>
        <time>2019-01-29T13:56:15Z</time>
      </trkpt>
      <trkpt lat="45.97919" lon="6.54056">
        <ele>1335.89</ele>
        <time>2019-01-29T13:56:25Z</time>
      </trkpt>
      <trkpt lat="45.97918" lon="6.54056">
        <ele>1335.41</ele>
        <time>2019-01-29T13:56:46Z</time>
      </trkpt>
      <trkpt lat="45.97917" lon="6.54055">
        <ele>1334.93</ele>
        <time>2019-01-29T13:57:11Z</time>
      </trkpt>
      <trkpt lat="45.97924" lon="6.54051">
        <ele>1335.41</ele>
        <time>2019-01-29T13:57:30Z</time>
      </trkpt>
      <trkpt lat="45.97925" lon="6.5405">
        <ele>1335.41</ele>
        <time>2019-01-29T13:57:31Z</time>
      </trkpt>
      <trkpt lat="45.97927" lon="6.54049">
        <ele>1334.93</ele>
        <time>2019-01-29T13:57:32Z</time>
      </trkpt>
      <trkpt lat="45.97929" lon="6.54048">
        <ele>1334.45</ele>
        <time>2019-01-29T13:57:33Z</time>
      </trkpt>
      <trkpt lat="45.9793" lon="6.54046">
        <ele>1334.45</ele>
        <time>2019-01-29T13:57:34Z</time>
      </trkpt>
      <trkpt lat="45.97933" lon="6.54043">
        <ele>1333.97</ele>
        <time>2019-01-29T13:57:35Z</time>
      </trkpt>
      <trkpt lat="45.97935" lon="6.5404">
        <ele>1333.97</ele>
        <time>2019-01-29T13:57:36Z</time>
      </trkpt>
      <trkpt lat="45.97959" lon="6.54031">
        <ele>1330.6</ele>
        <time>2019-01-29T13:57:43Z</time>
      </trkpt>
      <trkpt lat="45.97965" lon="6.54035">
        <ele>1330.12</ele>
        <time>2019-01-29T13:57:45Z</time>
      </trkpt>
      <trkpt lat="45.97967" lon="6.54038">
        <ele>1329.64</ele>
        <time>2019-01-29T13:57:46Z</time>
      </trkpt>
      <trkpt lat="45.97974" lon="6.54047">
        <ele>1328.68</ele>
        <time>2019-01-29T13:57:48Z</time>
      </trkpt>
      <trkpt lat="45.97978" lon="6.54051">
        <ele>1327.72</ele>
        <time>2019-01-29T13:57:49Z</time>
      </trkpt>
      <trkpt lat="45.97983" lon="6.54055">
        <ele>1326.76</ele>
        <time>2019-01-29T13:57:50Z</time>
      </trkpt>
      <trkpt lat="45.97989" lon="6.5406">
        <ele>1325.31</ele>
        <time>2019-01-29T13:57:51Z</time>
      </trkpt>
      <trkpt lat="45.97993" lon="6.54063">
        <ele>1324.35</ele>
        <time>2019-01-29T13:57:52Z</time>
      </trkpt>
      <trkpt lat="45.97996" lon="6.54065">
        <ele>1323.87</ele>
        <time>2019-01-29T13:57:53Z</time>
      </trkpt>
      <trkpt lat="45.97998" lon="6.54068">
        <ele>1323.87</ele>
        <time>2019-01-29T13:57:54Z</time>
      </trkpt>
      <trkpt lat="45.97997" lon="6.54071">
        <ele>1323.39</ele>
        <time>2019-01-29T13:57:55Z</time>
      </trkpt>
      <trkpt lat="45.97998" lon="6.54076">
        <ele>1322.43</ele>
        <time>2019-01-29T13:58:27Z</time>
      </trkpt>
      <trkpt lat="45.98001" lon="6.5408">
        <ele>1321.95</ele>
        <time>2019-01-29T13:58:28Z</time>
      </trkpt>
      <trkpt lat="45.98004" lon="6.54084">
        <ele>1320.51</ele>
        <time>2019-01-29T13:58:29Z</time>
      </trkpt>
      <trkpt lat="45.98007" lon="6.54089">
        <ele>1319.07</ele>
        <time>2019-01-29T13:58:30Z</time>
      </trkpt>
      <trkpt lat="45.98011" lon="6.54094">
        <ele>1317.62</ele>
        <time>2019-01-29T13:58:31Z</time>
      </trkpt>
      <trkpt lat="45.98015" lon="6.54099">
        <ele>1316.18</ele>
        <time>2019-01-29T13:58:32Z</time>
      </trkpt>
      <trkpt lat="45.98019" lon="6.54103">
        <ele>1314.74</ele>
        <time>2019-01-29T13:58:33Z</time>
      </trkpt>
      <trkpt lat="45.98025" lon="6.54105">
        <ele>1313.3</ele>
        <time>2019-01-29T13:58:34Z</time>
      </trkpt>
      <trkpt lat="45.98032" lon="6.54107">
        <ele>1311.38</ele>
        <time>2019-01-29T13:58:35Z</time>
      </trkpt>
      <trkpt lat="45.98048" lon="6.54111">
        <ele>1306.57</ele>
        <time>2019-01-29T13:58:37Z</time>
      </trkpt>
      <trkpt lat="45.98057" lon="6.54115">
        <ele>1303.2</ele>
        <time>2019-01-29T13:58:38Z</time>
      </trkpt>
      <trkpt lat="45.98065" lon="6.54119">
        <ele>1300.8</ele>
        <time>2019-01-29T13:58:39Z</time>
      </trkpt>
      <trkpt lat="45.98071" lon="6.54128">
        <ele>1298.88</ele>
        <time>2019-01-29T13:58:40Z</time>
      </trkpt>
      <trkpt lat="45.98076" lon="6.54137">
        <ele>1296.96</ele>
        <time>2019-01-29T13:58:41Z</time>
      </trkpt>
      <trkpt lat="45.98081" lon="6.54144">
        <ele>1295.51</ele>
        <time>2019-01-29T13:58:42Z</time>
      </trkpt>
      <trkpt lat="45.98094" lon="6.54162">
        <ele>1292.63</ele>
        <time>2019-01-29T13:58:45Z</time>
      </trkpt>
      <trkpt lat="45.98106" lon="6.54176">
        <ele>1291.19</ele>
        <time>2019-01-29T13:58:48Z</time>
      </trkpt>
      <trkpt lat="45.98114" lon="6.54183">
        <ele>1290.23</ele>
        <time>2019-01-29T13:58:50Z</time>
      </trkpt>
      <trkpt lat="45.98117" lon="6.54186">
        <ele>1290.23</ele>
        <time>2019-01-29T13:58:51Z</time>
      </trkpt>
      <trkpt lat="45.98125" lon="6.54193">
        <ele>1289.27</ele>
        <time>2019-01-29T13:58:53Z</time>
      </trkpt>
      <trkpt lat="45.98146" lon="6.54215">
        <ele>1286.38</ele>
        <time>2019-01-29T13:58:58Z</time>
      </trkpt>
      <trkpt lat="45.9815" lon="6.54218">
        <ele>1285.9</ele>
        <time>2019-01-29T13:58:59Z</time>
      </trkpt>
      <trkpt lat="45.98158" lon="6.54222">
        <ele>1284.94</ele>
        <time>2019-01-29T13:59:01Z</time>
      </trkpt>
      <trkpt lat="45.98192" lon="6.54233">
        <ele>1282.06</ele>
        <time>2019-01-29T13:59:14Z</time>
      </trkpt>
      <trkpt lat="45.98239" lon="6.54243">
        <ele>1279.17</ele>
        <time>2019-01-29T13:59:42Z</time>
      </trkpt>
      <trkpt lat="45.98241" lon="6.54245">
        <ele>1279.17</ele>
        <time>2019-01-29T13:59:45Z</time>
      </trkpt>
      <trkpt lat="45.98242" lon="6.54246">
        <ele>1278.69</ele>
        <time>2019-01-29T13:59:46Z</time>
      </trkpt>
      <trkpt lat="45.98289" lon="6.5427">
        <ele>1275.81</ele>
        <time>2019-01-29T14:00:21Z</time>
      </trkpt>
      <trkpt lat="45.98306" lon="6.54275">
        <ele>1274.85</ele>
        <time>2019-01-29T14:00:35Z</time>
      </trkpt>
      <trkpt lat="45.98307" lon="6.54276">
        <ele>1274.36</ele>
        <time>2019-01-29T14:00:37Z</time>
      </trkpt>
      <trkpt lat="45.98308" lon="6.54276">
        <ele>1274.36</ele>
        <time>2019-01-29T14:00:38Z</time>
      </trkpt>
      <trkpt lat="45.98309" lon="6.54277">
        <ele>1274.36</ele>
        <time>2019-01-29T14:00:39Z</time>
      </trkpt>
      <trkpt lat="45.98312" lon="6.54284">
        <ele>1274.36</ele>
        <time>2019-01-29T14:00:51Z</time>
      </trkpt>
      <trkpt lat="45.98312" lon="6.54286">
        <ele>1274.36</ele>
        <time>2019-01-29T14:00:52Z</time>
      </trkpt>
      <trkpt lat="45.98313" lon="6.54289">
        <ele>1274.36</ele>
        <time>2019-01-29T14:00:53Z</time>
      </trkpt>
      <trkpt lat="45.98315" lon="6.54294">
        <ele>1273.4</ele>
        <time>2019-01-29T14:00:54Z</time>
      </trkpt>
      <trkpt lat="45.98317" lon="6.54299">
        <ele>1272.44</ele>
        <time>2019-01-29T14:00:55Z</time>
      </trkpt>
      <trkpt lat="45.98319" lon="6.54305">
        <ele>1271.48</ele>
        <time>2019-01-29T14:00:56Z</time>
      </trkpt>
      <trkpt lat="45.98328" lon="6.54322">
        <ele>1268.12</ele>
        <time>2019-01-29T14:00:59Z</time>
      </trkpt>
      <trkpt lat="45.98339" lon="6.54342">
        <ele>1263.79</ele>
        <time>2019-01-29T14:01:02Z</time>
      </trkpt>
      <trkpt lat="45.98352" lon="6.54362">
        <ele>1259.46</ele>
        <time>2019-01-29T14:01:05Z</time>
      </trkpt>
      <trkpt lat="45.98357" lon="6.54368">
        <ele>1258.02</ele>
        <time>2019-01-29T14:01:06Z</time>
      </trkpt>
      <trkpt lat="45.98368" lon="6.54388">
        <ele>1255.14</ele>
        <time>2019-01-29T14:01:09Z</time>
      </trkpt>
      <trkpt lat="45.98379" lon="6.54409">
        <ele>1250.33</ele>
        <time>2019-01-29T14:01:12Z</time>
      </trkpt>
      <trkpt lat="45.98393" lon="6.54428">
        <ele>1247.45</ele>
        <time>2019-01-29T14:01:19Z</time>
      </trkpt>
      <trkpt lat="45.98403" lon="6.54451">
        <ele>1244.56</ele>
        <time>2019-01-29T14:02:04Z</time>
      </trkpt>
      <trkpt lat="45.98402" lon="6.54452">
        <ele>1244.56</ele>
        <time>2019-01-29T14:02:05Z</time>
      </trkpt>
      <trkpt lat="45.98398" lon="6.5446">
        <ele>1243.6</ele>
        <time>2019-01-29T14:03:19Z</time>
      </trkpt>
      <trkpt lat="45.98401" lon="6.5446">
        <ele>1243.6</ele>
        <time>2019-01-29T14:03:26Z</time>
      </trkpt>
      <trkpt lat="45.98396" lon="6.54457">
        <ele>1244.56</ele>
        <time>2019-01-29T14:04:56Z</time>
      </trkpt>
      <trkpt lat="45.98393" lon="6.54459">
        <ele>1245.53</ele>
        <time>2019-01-29T14:08:31Z</time>
      </trkpt>
      <trkpt lat="45.98387" lon="6.54461">
        <ele>1246.97</ele>
        <time>2019-01-29T14:09:22Z</time>
      </trkpt>
      <trkpt lat="45.98387" lon="6.54462">
        <ele>1246.97</ele>
        <time>2019-01-29T14:09:23Z</time>
      </trkpt>
      <trkpt lat="45.98382" lon="6.54472">
        <ele>1246.97</ele>
        <time>2019-01-29T14:09:49Z</time>
      </trkpt>
      <trkpt lat="45.98381" lon="6.54474">
        <ele>1247.45</ele>
        <time>2019-01-29T14:09:50Z</time>
      </trkpt>
      <trkpt lat="45.98377" lon="6.54491">
        <ele>1249.37</ele>
        <time>2019-01-29T14:10:08Z</time>
      </trkpt>
      <trkpt lat="45.98362" lon="6.54512">
        <ele>1251.77</ele>
        <time>2019-01-29T14:10:28Z</time>
      </trkpt>
      <trkpt lat="45.98362" lon="6.54514">
        <ele>1251.77</ele>
        <time>2019-01-29T14:10:29Z</time>
      </trkpt>
      <trkpt lat="45.98359" lon="6.54534">
        <ele>1254.66</ele>
        <time>2019-01-29T14:10:44Z</time>
      </trkpt>
      <trkpt lat="45.98359" lon="6.54536">
        <ele>1254.66</ele>
        <time>2019-01-29T14:10:45Z</time>
      </trkpt>
      <trkpt lat="45.98358" lon="6.54549">
        <ele>1256.58</ele>
        <time>2019-01-29T14:10:55Z</time>
      </trkpt>
      <trkpt lat="45.98357" lon="6.54553">
        <ele>1257.06</ele>
        <time>2019-01-29T14:10:58Z</time>
      </trkpt>
      <trkpt lat="45.98357" lon="6.54558">
        <ele>1258.02</ele>
        <time>2019-01-29T14:11:01Z</time>
      </trkpt>
      <trkpt lat="45.98357" lon="6.54559">
        <ele>1258.02</ele>
        <time>2019-01-29T14:11:02Z</time>
      </trkpt>
      <trkpt lat="45.98356" lon="6.5456">
        <ele>1258.5</ele>
        <time>2019-01-29T14:11:03Z</time>
      </trkpt>
      <trkpt lat="45.98353" lon="6.54573">
        <ele>1259.46</ele>
        <time>2019-01-29T14:11:12Z</time>
      </trkpt>
      <trkpt lat="45.98353" lon="6.54575">
        <ele>1259.94</ele>
        <time>2019-01-29T14:11:13Z</time>
      </trkpt>
      <trkpt lat="45.98353" lon="6.54577">
        <ele>1259.94</ele>
        <time>2019-01-29T14:11:14Z</time>
      </trkpt>
      <trkpt lat="45.98352" lon="6.54583">
        <ele>1260.91</ele>
        <time>2019-01-29T14:11:19Z</time>
      </trkpt>
      <trkpt lat="45.98352" lon="6.54586">
        <ele>1261.39</ele>
        <time>2019-01-29T14:11:21Z</time>
      </trkpt>
      <trkpt lat="45.98352" lon="6.54588">
        <ele>1261.39</ele>
        <time>2019-01-29T14:11:22Z</time>
      </trkpt>
      <trkpt lat="45.98352" lon="6.54589">
        <ele>1261.87</ele>
        <time>2019-01-29T14:11:23Z</time>
      </trkpt>
      <trkpt lat="45.98352" lon="6.54591">
        <ele>1261.87</ele>
        <time>2019-01-29T14:11:24Z</time>
      </trkpt>
      <trkpt lat="45.98352" lon="6.54592">
        <ele>1261.87</ele>
        <time>2019-01-29T14:11:25Z</time>
      </trkpt>
      <trkpt lat="45.98351" lon="6.54593">
        <ele>1261.87</ele>
        <time>2019-01-29T14:11:26Z</time>
      </trkpt>
      <trkpt lat="45.9835" lon="6.546">
        <ele>1262.83</ele>
        <time>2019-01-29T14:11:31Z</time>
      </trkpt>
      <trkpt lat="45.9835" lon="6.54601">
        <ele>1263.31</ele>
        <time>2019-01-29T14:11:32Z</time>
      </trkpt>
      <trkpt lat="45.98348" lon="6.54622">
        <ele>1266.19</ele>
        <time>2019-01-29T14:11:49Z</time>
      </trkpt>
      <trkpt lat="45.9835" lon="6.54644">
        <ele>1269.56</ele>
        <time>2019-01-29T14:12:09Z</time>
      </trkpt>
      <trkpt lat="45.98348" lon="6.54664">
        <ele>1272.44</ele>
        <time>2019-01-29T14:12:26Z</time>
      </trkpt>
      <trkpt lat="45.98348" lon="6.54668">
        <ele>1273.4</ele>
        <time>2019-01-29T14:12:29Z</time>
      </trkpt>
      <trkpt lat="45.98348" lon="6.5467">
        <ele>1273.4</ele>
        <time>2019-01-29T14:12:30Z</time>
      </trkpt>
      <trkpt lat="45.98349" lon="6.54673">
        <ele>1273.88</ele>
        <time>2019-01-29T14:12:33Z</time>
      </trkpt>
      <trkpt lat="45.98349" lon="6.54675">
        <ele>1273.88</ele>
        <time>2019-01-29T14:12:34Z</time>
      </trkpt>
      <trkpt lat="45.98349" lon="6.54677">
        <ele>1273.88</ele>
        <time>2019-01-29T14:12:36Z</time>
      </trkpt>
      <trkpt lat="45.98349" lon="6.54678">
        <ele>1274.36</ele>
        <time>2019-01-29T14:12:37Z</time>
      </trkpt>
      <trkpt lat="45.98349" lon="6.5468">
        <ele>1274.36</ele>
        <time>2019-01-29T14:12:39Z</time>
      </trkpt>
      <trkpt lat="45.98349" lon="6.54681">
        <ele>1274.85</ele>
        <time>2019-01-29T14:12:40Z</time>
      </trkpt>
      <trkpt lat="45.98349" lon="6.54683">
        <ele>1274.85</ele>
        <time>2019-01-29T14:12:41Z</time>
      </trkpt>
      <trkpt lat="45.98349" lon="6.54684">
        <ele>1274.85</ele>
        <time>2019-01-29T14:12:42Z</time>
      </trkpt>
      <trkpt lat="45.98349" lon="6.54685">
        <ele>1275.33</ele>
        <time>2019-01-29T14:12:43Z</time>
      </trkpt>
      <trkpt lat="45.98349" lon="6.54687">
        <ele>1275.33</ele>
        <time>2019-01-29T14:12:44Z</time>
      </trkpt>
      <trkpt lat="45.9835" lon="6.54688">
        <ele>1275.81</ele>
        <time>2019-01-29T14:12:45Z</time>
      </trkpt>
      <trkpt lat="45.9835" lon="6.5469">
        <ele>1276.29</ele>
        <time>2019-01-29T14:12:46Z</time>
      </trkpt>
      <trkpt lat="45.98351" lon="6.54709">
        <ele>1279.17</ele>
        <time>2019-01-29T14:13:03Z</time>
      </trkpt>
      <trkpt lat="45.98362" lon="6.54719">
        <ele>1282.54</ele>
        <time>2019-01-29T14:13:21Z</time>
      </trkpt>
      <trkpt lat="45.98364" lon="6.54721">
        <ele>1283.02</ele>
        <time>2019-01-29T14:13:24Z</time>
      </trkpt>
      <trkpt lat="45.98372" lon="6.54734">
        <ele>1286.38</ele>
        <time>2019-01-29T14:13:39Z</time>
      </trkpt>
      <trkpt lat="45.98377" lon="6.54745">
        <ele>1289.27</ele>
        <time>2019-01-29T14:13:51Z</time>
      </trkpt>
      <trkpt lat="45.98382" lon="6.54756">
        <ele>1292.63</ele>
        <time>2019-01-29T14:14:04Z</time>
      </trkpt>
      <trkpt lat="45.98383" lon="6.54766">
        <ele>1295.51</ele>
        <time>2019-01-29T14:14:17Z</time>
      </trkpt>
      <trkpt lat="45.98385" lon="6.54779">
        <ele>1298.4</ele>
        <time>2019-01-29T14:14:30Z</time>
      </trkpt>
      <trkpt lat="45.98389" lon="6.54786">
        <ele>1301.76</ele>
        <time>2019-01-29T14:14:43Z</time>
      </trkpt>
      <trkpt lat="45.98393" lon="6.54794">
        <ele>1304.65</ele>
        <time>2019-01-29T14:14:56Z</time>
      </trkpt>
      <trkpt lat="45.98395" lon="6.548">
        <ele>1305.61</ele>
        <time>2019-01-29T14:15:01Z</time>
      </trkpt>
      <trkpt lat="45.984" lon="6.54807">
        <ele>1308.97</ele>
        <time>2019-01-29T14:15:15Z</time>
      </trkpt>
      <trkpt lat="45.98402" lon="6.54815">
        <ele>1311.86</ele>
        <time>2019-01-29T14:15:28Z</time>
      </trkpt>
      <trkpt lat="45.98403" lon="6.54825">
        <ele>1315.22</ele>
        <time>2019-01-29T14:15:41Z</time>
      </trkpt>
      <trkpt lat="45.98406" lon="6.5484">
        <ele>1318.1</ele>
        <time>2019-01-29T14:15:55Z</time>
      </trkpt>
      <trkpt lat="45.9841" lon="6.54856">
        <ele>1320.99</ele>
        <time>2019-01-29T14:16:14Z</time>
      </trkpt>
      <trkpt lat="45.98418" lon="6.54868">
        <ele>1324.35</ele>
        <time>2019-01-29T14:16:28Z</time>
      </trkpt>
      <trkpt lat="45.98428" lon="6.54873">
        <ele>1327.24</ele>
        <time>2019-01-29T14:16:42Z</time>
      </trkpt>
      <trkpt lat="45.98439" lon="6.54872">
        <ele>1330.6</ele>
        <time>2019-01-29T14:16:59Z</time>
      </trkpt>
      <trkpt lat="45.98448" lon="6.54868">
        <ele>1333.49</ele>
        <time>2019-01-29T14:17:14Z</time>
      </trkpt>
      <trkpt lat="45.98456" lon="6.54856">
        <ele>1336.85</ele>
        <time>2019-01-29T14:17:30Z</time>
      </trkpt>
      <trkpt lat="45.98505" lon="6.54836">
        <ele>1337.81</ele>
        <time>2019-01-29T14:18:13Z</time>
      </trkpt>
      <trkpt lat="45.98518" lon="6.54831">
        <ele>1337.81</ele>
        <time>2019-01-29T14:18:22Z</time>
      </trkpt>
      <trkpt lat="45.98519" lon="6.5483">
        <ele>1337.81</ele>
        <time>2019-01-29T14:18:23Z</time>
      </trkpt>
      <trkpt lat="45.98526" lon="6.54827">
        <ele>1337.81</ele>
        <time>2019-01-29T14:18:27Z</time>
      </trkpt>
      <trkpt lat="45.98527" lon="6.54826">
        <ele>1337.81</ele>
        <time>2019-01-29T14:18:28Z</time>
      </trkpt>
      <trkpt lat="45.98529" lon="6.54825">
        <ele>1337.81</ele>
        <time>2019-01-29T14:18:29Z</time>
      </trkpt>
      <trkpt lat="45.9853" lon="6.54824">
        <ele>1337.33</ele>
        <time>2019-01-29T14:18:30Z</time>
      </trkpt>
      <trkpt lat="45.98532" lon="6.54823">
        <ele>1337.33</ele>
        <time>2019-01-29T14:18:31Z</time>
      </trkpt>
      <trkpt lat="45.98534" lon="6.54822">
        <ele>1337.33</ele>
        <time>2019-01-29T14:18:32Z</time>
      </trkpt>
      <trkpt lat="45.98536" lon="6.54821">
        <ele>1337.33</ele>
        <time>2019-01-29T14:18:33Z</time>
      </trkpt>
      <trkpt lat="45.98537" lon="6.5482">
        <ele>1336.85</ele>
        <time>2019-01-29T14:18:34Z</time>
      </trkpt>
      <trkpt lat="45.98539" lon="6.54819">
        <ele>1336.85</ele>
        <time>2019-01-29T14:18:35Z</time>
      </trkpt>
      <trkpt lat="45.98541" lon="6.54818">
        <ele>1336.85</ele>
        <time>2019-01-29T14:18:36Z</time>
      </trkpt>
      <trkpt lat="45.98562" lon="6.54815">
        <ele>1340.22</ele>
        <time>2019-01-29T14:19:02Z</time>
      </trkpt>
      <trkpt lat="45.98569" lon="6.54813">
        <ele>1342.14</ele>
        <time>2019-01-29T14:19:12Z</time>
      </trkpt>
      <trkpt lat="45.98571" lon="6.54813">
        <ele>1342.62</ele>
        <time>2019-01-29T14:19:13Z</time>
      </trkpt>
      <trkpt lat="45.98577" lon="6.54812">
        <ele>1343.58</ele>
        <time>2019-01-29T14:19:20Z</time>
      </trkpt>
      <trkpt lat="45.98578" lon="6.54813">
        <ele>1344.06</ele>
        <time>2019-01-29T14:19:21Z</time>
      </trkpt>
      <trkpt lat="45.9858" lon="6.54812">
        <ele>1345.02</ele>
        <time>2019-01-29T14:19:25Z</time>
      </trkpt>
      <trkpt lat="45.98581" lon="6.54812">
        <ele>1345.02</ele>
        <time>2019-01-29T14:19:26Z</time>
      </trkpt>
      <trkpt lat="45.98584" lon="6.54812">
        <ele>1345.98</ele>
        <time>2019-01-29T14:19:30Z</time>
      </trkpt>
      <trkpt lat="45.98586" lon="6.54812">
        <ele>1346.94</ele>
        <time>2019-01-29T14:19:33Z</time>
      </trkpt>
      <trkpt lat="45.98592" lon="6.54809">
        <ele>1349.35</ele>
        <time>2019-01-29T14:19:43Z</time>
      </trkpt>
      <trkpt lat="45.98594" lon="6.54809">
        <ele>1349.83</ele>
        <time>2019-01-29T14:19:46Z</time>
      </trkpt>
      <trkpt lat="45.98596" lon="6.54808">
        <ele>1349.83</ele>
        <time>2019-01-29T14:19:47Z</time>
      </trkpt>
      <trkpt lat="45.98603" lon="6.5481">
        <ele>1353.19</ele>
        <time>2019-01-29T14:19:59Z</time>
      </trkpt>
      <trkpt lat="45.98615" lon="6.54809">
        <ele>1356.08</ele>
        <time>2019-01-29T14:20:16Z</time>
      </trkpt>
      <trkpt lat="45.98621" lon="6.54808">
        <ele>1357.04</ele>
        <time>2019-01-29T14:20:23Z</time>
      </trkpt>
      <trkpt lat="45.98635" lon="6.54801">
        <ele>1359.44</ele>
        <time>2019-01-29T14:20:38Z</time>
      </trkpt>
      <trkpt lat="45.98644" lon="6.54799">
        <ele>1361.36</ele>
        <time>2019-01-29T14:20:48Z</time>
      </trkpt>
      <trkpt lat="45.98663" lon="6.54798">
        <ele>1364.73</ele>
        <time>2019-01-29T14:21:06Z</time>
      </trkpt>
      <trkpt lat="45.98685" lon="6.54795">
        <ele>1367.61</ele>
        <time>2019-01-29T14:21:27Z</time>
      </trkpt>
      <trkpt lat="45.98692" lon="6.5479">
        <ele>1369.54</ele>
        <time>2019-01-29T14:21:36Z</time>
      </trkpt>
      <trkpt lat="45.98701" lon="6.54791">
        <ele>1371.46</ele>
        <time>2019-01-29T14:21:46Z</time>
      </trkpt>
      <trkpt lat="45.98701" lon="6.5479">
        <ele>1371.94</ele>
        <time>2019-01-29T14:21:47Z</time>
      </trkpt>
      <trkpt lat="45.98705" lon="6.5479">
        <ele>1372.42</ele>
        <time>2019-01-29T14:21:52Z</time>
      </trkpt>
      <trkpt lat="45.9871" lon="6.5479">
        <ele>1373.38</ele>
        <time>2019-01-29T14:21:56Z</time>
      </trkpt>
      <trkpt lat="45.98722" lon="6.54793">
        <ele>1375.78</ele>
        <time>2019-01-29T14:22:09Z</time>
      </trkpt>
      <trkpt lat="45.98724" lon="6.54794">
        <ele>1376.26</ele>
        <time>2019-01-29T14:22:11Z</time>
      </trkpt>
      <trkpt lat="45.98737" lon="6.54792">
        <ele>1379.63</ele>
        <time>2019-01-29T14:22:25Z</time>
      </trkpt>
      <trkpt lat="45.98753" lon="6.54783">
        <ele>1382.51</ele>
        <time>2019-01-29T14:22:44Z</time>
      </trkpt>
      <trkpt lat="45.98765" lon="6.5478">
        <ele>1385.4</ele>
        <time>2019-01-29T14:23:00Z</time>
      </trkpt>
      <trkpt lat="45.98775" lon="6.54771">
        <ele>1384.92</ele>
        <time>2019-01-29T14:23:07Z</time>
      </trkpt>
      <trkpt lat="45.98776" lon="6.5477">
        <ele>1384.92</ele>
        <time>2019-01-29T14:23:08Z</time>
      </trkpt>
      <trkpt lat="45.98777" lon="6.5477">
        <ele>1384.92</ele>
        <time>2019-01-29T14:23:09Z</time>
      </trkpt>
      <trkpt lat="45.98778" lon="6.54769">
        <ele>1384.92</ele>
        <time>2019-01-29T14:23:10Z</time>
      </trkpt>
      <trkpt lat="45.98779" lon="6.54768">
        <ele>1385.4</ele>
        <time>2019-01-29T14:23:11Z</time>
      </trkpt>
      <trkpt lat="45.98781" lon="6.54767">
        <ele>1385.4</ele>
        <time>2019-01-29T14:23:12Z</time>
      </trkpt>
      <trkpt lat="45.98782" lon="6.54766">
        <ele>1385.4</ele>
        <time>2019-01-29T14:23:13Z</time>
      </trkpt>
      <trkpt lat="45.98783" lon="6.54765">
        <ele>1385.4</ele>
        <time>2019-01-29T14:23:14Z</time>
      </trkpt>
      <trkpt lat="45.98785" lon="6.54764">
        <ele>1385.4</ele>
        <time>2019-01-29T14:23:15Z</time>
      </trkpt>
      <trkpt lat="45.98786" lon="6.54764">
        <ele>1385.4</ele>
        <time>2019-01-29T14:23:16Z</time>
      </trkpt>
      <trkpt lat="45.98801" lon="6.54761">
        <ele>1386.36</ele>
        <time>2019-01-29T14:23:28Z</time>
      </trkpt>
      <trkpt lat="45.98801" lon="6.54761">
        <ele>1386.36</ele>
        <time>2019-01-29T14:23:29Z</time>
      </trkpt>
      <trkpt lat="45.98802" lon="6.54761">
        <ele>1386.84</ele>
        <time>2019-01-29T14:23:30Z</time>
      </trkpt>
      <trkpt lat="45.98803" lon="6.5476">
        <ele>1386.84</ele>
        <time>2019-01-29T14:23:31Z</time>
      </trkpt>
      <trkpt lat="45.98804" lon="6.5476">
        <ele>1386.84</ele>
        <time>2019-01-29T14:23:32Z</time>
      </trkpt>
      <trkpt lat="45.98805" lon="6.5476">
        <ele>1386.84</ele>
        <time>2019-01-29T14:23:33Z</time>
      </trkpt>
      <trkpt lat="45.98814" lon="6.54766">
        <ele>1390.2</ele>
        <time>2019-01-29T14:23:53Z</time>
      </trkpt>
      <trkpt lat="45.98819" lon="6.54769">
        <ele>1393.09</ele>
        <time>2019-01-29T14:24:07Z</time>
      </trkpt>
      <trkpt lat="45.98825" lon="6.54775">
        <ele>1396.45</ele>
        <time>2019-01-29T14:24:20Z</time>
      </trkpt>
      <trkpt lat="45.98833" lon="6.54774">
        <ele>1399.82</ele>
        <time>2019-01-29T14:24:35Z</time>
      </trkpt>
      <trkpt lat="45.98841" lon="6.54776">
        <ele>1402.7</ele>
        <time>2019-01-29T14:24:49Z</time>
      </trkpt>
      <trkpt lat="45.98848" lon="6.54777">
        <ele>1405.58</ele>
        <time>2019-01-29T14:25:02Z</time>
      </trkpt>
      <trkpt lat="45.98856" lon="6.54783">
        <ele>1408.95</ele>
        <time>2019-01-29T14:25:16Z</time>
      </trkpt>
      <trkpt lat="45.98862" lon="6.54784">
        <ele>1411.35</ele>
        <time>2019-01-29T14:25:26Z</time>
      </trkpt>
      <trkpt lat="45.98868" lon="6.54786">
        <ele>1414.24</ele>
        <time>2019-01-29T14:25:39Z</time>
      </trkpt>
      <trkpt lat="45.98874" lon="6.5479">
        <ele>1417.6</ele>
        <time>2019-01-29T14:25:53Z</time>
      </trkpt>
      <trkpt lat="45.9888" lon="6.54791">
        <ele>1420.49</ele>
        <time>2019-01-29T14:26:07Z</time>
      </trkpt>
      <trkpt lat="45.98886" lon="6.54795">
        <ele>1423.85</ele>
        <time>2019-01-29T14:26:20Z</time>
      </trkpt>
      <trkpt lat="45.98894" lon="6.54793">
        <ele>1426.73</ele>
        <time>2019-01-29T14:26:35Z</time>
      </trkpt>
      <trkpt lat="45.98899" lon="6.54794">
        <ele>1428.18</ele>
        <time>2019-01-29T14:26:43Z</time>
      </trkpt>
      <trkpt lat="45.989" lon="6.54795">
        <ele>1428.18</ele>
        <time>2019-01-29T14:26:45Z</time>
      </trkpt>
      <trkpt lat="45.98916" lon="6.54807">
        <ele>1431.54</ele>
        <time>2019-01-29T14:27:08Z</time>
      </trkpt>
      <trkpt lat="45.98927" lon="6.54807">
        <ele>1434.42</ele>
        <time>2019-01-29T14:27:22Z</time>
      </trkpt>
      <trkpt lat="45.98935" lon="6.54809">
        <ele>1437.79</ele>
        <time>2019-01-29T14:27:36Z</time>
      </trkpt>
      <trkpt lat="45.98944" lon="6.54809">
        <ele>1440.67</ele>
        <time>2019-01-29T14:27:50Z</time>
      </trkpt>
      <trkpt lat="45.98959" lon="6.54813">
        <ele>1444.04</ele>
        <time>2019-01-29T14:28:08Z</time>
      </trkpt>
      <trkpt lat="45.98975" lon="6.54814">
        <ele>1447.4</ele>
        <time>2019-01-29T14:28:28Z</time>
      </trkpt>
      <trkpt lat="45.98989" lon="6.54822">
        <ele>1450.29</ele>
        <time>2019-01-29T14:28:47Z</time>
      </trkpt>
      <trkpt lat="45.98998" lon="6.54829">
        <ele>1453.17</ele>
        <time>2019-01-29T14:29:00Z</time>
      </trkpt>
      <trkpt lat="45.99006" lon="6.54831">
        <ele>1456.53</ele>
        <time>2019-01-29T14:29:13Z</time>
      </trkpt>
      <trkpt lat="45.9901" lon="6.54835">
        <ele>1459.42</ele>
        <time>2019-01-29T14:29:26Z</time>
      </trkpt>
      <trkpt lat="45.99012" lon="6.54844">
        <ele>1462.78</ele>
        <time>2019-01-29T14:29:40Z</time>
      </trkpt>
      <trkpt lat="45.99009" lon="6.54853">
        <ele>1466.15</ele>
        <time>2019-01-29T14:29:53Z</time>
      </trkpt>
      <trkpt lat="45.99002" lon="6.54863">
        <ele>1469.03</ele>
        <time>2019-01-29T14:30:08Z</time>
      </trkpt>
      <trkpt lat="45.99006" lon="6.54873">
        <ele>1471.44</ele>
        <time>2019-01-29T14:30:20Z</time>
      </trkpt>
      <trkpt lat="45.99013" lon="6.54873">
        <ele>1474.8</ele>
        <time>2019-01-29T14:30:35Z</time>
      </trkpt>
      <trkpt lat="45.99017" lon="6.54873">
        <ele>1475.76</ele>
        <time>2019-01-29T14:30:41Z</time>
      </trkpt>
      <trkpt lat="45.99018" lon="6.54874">
        <ele>1476.24</ele>
        <time>2019-01-29T14:30:43Z</time>
      </trkpt>
      <trkpt lat="45.99019" lon="6.54874">
        <ele>1476.24</ele>
        <time>2019-01-29T14:30:44Z</time>
      </trkpt>
      <trkpt lat="45.99029" lon="6.54886">
        <ele>1479.61</ele>
        <time>2019-01-29T14:31:05Z</time>
      </trkpt>
      <trkpt lat="45.99025" lon="6.54891">
        <ele>1482.49</ele>
        <time>2019-01-29T14:31:18Z</time>
      </trkpt>
      <trkpt lat="45.99017" lon="6.54898">
        <ele>1485.37</ele>
        <time>2019-01-29T14:31:35Z</time>
      </trkpt>
      <trkpt lat="45.99018" lon="6.549">
        <ele>1486.34</ele>
        <time>2019-01-29T14:31:38Z</time>
      </trkpt>
      <trkpt lat="45.9902" lon="6.54905">
        <ele>1487.78</ele>
        <time>2019-01-29T14:31:44Z</time>
      </trkpt>
      <trkpt lat="45.99022" lon="6.54907">
        <ele>1488.74</ele>
        <time>2019-01-29T14:31:48Z</time>
      </trkpt>
      <trkpt lat="45.99024" lon="6.54908">
        <ele>1489.22</ele>
        <time>2019-01-29T14:31:50Z</time>
      </trkpt>
      <trkpt lat="45.99025" lon="6.54908">
        <ele>1489.22</ele>
        <time>2019-01-29T14:31:51Z</time>
      </trkpt>
      <trkpt lat="45.99026" lon="6.54909">
        <ele>1489.22</ele>
        <time>2019-01-29T14:31:52Z</time>
      </trkpt>
      <trkpt lat="45.99032" lon="6.54916">
        <ele>1491.62</ele>
        <time>2019-01-29T14:32:02Z</time>
      </trkpt>
      <trkpt lat="45.99034" lon="6.54918">
        <ele>1494.99</ele>
        <time>2019-01-29T14:32:16Z</time>
      </trkpt>
      <trkpt lat="45.99036" lon="6.54921">
        <ele>1495.47</ele>
        <time>2019-01-29T14:32:19Z</time>
      </trkpt>
      <trkpt lat="45.99044" lon="6.54926">
        <ele>1498.83</ele>
        <time>2019-01-29T14:32:34Z</time>
      </trkpt>
      <trkpt lat="45.99048" lon="6.54936">
        <ele>1501.72</ele>
        <time>2019-01-29T14:32:47Z</time>
      </trkpt>
      <trkpt lat="45.99054" lon="6.54952">
        <ele>1504.6</ele>
        <time>2019-01-29T14:33:04Z</time>
      </trkpt>
      <trkpt lat="45.99064" lon="6.54968">
        <ele>1507.97</ele>
        <time>2019-01-29T14:33:22Z</time>
      </trkpt>
      <trkpt lat="45.9907" lon="6.54979">
        <ele>1510.85</ele>
        <time>2019-01-29T14:33:36Z</time>
      </trkpt>
      <trkpt lat="45.99079" lon="6.54978">
        <ele>1513.73</ele>
        <time>2019-01-29T14:33:51Z</time>
      </trkpt>
      <trkpt lat="45.991" lon="6.54979">
        <ele>1516.62</ele>
        <time>2019-01-29T14:34:15Z</time>
      </trkpt>
      <trkpt lat="45.99113" lon="6.54991">
        <ele>1519.98</ele>
        <time>2019-01-29T14:34:31Z</time>
      </trkpt>
      <trkpt lat="45.99123" lon="6.54996">
        <ele>1522.87</ele>
        <time>2019-01-29T14:34:52Z</time>
      </trkpt>
      <trkpt lat="45.99124" lon="6.54998">
        <ele>1523.35</ele>
        <time>2019-01-29T14:34:54Z</time>
      </trkpt>
      <trkpt lat="45.99124" lon="6.54998">
        <ele>1523.83</ele>
        <time>2019-01-29T14:34:55Z</time>
      </trkpt>
      <trkpt lat="45.99136" lon="6.55009">
        <ele>1526.23</ele>
        <time>2019-01-29T14:35:12Z</time>
      </trkpt>
      <trkpt lat="45.99152" lon="6.55014">
        <ele>1529.59</ele>
        <time>2019-01-29T14:35:32Z</time>
      </trkpt>
      <trkpt lat="45.99162" lon="6.55017">
        <ele>1532.48</ele>
        <time>2019-01-29T14:35:49Z</time>
      </trkpt>
      <trkpt lat="45.99172" lon="6.55024">
        <ele>1535.36</ele>
        <time>2019-01-29T14:36:04Z</time>
      </trkpt>
      <trkpt lat="45.99176" lon="6.55026">
        <ele>1536.8</ele>
        <time>2019-01-29T14:36:11Z</time>
      </trkpt>
      <trkpt lat="45.99179" lon="6.55027">
        <ele>1537.77</ele>
        <time>2019-01-29T14:36:15Z</time>
      </trkpt>
      <trkpt lat="45.99184" lon="6.55041">
        <ele>1539.69</ele>
        <time>2019-01-29T14:37:30Z</time>
      </trkpt>
      <trkpt lat="45.99182" lon="6.55053">
        <ele>1542.57</ele>
        <time>2019-01-29T14:37:42Z</time>
      </trkpt>
      <trkpt lat="45.99177" lon="6.55067">
        <ele>1545.94</ele>
        <time>2019-01-29T14:37:57Z</time>
      </trkpt>
      <trkpt lat="45.99172" lon="6.55075">
        <ele>1548.82</ele>
        <time>2019-01-29T14:38:12Z</time>
      </trkpt>
      <trkpt lat="45.9917" lon="6.55083">
        <ele>1552.19</ele>
        <time>2019-01-29T14:38:26Z</time>
      </trkpt>
      <trkpt lat="45.99162" lon="6.55082">
        <ele>1555.07</ele>
        <time>2019-01-29T14:38:41Z</time>
      </trkpt>
      <trkpt lat="45.9916" lon="6.55091">
        <ele>1558.43</ele>
        <time>2019-01-29T14:38:55Z</time>
      </trkpt>
      <trkpt lat="45.99163" lon="6.55101">
        <ele>1561.8</ele>
        <time>2019-01-29T14:39:11Z</time>
      </trkpt>
      <trkpt lat="45.99165" lon="6.55103">
        <ele>1561.8</ele>
        <time>2019-01-29T14:39:13Z</time>
      </trkpt>
      <trkpt lat="45.99173" lon="6.55107">
        <ele>1565.16</ele>
        <time>2019-01-29T14:39:27Z</time>
      </trkpt>
      <trkpt lat="45.99176" lon="6.55111">
        <ele>1566.61</ele>
        <time>2019-01-29T14:39:36Z</time>
      </trkpt>
      <trkpt lat="45.99172" lon="6.55122">
        <ele>1569.97</ele>
        <time>2019-01-29T14:39:50Z</time>
      </trkpt>
      <trkpt lat="45.9917" lon="6.55134">
        <ele>1571.89</ele>
        <time>2019-01-29T14:40:01Z</time>
      </trkpt>
      <trkpt lat="45.9917" lon="6.55147">
        <ele>1574.3</ele>
        <time>2019-01-29T14:40:14Z</time>
      </trkpt>
      <trkpt lat="45.99174" lon="6.55162">
        <ele>1577.66</ele>
        <time>2019-01-29T14:40:29Z</time>
      </trkpt>
      <trkpt lat="45.99176" lon="6.55177">
        <ele>1580.54</ele>
        <time>2019-01-29T14:40:44Z</time>
      </trkpt>
      <trkpt lat="45.99179" lon="6.5519">
        <ele>1583.43</ele>
        <time>2019-01-29T14:40:57Z</time>
      </trkpt>
      <trkpt lat="45.9918" lon="6.55192">
        <ele>1583.91</ele>
        <time>2019-01-29T14:40:59Z</time>
      </trkpt>
      <trkpt lat="45.9918" lon="6.55193">
        <ele>1583.91</ele>
        <time>2019-01-29T14:41:00Z</time>
      </trkpt>
      <trkpt lat="45.99183" lon="6.55209">
        <ele>1586.79</ele>
        <time>2019-01-29T14:41:17Z</time>
      </trkpt>
      <trkpt lat="45.99184" lon="6.55217">
        <ele>1588.24</ele>
        <time>2019-01-29T14:41:24Z</time>
      </trkpt>
      <trkpt lat="45.99184" lon="6.55219">
        <ele>1588.72</ele>
        <time>2019-01-29T14:41:26Z</time>
      </trkpt>
      <trkpt lat="45.99187" lon="6.55232">
        <ele>1592.08</ele>
        <time>2019-01-29T14:41:40Z</time>
      </trkpt>
      <trkpt lat="45.99187" lon="6.55233">
        <ele>1592.08</ele>
        <time>2019-01-29T14:41:41Z</time>
      </trkpt>
      <trkpt lat="45.99191" lon="6.55244">
        <ele>1594.96</ele>
        <time>2019-01-29T14:41:55Z</time>
      </trkpt>
      <trkpt lat="45.99195" lon="6.55255">
        <ele>1598.33</ele>
        <time>2019-01-29T14:42:10Z</time>
      </trkpt>
      <trkpt lat="45.99196" lon="6.55268">
        <ele>1601.69</ele>
        <time>2019-01-29T14:42:24Z</time>
      </trkpt>
      <trkpt lat="45.99196" lon="6.55269">
        <ele>1601.69</ele>
        <time>2019-01-29T14:42:25Z</time>
      </trkpt>
      <trkpt lat="45.99199" lon="6.55279">
        <ele>1604.58</ele>
        <time>2019-01-29T14:42:39Z</time>
      </trkpt>
      <trkpt lat="45.9921" lon="6.55279">
        <ele>1607.94</ele>
        <time>2019-01-29T14:42:56Z</time>
      </trkpt>
      <trkpt lat="45.99219" lon="6.55283">
        <ele>1610.83</ele>
        <time>2019-01-29T14:43:11Z</time>
      </trkpt>
      <trkpt lat="45.99221" lon="6.55284">
        <ele>1611.79</ele>
        <time>2019-01-29T14:43:13Z</time>
      </trkpt>
      <trkpt lat="45.99228" lon="6.55293">
        <ele>1614.67</ele>
        <time>2019-01-29T14:43:27Z</time>
      </trkpt>
      <trkpt lat="45.99236" lon="6.55302">
        <ele>1618.04</ele>
        <time>2019-01-29T14:43:41Z</time>
      </trkpt>
      <trkpt lat="45.99238" lon="6.55315">
        <ele>1621.4</ele>
        <time>2019-01-29T14:43:56Z</time>
      </trkpt>
      <trkpt lat="45.99231" lon="6.55325">
        <ele>1624.28</ele>
        <time>2019-01-29T14:44:10Z</time>
      </trkpt>
      <trkpt lat="45.99229" lon="6.55328">
        <ele>1624.77</ele>
        <time>2019-01-29T14:44:14Z</time>
      </trkpt>
      <trkpt lat="45.99223" lon="6.55335">
        <ele>1627.17</ele>
        <time>2019-01-29T14:44:24Z</time>
      </trkpt>
      <trkpt lat="45.9922" lon="6.55339">
        <ele>1628.13</ele>
        <time>2019-01-29T14:44:29Z</time>
      </trkpt>
      <trkpt lat="45.99216" lon="6.55343">
        <ele>1629.09</ele>
        <time>2019-01-29T14:44:35Z</time>
      </trkpt>
      <trkpt lat="45.99214" lon="6.55345">
        <ele>1629.57</ele>
        <time>2019-01-29T14:44:38Z</time>
      </trkpt>
      <trkpt lat="45.99214" lon="6.55349">
        <ele>1631.01</ele>
        <time>2019-01-29T14:44:43Z</time>
      </trkpt>
      <trkpt lat="45.99213" lon="6.5535">
        <ele>1631.49</ele>
        <time>2019-01-29T14:44:44Z</time>
      </trkpt>
      <trkpt lat="45.99211" lon="6.55354">
        <ele>1631.98</ele>
        <time>2019-01-29T14:44:48Z</time>
      </trkpt>
      <trkpt lat="45.9921" lon="6.55358">
        <ele>1632.46</ele>
        <time>2019-01-29T14:44:52Z</time>
      </trkpt>
      <trkpt lat="45.99206" lon="6.55362">
        <ele>1633.9</ele>
        <time>2019-01-29T14:44:59Z</time>
      </trkpt>
      <trkpt lat="45.99209" lon="6.5537">
        <ele>1636.78</ele>
        <time>2019-01-29T14:45:12Z</time>
      </trkpt>
      <trkpt lat="45.99213" lon="6.55377">
        <ele>1639.19</ele>
        <time>2019-01-29T14:45:22Z</time>
      </trkpt>
      <trkpt lat="45.99216" lon="6.55385">
        <ele>1641.11</ele>
        <time>2019-01-29T14:45:31Z</time>
      </trkpt>
      <trkpt lat="45.99218" lon="6.55388">
        <ele>1642.07</ele>
        <time>2019-01-29T14:45:35Z</time>
      </trkpt>
      <trkpt lat="45.99224" lon="6.55395">
        <ele>1644.47</ele>
        <time>2019-01-29T14:45:46Z</time>
      </trkpt>
      <trkpt lat="45.99224" lon="6.55396">
        <ele>1644.95</ele>
        <time>2019-01-29T14:45:48Z</time>
      </trkpt>
      <trkpt lat="45.99228" lon="6.55402">
        <ele>1646.4</ele>
        <time>2019-01-29T14:45:55Z</time>
      </trkpt>
      <trkpt lat="45.99228" lon="6.55404">
        <ele>1646.88</ele>
        <time>2019-01-29T14:45:57Z</time>
      </trkpt>
      <trkpt lat="45.99232" lon="6.55415">
        <ele>1650.24</ele>
        <time>2019-01-29T14:46:11Z</time>
      </trkpt>
      <trkpt lat="45.99228" lon="6.5542">
        <ele>1651.68</ele>
        <time>2019-01-29T14:46:18Z</time>
      </trkpt>
      <trkpt lat="45.99223" lon="6.55424">
        <ele>1654.09</ele>
        <time>2019-01-29T14:46:27Z</time>
      </trkpt>
      <trkpt lat="45.99219" lon="6.55429">
        <ele>1655.53</ele>
        <time>2019-01-29T14:46:35Z</time>
      </trkpt>
      <trkpt lat="45.99213" lon="6.55439">
        <ele>1658.41</ele>
        <time>2019-01-29T14:46:49Z</time>
      </trkpt>
      <trkpt lat="45.99212" lon="6.5544">
        <ele>1659.37</ele>
        <time>2019-01-29T14:46:51Z</time>
      </trkpt>
      <trkpt lat="45.99211" lon="6.55443">
        <ele>1659.85</ele>
        <time>2019-01-29T14:46:54Z</time>
      </trkpt>
      <trkpt lat="45.9921" lon="6.55445">
        <ele>1660.33</ele>
        <time>2019-01-29T14:46:56Z</time>
      </trkpt>
      <trkpt lat="45.99207" lon="6.55453">
        <ele>1663.7</ele>
        <time>2019-01-29T14:47:08Z</time>
      </trkpt>
      <trkpt lat="45.99205" lon="6.55464">
        <ele>1666.58</ele>
        <time>2019-01-29T14:47:22Z</time>
      </trkpt>
      <trkpt lat="45.99207" lon="6.55471">
        <ele>1668.51</ele>
        <time>2019-01-29T14:47:30Z</time>
      </trkpt>
      <trkpt lat="45.99208" lon="6.55473">
        <ele>1668.99</ele>
        <time>2019-01-29T14:47:32Z</time>
      </trkpt>
      <trkpt lat="45.99212" lon="6.55485">
        <ele>1672.35</ele>
        <time>2019-01-29T14:47:46Z</time>
      </trkpt>
      <trkpt lat="45.99214" lon="6.55492">
        <ele>1674.27</ele>
        <time>2019-01-29T14:47:54Z</time>
      </trkpt>
      <trkpt lat="45.9921" lon="6.55506">
        <ele>1677.64</ele>
        <time>2019-01-29T14:48:10Z</time>
      </trkpt>
      <trkpt lat="45.99202" lon="6.55516">
        <ele>1681</ele>
        <time>2019-01-29T14:48:26Z</time>
      </trkpt>
      <trkpt lat="45.99197" lon="6.5552">
        <ele>1682.93</ele>
        <time>2019-01-29T14:48:34Z</time>
      </trkpt>
      <trkpt lat="45.99199" lon="6.55533">
        <ele>1685.81</ele>
        <time>2019-01-29T14:48:49Z</time>
      </trkpt>
      <trkpt lat="45.99203" lon="6.55537">
        <ele>1687.73</ele>
        <time>2019-01-29T14:48:56Z</time>
      </trkpt>
      <trkpt lat="45.99207" lon="6.55541">
        <ele>1688.69</ele>
        <time>2019-01-29T14:49:02Z</time>
      </trkpt>
      <trkpt lat="45.99209" lon="6.55545">
        <ele>1689.17</ele>
        <time>2019-01-29T14:49:06Z</time>
      </trkpt>
      <trkpt lat="45.9921" lon="6.55546">
        <ele>1689.65</ele>
        <time>2019-01-29T14:49:07Z</time>
      </trkpt>
      <trkpt lat="45.99213" lon="6.5555">
        <ele>1691.1</ele>
        <time>2019-01-29T14:49:13Z</time>
      </trkpt>
      <trkpt lat="45.99215" lon="6.55552">
        <ele>1691.58</ele>
        <time>2019-01-29T14:49:16Z</time>
      </trkpt>
      <trkpt lat="45.99216" lon="6.55552">
        <ele>1691.58</ele>
        <time>2019-01-29T14:49:17Z</time>
      </trkpt>
      <trkpt lat="45.99216" lon="6.55553">
        <ele>1691.58</ele>
        <time>2019-01-29T14:49:18Z</time>
      </trkpt>
      <trkpt lat="45.99221" lon="6.55557">
        <ele>1693.02</ele>
        <time>2019-01-29T14:49:24Z</time>
      </trkpt>
      <trkpt lat="45.99222" lon="6.55558">
        <ele>1693.02</ele>
        <time>2019-01-29T14:49:25Z</time>
      </trkpt>
      <trkpt lat="45.99222" lon="6.55559">
        <ele>1693.02</ele>
        <time>2019-01-29T14:49:26Z</time>
      </trkpt>
      <trkpt lat="45.99223" lon="6.5556">
        <ele>1693.02</ele>
        <time>2019-01-29T14:49:27Z</time>
      </trkpt>
      <trkpt lat="45.99224" lon="6.55562">
        <ele>1693.98</ele>
        <time>2019-01-29T14:49:30Z</time>
      </trkpt>
      <trkpt lat="45.99225" lon="6.55565">
        <ele>1693.98</ele>
        <time>2019-01-29T14:49:33Z</time>
      </trkpt>
      <trkpt lat="45.99226" lon="6.55567">
        <ele>1694.46</ele>
        <time>2019-01-29T14:49:35Z</time>
      </trkpt>
      <trkpt lat="45.99227" lon="6.55568">
        <ele>1694.94</ele>
        <time>2019-01-29T14:49:36Z</time>
      </trkpt>
      <trkpt lat="45.9923" lon="6.55574">
        <ele>1695.9</ele>
        <time>2019-01-29T14:49:42Z</time>
      </trkpt>
      <trkpt lat="45.9923" lon="6.55575">
        <ele>1695.9</ele>
        <time>2019-01-29T14:49:43Z</time>
      </trkpt>
      <trkpt lat="45.99231" lon="6.55576">
        <ele>1695.9</ele>
        <time>2019-01-29T14:49:44Z</time>
      </trkpt>
      <trkpt lat="45.99231" lon="6.55577">
        <ele>1695.9</ele>
        <time>2019-01-29T14:49:45Z</time>
      </trkpt>
      <trkpt lat="45.99232" lon="6.55579">
        <ele>1696.38</ele>
        <time>2019-01-29T14:49:47Z</time>
      </trkpt>
      <trkpt lat="45.99233" lon="6.55581">
        <ele>1696.86</ele>
        <time>2019-01-29T14:49:49Z</time>
      </trkpt>
      <trkpt lat="45.99234" lon="6.55584">
        <ele>1697.83</ele>
        <time>2019-01-29T14:49:53Z</time>
      </trkpt>
      <trkpt lat="45.99238" lon="6.55596">
        <ele>1700.23</ele>
        <time>2019-01-29T14:50:05Z</time>
      </trkpt>
      <trkpt lat="45.99238" lon="6.55597">
        <ele>1700.23</ele>
        <time>2019-01-29T14:50:06Z</time>
      </trkpt>
      <trkpt lat="45.99239" lon="6.55598">
        <ele>1700.23</ele>
        <time>2019-01-29T14:50:07Z</time>
      </trkpt>
      <trkpt lat="45.99239" lon="6.55603">
        <ele>1701.19</ele>
        <time>2019-01-29T14:50:11Z</time>
      </trkpt>
      <trkpt lat="45.99239" lon="6.55604">
        <ele>1701.19</ele>
        <time>2019-01-29T14:50:12Z</time>
      </trkpt>
      <trkpt lat="45.99239" lon="6.55606">
        <ele>1701.19</ele>
        <time>2019-01-29T14:50:13Z</time>
      </trkpt>
      <trkpt lat="45.99237" lon="6.55612">
        <ele>1701.67</ele>
        <time>2019-01-29T14:50:18Z</time>
      </trkpt>
      <trkpt lat="45.99237" lon="6.55616">
        <ele>1702.15</ele>
        <time>2019-01-29T14:50:21Z</time>
      </trkpt>
      <trkpt lat="45.99238" lon="6.55617">
        <ele>1702.15</ele>
        <time>2019-01-29T14:50:22Z</time>
      </trkpt>
      <trkpt lat="45.9924" lon="6.55623">
        <ele>1703.11</ele>
        <time>2019-01-29T14:50:27Z</time>
      </trkpt>
      <trkpt lat="45.99258" lon="6.55629">
        <ele>1704.07</ele>
        <time>2019-01-29T14:50:57Z</time>
      </trkpt>
      <trkpt lat="45.99261" lon="6.55624">
        <ele>1705.52</ele>
        <time>2019-01-29T14:51:02Z</time>
      </trkpt>
      <trkpt lat="45.99265" lon="6.5562">
        <ele>1706.48</ele>
        <time>2019-01-29T14:51:08Z</time>
      </trkpt>
      <trkpt lat="45.99266" lon="6.55619">
        <ele>1706.96</ele>
        <time>2019-01-29T14:51:10Z</time>
      </trkpt>
      <trkpt lat="45.99271" lon="6.55619">
        <ele>1708.4</ele>
        <time>2019-01-29T14:51:17Z</time>
      </trkpt>
      <trkpt lat="45.99272" lon="6.55619">
        <ele>1708.4</ele>
        <time>2019-01-29T14:51:18Z</time>
      </trkpt>
      <trkpt lat="45.99279" lon="6.55618">
        <ele>1709.36</ele>
        <time>2019-01-29T14:51:24Z</time>
      </trkpt>
      <trkpt lat="45.9928" lon="6.5562">
        <ele>1709.84</ele>
        <time>2019-01-29T14:51:26Z</time>
      </trkpt>
      <trkpt lat="45.9928" lon="6.55621">
        <ele>1710.32</ele>
        <time>2019-01-29T14:51:27Z</time>
      </trkpt>
      <trkpt lat="45.99279" lon="6.55635">
        <ele>1713.21</ele>
        <time>2019-01-29T14:51:41Z</time>
      </trkpt>
      <trkpt lat="45.9928" lon="6.55647">
        <ele>1715.61</ele>
        <time>2019-01-29T14:51:53Z</time>
      </trkpt>
      <trkpt lat="45.9928" lon="6.55649">
        <ele>1716.57</ele>
        <time>2019-01-29T14:51:55Z</time>
      </trkpt>
      <trkpt lat="45.99285" lon="6.55659">
        <ele>1719.46</ele>
        <time>2019-01-29T14:52:10Z</time>
      </trkpt>
      <trkpt lat="45.99294" lon="6.55666">
        <ele>1722.82</ele>
        <time>2019-01-29T14:52:26Z</time>
      </trkpt>
      <trkpt lat="45.99295" lon="6.5567">
        <ele>1723.3</ele>
        <time>2019-01-29T14:52:30Z</time>
      </trkpt>
      <trkpt lat="45.99294" lon="6.55678">
        <ele>1725.22</ele>
        <time>2019-01-29T14:52:38Z</time>
      </trkpt>
      <trkpt lat="45.99292" lon="6.55685">
        <ele>1726.18</ele>
        <time>2019-01-29T14:52:45Z</time>
      </trkpt>
      <trkpt lat="45.99291" lon="6.55687">
        <ele>1726.67</ele>
        <time>2019-01-29T14:52:47Z</time>
      </trkpt>
      <trkpt lat="45.99291" lon="6.55689">
        <ele>1727.15</ele>
        <time>2019-01-29T14:52:49Z</time>
      </trkpt>
      <trkpt lat="45.99291" lon="6.5569">
        <ele>1727.15</ele>
        <time>2019-01-29T14:52:50Z</time>
      </trkpt>
      <trkpt lat="45.99289" lon="6.55702">
        <ele>1729.55</ele>
        <time>2019-01-29T14:53:03Z</time>
      </trkpt>
      <trkpt lat="45.99286" lon="6.55712">
        <ele>1731.95</ele>
        <time>2019-01-29T14:53:12Z</time>
      </trkpt>
      <trkpt lat="45.99286" lon="6.55714">
        <ele>1731.95</ele>
        <time>2019-01-29T14:53:14Z</time>
      </trkpt>
      <trkpt lat="45.99286" lon="6.55716">
        <ele>1732.43</ele>
        <time>2019-01-29T14:53:16Z</time>
      </trkpt>
      <trkpt lat="45.99285" lon="6.5573">
        <ele>1735.8</ele>
        <time>2019-01-29T14:53:30Z</time>
      </trkpt>
      <trkpt lat="45.99284" lon="6.55746">
        <ele>1738.68</ele>
        <time>2019-01-29T14:53:46Z</time>
      </trkpt>
      <trkpt lat="45.99284" lon="6.55748">
        <ele>1739.16</ele>
        <time>2019-01-29T14:53:48Z</time>
      </trkpt>
      <trkpt lat="45.99285" lon="6.55758">
        <ele>1742.53</ele>
        <time>2019-01-29T14:54:01Z</time>
      </trkpt>
      <trkpt lat="45.9929" lon="6.55767">
        <ele>1745.41</ele>
        <time>2019-01-29T14:54:14Z</time>
      </trkpt>
      <trkpt lat="45.99297" lon="6.55774">
        <ele>1748.29</ele>
        <time>2019-01-29T14:54:28Z</time>
      </trkpt>
      <trkpt lat="45.99305" lon="6.55775">
        <ele>1751.18</ele>
        <time>2019-01-29T14:54:41Z</time>
      </trkpt>
      <trkpt lat="45.99315" lon="6.55773">
        <ele>1755.02</ele>
        <time>2019-01-29T14:54:57Z</time>
      </trkpt>
      <trkpt lat="45.99326" lon="6.55768">
        <ele>1757.91</ele>
        <time>2019-01-29T14:55:12Z</time>
      </trkpt>
      <trkpt lat="45.99333" lon="6.55764">
        <ele>1759.83</ele>
        <time>2019-01-29T14:55:22Z</time>
      </trkpt>
      <trkpt lat="45.99333" lon="6.5577">
        <ele>1761.27</ele>
        <time>2019-01-29T14:55:29Z</time>
      </trkpt>
      <trkpt lat="45.99332" lon="6.55784">
        <ele>1764.64</ele>
        <time>2019-01-29T14:55:44Z</time>
      </trkpt>
      <trkpt lat="45.99331" lon="6.55792">
        <ele>1766.56</ele>
        <time>2019-01-29T14:55:53Z</time>
      </trkpt>
      <trkpt lat="45.99333" lon="6.55803">
        <ele>1769.44</ele>
        <time>2019-01-29T14:56:07Z</time>
      </trkpt>
      <trkpt lat="45.99339" lon="6.55803">
        <ele>1770.89</ele>
        <time>2019-01-29T14:56:15Z</time>
      </trkpt>
      <trkpt lat="45.99342" lon="6.55801">
        <ele>1772.33</ele>
        <time>2019-01-29T14:56:20Z</time>
      </trkpt>
      <trkpt lat="45.99352" lon="6.55792">
        <ele>1775.69</ele>
        <time>2019-01-29T14:56:36Z</time>
      </trkpt>
      <trkpt lat="45.99359" lon="6.55784">
        <ele>1778.58</ele>
        <time>2019-01-29T14:56:50Z</time>
      </trkpt>
      <trkpt lat="45.9937" lon="6.55774">
        <ele>1781.94</ele>
        <time>2019-01-29T14:57:05Z</time>
      </trkpt>
      <trkpt lat="45.99376" lon="6.55765">
        <ele>1784.34</ele>
        <time>2019-01-29T14:57:17Z</time>
      </trkpt>
      <trkpt lat="45.99384" lon="6.55758">
        <ele>1787.71</ele>
        <time>2019-01-29T14:57:31Z</time>
      </trkpt>
      <trkpt lat="45.99391" lon="6.55752">
        <ele>1790.59</ele>
        <time>2019-01-29T14:57:43Z</time>
      </trkpt>
      <trkpt lat="45.99401" lon="6.55747">
        <ele>1793.48</ele>
        <time>2019-01-29T14:57:57Z</time>
      </trkpt>
      <trkpt lat="45.9941" lon="6.55743">
        <ele>1796.36</ele>
        <time>2019-01-29T14:58:10Z</time>
      </trkpt>
      <trkpt lat="45.99413" lon="6.55741">
        <ele>1797.8</ele>
        <time>2019-01-29T14:58:15Z</time>
      </trkpt>
      <trkpt lat="45.99412" lon="6.55752">
        <ele>1800.21</ele>
        <time>2019-01-29T14:58:28Z</time>
      </trkpt>
      <trkpt lat="45.99411" lon="6.55762">
        <ele>1803.57</ele>
        <time>2019-01-29T14:58:40Z</time>
      </trkpt>
      <trkpt lat="45.99409" lon="6.55774">
        <ele>1806.94</ele>
        <time>2019-01-29T14:58:53Z</time>
      </trkpt>
      <trkpt lat="45.99409" lon="6.55777">
        <ele>1807.9</ele>
        <time>2019-01-29T14:58:56Z</time>
      </trkpt>
      <trkpt lat="45.99408" lon="6.55782">
        <ele>1808.86</ele>
        <time>2019-01-29T14:59:01Z</time>
      </trkpt>
      <trkpt lat="45.99408" lon="6.55791">
        <ele>1810.78</ele>
        <time>2019-01-29T14:59:10Z</time>
      </trkpt>
      <trkpt lat="45.99407" lon="6.55804">
        <ele>1814.15</ele>
        <time>2019-01-29T14:59:24Z</time>
      </trkpt>
      <trkpt lat="45.99406" lon="6.55809">
        <ele>1815.59</ele>
        <time>2019-01-29T14:59:30Z</time>
      </trkpt>
      <trkpt lat="45.99406" lon="6.55812">
        <ele>1816.07</ele>
        <time>2019-01-29T14:59:32Z</time>
      </trkpt>
      <trkpt lat="45.99402" lon="6.55827">
        <ele>1819.43</ele>
        <time>2019-01-29T14:59:48Z</time>
      </trkpt>
      <trkpt lat="45.99401" lon="6.55832">
        <ele>1819.91</ele>
        <time>2019-01-29T14:59:52Z</time>
      </trkpt>
      <trkpt lat="45.99408" lon="6.55837">
        <ele>1822.8</ele>
        <time>2019-01-29T15:00:06Z</time>
      </trkpt>
      <trkpt lat="45.9941" lon="6.55837">
        <ele>1823.28</ele>
        <time>2019-01-29T15:00:08Z</time>
      </trkpt>
      <trkpt lat="45.9941" lon="6.55838">
        <ele>1823.76</ele>
        <time>2019-01-29T15:00:09Z</time>
      </trkpt>
      <trkpt lat="45.9942" lon="6.55844">
        <ele>1826.64</ele>
        <time>2019-01-29T15:00:24Z</time>
      </trkpt>
      <trkpt lat="45.99423" lon="6.55847">
        <ele>1827.6</ele>
        <time>2019-01-29T15:00:29Z</time>
      </trkpt>
      <trkpt lat="45.99424" lon="6.55849">
        <ele>1828.08</ele>
        <time>2019-01-29T15:00:31Z</time>
      </trkpt>
      <trkpt lat="45.99422" lon="6.55854">
        <ele>1829.53</ele>
        <time>2019-01-29T15:00:37Z</time>
      </trkpt>
      <trkpt lat="45.99418" lon="6.5586">
        <ele>1830.97</ele>
        <time>2019-01-29T15:00:44Z</time>
      </trkpt>
      <trkpt lat="45.99417" lon="6.55861">
        <ele>1831.45</ele>
        <time>2019-01-29T15:00:46Z</time>
      </trkpt>
      <trkpt lat="45.99416" lon="6.55862">
        <ele>1831.93</ele>
        <time>2019-01-29T15:00:47Z</time>
      </trkpt>
      <trkpt lat="45.99415" lon="6.55864">
        <ele>1832.41</ele>
        <time>2019-01-29T15:00:49Z</time>
      </trkpt>
      <trkpt lat="45.99413" lon="6.55867">
        <ele>1833.37</ele>
        <time>2019-01-29T15:00:54Z</time>
      </trkpt>
      <trkpt lat="45.99408" lon="6.55877">
        <ele>1836.26</ele>
        <time>2019-01-29T15:01:05Z</time>
      </trkpt>
      <trkpt lat="45.99412" lon="6.55884">
        <ele>1838.66</ele>
        <time>2019-01-29T15:01:19Z</time>
      </trkpt>
      <trkpt lat="45.99415" lon="6.55893">
        <ele>1842.02</ele>
        <time>2019-01-29T15:01:31Z</time>
      </trkpt>
      <trkpt lat="45.99413" lon="6.55897">
        <ele>1842.98</ele>
        <time>2019-01-29T15:01:35Z</time>
      </trkpt>
      <trkpt lat="45.9941" lon="6.55912">
        <ele>1845.87</ele>
        <time>2019-01-29T15:01:51Z</time>
      </trkpt>
      <trkpt lat="45.99412" lon="6.55917">
        <ele>1847.31</ele>
        <time>2019-01-29T15:02:00Z</time>
      </trkpt>
      <trkpt lat="45.99414" lon="6.55917">
        <ele>1847.79</ele>
        <time>2019-01-29T15:02:02Z</time>
      </trkpt>
      <trkpt lat="45.99415" lon="6.55917">
        <ele>1848.27</ele>
        <time>2019-01-29T15:02:03Z</time>
      </trkpt>
      <trkpt lat="45.9942" lon="6.55925">
        <ele>1851.64</ele>
        <time>2019-01-29T15:02:23Z</time>
      </trkpt>
      <trkpt lat="45.99415" lon="6.55939">
        <ele>1854.52</ele>
        <time>2019-01-29T15:02:37Z</time>
      </trkpt>
      <trkpt lat="45.99415" lon="6.55942">
        <ele>1855</ele>
        <time>2019-01-29T15:02:39Z</time>
      </trkpt>
      <trkpt lat="45.99411" lon="6.55952">
        <ele>1857.4</ele>
        <time>2019-01-29T15:02:50Z</time>
      </trkpt>
      <trkpt lat="45.9941" lon="6.55953">
        <ele>1857.89</ele>
        <time>2019-01-29T15:02:52Z</time>
      </trkpt>
      <trkpt lat="45.99411" lon="6.55959">
        <ele>1860.29</ele>
        <time>2019-01-29T15:03:05Z</time>
      </trkpt>
      <trkpt lat="45.99413" lon="6.5596">
        <ele>1860.77</ele>
        <time>2019-01-29T15:03:07Z</time>
      </trkpt>
      <trkpt lat="45.99415" lon="6.5596">
        <ele>1861.25</ele>
        <time>2019-01-29T15:03:10Z</time>
      </trkpt>
      <trkpt lat="45.99417" lon="6.55959">
        <ele>1861.73</ele>
        <time>2019-01-29T15:03:12Z</time>
      </trkpt>
      <trkpt lat="45.99418" lon="6.55959">
        <ele>1862.21</ele>
        <time>2019-01-29T15:03:14Z</time>
      </trkpt>
      <trkpt lat="45.99429" lon="6.55961">
        <ele>1865.09</ele>
        <time>2019-01-29T15:03:28Z</time>
      </trkpt>
      <trkpt lat="45.99433" lon="6.55961">
        <ele>1866.54</ele>
        <time>2019-01-29T15:03:33Z</time>
      </trkpt>
      <trkpt lat="45.99435" lon="6.55962">
        <ele>1867.02</ele>
        <time>2019-01-29T15:03:35Z</time>
      </trkpt>
      <trkpt lat="45.99436" lon="6.55962">
        <ele>1867.02</ele>
        <time>2019-01-29T15:03:36Z</time>
      </trkpt>
      <trkpt lat="45.99436" lon="6.55962">
        <ele>1867.02</ele>
        <time>2019-01-29T15:03:37Z</time>
      </trkpt>
      <trkpt lat="45.99438" lon="6.55962">
        <ele>1867.5</ele>
        <time>2019-01-29T15:03:38Z</time>
      </trkpt>
      <trkpt lat="45.99438" lon="6.55962">
        <ele>1867.5</ele>
        <time>2019-01-29T15:03:39Z</time>
      </trkpt>
      <trkpt lat="45.99439" lon="6.55962">
        <ele>1867.98</ele>
        <time>2019-01-29T15:03:40Z</time>
      </trkpt>
      <trkpt lat="45.9944" lon="6.5597">
        <ele>1870.86</ele>
        <time>2019-01-29T15:03:56Z</time>
      </trkpt>
      <trkpt lat="45.9944" lon="6.55971">
        <ele>1870.86</ele>
        <time>2019-01-29T15:03:57Z</time>
      </trkpt>
      <trkpt lat="45.99439" lon="6.55974">
        <ele>1871.82</ele>
        <time>2019-01-29T15:04:00Z</time>
      </trkpt>
      <trkpt lat="45.99438" lon="6.55978">
        <ele>1872.79</ele>
        <time>2019-01-29T15:04:04Z</time>
      </trkpt>
      <trkpt lat="45.99437" lon="6.5598">
        <ele>1873.75</ele>
        <time>2019-01-29T15:04:06Z</time>
      </trkpt>
      <trkpt lat="45.99437" lon="6.55981">
        <ele>1873.75</ele>
        <time>2019-01-29T15:04:07Z</time>
      </trkpt>
      <trkpt lat="45.99433" lon="6.55994">
        <ele>1877.11</ele>
        <time>2019-01-29T15:04:21Z</time>
      </trkpt>
      <trkpt lat="45.99437" lon="6.55995">
        <ele>1877.59</ele>
        <time>2019-01-29T15:04:27Z</time>
      </trkpt>
      <trkpt lat="45.99438" lon="6.55995">
        <ele>1878.07</ele>
        <time>2019-01-29T15:04:29Z</time>
      </trkpt>
      <trkpt lat="45.99442" lon="6.55995">
        <ele>1879.03</ele>
        <time>2019-01-29T15:04:34Z</time>
      </trkpt>
      <trkpt lat="45.99457" lon="6.55996">
        <ele>1881.92</ele>
        <time>2019-01-29T15:04:51Z</time>
      </trkpt>
      <trkpt lat="45.99468" lon="6.56002">
        <ele>1885.28</ele>
        <time>2019-01-29T15:05:07Z</time>
      </trkpt>
      <trkpt lat="45.99464" lon="6.5601">
        <ele>1887.21</ele>
        <time>2019-01-29T15:05:17Z</time>
      </trkpt>
      <trkpt lat="45.99464" lon="6.56011">
        <ele>1887.21</ele>
        <time>2019-01-29T15:05:18Z</time>
      </trkpt>
      <trkpt lat="45.99462" lon="6.56013">
        <ele>1888.17</ele>
        <time>2019-01-29T15:05:20Z</time>
      </trkpt>
      <trkpt lat="45.99461" lon="6.56015">
        <ele>1888.17</ele>
        <time>2019-01-29T15:05:22Z</time>
      </trkpt>
      <trkpt lat="45.99461" lon="6.56016">
        <ele>1888.65</ele>
        <time>2019-01-29T15:05:23Z</time>
      </trkpt>
      <trkpt lat="45.99454" lon="6.56028">
        <ele>1891.05</ele>
        <time>2019-01-29T15:05:36Z</time>
      </trkpt>
      <trkpt lat="45.99452" lon="6.56031">
        <ele>1892.01</ele>
        <time>2019-01-29T15:05:39Z</time>
      </trkpt>
      <trkpt lat="45.99452" lon="6.56032">
        <ele>1892.01</ele>
        <time>2019-01-29T15:05:40Z</time>
      </trkpt>
      <trkpt lat="45.99451" lon="6.56033">
        <ele>1892.01</ele>
        <time>2019-01-29T15:05:41Z</time>
      </trkpt>
      <trkpt lat="45.99451" lon="6.56034">
        <ele>1892.01</ele>
        <time>2019-01-29T15:05:42Z</time>
      </trkpt>
      <trkpt lat="45.99448" lon="6.5604">
        <ele>1892.97</ele>
        <time>2019-01-29T15:05:47Z</time>
      </trkpt>
      <trkpt lat="45.99447" lon="6.56041">
        <ele>1893.45</ele>
        <time>2019-01-29T15:05:48Z</time>
      </trkpt>
      <trkpt lat="45.99443" lon="6.5605">
        <ele>1894.9</ele>
        <time>2019-01-29T15:05:56Z</time>
      </trkpt>
      <trkpt lat="45.99442" lon="6.56051">
        <ele>1895.38</ele>
        <time>2019-01-29T15:05:57Z</time>
      </trkpt>
      <trkpt lat="45.9944" lon="6.56059">
        <ele>1895.86</ele>
        <time>2019-01-29T15:06:02Z</time>
      </trkpt>
      <trkpt lat="45.99439" lon="6.56061">
        <ele>1896.82</ele>
        <time>2019-01-29T15:06:04Z</time>
      </trkpt>
      <trkpt lat="45.99437" lon="6.56077">
        <ele>1899.7</ele>
        <time>2019-01-29T15:06:17Z</time>
      </trkpt>
      <trkpt lat="45.99436" lon="6.56084">
        <ele>1901.63</ele>
        <time>2019-01-29T15:06:25Z</time>
      </trkpt>
      <trkpt lat="45.99435" lon="6.56086">
        <ele>1902.59</ele>
        <time>2019-01-29T15:06:27Z</time>
      </trkpt>
      <trkpt lat="45.99435" lon="6.56087">
        <ele>1902.59</ele>
        <time>2019-01-29T15:06:28Z</time>
      </trkpt>
      <trkpt lat="45.99434" lon="6.56094">
        <ele>1904.03</ele>
        <time>2019-01-29T15:06:35Z</time>
      </trkpt>
      <trkpt lat="45.99433" lon="6.56096">
        <ele>1904.51</ele>
        <time>2019-01-29T15:06:36Z</time>
      </trkpt>
      <trkpt lat="45.99429" lon="6.56112">
        <ele>1907.39</ele>
        <time>2019-01-29T15:06:51Z</time>
      </trkpt>
      <trkpt lat="45.99428" lon="6.56116">
        <ele>1907.87</ele>
        <time>2019-01-29T15:06:54Z</time>
      </trkpt>
      <trkpt lat="45.99428" lon="6.56118">
        <ele>1908.35</ele>
        <time>2019-01-29T15:06:56Z</time>
      </trkpt>
      <trkpt lat="45.99428" lon="6.56119">
        <ele>1908.83</ele>
        <time>2019-01-29T15:06:57Z</time>
      </trkpt>
      <trkpt lat="45.99428" lon="6.5612">
        <ele>1908.83</ele>
        <time>2019-01-29T15:06:58Z</time>
      </trkpt>
      <trkpt lat="45.99428" lon="6.56121">
        <ele>1908.83</ele>
        <time>2019-01-29T15:06:59Z</time>
      </trkpt>
      <trkpt lat="45.99426" lon="6.56131">
        <ele>1911.24</ele>
        <time>2019-01-29T15:07:08Z</time>
      </trkpt>
      <trkpt lat="45.99424" lon="6.56138">
        <ele>1912.68</ele>
        <time>2019-01-29T15:07:15Z</time>
      </trkpt>
      <trkpt lat="45.99423" lon="6.5615">
        <ele>1915.08</ele>
        <time>2019-01-29T15:07:26Z</time>
      </trkpt>
      <trkpt lat="45.99422" lon="6.56152">
        <ele>1915.56</ele>
        <time>2019-01-29T15:07:28Z</time>
      </trkpt>
      <trkpt lat="45.9942" lon="6.56162">
        <ele>1917.97</ele>
        <time>2019-01-29T15:07:38Z</time>
      </trkpt>
      <trkpt lat="45.99419" lon="6.56167">
        <ele>1918.93</ele>
        <time>2019-01-29T15:07:42Z</time>
      </trkpt>
      <trkpt lat="45.99418" lon="6.56169">
        <ele>1919.41</ele>
        <time>2019-01-29T15:07:44Z</time>
      </trkpt>
      <trkpt lat="45.99418" lon="6.56173">
        <ele>1920.37</ele>
        <time>2019-01-29T15:07:47Z</time>
      </trkpt>
      <trkpt lat="45.99417" lon="6.56182">
        <ele>1921.81</ele>
        <time>2019-01-29T15:07:54Z</time>
      </trkpt>
      <trkpt lat="45.99416" lon="6.56184">
        <ele>1921.81</ele>
        <time>2019-01-29T15:07:56Z</time>
      </trkpt>
      <trkpt lat="45.99415" lon="6.56196">
        <ele>1924.22</ele>
        <time>2019-01-29T15:08:06Z</time>
      </trkpt>
      <trkpt lat="45.99415" lon="6.56197">
        <ele>1924.22</ele>
        <time>2019-01-29T15:08:07Z</time>
      </trkpt>
      <trkpt lat="45.99415" lon="6.56199">
        <ele>1924.7</ele>
        <time>2019-01-29T15:08:08Z</time>
      </trkpt>
      <trkpt lat="45.99414" lon="6.562">
        <ele>1924.7</ele>
        <time>2019-01-29T15:08:09Z</time>
      </trkpt>
      <trkpt lat="45.99413" lon="6.56212">
        <ele>1926.62</ele>
        <time>2019-01-29T15:08:20Z</time>
      </trkpt>
      <trkpt lat="45.99411" lon="6.56224">
        <ele>1928.54</ele>
        <time>2019-01-29T15:08:30Z</time>
      </trkpt>
      <trkpt lat="45.99411" lon="6.56227">
        <ele>1929.5</ele>
        <time>2019-01-29T15:08:33Z</time>
      </trkpt>
      <trkpt lat="45.99407" lon="6.56248">
        <ele>1932.39</ele>
        <time>2019-01-29T15:08:50Z</time>
      </trkpt>
      <trkpt lat="45.99406" lon="6.56251">
        <ele>1932.39</ele>
        <time>2019-01-29T15:08:52Z</time>
      </trkpt>
      <trkpt lat="45.99406" lon="6.56252">
        <ele>1932.87</ele>
        <time>2019-01-29T15:08:53Z</time>
      </trkpt>
      <trkpt lat="45.99406" lon="6.56255">
        <ele>1933.35</ele>
        <time>2019-01-29T15:08:55Z</time>
      </trkpt>
      <trkpt lat="45.99405" lon="6.56257">
        <ele>1933.35</ele>
        <time>2019-01-29T15:08:57Z</time>
      </trkpt>
      <trkpt lat="45.99405" lon="6.56259">
        <ele>1933.83</ele>
        <time>2019-01-29T15:08:58Z</time>
      </trkpt>
      <trkpt lat="45.99404" lon="6.56277">
        <ele>1936.71</ele>
        <time>2019-01-29T15:09:12Z</time>
      </trkpt>
      <trkpt lat="45.99404" lon="6.56278">
        <ele>1937.19</ele>
        <time>2019-01-29T15:09:13Z</time>
      </trkpt>
      <trkpt lat="45.99404" lon="6.5628">
        <ele>1937.19</ele>
        <time>2019-01-29T15:09:14Z</time>
      </trkpt>
      <trkpt lat="45.99403" lon="6.56284">
        <ele>1938.16</ele>
        <time>2019-01-29T15:09:18Z</time>
      </trkpt>
      <trkpt lat="45.99403" lon="6.56285">
        <ele>1938.16</ele>
        <time>2019-01-29T15:09:19Z</time>
      </trkpt>
      <trkpt lat="45.99401" lon="6.56307">
        <ele>1941.52</ele>
        <time>2019-01-29T15:09:36Z</time>
      </trkpt>
      <trkpt lat="45.99401" lon="6.56312">
        <ele>1942</ele>
        <time>2019-01-29T15:09:40Z</time>
      </trkpt>
      <trkpt lat="45.99401" lon="6.56314">
        <ele>1942.96</ele>
        <time>2019-01-29T15:09:42Z</time>
      </trkpt>
      <trkpt lat="45.99401" lon="6.56316">
        <ele>1942.96</ele>
        <time>2019-01-29T15:09:43Z</time>
      </trkpt>
      <trkpt lat="45.99402" lon="6.56325">
        <ele>1944.4</ele>
        <time>2019-01-29T15:09:50Z</time>
      </trkpt>
      <trkpt lat="45.99401" lon="6.56328">
        <ele>1945.36</ele>
        <time>2019-01-29T15:09:53Z</time>
      </trkpt>
      <trkpt lat="45.99399" lon="6.56344">
        <ele>1948.25</ele>
        <time>2019-01-29T15:10:07Z</time>
      </trkpt>
      <trkpt lat="45.99395" lon="6.56357">
        <ele>1950.17</ele>
        <time>2019-01-29T15:10:18Z</time>
      </trkpt>
      <trkpt lat="45.99394" lon="6.56363">
        <ele>1950.65</ele>
        <time>2019-01-29T15:10:23Z</time>
      </trkpt>
      <trkpt lat="45.99393" lon="6.56367">
        <ele>1952.09</ele>
        <time>2019-01-29T15:10:27Z</time>
      </trkpt>
      <trkpt lat="45.99389" lon="6.56383">
        <ele>1954.5</ele>
        <time>2019-01-29T15:10:40Z</time>
      </trkpt>
      <trkpt lat="45.99388" lon="6.56384">
        <ele>1954.98</ele>
        <time>2019-01-29T15:10:41Z</time>
      </trkpt>
      <trkpt lat="45.99388" lon="6.56386">
        <ele>1954.98</ele>
        <time>2019-01-29T15:10:43Z</time>
      </trkpt>
      <trkpt lat="45.99387" lon="6.56388">
        <ele>1955.46</ele>
        <time>2019-01-29T15:10:45Z</time>
      </trkpt>
      <trkpt lat="45.99384" lon="6.56405">
        <ele>1958.82</ele>
        <time>2019-01-29T15:11:00Z</time>
      </trkpt>
      <trkpt lat="45.99382" lon="6.56424">
        <ele>1961.71</ele>
        <time>2019-01-29T15:11:39Z</time>
      </trkpt>
      <trkpt lat="45.99381" lon="6.56426">
        <ele>1962.19</ele>
        <time>2019-01-29T15:11:41Z</time>
      </trkpt>
      <trkpt lat="45.99381" lon="6.56428">
        <ele>1962.19</ele>
        <time>2019-01-29T15:11:42Z</time>
      </trkpt>
      <trkpt lat="45.9938" lon="6.56439">
        <ele>1964.11</ele>
        <time>2019-01-29T15:11:51Z</time>
      </trkpt>
      <trkpt lat="45.99378" lon="6.56447">
        <ele>1965.55</ele>
        <time>2019-01-29T15:11:58Z</time>
      </trkpt>
      <trkpt lat="45.99378" lon="6.56451">
        <ele>1966.51</ele>
        <time>2019-01-29T15:12:02Z</time>
      </trkpt>
      <trkpt lat="45.99377" lon="6.56456">
        <ele>1967.48</ele>
        <time>2019-01-29T15:12:07Z</time>
      </trkpt>
      <trkpt lat="45.99377" lon="6.56465">
        <ele>1968.92</ele>
        <time>2019-01-29T15:12:15Z</time>
      </trkpt>
      <trkpt lat="45.99377" lon="6.56466">
        <ele>1969.4</ele>
        <time>2019-01-29T15:12:16Z</time>
      </trkpt>
      <trkpt lat="45.99373" lon="6.56491">
        <ele>1972.28</ele>
        <time>2019-01-29T15:12:36Z</time>
      </trkpt>
      <trkpt lat="45.99373" lon="6.56492">
        <ele>1972.76</ele>
        <time>2019-01-29T15:12:37Z</time>
      </trkpt>
      <trkpt lat="45.99373" lon="6.56494">
        <ele>1972.76</ele>
        <time>2019-01-29T15:12:38Z</time>
      </trkpt>
      <trkpt lat="45.99371" lon="6.56508">
        <ele>1975.17</ele>
        <time>2019-01-29T15:12:50Z</time>
      </trkpt>
      <trkpt lat="45.9937" lon="6.56511">
        <ele>1975.65</ele>
        <time>2019-01-29T15:12:53Z</time>
      </trkpt>
      <trkpt lat="45.99369" lon="6.56517">
        <ele>1977.09</ele>
        <time>2019-01-29T15:12:59Z</time>
      </trkpt>
      <trkpt lat="45.99367" lon="6.56525">
        <ele>1979.01</ele>
        <time>2019-01-29T15:13:06Z</time>
      </trkpt>
      <trkpt lat="45.99365" lon="6.56531">
        <ele>1979.97</ele>
        <time>2019-01-29T15:13:11Z</time>
      </trkpt>
      <trkpt lat="45.99365" lon="6.56533">
        <ele>1979.97</ele>
        <time>2019-01-29T15:13:13Z</time>
      </trkpt>
      <trkpt lat="45.99364" lon="6.56539">
        <ele>1980.93</ele>
        <time>2019-01-29T15:13:18Z</time>
      </trkpt>
      <trkpt lat="45.99363" lon="6.56541">
        <ele>1980.93</ele>
        <time>2019-01-29T15:13:19Z</time>
      </trkpt>
      <trkpt lat="45.99361" lon="6.56547">
        <ele>1981.41</ele>
        <time>2019-01-29T15:13:24Z</time>
      </trkpt>
      <trkpt lat="45.99361" lon="6.56549">
        <ele>1981.41</ele>
        <time>2019-01-29T15:13:25Z</time>
      </trkpt>
      <trkpt lat="45.99361" lon="6.5655">
        <ele>1981.41</ele>
        <time>2019-01-29T15:13:26Z</time>
      </trkpt>
      <trkpt lat="45.9936" lon="6.56552">
        <ele>1981.9</ele>
        <time>2019-01-29T15:13:28Z</time>
      </trkpt>
      <trkpt lat="45.99357" lon="6.56565">
        <ele>1984.78</ele>
        <time>2019-01-29T15:13:40Z</time>
      </trkpt>
      <trkpt lat="45.99356" lon="6.56567">
        <ele>1984.78</ele>
        <time>2019-01-29T15:13:42Z</time>
      </trkpt>
      <trkpt lat="45.99356" lon="6.56568">
        <ele>1985.26</ele>
        <time>2019-01-29T15:13:43Z</time>
      </trkpt>
      <trkpt lat="45.9935" lon="6.56584">
        <ele>1988.14</ele>
        <time>2019-01-29T15:13:58Z</time>
      </trkpt>
      <trkpt lat="45.99347" lon="6.56599">
        <ele>1991.03</ele>
        <time>2019-01-29T15:14:12Z</time>
      </trkpt>
      <trkpt lat="45.99346" lon="6.56605">
        <ele>1991.99</ele>
        <time>2019-01-29T15:14:17Z</time>
      </trkpt>
      <trkpt lat="45.99346" lon="6.56607">
        <ele>1992.95</ele>
        <time>2019-01-29T15:14:19Z</time>
      </trkpt>
      <trkpt lat="45.99342" lon="6.56625">
        <ele>1995.35</ele>
        <time>2019-01-29T15:14:34Z</time>
      </trkpt>
      <trkpt lat="45.99345" lon="6.56636">
        <ele>1997.76</ele>
        <time>2019-01-29T15:14:47Z</time>
      </trkpt>
      <trkpt lat="45.99344" lon="6.56642">
        <ele>1999.2</ele>
        <time>2019-01-29T15:14:54Z</time>
      </trkpt>
      <trkpt lat="45.99343" lon="6.56644">
        <ele>2000.16</ele>
        <time>2019-01-29T15:14:56Z</time>
      </trkpt>
      <trkpt lat="45.99341" lon="6.56648">
        <ele>2000.64</ele>
        <time>2019-01-29T15:15:00Z</time>
      </trkpt>
      <trkpt lat="45.99341" lon="6.56649">
        <ele>2001.12</ele>
        <time>2019-01-29T15:15:01Z</time>
      </trkpt>
      <trkpt lat="45.99336" lon="6.56663">
        <ele>2004.01</ele>
        <time>2019-01-29T15:15:16Z</time>
      </trkpt>
      <trkpt lat="45.99329" lon="6.56677">
        <ele>2006.89</ele>
        <time>2019-01-29T15:15:32Z</time>
      </trkpt>
      <trkpt lat="45.99329" lon="6.56681">
        <ele>2007.85</ele>
        <time>2019-01-29T15:15:35Z</time>
      </trkpt>
      <trkpt lat="45.99328" lon="6.56684">
        <ele>2008.33</ele>
        <time>2019-01-29T15:15:38Z</time>
      </trkpt>
      <trkpt lat="45.99324" lon="6.56698">
        <ele>2011.7</ele>
        <time>2019-01-29T15:15:52Z</time>
      </trkpt>
      <trkpt lat="45.99322" lon="6.56706">
        <ele>2013.62</ele>
        <time>2019-01-29T15:16:00Z</time>
      </trkpt>
      <trkpt lat="45.99319" lon="6.56717">
        <ele>2016.5</ele>
        <time>2019-01-29T15:16:13Z</time>
      </trkpt>
      <trkpt lat="45.99315" lon="6.56729">
        <ele>2019.39</ele>
        <time>2019-01-29T15:16:26Z</time>
      </trkpt>
      <trkpt lat="45.99311" lon="6.5674">
        <ele>2022.75</ele>
        <time>2019-01-29T15:16:40Z</time>
      </trkpt>
      <trkpt lat="45.99309" lon="6.56745">
        <ele>2024.19</ele>
        <time>2019-01-29T15:16:45Z</time>
      </trkpt>
      <trkpt lat="45.99304" lon="6.56757">
        <ele>2027.08</ele>
        <time>2019-01-29T15:16:59Z</time>
      </trkpt>
      <trkpt lat="45.99307" lon="6.56764">
        <ele>2029.48</ele>
        <time>2019-01-29T15:17:11Z</time>
      </trkpt>
      <trkpt lat="45.99315" lon="6.56769">
        <ele>2032.84</ele>
        <time>2019-01-29T15:17:25Z</time>
      </trkpt>
      <trkpt lat="45.99326" lon="6.56771">
        <ele>2035.73</ele>
        <time>2019-01-29T15:17:40Z</time>
      </trkpt>
      <trkpt lat="45.99327" lon="6.56772">
        <ele>2036.21</ele>
        <time>2019-01-29T15:17:42Z</time>
      </trkpt>
      <trkpt lat="45.99336" lon="6.56774">
        <ele>2039.09</ele>
        <time>2019-01-29T15:17:55Z</time>
      </trkpt>
      <trkpt lat="45.99344" lon="6.56777">
        <ele>2041.98</ele>
        <time>2019-01-29T15:18:09Z</time>
      </trkpt>
      <trkpt lat="45.99349" lon="6.56778">
        <ele>2043.9</ele>
        <time>2019-01-29T15:18:15Z</time>
      </trkpt>
      <trkpt lat="45.99359" lon="6.56777">
        <ele>2047.26</ele>
        <time>2019-01-29T15:18:29Z</time>
      </trkpt>
      <trkpt lat="45.9936" lon="6.56785">
        <ele>2050.15</ele>
        <time>2019-01-29T15:18:44Z</time>
      </trkpt>
      <trkpt lat="45.99358" lon="6.56796">
        <ele>2053.03</ele>
        <time>2019-01-29T15:18:56Z</time>
      </trkpt>
      <trkpt lat="45.99355" lon="6.56807">
        <ele>2056.4</ele>
        <time>2019-01-29T15:19:09Z</time>
      </trkpt>
      <trkpt lat="45.99354" lon="6.56817">
        <ele>2059.28</ele>
        <time>2019-01-29T15:19:20Z</time>
      </trkpt>
      <trkpt lat="45.99353" lon="6.56827">
        <ele>2062.65</ele>
        <time>2019-01-29T15:19:32Z</time>
      </trkpt>
      <trkpt lat="45.99353" lon="6.56835">
        <ele>2065.53</ele>
        <time>2019-01-29T15:19:43Z</time>
      </trkpt>
      <trkpt lat="45.99358" lon="6.56845">
        <ele>2068.41</ele>
        <time>2019-01-29T15:19:58Z</time>
      </trkpt>
      <trkpt lat="45.99361" lon="6.56854">
        <ele>2070.82</ele>
        <time>2019-01-29T15:20:07Z</time>
      </trkpt>
      <trkpt lat="45.99365" lon="6.56864">
        <ele>2072.74</ele>
        <time>2019-01-29T15:20:18Z</time>
      </trkpt>
      <trkpt lat="45.99365" lon="6.56866">
        <ele>2072.74</ele>
        <time>2019-01-29T15:20:20Z</time>
      </trkpt>
      <trkpt lat="45.99372" lon="6.56884">
        <ele>2075.62</ele>
        <time>2019-01-29T15:20:38Z</time>
      </trkpt>
      <trkpt lat="45.99373" lon="6.56885">
        <ele>2075.62</ele>
        <time>2019-01-29T15:20:39Z</time>
      </trkpt>
      <trkpt lat="45.99378" lon="6.56891">
        <ele>2076.59</ele>
        <time>2019-01-29T15:20:47Z</time>
      </trkpt>
      <trkpt lat="45.99379" lon="6.56891">
        <ele>2076.59</ele>
        <time>2019-01-29T15:20:48Z</time>
      </trkpt>
      <trkpt lat="45.9938" lon="6.5689">
        <ele>2076.1</ele>
        <time>2019-01-29T15:20:49Z</time>
      </trkpt>
      <trkpt lat="45.99389" lon="6.56879">
        <ele>2076.1</ele>
        <time>2019-01-29T15:20:59Z</time>
      </trkpt>
      <trkpt lat="45.9939" lon="6.56878">
        <ele>2076.59</ele>
        <time>2019-01-29T15:21:00Z</time>
      </trkpt>
      <trkpt lat="45.99391" lon="6.56876">
        <ele>2076.59</ele>
        <time>2019-01-29T15:21:02Z</time>
      </trkpt>
      <trkpt lat="45.99393" lon="6.56874">
        <ele>2077.55</ele>
        <time>2019-01-29T15:21:05Z</time>
      </trkpt>
      <trkpt lat="45.99393" lon="6.56873">
        <ele>2077.55</ele>
        <time>2019-01-29T15:21:06Z</time>
      </trkpt>
      <trkpt lat="45.99394" lon="6.56872">
        <ele>2077.55</ele>
        <time>2019-01-29T15:21:07Z</time>
      </trkpt>
      <trkpt lat="45.99394" lon="6.56871">
        <ele>2078.03</ele>
        <time>2019-01-29T15:21:08Z</time>
      </trkpt>
      <trkpt lat="45.99395" lon="6.5687">
        <ele>2078.03</ele>
        <time>2019-01-29T15:21:09Z</time>
      </trkpt>
      <trkpt lat="45.99406" lon="6.56857">
        <ele>2081.39</ele>
        <time>2019-01-29T15:21:28Z</time>
      </trkpt>
      <trkpt lat="45.99407" lon="6.56856">
        <ele>2081.87</ele>
        <time>2019-01-29T15:21:29Z</time>
      </trkpt>
      <trkpt lat="45.99408" lon="6.56855">
        <ele>2082.35</ele>
        <time>2019-01-29T15:21:30Z</time>
      </trkpt>
      <trkpt lat="45.99408" lon="6.56854">
        <ele>2082.35</ele>
        <time>2019-01-29T15:21:31Z</time>
      </trkpt>
      <trkpt lat="45.99412" lon="6.56849">
        <ele>2082.35</ele>
        <time>2019-01-29T15:21:37Z</time>
      </trkpt>
      <trkpt lat="45.99413" lon="6.56848">
        <ele>2082.35</ele>
        <time>2019-01-29T15:21:38Z</time>
      </trkpt>
      <trkpt lat="45.99436" lon="6.56817">
        <ele>2081.39</ele>
        <time>2019-01-29T15:22:00Z</time>
      </trkpt>
      <trkpt lat="45.99436" lon="6.56816">
        <ele>2081.39</ele>
        <time>2019-01-29T15:22:01Z</time>
      </trkpt>
      <trkpt lat="45.99463" lon="6.56783">
        <ele>2082.83</ele>
        <time>2019-01-29T15:22:30Z</time>
      </trkpt>
      <trkpt lat="45.99497" lon="6.56738">
        <ele>2081.39</ele>
        <time>2019-01-29T15:22:58Z</time>
      </trkpt>
      <trkpt lat="45.99519" lon="6.56719">
        <ele>2083.79</ele>
        <time>2019-01-29T15:23:19Z</time>
      </trkpt>
      <trkpt lat="45.99536" lon="6.56697">
        <ele>2086.2</ele>
        <time>2019-01-29T15:23:39Z</time>
      </trkpt>
      <trkpt lat="45.99537" lon="6.56696">
        <ele>2086.2</ele>
        <time>2019-01-29T15:23:40Z</time>
      </trkpt>
      <trkpt lat="45.99538" lon="6.56695">
        <ele>2086.2</ele>
        <time>2019-01-29T15:23:41Z</time>
      </trkpt>
      <trkpt lat="45.99539" lon="6.56694">
        <ele>2086.68</ele>
        <time>2019-01-29T15:23:42Z</time>
      </trkpt>
      <trkpt lat="45.9954" lon="6.56693">
        <ele>2086.68</ele>
        <time>2019-01-29T15:23:43Z</time>
      </trkpt>
      <trkpt lat="45.99541" lon="6.56692">
        <ele>2087.16</ele>
        <time>2019-01-29T15:23:44Z</time>
      </trkpt>
      <trkpt lat="45.99542" lon="6.56692">
        <ele>2087.16</ele>
        <time>2019-01-29T15:23:45Z</time>
      </trkpt>
      <trkpt lat="45.99565" lon="6.56664">
        <ele>2090.04</ele>
        <time>2019-01-29T15:24:12Z</time>
      </trkpt>
      <trkpt lat="45.99577" lon="6.5665">
        <ele>2091.97</ele>
        <time>2019-01-29T15:24:26Z</time>
      </trkpt>
      <trkpt lat="45.99578" lon="6.56649">
        <ele>2091.97</ele>
        <time>2019-01-29T15:24:27Z</time>
      </trkpt>
      <trkpt lat="45.99579" lon="6.56648">
        <ele>2092.45</ele>
        <time>2019-01-29T15:24:28Z</time>
      </trkpt>
      <trkpt lat="45.99608" lon="6.56625">
        <ele>2095.81</ele>
        <time>2019-01-29T15:24:58Z</time>
      </trkpt>
      <trkpt lat="45.99626" lon="6.56613">
        <ele>2098.21</ele>
        <time>2019-01-29T15:25:18Z</time>
      </trkpt>
      <trkpt lat="45.99628" lon="6.56613">
        <ele>2098.7</ele>
        <time>2019-01-29T15:25:20Z</time>
      </trkpt>
      <trkpt lat="45.99636" lon="6.56617">
        <ele>2100.14</ele>
        <time>2019-01-29T15:26:20Z</time>
      </trkpt>
      <trkpt lat="45.99636" lon="6.56619">
        <ele>2100.14</ele>
        <time>2019-01-29T15:26:56Z</time>
      </trkpt>
      <trkpt lat="45.99635" lon="6.56618">
        <ele>2100.14</ele>
        <time>2019-01-29T15:27:34Z</time>
      </trkpt>
      <trkpt lat="45.99636" lon="6.56617">
        <ele>2100.14</ele>
        <time>2019-01-29T15:28:36Z</time>
      </trkpt>
      <trkpt lat="45.99636" lon="6.56618">
        <ele>2099.66</ele>
        <time>2019-01-29T15:29:27Z</time>
      </trkpt>
      <trkpt lat="45.99642" lon="6.56619">
        <ele>2099.18</ele>
        <time>2019-01-29T15:29:53Z</time>
      </trkpt>
      <trkpt lat="45.99643" lon="6.56619">
        <ele>2098.7</ele>
        <time>2019-01-29T15:29:54Z</time>
      </trkpt>
      <trkpt lat="45.99645" lon="6.56619">
        <ele>2098.21</ele>
        <time>2019-01-29T15:29:55Z</time>
      </trkpt>
      <trkpt lat="45.99647" lon="6.5662">
        <ele>2096.77</ele>
        <time>2019-01-29T15:29:56Z</time>
      </trkpt>
      <trkpt lat="45.99648" lon="6.56621">
        <ele>2095.81</ele>
        <time>2019-01-29T15:29:57Z</time>
      </trkpt>
      <trkpt lat="45.99649" lon="6.56621">
        <ele>2095.33</ele>
        <time>2019-01-29T15:29:58Z</time>
      </trkpt>
      <trkpt lat="45.9965" lon="6.56621">
        <ele>2094.37</ele>
        <time>2019-01-29T15:29:59Z</time>
      </trkpt>
      <trkpt lat="45.99652" lon="6.56621">
        <ele>2092.93</ele>
        <time>2019-01-29T15:30:02Z</time>
      </trkpt>
      <trkpt lat="45.99654" lon="6.56622">
        <ele>2091.97</ele>
        <time>2019-01-29T15:30:03Z</time>
      </trkpt>
      <trkpt lat="45.99655" lon="6.56623">
        <ele>2091</ele>
        <time>2019-01-29T15:30:04Z</time>
      </trkpt>
      <trkpt lat="45.99662" lon="6.56627">
        <ele>2088.12</ele>
        <time>2019-01-29T15:30:08Z</time>
      </trkpt>
      <trkpt lat="45.99663" lon="6.56627">
        <ele>2087.64</ele>
        <time>2019-01-29T15:30:09Z</time>
      </trkpt>
      <trkpt lat="45.99665" lon="6.56627">
        <ele>2086.68</ele>
        <time>2019-01-29T15:30:10Z</time>
      </trkpt>
      <trkpt lat="45.99673" lon="6.56631">
        <ele>2083.79</ele>
        <time>2019-01-29T15:30:14Z</time>
      </trkpt>
      <trkpt lat="45.99681" lon="6.56633">
        <ele>2081.39</ele>
        <time>2019-01-29T15:30:19Z</time>
      </trkpt>
      <trkpt lat="45.99682" lon="6.56634">
        <ele>2081.39</ele>
        <time>2019-01-29T15:30:20Z</time>
      </trkpt>
      <trkpt lat="45.99683" lon="6.56634">
        <ele>2080.91</ele>
        <time>2019-01-29T15:30:21Z</time>
      </trkpt>
      <trkpt lat="45.99685" lon="6.56635">
        <ele>2080.43</ele>
        <time>2019-01-29T15:30:22Z</time>
      </trkpt>
      <trkpt lat="45.99687" lon="6.56636">
        <ele>2079.47</ele>
        <time>2019-01-29T15:30:23Z</time>
      </trkpt>
      <trkpt lat="45.99693" lon="6.56639">
        <ele>2076.59</ele>
        <time>2019-01-29T15:30:27Z</time>
      </trkpt>
      <trkpt lat="45.99701" lon="6.56642">
        <ele>2072.74</ele>
        <time>2019-01-29T15:30:32Z</time>
      </trkpt>
      <trkpt lat="45.99708" lon="6.56645">
        <ele>2069.86</ele>
        <time>2019-01-29T15:30:37Z</time>
      </trkpt>
      <trkpt lat="45.99709" lon="6.56645">
        <ele>2068.89</ele>
        <time>2019-01-29T15:30:38Z</time>
      </trkpt>
      <trkpt lat="45.99711" lon="6.56646">
        <ele>2068.41</ele>
        <time>2019-01-29T15:30:39Z</time>
      </trkpt>
      <trkpt lat="45.99713" lon="6.56648">
        <ele>2065.53</ele>
        <time>2019-01-29T15:30:43Z</time>
      </trkpt>
      <trkpt lat="45.99725" lon="6.56653">
        <ele>2062.17</ele>
        <time>2019-01-29T15:30:53Z</time>
      </trkpt>
      <trkpt lat="45.99734" lon="6.56656">
        <ele>2058.8</ele>
        <time>2019-01-29T15:30:56Z</time>
      </trkpt>
      <trkpt lat="45.99734" lon="6.56655">
        <ele>2057.84</ele>
        <time>2019-01-29T15:30:58Z</time>
      </trkpt>
      <trkpt lat="45.99736" lon="6.56654">
        <ele>2057.36</ele>
        <time>2019-01-29T15:31:00Z</time>
      </trkpt>
      <trkpt lat="45.99738" lon="6.56654">
        <ele>2056.88</ele>
        <time>2019-01-29T15:31:01Z</time>
      </trkpt>
      <trkpt lat="45.99753" lon="6.56659">
        <ele>2053.51</ele>
        <time>2019-01-29T15:31:12Z</time>
      </trkpt>
      <trkpt lat="45.99762" lon="6.56663">
        <ele>2049.67</ele>
        <time>2019-01-29T15:31:18Z</time>
      </trkpt>
      <trkpt lat="45.99764" lon="6.56664">
        <ele>2049.19</ele>
        <time>2019-01-29T15:31:19Z</time>
      </trkpt>
      <trkpt lat="45.99766" lon="6.56665">
        <ele>2048.23</ele>
        <time>2019-01-29T15:31:20Z</time>
      </trkpt>
      <trkpt lat="45.99767" lon="6.56666">
        <ele>2047.26</ele>
        <time>2019-01-29T15:31:21Z</time>
      </trkpt>
      <trkpt lat="45.99768" lon="6.56667">
        <ele>2046.78</ele>
        <time>2019-01-29T15:31:22Z</time>
      </trkpt>
      <trkpt lat="45.99769" lon="6.56667">
        <ele>2045.82</ele>
        <time>2019-01-29T15:31:23Z</time>
      </trkpt>
      <trkpt lat="45.99769" lon="6.56669">
        <ele>2045.34</ele>
        <time>2019-01-29T15:31:24Z</time>
      </trkpt>
      <trkpt lat="45.9977" lon="6.5667">
        <ele>2044.38</ele>
        <time>2019-01-29T15:31:27Z</time>
      </trkpt>
      <trkpt lat="45.9977" lon="6.56671">
        <ele>2043.9</ele>
        <time>2019-01-29T15:31:30Z</time>
      </trkpt>
      <trkpt lat="45.99772" lon="6.56673">
        <ele>2043.42</ele>
        <time>2019-01-29T15:31:31Z</time>
      </trkpt>
      <trkpt lat="45.99774" lon="6.56675">
        <ele>2042.46</ele>
        <time>2019-01-29T15:31:32Z</time>
      </trkpt>
      <trkpt lat="45.99776" lon="6.56678">
        <ele>2041.5</ele>
        <time>2019-01-29T15:31:33Z</time>
      </trkpt>
      <trkpt lat="45.99777" lon="6.56681">
        <ele>2040.05</ele>
        <time>2019-01-29T15:31:34Z</time>
      </trkpt>
      <trkpt lat="45.99779" lon="6.56682">
        <ele>2038.13</ele>
        <time>2019-01-29T15:31:35Z</time>
      </trkpt>
      <trkpt lat="45.99781" lon="6.56683">
        <ele>2035.25</ele>
        <time>2019-01-29T15:31:39Z</time>
      </trkpt>
      <trkpt lat="45.99782" lon="6.56684">
        <ele>2034.77</ele>
        <time>2019-01-29T15:31:40Z</time>
      </trkpt>
      <trkpt lat="45.99791" lon="6.56691">
        <ele>2031.4</ele>
        <time>2019-01-29T15:31:47Z</time>
      </trkpt>
      <trkpt lat="45.99793" lon="6.56693">
        <ele>2030.92</ele>
        <time>2019-01-29T15:31:48Z</time>
      </trkpt>
      <trkpt lat="45.99796" lon="6.56695">
        <ele>2029.96</ele>
        <time>2019-01-29T15:31:49Z</time>
      </trkpt>
      <trkpt lat="45.99799" lon="6.56697">
        <ele>2029</ele>
        <time>2019-01-29T15:31:50Z</time>
      </trkpt>
      <trkpt lat="45.99802" lon="6.56699">
        <ele>2028.04</ele>
        <time>2019-01-29T15:31:51Z</time>
      </trkpt>
      <trkpt lat="45.99804" lon="6.56701">
        <ele>2027.56</ele>
        <time>2019-01-29T15:31:52Z</time>
      </trkpt>
      <trkpt lat="45.99806" lon="6.56703">
        <ele>2026.6</ele>
        <time>2019-01-29T15:31:53Z</time>
      </trkpt>
      <trkpt lat="45.9981" lon="6.56706">
        <ele>2024.67</ele>
        <time>2019-01-29T15:31:55Z</time>
      </trkpt>
      <trkpt lat="45.99813" lon="6.56707">
        <ele>2024.19</ele>
        <time>2019-01-29T15:31:56Z</time>
      </trkpt>
      <trkpt lat="45.99816" lon="6.5671">
        <ele>2023.23</ele>
        <time>2019-01-29T15:31:57Z</time>
      </trkpt>
      <trkpt lat="45.99828" lon="6.56718">
        <ele>2019.39</ele>
        <time>2019-01-29T15:32:01Z</time>
      </trkpt>
      <trkpt lat="45.9983" lon="6.56719">
        <ele>2018.43</ele>
        <time>2019-01-29T15:32:02Z</time>
      </trkpt>
      <trkpt lat="45.99833" lon="6.5672">
        <ele>2017.94</ele>
        <time>2019-01-29T15:32:03Z</time>
      </trkpt>
      <trkpt lat="45.99837" lon="6.56721">
        <ele>2016.98</ele>
        <time>2019-01-29T15:32:04Z</time>
      </trkpt>
      <trkpt lat="45.99841" lon="6.56722">
        <ele>2016.02</ele>
        <time>2019-01-29T15:32:05Z</time>
      </trkpt>
      <trkpt lat="45.99844" lon="6.56723">
        <ele>2014.58</ele>
        <time>2019-01-29T15:32:06Z</time>
      </trkpt>
      <trkpt lat="45.99848" lon="6.56724">
        <ele>2013.14</ele>
        <time>2019-01-29T15:32:07Z</time>
      </trkpt>
      <trkpt lat="45.99851" lon="6.56726">
        <ele>2011.7</ele>
        <time>2019-01-29T15:32:08Z</time>
      </trkpt>
      <trkpt lat="45.99855" lon="6.56727">
        <ele>2010.73</ele>
        <time>2019-01-29T15:32:09Z</time>
      </trkpt>
      <trkpt lat="45.99859" lon="6.56728">
        <ele>2009.77</ele>
        <time>2019-01-29T15:32:10Z</time>
      </trkpt>
      <trkpt lat="45.99862" lon="6.5673">
        <ele>2009.29</ele>
        <time>2019-01-29T15:32:11Z</time>
      </trkpt>
      <trkpt lat="45.99873" lon="6.56736">
        <ele>2006.41</ele>
        <time>2019-01-29T15:32:14Z</time>
      </trkpt>
      <trkpt lat="45.99875" lon="6.56738">
        <ele>2005.93</ele>
        <time>2019-01-29T15:32:15Z</time>
      </trkpt>
      <trkpt lat="45.99878" lon="6.5674">
        <ele>2004.97</ele>
        <time>2019-01-29T15:32:16Z</time>
      </trkpt>
      <trkpt lat="45.9988" lon="6.56742">
        <ele>2004.49</ele>
        <time>2019-01-29T15:32:17Z</time>
      </trkpt>
      <trkpt lat="45.99881" lon="6.56745">
        <ele>2004.01</ele>
        <time>2019-01-29T15:32:18Z</time>
      </trkpt>
      <trkpt lat="45.9988" lon="6.56749">
        <ele>2002.56</ele>
        <time>2019-01-29T15:32:25Z</time>
      </trkpt>
      <trkpt lat="45.9988" lon="6.56753">
        <ele>2002.08</ele>
        <time>2019-01-29T15:32:29Z</time>
      </trkpt>
      <trkpt lat="45.99879" lon="6.56756">
        <ele>2002.08</ele>
        <time>2019-01-29T15:32:30Z</time>
      </trkpt>
      <trkpt lat="45.99878" lon="6.5676">
        <ele>2001.6</ele>
        <time>2019-01-29T15:32:31Z</time>
      </trkpt>
      <trkpt lat="45.99878" lon="6.56763">
        <ele>2001.12</ele>
        <time>2019-01-29T15:32:32Z</time>
      </trkpt>
      <trkpt lat="45.99878" lon="6.56767">
        <ele>2000.16</ele>
        <time>2019-01-29T15:32:33Z</time>
      </trkpt>
      <trkpt lat="45.99879" lon="6.5677">
        <ele>1999.2</ele>
        <time>2019-01-29T15:32:34Z</time>
      </trkpt>
      <trkpt lat="45.99878" lon="6.56773">
        <ele>1998.24</ele>
        <time>2019-01-29T15:32:35Z</time>
      </trkpt>
      <trkpt lat="45.99877" lon="6.56775">
        <ele>1997.76</ele>
        <time>2019-01-29T15:32:36Z</time>
      </trkpt>
      <trkpt lat="45.99874" lon="6.56781">
        <ele>1995.83</ele>
        <time>2019-01-29T15:32:42Z</time>
      </trkpt>
      <trkpt lat="45.99875" lon="6.56783">
        <ele>1995.35</ele>
        <time>2019-01-29T15:32:43Z</time>
      </trkpt>
      <trkpt lat="45.99875" lon="6.56787">
        <ele>1994.39</ele>
        <time>2019-01-29T15:32:44Z</time>
      </trkpt>
      <trkpt lat="45.99876" lon="6.56791">
        <ele>1993.91</ele>
        <time>2019-01-29T15:32:45Z</time>
      </trkpt>
      <trkpt lat="45.99877" lon="6.56795">
        <ele>1993.43</ele>
        <time>2019-01-29T15:32:46Z</time>
      </trkpt>
      <trkpt lat="45.99878" lon="6.568">
        <ele>1992.47</ele>
        <time>2019-01-29T15:32:47Z</time>
      </trkpt>
      <trkpt lat="45.99879" lon="6.56805">
        <ele>1991.51</ele>
        <time>2019-01-29T15:32:48Z</time>
      </trkpt>
      <trkpt lat="45.99879" lon="6.5681">
        <ele>1991.03</ele>
        <time>2019-01-29T15:32:49Z</time>
      </trkpt>
      <trkpt lat="45.9988" lon="6.56816">
        <ele>1989.59</ele>
        <time>2019-01-29T15:32:50Z</time>
      </trkpt>
      <trkpt lat="45.99881" lon="6.56821">
        <ele>1989.1</ele>
        <time>2019-01-29T15:32:51Z</time>
      </trkpt>
      <trkpt lat="45.99883" lon="6.56827">
        <ele>1988.14</ele>
        <time>2019-01-29T15:32:52Z</time>
      </trkpt>
      <trkpt lat="45.99886" lon="6.56832">
        <ele>1987.66</ele>
        <time>2019-01-29T15:32:53Z</time>
      </trkpt>
      <trkpt lat="45.99889" lon="6.56836">
        <ele>1987.18</ele>
        <time>2019-01-29T15:32:54Z</time>
      </trkpt>
      <trkpt lat="45.99892" lon="6.5684">
        <ele>1986.22</ele>
        <time>2019-01-29T15:32:55Z</time>
      </trkpt>
      <trkpt lat="45.99897" lon="6.56843">
        <ele>1985.74</ele>
        <time>2019-01-29T15:32:56Z</time>
      </trkpt>
      <trkpt lat="45.99902" lon="6.56845">
        <ele>1984.78</ele>
        <time>2019-01-29T15:32:57Z</time>
      </trkpt>
      <trkpt lat="45.99906" lon="6.56847">
        <ele>1984.3</ele>
        <time>2019-01-29T15:32:58Z</time>
      </trkpt>
      <trkpt lat="45.99921" lon="6.56851">
        <ele>1982.38</ele>
        <time>2019-01-29T15:33:01Z</time>
      </trkpt>
      <trkpt lat="45.99931" lon="6.56853">
        <ele>1981.41</ele>
        <time>2019-01-29T15:33:03Z</time>
      </trkpt>
      <trkpt lat="45.99935" lon="6.56854">
        <ele>1980.93</ele>
        <time>2019-01-29T15:33:04Z</time>
      </trkpt>
      <trkpt lat="45.99938" lon="6.56855">
        <ele>1980.45</ele>
        <time>2019-01-29T15:33:05Z</time>
      </trkpt>
      <trkpt lat="45.99941" lon="6.56856">
        <ele>1980.45</ele>
        <time>2019-01-29T15:33:06Z</time>
      </trkpt>
      <trkpt lat="45.99944" lon="6.56858">
        <ele>1980.45</ele>
        <time>2019-01-29T15:33:07Z</time>
      </trkpt>
      <trkpt lat="45.99947" lon="6.56858">
        <ele>1979.97</ele>
        <time>2019-01-29T15:33:08Z</time>
      </trkpt>
      <trkpt lat="45.99949" lon="6.56859">
        <ele>1979.97</ele>
        <time>2019-01-29T15:33:09Z</time>
      </trkpt>
      <trkpt lat="45.99952" lon="6.5686">
        <ele>1979.97</ele>
        <time>2019-01-29T15:33:10Z</time>
      </trkpt>
      <trkpt lat="45.99974" lon="6.5687">
        <ele>1978.05</ele>
        <time>2019-01-29T15:34:53Z</time>
      </trkpt>
      <trkpt lat="45.99975" lon="6.56871">
        <ele>1978.05</ele>
        <time>2019-01-29T15:36:18Z</time>
      </trkpt>
      <trkpt lat="45.99977" lon="6.56873">
        <ele>1978.05</ele>
        <time>2019-01-29T15:36:48Z</time>
      </trkpt>
      <trkpt lat="45.99978" lon="6.56874">
        <ele>1978.05</ele>
        <time>2019-01-29T15:36:49Z</time>
      </trkpt>
      <trkpt lat="45.99983" lon="6.56881">
        <ele>1978.05</ele>
        <time>2019-01-29T15:36:55Z</time>
      </trkpt>
      <trkpt lat="45.99984" lon="6.56882">
        <ele>1978.53</ele>
        <time>2019-01-29T15:36:56Z</time>
      </trkpt>
      <trkpt lat="45.99988" lon="6.56885">
        <ele>1978.53</ele>
        <time>2019-01-29T15:37:01Z</time>
      </trkpt>
      <trkpt lat="45.9999" lon="6.56886">
        <ele>1979.01</ele>
        <time>2019-01-29T15:37:03Z</time>
      </trkpt>
      <trkpt lat="45.99992" lon="6.56887">
        <ele>1979.01</ele>
        <time>2019-01-29T15:37:04Z</time>
      </trkpt>
      <trkpt lat="45.99993" lon="6.56888">
        <ele>1979.01</ele>
        <time>2019-01-29T15:37:05Z</time>
      </trkpt>
      <trkpt lat="46.00026" lon="6.56905">
        <ele>1980.45</ele>
        <time>2019-01-29T15:37:29Z</time>
      </trkpt>
      <trkpt lat="46.00028" lon="6.56906">
        <ele>1980.45</ele>
        <time>2019-01-29T15:37:30Z</time>
      </trkpt>
      <trkpt lat="46.00029" lon="6.56906">
        <ele>1980.45</ele>
        <time>2019-01-29T15:37:31Z</time>
      </trkpt>
      <trkpt lat="46.00031" lon="6.56907">
        <ele>1980.45</ele>
        <time>2019-01-29T15:37:32Z</time>
      </trkpt>
      <trkpt lat="46.00032" lon="6.56908">
        <ele>1980.45</ele>
        <time>2019-01-29T15:37:33Z</time>
      </trkpt>
      <trkpt lat="46.00034" lon="6.56908">
        <ele>1980.45</ele>
        <time>2019-01-29T15:37:34Z</time>
      </trkpt>
      <trkpt lat="46.00035" lon="6.5691">
        <ele>1980.93</ele>
        <time>2019-01-29T15:37:35Z</time>
      </trkpt>
      <trkpt lat="46.00036" lon="6.5691">
        <ele>1980.93</ele>
        <time>2019-01-29T15:37:36Z</time>
      </trkpt>
      <trkpt lat="46.00037" lon="6.56911">
        <ele>1980.93</ele>
        <time>2019-01-29T15:37:37Z</time>
      </trkpt>
      <trkpt lat="46.00039" lon="6.56912">
        <ele>1980.93</ele>
        <time>2019-01-29T15:37:38Z</time>
      </trkpt>
      <trkpt lat="46.0004" lon="6.56913">
        <ele>1980.93</ele>
        <time>2019-01-29T15:37:39Z</time>
      </trkpt>
      <trkpt lat="46.00041" lon="6.56914">
        <ele>1980.93</ele>
        <time>2019-01-29T15:37:40Z</time>
      </trkpt>
      <trkpt lat="46.00043" lon="6.56914">
        <ele>1980.93</ele>
        <time>2019-01-29T15:37:41Z</time>
      </trkpt>
      <trkpt lat="46.00044" lon="6.56915">
        <ele>1981.41</ele>
        <time>2019-01-29T15:37:42Z</time>
      </trkpt>
      <trkpt lat="46.00044" lon="6.56917">
        <ele>1981.41</ele>
        <time>2019-01-29T15:37:43Z</time>
      </trkpt>
      <trkpt lat="46.00045" lon="6.56918">
        <ele>1981.41</ele>
        <time>2019-01-29T15:37:44Z</time>
      </trkpt>
      <trkpt lat="46.00046" lon="6.56919">
        <ele>1981.41</ele>
        <time>2019-01-29T15:37:45Z</time>
      </trkpt>
      <trkpt lat="46.00089" lon="6.56944">
        <ele>1983.34</ele>
        <time>2019-01-29T15:38:19Z</time>
      </trkpt>
      <trkpt lat="46.00131" lon="6.56968">
        <ele>1982.38</ele>
        <time>2019-01-29T15:38:50Z</time>
      </trkpt>
      <trkpt lat="46.00174" lon="6.56987">
        <ele>1981.41</ele>
        <time>2019-01-29T15:39:17Z</time>
      </trkpt>
      <trkpt lat="46.00196" lon="6.56996">
        <ele>1980.45</ele>
        <time>2019-01-29T15:39:31Z</time>
      </trkpt>
      <trkpt lat="46.00197" lon="6.56997">
        <ele>1980.45</ele>
        <time>2019-01-29T15:39:32Z</time>
      </trkpt>
      <trkpt lat="46.00198" lon="6.56997">
        <ele>1980.45</ele>
        <time>2019-01-29T15:39:33Z</time>
      </trkpt>
      <trkpt lat="46.00199" lon="6.56998">
        <ele>1980.45</ele>
        <time>2019-01-29T15:39:34Z</time>
      </trkpt>
      <trkpt lat="46.00201" lon="6.56999">
        <ele>1980.45</ele>
        <time>2019-01-29T15:39:35Z</time>
      </trkpt>
      <trkpt lat="46.00202" lon="6.57">
        <ele>1980.45</ele>
        <time>2019-01-29T15:39:36Z</time>
      </trkpt>
      <trkpt lat="46.00203" lon="6.57001">
        <ele>1980.45</ele>
        <time>2019-01-29T15:39:37Z</time>
      </trkpt>
      <trkpt lat="46.00205" lon="6.57001">
        <ele>1980.45</ele>
        <time>2019-01-29T15:39:38Z</time>
      </trkpt>
      <trkpt lat="46.00237" lon="6.57016">
        <ele>1979.97</ele>
        <time>2019-01-29T15:40:00Z</time>
      </trkpt>
      <trkpt lat="46.00239" lon="6.57017">
        <ele>1979.97</ele>
        <time>2019-01-29T15:40:01Z</time>
      </trkpt>
      <trkpt lat="46.0024" lon="6.57017">
        <ele>1980.45</ele>
        <time>2019-01-29T15:40:02Z</time>
      </trkpt>
      <trkpt lat="46.00241" lon="6.57018">
        <ele>1980.45</ele>
        <time>2019-01-29T15:40:03Z</time>
      </trkpt>
      <trkpt lat="46.00243" lon="6.57018">
        <ele>1980.93</ele>
        <time>2019-01-29T15:40:04Z</time>
      </trkpt>
      <trkpt lat="46.00266" lon="6.57031">
        <ele>1979.01</ele>
        <time>2019-01-29T15:40:20Z</time>
      </trkpt>
      <trkpt lat="46.00267" lon="6.57031">
        <ele>1979.01</ele>
        <time>2019-01-29T15:40:21Z</time>
      </trkpt>
      <trkpt lat="46.00276" lon="6.57037">
        <ele>1980.93</ele>
        <time>2019-01-29T15:40:30Z</time>
      </trkpt>
      <trkpt lat="46.00277" lon="6.57038">
        <ele>1981.41</ele>
        <time>2019-01-29T15:40:31Z</time>
      </trkpt>
      <trkpt lat="46.00278" lon="6.57038">
        <ele>1981.41</ele>
        <time>2019-01-29T15:40:32Z</time>
      </trkpt>
      <trkpt lat="46.00279" lon="6.57039">
        <ele>1981.41</ele>
        <time>2019-01-29T15:40:33Z</time>
      </trkpt>
      <trkpt lat="46.0028" lon="6.5704">
        <ele>1981.41</ele>
        <time>2019-01-29T15:40:34Z</time>
      </trkpt>
      <trkpt lat="46.00281" lon="6.5704">
        <ele>1981.9</ele>
        <time>2019-01-29T15:40:35Z</time>
      </trkpt>
      <trkpt lat="46.00282" lon="6.57041">
        <ele>1981.9</ele>
        <time>2019-01-29T15:40:36Z</time>
      </trkpt>
      <trkpt lat="46.00283" lon="6.57041">
        <ele>1982.38</ele>
        <time>2019-01-29T15:40:37Z</time>
      </trkpt>
      <trkpt lat="46.00284" lon="6.57042">
        <ele>1982.38</ele>
        <time>2019-01-29T15:40:38Z</time>
      </trkpt>
      <trkpt lat="46.00285" lon="6.57042">
        <ele>1982.38</ele>
        <time>2019-01-29T15:40:39Z</time>
      </trkpt>
      <trkpt lat="46.00287" lon="6.57043">
        <ele>1982.38</ele>
        <time>2019-01-29T15:40:40Z</time>
      </trkpt>
      <trkpt lat="46.00288" lon="6.57043">
        <ele>1982.86</ele>
        <time>2019-01-29T15:40:41Z</time>
      </trkpt>
      <trkpt lat="46.00288" lon="6.57044">
        <ele>1982.86</ele>
        <time>2019-01-29T15:40:42Z</time>
      </trkpt>
      <trkpt lat="46.00289" lon="6.57045">
        <ele>1982.86</ele>
        <time>2019-01-29T15:40:43Z</time>
      </trkpt>
      <trkpt lat="46.00291" lon="6.57045">
        <ele>1982.86</ele>
        <time>2019-01-29T15:40:44Z</time>
      </trkpt>
      <trkpt lat="46.00331" lon="6.57065">
        <ele>1982.38</ele>
        <time>2019-01-29T15:41:14Z</time>
      </trkpt>
      <trkpt lat="46.00332" lon="6.57065">
        <ele>1982.38</ele>
        <time>2019-01-29T15:41:15Z</time>
      </trkpt>
      <trkpt lat="46.00334" lon="6.57065">
        <ele>1982.38</ele>
        <time>2019-01-29T15:41:16Z</time>
      </trkpt>
      <trkpt lat="46.00344" lon="6.57067">
        <ele>1981.41</ele>
        <time>2019-01-29T15:41:23Z</time>
      </trkpt>
      <trkpt lat="46.00345" lon="6.57068">
        <ele>1981.41</ele>
        <time>2019-01-29T15:41:24Z</time>
      </trkpt>
      <trkpt lat="46.00346" lon="6.57068">
        <ele>1981.41</ele>
        <time>2019-01-29T15:41:25Z</time>
      </trkpt>
      <trkpt lat="46.00348" lon="6.57069">
        <ele>1981.9</ele>
        <time>2019-01-29T15:41:26Z</time>
      </trkpt>
      <trkpt lat="46.00349" lon="6.57069">
        <ele>1981.9</ele>
        <time>2019-01-29T15:41:27Z</time>
      </trkpt>
      <trkpt lat="46.00353" lon="6.57071">
        <ele>1981.9</ele>
        <time>2019-01-29T15:41:30Z</time>
      </trkpt>
      <trkpt lat="46.00354" lon="6.57071">
        <ele>1982.38</ele>
        <time>2019-01-29T15:41:31Z</time>
      </trkpt>
      <trkpt lat="46.00355" lon="6.57072">
        <ele>1982.38</ele>
        <time>2019-01-29T15:41:32Z</time>
      </trkpt>
      <trkpt lat="46.00356" lon="6.57072">
        <ele>1982.38</ele>
        <time>2019-01-29T15:41:33Z</time>
      </trkpt>
      <trkpt lat="46.00397" lon="6.57095">
        <ele>1984.78</ele>
        <time>2019-01-29T15:42:07Z</time>
      </trkpt>
      <trkpt lat="46.00434" lon="6.57122">
        <ele>1981.41</ele>
        <time>2019-01-29T15:42:33Z</time>
      </trkpt>
      <trkpt lat="46.0046" lon="6.57144">
        <ele>1978.05</ele>
        <time>2019-01-29T15:42:49Z</time>
      </trkpt>
      <trkpt lat="46.00476" lon="6.57154">
        <ele>1974.69</ele>
        <time>2019-01-29T15:42:55Z</time>
      </trkpt>
      <trkpt lat="46.00493" lon="6.57164">
        <ele>1971.8</ele>
        <time>2019-01-29T15:43:02Z</time>
      </trkpt>
      <trkpt lat="46.0051" lon="6.57174">
        <ele>1968.44</ele>
        <time>2019-01-29T15:43:10Z</time>
      </trkpt>
      <trkpt lat="46.00517" lon="6.57174">
        <ele>1967.96</ele>
        <time>2019-01-29T15:43:15Z</time>
      </trkpt>
      <trkpt lat="46.00546" lon="6.57174">
        <ele>1964.59</ele>
        <time>2019-01-29T15:43:31Z</time>
      </trkpt>
      <trkpt lat="46.00581" lon="6.57185">
        <ele>1967.96</ele>
        <time>2019-01-29T15:44:01Z</time>
      </trkpt>
      <trkpt lat="46.00595" lon="6.57186">
        <ele>1970.84</ele>
        <time>2019-01-29T15:44:16Z</time>
      </trkpt>
      <trkpt lat="46.00596" lon="6.57185">
        <ele>1971.32</ele>
        <time>2019-01-29T15:44:17Z</time>
      </trkpt>
      <trkpt lat="46.006" lon="6.57184">
        <ele>1972.76</ele>
        <time>2019-01-29T15:44:22Z</time>
      </trkpt>
      <trkpt lat="46.00607" lon="6.57183">
        <ele>1975.65</ele>
        <time>2019-01-29T15:44:34Z</time>
      </trkpt>
      <trkpt lat="46.00614" lon="6.57182">
        <ele>1978.53</ele>
        <time>2019-01-29T15:44:45Z</time>
      </trkpt>
      <trkpt lat="46.00622" lon="6.57181">
        <ele>1981.9</ele>
        <time>2019-01-29T15:44:58Z</time>
      </trkpt>
      <trkpt lat="46.00625" lon="6.5718">
        <ele>1982.38</ele>
        <time>2019-01-29T15:45:02Z</time>
      </trkpt>
      <trkpt lat="46.00635" lon="6.57175">
        <ele>1985.74</ele>
        <time>2019-01-29T15:45:17Z</time>
      </trkpt>
      <trkpt lat="46.00637" lon="6.57175">
        <ele>1986.22</ele>
        <time>2019-01-29T15:45:19Z</time>
      </trkpt>
      <trkpt lat="46.00642" lon="6.57178">
        <ele>1987.18</ele>
        <time>2019-01-29T15:45:26Z</time>
      </trkpt>
      <trkpt lat="46.00643" lon="6.5718">
        <ele>1988.14</ele>
        <time>2019-01-29T15:45:28Z</time>
      </trkpt>
      <trkpt lat="46.00643" lon="6.57182">
        <ele>1988.62</ele>
        <time>2019-01-29T15:45:30Z</time>
      </trkpt>
      <trkpt lat="46.00643" lon="6.57184">
        <ele>1989.1</ele>
        <time>2019-01-29T15:45:32Z</time>
      </trkpt>
      <trkpt lat="46.00642" lon="6.57191">
        <ele>1990.55</ele>
        <time>2019-01-29T15:45:39Z</time>
      </trkpt>
      <trkpt lat="46.00639" lon="6.57208">
        <ele>1993.43</ele>
        <time>2019-01-29T15:45:54Z</time>
      </trkpt>
      <trkpt lat="46.00638" lon="6.57215">
        <ele>1994.39</ele>
        <time>2019-01-29T15:46:00Z</time>
      </trkpt>
      <trkpt lat="46.00637" lon="6.57216">
        <ele>1994.39</ele>
        <time>2019-01-29T15:46:01Z</time>
      </trkpt>
      <trkpt lat="46.00638" lon="6.57235">
        <ele>1997.28</ele>
        <time>2019-01-29T15:46:18Z</time>
      </trkpt>
      <trkpt lat="46.0064" lon="6.57254">
        <ele>2000.16</ele>
        <time>2019-01-29T15:46:33Z</time>
      </trkpt>
      <trkpt lat="46.00642" lon="6.57266">
        <ele>2002.56</ele>
        <time>2019-01-29T15:46:43Z</time>
      </trkpt>
      <trkpt lat="46.00644" lon="6.5727">
        <ele>2004.49</ele>
        <time>2019-01-29T15:46:48Z</time>
      </trkpt>
      <trkpt lat="46.00645" lon="6.57271">
        <ele>2004.49</ele>
        <time>2019-01-29T15:46:49Z</time>
      </trkpt>
      <trkpt lat="46.00646" lon="6.57272">
        <ele>2004.49</ele>
        <time>2019-01-29T15:46:50Z</time>
      </trkpt>
      <trkpt lat="46.00654" lon="6.57289">
        <ele>2005.45</ele>
        <time>2019-01-29T15:47:03Z</time>
      </trkpt>
      <trkpt lat="46.00655" lon="6.5729">
        <ele>2005.45</ele>
        <time>2019-01-29T15:47:04Z</time>
      </trkpt>
      <trkpt lat="46.00655" lon="6.57292">
        <ele>2005.45</ele>
        <time>2019-01-29T15:47:05Z</time>
      </trkpt>
      <trkpt lat="46.00681" lon="6.57334">
        <ele>2004.97</ele>
        <time>2019-01-29T15:47:37Z</time>
      </trkpt>
      <trkpt lat="46.00688" lon="6.57342">
        <ele>2004.49</ele>
        <time>2019-01-29T15:47:42Z</time>
      </trkpt>
      <trkpt lat="46.00689" lon="6.57343">
        <ele>2004.01</ele>
        <time>2019-01-29T15:47:43Z</time>
      </trkpt>
      <trkpt lat="46.00724" lon="6.57388">
        <ele>2002.08</ele>
        <time>2019-01-29T15:48:13Z</time>
      </trkpt>
      <trkpt lat="46.00747" lon="6.57426">
        <ele>2002.56</ele>
        <time>2019-01-29T15:48:38Z</time>
      </trkpt>
      <trkpt lat="46.00748" lon="6.57427">
        <ele>2002.56</ele>
        <time>2019-01-29T15:48:39Z</time>
      </trkpt>
      <trkpt lat="46.0075" lon="6.57429">
        <ele>2002.56</ele>
        <time>2019-01-29T15:48:40Z</time>
      </trkpt>
      <trkpt lat="46.00751" lon="6.5743">
        <ele>2002.56</ele>
        <time>2019-01-29T15:48:41Z</time>
      </trkpt>
      <trkpt lat="46.00752" lon="6.57431">
        <ele>2002.56</ele>
        <time>2019-01-29T15:48:42Z</time>
      </trkpt>
      <trkpt lat="46.00753" lon="6.57433">
        <ele>2002.56</ele>
        <time>2019-01-29T15:48:43Z</time>
      </trkpt>
      <trkpt lat="46.00754" lon="6.57434">
        <ele>2002.56</ele>
        <time>2019-01-29T15:48:44Z</time>
      </trkpt>
      <trkpt lat="46.00755" lon="6.57436">
        <ele>2002.56</ele>
        <time>2019-01-29T15:48:45Z</time>
      </trkpt>
      <trkpt lat="46.00756" lon="6.57437">
        <ele>2002.56</ele>
        <time>2019-01-29T15:48:46Z</time>
      </trkpt>
      <trkpt lat="46.00757" lon="6.57438">
        <ele>2002.56</ele>
        <time>2019-01-29T15:48:47Z</time>
      </trkpt>
      <trkpt lat="46.0078" lon="6.57474">
        <ele>1999.2</ele>
        <time>2019-01-29T15:49:06Z</time>
      </trkpt>
      <trkpt lat="46.00786" lon="6.57484">
        <ele>1997.28</ele>
        <time>2019-01-29T15:49:08Z</time>
      </trkpt>
      <trkpt lat="46.0079" lon="6.57496">
        <ele>1994.87</ele>
        <time>2019-01-29T15:49:10Z</time>
      </trkpt>
      <trkpt lat="46.00791" lon="6.57503">
        <ele>1993.43</ele>
        <time>2019-01-29T15:49:11Z</time>
      </trkpt>
      <trkpt lat="46.00792" lon="6.57517">
        <ele>1989.59</ele>
        <time>2019-01-29T15:49:13Z</time>
      </trkpt>
      <trkpt lat="46.00793" lon="6.57523">
        <ele>1988.62</ele>
        <time>2019-01-29T15:49:14Z</time>
      </trkpt>
      <trkpt lat="46.00794" lon="6.57528">
        <ele>1988.14</ele>
        <time>2019-01-29T15:49:15Z</time>
      </trkpt>
      <trkpt lat="46.00796" lon="6.57532">
        <ele>1987.18</ele>
        <time>2019-01-29T15:49:16Z</time>
      </trkpt>
      <trkpt lat="46.00798" lon="6.57536">
        <ele>1986.22</ele>
        <time>2019-01-29T15:49:17Z</time>
      </trkpt>
      <trkpt lat="46.008" lon="6.5754">
        <ele>1985.74</ele>
        <time>2019-01-29T15:49:18Z</time>
      </trkpt>
      <trkpt lat="46.00802" lon="6.57544">
        <ele>1984.78</ele>
        <time>2019-01-29T15:49:19Z</time>
      </trkpt>
      <trkpt lat="46.00808" lon="6.57556">
        <ele>1981.41</ele>
        <time>2019-01-29T15:49:23Z</time>
      </trkpt>
      <trkpt lat="46.00816" lon="6.57563">
        <ele>1978.53</ele>
        <time>2019-01-29T15:49:26Z</time>
      </trkpt>
      <trkpt lat="46.00829" lon="6.57574">
        <ele>1974.69</ele>
        <time>2019-01-29T15:49:29Z</time>
      </trkpt>
      <trkpt lat="46.00834" lon="6.57579">
        <ele>1972.76</ele>
        <time>2019-01-29T15:49:30Z</time>
      </trkpt>
      <trkpt lat="46.00838" lon="6.57585">
        <ele>1971.32</ele>
        <time>2019-01-29T15:49:31Z</time>
      </trkpt>
      <trkpt lat="46.00842" lon="6.57591">
        <ele>1969.88</ele>
        <time>2019-01-29T15:49:32Z</time>
      </trkpt>
      <trkpt lat="46.00844" lon="6.57595">
        <ele>1969.4</ele>
        <time>2019-01-29T15:49:33Z</time>
      </trkpt>
      <trkpt lat="46.00846" lon="6.57597">
        <ele>1968.44</ele>
        <time>2019-01-29T15:49:34Z</time>
      </trkpt>
      <trkpt lat="46.00847" lon="6.57599">
        <ele>1968.44</ele>
        <time>2019-01-29T15:49:35Z</time>
      </trkpt>
      <trkpt lat="46.00847" lon="6.576">
        <ele>1968.44</ele>
        <time>2019-01-29T15:49:36Z</time>
      </trkpt>
      <trkpt lat="46.00847" lon="6.57601">
        <ele>1968.44</ele>
        <time>2019-01-29T15:49:37Z</time>
      </trkpt>
      <trkpt lat="46.00847" lon="6.57603">
        <ele>1968.44</ele>
        <time>2019-01-29T15:49:38Z</time>
      </trkpt>
      <trkpt lat="46.00848" lon="6.57604">
        <ele>1968.44</ele>
        <time>2019-01-29T15:49:39Z</time>
      </trkpt>
      <trkpt lat="46.00849" lon="6.57605">
        <ele>1968.44</ele>
        <time>2019-01-29T15:49:40Z</time>
      </trkpt>
      <trkpt lat="46.0085" lon="6.57606">
        <ele>1968.92</ele>
        <time>2019-01-29T15:49:41Z</time>
      </trkpt>
      <trkpt lat="46.00853" lon="6.57612">
        <ele>1969.4</ele>
        <time>2019-01-29T15:49:45Z</time>
      </trkpt>
      <trkpt lat="46.00867" lon="6.57655">
        <ele>1972.28</ele>
        <time>2019-01-29T15:50:13Z</time>
      </trkpt>
      <trkpt lat="46.00869" lon="6.5766">
        <ele>1972.76</ele>
        <time>2019-01-29T15:50:16Z</time>
      </trkpt>
      <trkpt lat="46.0087" lon="6.57661">
        <ele>1972.76</ele>
        <time>2019-01-29T15:50:17Z</time>
      </trkpt>
      <trkpt lat="46.00871" lon="6.57663">
        <ele>1972.76</ele>
        <time>2019-01-29T15:50:18Z</time>
      </trkpt>
      <trkpt lat="46.00901" lon="6.57712">
        <ele>1975.17</ele>
        <time>2019-01-29T15:50:58Z</time>
      </trkpt>
      <trkpt lat="46.00911" lon="6.57727">
        <ele>1978.53</ele>
        <time>2019-01-29T15:51:15Z</time>
      </trkpt>
      <trkpt lat="46.00911" lon="6.57728">
        <ele>1978.53</ele>
        <time>2019-01-29T15:51:16Z</time>
      </trkpt>
      <trkpt lat="46.00913" lon="6.57732">
        <ele>1979.49</ele>
        <time>2019-01-29T15:51:20Z</time>
      </trkpt>
      <trkpt lat="46.00915" lon="6.57736">
        <ele>1980.45</ele>
        <time>2019-01-29T15:51:25Z</time>
      </trkpt>
      <trkpt lat="46.00923" lon="6.57751">
        <ele>1983.82</ele>
        <time>2019-01-29T15:51:43Z</time>
      </trkpt>
      <trkpt lat="46.00925" lon="6.57757">
        <ele>1984.3</ele>
        <time>2019-01-29T15:51:49Z</time>
      </trkpt>
      <trkpt lat="46.00931" lon="6.57765">
        <ele>1987.18</ele>
        <time>2019-01-29T15:52:00Z</time>
      </trkpt>
      <trkpt lat="46.00932" lon="6.57766">
        <ele>1987.18</ele>
        <time>2019-01-29T15:52:02Z</time>
      </trkpt>
      <trkpt lat="46.00938" lon="6.57776">
        <ele>1990.55</ele>
        <time>2019-01-29T15:52:17Z</time>
      </trkpt>
      <trkpt lat="46.00945" lon="6.57786">
        <ele>1993.91</ele>
        <time>2019-01-29T15:52:32Z</time>
      </trkpt>
      <trkpt lat="46.0095" lon="6.57796">
        <ele>1996.8</ele>
        <time>2019-01-29T15:52:47Z</time>
      </trkpt>
      <trkpt lat="46.00956" lon="6.57805">
        <ele>2000.16</ele>
        <time>2019-01-29T15:53:02Z</time>
      </trkpt>
      <trkpt lat="46.00958" lon="6.57808">
        <ele>2000.64</ele>
        <time>2019-01-29T15:53:06Z</time>
      </trkpt>
      <trkpt lat="46.00963" lon="6.5782">
        <ele>2004.01</ele>
        <time>2019-01-29T15:53:22Z</time>
      </trkpt>
      <trkpt lat="46.00968" lon="6.57832">
        <ele>2006.89</ele>
        <time>2019-01-29T15:53:37Z</time>
      </trkpt>
      <trkpt lat="46.00971" lon="6.57836">
        <ele>2007.85</ele>
        <time>2019-01-29T15:53:43Z</time>
      </trkpt>
      <trkpt lat="46.00973" lon="6.57839">
        <ele>2009.29</ele>
        <time>2019-01-29T15:53:49Z</time>
      </trkpt>
      <trkpt lat="46.00974" lon="6.57843">
        <ele>2009.77</ele>
        <time>2019-01-29T15:53:53Z</time>
      </trkpt>
      <trkpt lat="46.00975" lon="6.57845">
        <ele>2010.25</ele>
        <time>2019-01-29T15:53:55Z</time>
      </trkpt>
      <trkpt lat="46.00981" lon="6.57855">
        <ele>2013.14</ele>
        <time>2019-01-29T15:54:08Z</time>
      </trkpt>
      <trkpt lat="46.00983" lon="6.57858">
        <ele>2013.62</ele>
        <time>2019-01-29T15:54:12Z</time>
      </trkpt>
      <trkpt lat="46.00986" lon="6.57863">
        <ele>2015.06</ele>
        <time>2019-01-29T15:54:17Z</time>
      </trkpt>
      <trkpt lat="46.00993" lon="6.57877">
        <ele>2017.94</ele>
        <time>2019-01-29T15:54:34Z</time>
      </trkpt>
      <trkpt lat="46.00999" lon="6.57904">
        <ele>2020.83</ele>
        <time>2019-01-29T15:54:57Z</time>
      </trkpt>
      <trkpt lat="46.00999" lon="6.57905">
        <ele>2020.83</ele>
        <time>2019-01-29T15:54:58Z</time>
      </trkpt>
      <trkpt lat="46.00999" lon="6.57907">
        <ele>2020.83</ele>
        <time>2019-01-29T15:55:00Z</time>
      </trkpt>
      <trkpt lat="46.00997" lon="6.57916">
        <ele>2021.31</ele>
        <time>2019-01-29T15:58:38Z</time>
      </trkpt>
      <trkpt lat="46.00996" lon="6.57918">
        <ele>2021.31</ele>
        <time>2019-01-29T15:58:39Z</time>
      </trkpt>
      <trkpt lat="46.00996" lon="6.57919">
        <ele>2021.31</ele>
        <time>2019-01-29T15:58:40Z</time>
      </trkpt>
      <trkpt lat="46.00995" lon="6.57921">
        <ele>2021.31</ele>
        <time>2019-01-29T15:58:41Z</time>
      </trkpt>
      <trkpt lat="46.00994" lon="6.57923">
        <ele>2021.31</ele>
        <time>2019-01-29T15:58:42Z</time>
      </trkpt>
      <trkpt lat="46.00993" lon="6.57925">
        <ele>2021.31</ele>
        <time>2019-01-29T15:58:43Z</time>
      </trkpt>
      <trkpt lat="46.00986" lon="6.57959">
        <ele>2018.43</ele>
        <time>2019-01-29T15:58:56Z</time>
      </trkpt>
      <trkpt lat="46.00976" lon="6.5799">
        <ele>2015.54</ele>
        <time>2019-01-29T15:59:04Z</time>
      </trkpt>
      <trkpt lat="46.00968" lon="6.58033">
        <ele>2014.58</ele>
        <time>2019-01-29T15:59:26Z</time>
      </trkpt>
      <trkpt lat="46.0096" lon="6.58086">
        <ele>2013.14</ele>
        <time>2019-01-29T15:59:55Z</time>
      </trkpt>
      <trkpt lat="46.00961" lon="6.58088">
        <ele>2013.14</ele>
        <time>2019-01-29T15:59:56Z</time>
      </trkpt>
      <trkpt lat="46.00962" lon="6.58089">
        <ele>2012.66</ele>
        <time>2019-01-29T15:59:57Z</time>
      </trkpt>
      <trkpt lat="46.00965" lon="6.58087">
        <ele>2012.18</ele>
        <time>2019-01-29T16:00:13Z</time>
      </trkpt>
      <trkpt lat="46.0097" lon="6.58079">
        <ele>2009.77</ele>
        <time>2019-01-29T16:00:16Z</time>
      </trkpt>
      <trkpt lat="46.00974" lon="6.58078">
        <ele>2008.81</ele>
        <time>2019-01-29T16:00:17Z</time>
      </trkpt>
      <trkpt lat="46.00977" lon="6.58082">
        <ele>2007.37</ele>
        <time>2019-01-29T16:00:18Z</time>
      </trkpt>
      <trkpt lat="46.00979" lon="6.58087">
        <ele>2004.49</ele>
        <time>2019-01-29T16:00:19Z</time>
      </trkpt>
      <trkpt lat="46.00981" lon="6.58092">
        <ele>2002.56</ele>
        <time>2019-01-29T16:00:20Z</time>
      </trkpt>
      <trkpt lat="46.00984" lon="6.58095">
        <ele>2001.12</ele>
        <time>2019-01-29T16:00:21Z</time>
      </trkpt>
      <trkpt lat="46.00987" lon="6.58097">
        <ele>1999.2</ele>
        <time>2019-01-29T16:00:22Z</time>
      </trkpt>
      <trkpt lat="46.00992" lon="6.58099">
        <ele>1996.32</ele>
        <time>2019-01-29T16:00:23Z</time>
      </trkpt>
      <trkpt lat="46.00998" lon="6.58103">
        <ele>1991.99</ele>
        <time>2019-01-29T16:00:24Z</time>
      </trkpt>
      <trkpt lat="46.01003" lon="6.58103">
        <ele>1989.1</ele>
        <time>2019-01-29T16:00:25Z</time>
      </trkpt>
      <trkpt lat="46.01012" lon="6.58101">
        <ele>1984.78</ele>
        <time>2019-01-29T16:00:26Z</time>
      </trkpt>
      <trkpt lat="46.01019" lon="6.58098">
        <ele>1980.93</ele>
        <time>2019-01-29T16:00:27Z</time>
      </trkpt>
      <trkpt lat="46.01026" lon="6.58092">
        <ele>1976.61</ele>
        <time>2019-01-29T16:00:28Z</time>
      </trkpt>
      <trkpt lat="46.01033" lon="6.58085">
        <ele>1972.28</ele>
        <time>2019-01-29T16:00:29Z</time>
      </trkpt>
      <trkpt lat="46.01041" lon="6.58081">
        <ele>1969.4</ele>
        <time>2019-01-29T16:00:30Z</time>
      </trkpt>
      <trkpt lat="46.0105" lon="6.58079">
        <ele>1966.03</ele>
        <time>2019-01-29T16:00:31Z</time>
      </trkpt>
      <trkpt lat="46.01058" lon="6.5808">
        <ele>1961.71</ele>
        <time>2019-01-29T16:00:32Z</time>
      </trkpt>
      <trkpt lat="46.01067" lon="6.58081">
        <ele>1958.34</ele>
        <time>2019-01-29T16:00:33Z</time>
      </trkpt>
      <trkpt lat="46.01079" lon="6.58084">
        <ele>1956.42</ele>
        <time>2019-01-29T16:00:35Z</time>
      </trkpt>
      <trkpt lat="46.01083" lon="6.58082">
        <ele>1956.9</ele>
        <time>2019-01-29T16:00:36Z</time>
      </trkpt>
      <trkpt lat="46.01086" lon="6.58078">
        <ele>1956.9</ele>
        <time>2019-01-29T16:00:37Z</time>
      </trkpt>
      <trkpt lat="46.01087" lon="6.58075">
        <ele>1956.42</ele>
        <time>2019-01-29T16:00:38Z</time>
      </trkpt>
      <trkpt lat="46.01089" lon="6.58073">
        <ele>1955.94</ele>
        <time>2019-01-29T16:00:39Z</time>
      </trkpt>
      <trkpt lat="46.0109" lon="6.58074">
        <ele>1955.46</ele>
        <time>2019-01-29T16:00:40Z</time>
      </trkpt>
      <trkpt lat="46.01091" lon="6.58076">
        <ele>1954.5</ele>
        <time>2019-01-29T16:00:41Z</time>
      </trkpt>
      <trkpt lat="46.01091" lon="6.58077">
        <ele>1954.02</ele>
        <time>2019-01-29T16:00:42Z</time>
      </trkpt>
      <trkpt lat="46.01092" lon="6.58077">
        <ele>1953.54</ele>
        <time>2019-01-29T16:00:43Z</time>
      </trkpt>
      <trkpt lat="46.01094" lon="6.58076">
        <ele>1953.06</ele>
        <time>2019-01-29T16:00:44Z</time>
      </trkpt>
      <trkpt lat="46.01097" lon="6.58076">
        <ele>1952.09</ele>
        <time>2019-01-29T16:00:45Z</time>
      </trkpt>
      <trkpt lat="46.01101" lon="6.58077">
        <ele>1950.17</ele>
        <time>2019-01-29T16:00:46Z</time>
      </trkpt>
      <trkpt lat="46.01105" lon="6.58076">
        <ele>1947.77</ele>
        <time>2019-01-29T16:00:47Z</time>
      </trkpt>
      <trkpt lat="46.0111" lon="6.58076">
        <ele>1945.36</ele>
        <time>2019-01-29T16:00:48Z</time>
      </trkpt>
      <trkpt lat="46.01115" lon="6.58077">
        <ele>1942.96</ele>
        <time>2019-01-29T16:00:49Z</time>
      </trkpt>
      <trkpt lat="46.0112" lon="6.58078">
        <ele>1940.08</ele>
        <time>2019-01-29T16:00:50Z</time>
      </trkpt>
      <trkpt lat="46.01128" lon="6.58078">
        <ele>1936.71</ele>
        <time>2019-01-29T16:00:51Z</time>
      </trkpt>
      <trkpt lat="46.01136" lon="6.58078">
        <ele>1932.39</ele>
        <time>2019-01-29T16:00:52Z</time>
      </trkpt>
      <trkpt lat="46.01142" lon="6.58073">
        <ele>1929.5</ele>
        <time>2019-01-29T16:00:53Z</time>
      </trkpt>
      <trkpt lat="46.01149" lon="6.58067">
        <ele>1927.58</ele>
        <time>2019-01-29T16:00:54Z</time>
      </trkpt>
      <trkpt lat="46.01156" lon="6.58064">
        <ele>1926.62</ele>
        <time>2019-01-29T16:00:55Z</time>
      </trkpt>
      <trkpt lat="46.01162" lon="6.58063">
        <ele>1925.18</ele>
        <time>2019-01-29T16:00:56Z</time>
      </trkpt>
      <trkpt lat="46.01167" lon="6.58063">
        <ele>1924.22</ele>
        <time>2019-01-29T16:00:57Z</time>
      </trkpt>
      <trkpt lat="46.0117" lon="6.58066">
        <ele>1923.25</ele>
        <time>2019-01-29T16:00:58Z</time>
      </trkpt>
      <trkpt lat="46.01174" lon="6.5807">
        <ele>1923.25</ele>
        <time>2019-01-29T16:00:59Z</time>
      </trkpt>
      <trkpt lat="46.01189" lon="6.5808">
        <ele>1920.85</ele>
        <time>2019-01-29T16:01:03Z</time>
      </trkpt>
      <trkpt lat="46.01199" lon="6.58087">
        <ele>1920.37</ele>
        <time>2019-01-29T16:01:06Z</time>
      </trkpt>
      <trkpt lat="46.01208" lon="6.58094">
        <ele>1918.45</ele>
        <time>2019-01-29T16:01:08Z</time>
      </trkpt>
      <trkpt lat="46.01212" lon="6.58098">
        <ele>1917.97</ele>
        <time>2019-01-29T16:01:09Z</time>
      </trkpt>
      <trkpt lat="46.01216" lon="6.58103">
        <ele>1917.01</ele>
        <time>2019-01-29T16:01:10Z</time>
      </trkpt>
      <trkpt lat="46.01224" lon="6.58112">
        <ele>1915.08</ele>
        <time>2019-01-29T16:01:12Z</time>
      </trkpt>
      <trkpt lat="46.01229" lon="6.58114">
        <ele>1915.08</ele>
        <time>2019-01-29T16:01:13Z</time>
      </trkpt>
      <trkpt lat="46.01244" lon="6.5812">
        <ele>1913.16</ele>
        <time>2019-01-29T16:01:17Z</time>
      </trkpt>
      <trkpt lat="46.01248" lon="6.5812">
        <ele>1912.68</ele>
        <time>2019-01-29T16:01:18Z</time>
      </trkpt>
      <trkpt lat="46.01252" lon="6.58119">
        <ele>1912.2</ele>
        <time>2019-01-29T16:01:19Z</time>
      </trkpt>
      <trkpt lat="46.01261" lon="6.58116">
        <ele>1911.24</ele>
        <time>2019-01-29T16:01:21Z</time>
      </trkpt>
      <trkpt lat="46.01297" lon="6.58102">
        <ele>1907.87</ele>
        <time>2019-01-29T16:01:34Z</time>
      </trkpt>
      <trkpt lat="46.01301" lon="6.58098">
        <ele>1907.39</ele>
        <time>2019-01-29T16:01:35Z</time>
      </trkpt>
      <trkpt lat="46.01305" lon="6.58095">
        <ele>1905.95</ele>
        <time>2019-01-29T16:01:36Z</time>
      </trkpt>
      <trkpt lat="46.0131" lon="6.58091">
        <ele>1904.99</ele>
        <time>2019-01-29T16:01:37Z</time>
      </trkpt>
      <trkpt lat="46.01317" lon="6.58088">
        <ele>1903.07</ele>
        <time>2019-01-29T16:01:38Z</time>
      </trkpt>
      <trkpt lat="46.01323" lon="6.58086">
        <ele>1901.63</ele>
        <time>2019-01-29T16:01:39Z</time>
      </trkpt>
      <trkpt lat="46.0133" lon="6.58086">
        <ele>1899.7</ele>
        <time>2019-01-29T16:01:40Z</time>
      </trkpt>
      <trkpt lat="46.01338" lon="6.58086">
        <ele>1898.26</ele>
        <time>2019-01-29T16:01:41Z</time>
      </trkpt>
      <trkpt lat="46.01345" lon="6.58086">
        <ele>1896.82</ele>
        <time>2019-01-29T16:01:42Z</time>
      </trkpt>
      <trkpt lat="46.01369" lon="6.58085">
        <ele>1892.97</ele>
        <time>2019-01-29T16:01:45Z</time>
      </trkpt>
      <trkpt lat="46.01383" lon="6.58084">
        <ele>1892.01</ele>
        <time>2019-01-29T16:01:47Z</time>
      </trkpt>
      <trkpt lat="46.01415" lon="6.5808">
        <ele>1889.61</ele>
        <time>2019-01-29T16:01:52Z</time>
      </trkpt>
      <trkpt lat="46.01462" lon="6.58078">
        <ele>1886.24</ele>
        <time>2019-01-29T16:02:04Z</time>
      </trkpt>
      <trkpt lat="46.01472" lon="6.5808">
        <ele>1885.28</ele>
        <time>2019-01-29T16:02:06Z</time>
      </trkpt>
      <trkpt lat="46.01503" lon="6.58089">
        <ele>1881.44</ele>
        <time>2019-01-29T16:02:13Z</time>
      </trkpt>
      <trkpt lat="46.01509" lon="6.58092">
        <ele>1880.48</ele>
        <time>2019-01-29T16:02:14Z</time>
      </trkpt>
      <trkpt lat="46.01514" lon="6.58095">
        <ele>1879.51</ele>
        <time>2019-01-29T16:02:15Z</time>
      </trkpt>
      <trkpt lat="46.01523" lon="6.581">
        <ele>1877.11</ele>
        <time>2019-01-29T16:02:17Z</time>
      </trkpt>
      <trkpt lat="46.01527" lon="6.58097">
        <ele>1876.15</ele>
        <time>2019-01-29T16:02:18Z</time>
      </trkpt>
      <trkpt lat="46.01532" lon="6.58093">
        <ele>1874.71</ele>
        <time>2019-01-29T16:02:19Z</time>
      </trkpt>
      <trkpt lat="46.01538" lon="6.58089">
        <ele>1872.3</ele>
        <time>2019-01-29T16:02:20Z</time>
      </trkpt>
      <trkpt lat="46.01544" lon="6.58085">
        <ele>1869.42</ele>
        <time>2019-01-29T16:02:21Z</time>
      </trkpt>
      <trkpt lat="46.01552" lon="6.58083">
        <ele>1866.06</ele>
        <time>2019-01-29T16:02:22Z</time>
      </trkpt>
      <trkpt lat="46.0156" lon="6.58084">
        <ele>1864.13</ele>
        <time>2019-01-29T16:02:23Z</time>
      </trkpt>
      <trkpt lat="46.01568" lon="6.58086">
        <ele>1862.21</ele>
        <time>2019-01-29T16:02:24Z</time>
      </trkpt>
      <trkpt lat="46.01576" lon="6.58088">
        <ele>1859.81</ele>
        <time>2019-01-29T16:02:25Z</time>
      </trkpt>
      <trkpt lat="46.01585" lon="6.5809">
        <ele>1855.96</ele>
        <time>2019-01-29T16:02:26Z</time>
      </trkpt>
      <trkpt lat="46.01593" lon="6.58092">
        <ele>1853.56</ele>
        <time>2019-01-29T16:02:27Z</time>
      </trkpt>
      <trkpt lat="46.01607" lon="6.58093">
        <ele>1850.68</ele>
        <time>2019-01-29T16:02:29Z</time>
      </trkpt>
      <trkpt lat="46.01615" lon="6.58093">
        <ele>1849.23</ele>
        <time>2019-01-29T16:02:30Z</time>
      </trkpt>
      <trkpt lat="46.01628" lon="6.58094">
        <ele>1846.83</ele>
        <time>2019-01-29T16:02:32Z</time>
      </trkpt>
      <trkpt lat="46.01633" lon="6.58095">
        <ele>1846.35</ele>
        <time>2019-01-29T16:02:33Z</time>
      </trkpt>
      <trkpt lat="46.01639" lon="6.58097">
        <ele>1845.87</ele>
        <time>2019-01-29T16:02:34Z</time>
      </trkpt>
      <trkpt lat="46.01654" lon="6.581">
        <ele>1843.47</ele>
        <time>2019-01-29T16:02:37Z</time>
      </trkpt>
      <trkpt lat="46.01659" lon="6.581">
        <ele>1842.98</ele>
        <time>2019-01-29T16:02:38Z</time>
      </trkpt>
      <trkpt lat="46.01664" lon="6.58099">
        <ele>1842.02</ele>
        <time>2019-01-29T16:02:39Z</time>
      </trkpt>
      <trkpt lat="46.01669" lon="6.58098">
        <ele>1840.58</ele>
        <time>2019-01-29T16:02:40Z</time>
      </trkpt>
      <trkpt lat="46.01674" lon="6.58096">
        <ele>1839.62</ele>
        <time>2019-01-29T16:02:41Z</time>
      </trkpt>
      <trkpt lat="46.01681" lon="6.58093">
        <ele>1837.22</ele>
        <time>2019-01-29T16:02:43Z</time>
      </trkpt>
      <trkpt lat="46.01688" lon="6.58085">
        <ele>1833.85</ele>
        <time>2019-01-29T16:02:45Z</time>
      </trkpt>
      <trkpt lat="46.01691" lon="6.5808">
        <ele>1831.93</ele>
        <time>2019-01-29T16:02:46Z</time>
      </trkpt>
      <trkpt lat="46.01696" lon="6.58076">
        <ele>1829.05</ele>
        <time>2019-01-29T16:02:47Z</time>
      </trkpt>
      <trkpt lat="46.01702" lon="6.58072">
        <ele>1825.68</ele>
        <time>2019-01-29T16:02:48Z</time>
      </trkpt>
      <trkpt lat="46.01708" lon="6.58067">
        <ele>1822.32</ele>
        <time>2019-01-29T16:02:49Z</time>
      </trkpt>
      <trkpt lat="46.01714" lon="6.58062">
        <ele>1819.43</ele>
        <time>2019-01-29T16:02:50Z</time>
      </trkpt>
      <trkpt lat="46.01721" lon="6.58058">
        <ele>1815.59</ele>
        <time>2019-01-29T16:02:51Z</time>
      </trkpt>
      <trkpt lat="46.01734" lon="6.58049">
        <ele>1809.82</ele>
        <time>2019-01-29T16:02:53Z</time>
      </trkpt>
      <trkpt lat="46.0174" lon="6.58044">
        <ele>1806.45</ele>
        <time>2019-01-29T16:02:54Z</time>
      </trkpt>
      <trkpt lat="46.01745" lon="6.58039">
        <ele>1803.57</ele>
        <time>2019-01-29T16:02:55Z</time>
      </trkpt>
      <trkpt lat="46.0175" lon="6.58037">
        <ele>1801.17</ele>
        <time>2019-01-29T16:02:56Z</time>
      </trkpt>
      <trkpt lat="46.01756" lon="6.58036">
        <ele>1798.76</ele>
        <time>2019-01-29T16:02:57Z</time>
      </trkpt>
      <trkpt lat="46.01762" lon="6.58038">
        <ele>1795.88</ele>
        <time>2019-01-29T16:02:58Z</time>
      </trkpt>
      <trkpt lat="46.01769" lon="6.5804">
        <ele>1793.48</ele>
        <time>2019-01-29T16:02:59Z</time>
      </trkpt>
      <trkpt lat="46.01775" lon="6.58045">
        <ele>1791.55</ele>
        <time>2019-01-29T16:03:00Z</time>
      </trkpt>
      <trkpt lat="46.01781" lon="6.58049">
        <ele>1789.63</ele>
        <time>2019-01-29T16:03:01Z</time>
      </trkpt>
      <trkpt lat="46.01788" lon="6.58053">
        <ele>1788.19</ele>
        <time>2019-01-29T16:03:02Z</time>
      </trkpt>
      <trkpt lat="46.01794" lon="6.58057">
        <ele>1786.27</ele>
        <time>2019-01-29T16:03:03Z</time>
      </trkpt>
      <trkpt lat="46.01817" lon="6.58066">
        <ele>1782.9</ele>
        <time>2019-01-29T16:03:07Z</time>
      </trkpt>
      <trkpt lat="46.01832" lon="6.58075">
        <ele>1779.06</ele>
        <time>2019-01-29T16:03:10Z</time>
      </trkpt>
      <trkpt lat="46.01838" lon="6.58079">
        <ele>1777.61</ele>
        <time>2019-01-29T16:03:11Z</time>
      </trkpt>
      <trkpt lat="46.01842" lon="6.58084">
        <ele>1776.17</ele>
        <time>2019-01-29T16:03:12Z</time>
      </trkpt>
      <trkpt lat="46.01861" lon="6.58105">
        <ele>1776.17</ele>
        <time>2019-01-29T16:03:16Z</time>
      </trkpt>
      <trkpt lat="46.01866" lon="6.58108">
        <ele>1775.21</ele>
        <time>2019-01-29T16:03:17Z</time>
      </trkpt>
      <trkpt lat="46.01872" lon="6.58108">
        <ele>1772.81</ele>
        <time>2019-01-29T16:03:18Z</time>
      </trkpt>
      <trkpt lat="46.01879" lon="6.58107">
        <ele>1770.41</ele>
        <time>2019-01-29T16:03:19Z</time>
      </trkpt>
      <trkpt lat="46.01887" lon="6.58105">
        <ele>1768.48</ele>
        <time>2019-01-29T16:03:20Z</time>
      </trkpt>
      <trkpt lat="46.01894" lon="6.58103">
        <ele>1767.04</ele>
        <time>2019-01-29T16:03:21Z</time>
      </trkpt>
      <trkpt lat="46.01901" lon="6.58102">
        <ele>1765.6</ele>
        <time>2019-01-29T16:03:22Z</time>
      </trkpt>
      <trkpt lat="46.01907" lon="6.58101">
        <ele>1764.64</ele>
        <time>2019-01-29T16:03:23Z</time>
      </trkpt>
      <trkpt lat="46.01912" lon="6.581">
        <ele>1763.68</ele>
        <time>2019-01-29T16:03:24Z</time>
      </trkpt>
      <trkpt lat="46.01915" lon="6.58098">
        <ele>1763.2</ele>
        <time>2019-01-29T16:03:25Z</time>
      </trkpt>
      <trkpt lat="46.01915" lon="6.58094">
        <ele>1762.23</ele>
        <time>2019-01-29T16:03:26Z</time>
      </trkpt>
      <trkpt lat="46.01918" lon="6.58078">
        <ele>1759.83</ele>
        <time>2019-01-29T16:03:28Z</time>
      </trkpt>
      <trkpt lat="46.01922" lon="6.58069">
        <ele>1759.35</ele>
        <time>2019-01-29T16:03:29Z</time>
      </trkpt>
      <trkpt lat="46.01928" lon="6.58062">
        <ele>1754.06</ele>
        <time>2019-01-29T16:03:30Z</time>
      </trkpt>
      <trkpt lat="46.01934" lon="6.58058">
        <ele>1748.78</ele>
        <time>2019-01-29T16:03:31Z</time>
      </trkpt>
      <trkpt lat="46.01939" lon="6.58053">
        <ele>1745.89</ele>
        <time>2019-01-29T16:03:32Z</time>
      </trkpt>
      <trkpt lat="46.01946" lon="6.58047">
        <ele>1742.05</ele>
        <time>2019-01-29T16:03:33Z</time>
      </trkpt>
      <trkpt lat="46.01954" lon="6.58045">
        <ele>1738.68</ele>
        <time>2019-01-29T16:03:34Z</time>
      </trkpt>
      <trkpt lat="46.01961" lon="6.58043">
        <ele>1736.28</ele>
        <time>2019-01-29T16:03:35Z</time>
      </trkpt>
      <trkpt lat="46.01974" lon="6.5804">
        <ele>1732.91</ele>
        <time>2019-01-29T16:03:37Z</time>
      </trkpt>
      <trkpt lat="46.0198" lon="6.58037">
        <ele>1730.99</ele>
        <time>2019-01-29T16:03:38Z</time>
      </trkpt>
      <trkpt lat="46.01985" lon="6.58032">
        <ele>1728.59</ele>
        <time>2019-01-29T16:03:39Z</time>
      </trkpt>
      <trkpt lat="46.01989" lon="6.58027">
        <ele>1726.18</ele>
        <time>2019-01-29T16:03:40Z</time>
      </trkpt>
      <trkpt lat="46.01993" lon="6.58021">
        <ele>1723.78</ele>
        <time>2019-01-29T16:03:41Z</time>
      </trkpt>
      <trkpt lat="46.01997" lon="6.58014">
        <ele>1721.38</ele>
        <time>2019-01-29T16:03:42Z</time>
      </trkpt>
      <trkpt lat="46.01999" lon="6.58007">
        <ele>1718.97</ele>
        <time>2019-01-29T16:03:43Z</time>
      </trkpt>
      <trkpt lat="46.02002" lon="6.58">
        <ele>1716.57</ele>
        <time>2019-01-29T16:03:44Z</time>
      </trkpt>
      <trkpt lat="46.02006" lon="6.57994">
        <ele>1714.17</ele>
        <time>2019-01-29T16:03:45Z</time>
      </trkpt>
      <trkpt lat="46.02011" lon="6.57989">
        <ele>1712.25</ele>
        <time>2019-01-29T16:03:46Z</time>
      </trkpt>
      <trkpt lat="46.02017" lon="6.57986">
        <ele>1709.36</ele>
        <time>2019-01-29T16:03:47Z</time>
      </trkpt>
      <trkpt lat="46.02024" lon="6.57985">
        <ele>1707.44</ele>
        <time>2019-01-29T16:03:48Z</time>
      </trkpt>
      <trkpt lat="46.02029" lon="6.57981">
        <ele>1706</ele>
        <time>2019-01-29T16:03:49Z</time>
      </trkpt>
      <trkpt lat="46.02034" lon="6.57979">
        <ele>1704.55</ele>
        <time>2019-01-29T16:03:50Z</time>
      </trkpt>
      <trkpt lat="46.02042" lon="6.57973">
        <ele>1700.23</ele>
        <time>2019-01-29T16:03:52Z</time>
      </trkpt>
      <trkpt lat="46.02045" lon="6.57971">
        <ele>1698.79</ele>
        <time>2019-01-29T16:03:53Z</time>
      </trkpt>
      <trkpt lat="46.02047" lon="6.57971">
        <ele>1698.31</ele>
        <time>2019-01-29T16:03:54Z</time>
      </trkpt>
      <trkpt lat="46.02054" lon="6.5797">
        <ele>1695.42</ele>
        <time>2019-01-29T16:03:56Z</time>
      </trkpt>
      <trkpt lat="46.02056" lon="6.57972">
        <ele>1693.5</ele>
        <time>2019-01-29T16:03:57Z</time>
      </trkpt>
      <trkpt lat="46.02056" lon="6.57974">
        <ele>1692.54</ele>
        <time>2019-01-29T16:03:58Z</time>
      </trkpt>
      <trkpt lat="46.02057" lon="6.57976">
        <ele>1691.58</ele>
        <time>2019-01-29T16:03:59Z</time>
      </trkpt>
      <trkpt lat="46.0206" lon="6.57976">
        <ele>1690.62</ele>
        <time>2019-01-29T16:04:00Z</time>
      </trkpt>
      <trkpt lat="46.02063" lon="6.57976">
        <ele>1690.14</ele>
        <time>2019-01-29T16:04:01Z</time>
      </trkpt>
      <trkpt lat="46.02065" lon="6.57974">
        <ele>1689.17</ele>
        <time>2019-01-29T16:04:02Z</time>
      </trkpt>
      <trkpt lat="46.02067" lon="6.57972">
        <ele>1688.21</ele>
        <time>2019-01-29T16:04:03Z</time>
      </trkpt>
      <trkpt lat="46.02068" lon="6.57969">
        <ele>1686.29</ele>
        <time>2019-01-29T16:04:04Z</time>
      </trkpt>
      <trkpt lat="46.0207" lon="6.57965">
        <ele>1685.33</ele>
        <time>2019-01-29T16:04:05Z</time>
      </trkpt>
      <trkpt lat="46.02073" lon="6.57964">
        <ele>1683.41</ele>
        <time>2019-01-29T16:04:06Z</time>
      </trkpt>
      <trkpt lat="46.02074" lon="6.57962">
        <ele>1681.96</ele>
        <time>2019-01-29T16:04:07Z</time>
      </trkpt>
      <trkpt lat="46.02076" lon="6.57959">
        <ele>1681.48</ele>
        <time>2019-01-29T16:04:08Z</time>
      </trkpt>
      <trkpt lat="46.02076" lon="6.57958">
        <ele>1680.52</ele>
        <time>2019-01-29T16:04:09Z</time>
      </trkpt>
      <trkpt lat="46.02075" lon="6.57957">
        <ele>1679.08</ele>
        <time>2019-01-29T16:04:12Z</time>
      </trkpt>
      <trkpt lat="46.02078" lon="6.57957">
        <ele>1679.08</ele>
        <time>2019-01-29T16:04:14Z</time>
      </trkpt>
      <trkpt lat="46.0208" lon="6.5796">
        <ele>1678.6</ele>
        <time>2019-01-29T16:04:15Z</time>
      </trkpt>
      <trkpt lat="46.02081" lon="6.57965">
        <ele>1677.16</ele>
        <time>2019-01-29T16:04:16Z</time>
      </trkpt>
      <trkpt lat="46.02082" lon="6.57974">
        <ele>1673.31</ele>
        <time>2019-01-29T16:04:18Z</time>
      </trkpt>
      <trkpt lat="46.02084" lon="6.57978">
        <ele>1670.91</ele>
        <time>2019-01-29T16:04:21Z</time>
      </trkpt>
      <trkpt lat="46.02088" lon="6.57976">
        <ele>1670.43</ele>
        <time>2019-01-29T16:04:22Z</time>
      </trkpt>
      <trkpt lat="46.0209" lon="6.57974">
        <ele>1668.99</ele>
        <time>2019-01-29T16:04:23Z</time>
      </trkpt>
      <trkpt lat="46.02093" lon="6.57973">
        <ele>1668.02</ele>
        <time>2019-01-29T16:04:24Z</time>
      </trkpt>
      <trkpt lat="46.02094" lon="6.57971">
        <ele>1666.58</ele>
        <time>2019-01-29T16:04:25Z</time>
      </trkpt>
      <trkpt lat="46.02095" lon="6.5797">
        <ele>1665.62</ele>
        <time>2019-01-29T16:04:26Z</time>
      </trkpt>
      <trkpt lat="46.02097" lon="6.57968">
        <ele>1664.66</ele>
        <time>2019-01-29T16:04:27Z</time>
      </trkpt>
      <trkpt lat="46.02097" lon="6.57966">
        <ele>1661.78</ele>
        <time>2019-01-29T16:04:31Z</time>
      </trkpt>
      <trkpt lat="46.021" lon="6.57963">
        <ele>1660.81</ele>
        <time>2019-01-29T16:04:35Z</time>
      </trkpt>
      <trkpt lat="46.02101" lon="6.57964">
        <ele>1659.37</ele>
        <time>2019-01-29T16:04:42Z</time>
      </trkpt>
      <trkpt lat="46.02102" lon="6.57966">
        <ele>1658.89</ele>
        <time>2019-01-29T16:04:43Z</time>
      </trkpt>
      <trkpt lat="46.02102" lon="6.57967">
        <ele>1658.41</ele>
        <time>2019-01-29T16:04:44Z</time>
      </trkpt>
      <trkpt lat="46.02102" lon="6.57968">
        <ele>1657.93</ele>
        <time>2019-01-29T16:04:45Z</time>
      </trkpt>
      <trkpt lat="46.02105" lon="6.57968">
        <ele>1656.97</ele>
        <time>2019-01-29T16:04:48Z</time>
      </trkpt>
      <trkpt lat="46.02113" lon="6.57967">
        <ele>1653.12</ele>
        <time>2019-01-29T16:04:52Z</time>
      </trkpt>
      <trkpt lat="46.02117" lon="6.57967">
        <ele>1651.2</ele>
        <time>2019-01-29T16:04:53Z</time>
      </trkpt>
      <trkpt lat="46.0212" lon="6.57967">
        <ele>1649.28</ele>
        <time>2019-01-29T16:04:54Z</time>
      </trkpt>
      <trkpt lat="46.02123" lon="6.57965">
        <ele>1647.36</ele>
        <time>2019-01-29T16:04:55Z</time>
      </trkpt>
      <trkpt lat="46.02128" lon="6.57962">
        <ele>1645.43</ele>
        <time>2019-01-29T16:04:56Z</time>
      </trkpt>
      <trkpt lat="46.02133" lon="6.57958">
        <ele>1643.03</ele>
        <time>2019-01-29T16:04:57Z</time>
      </trkpt>
      <trkpt lat="46.02137" lon="6.57954">
        <ele>1639.67</ele>
        <time>2019-01-29T16:04:58Z</time>
      </trkpt>
      <trkpt lat="46.02139" lon="6.5795">
        <ele>1636.78</ele>
        <time>2019-01-29T16:04:59Z</time>
      </trkpt>
      <trkpt lat="46.0214" lon="6.57947">
        <ele>1634.38</ele>
        <time>2019-01-29T16:05:00Z</time>
      </trkpt>
      <trkpt lat="46.02139" lon="6.57945">
        <ele>1632.94</ele>
        <time>2019-01-29T16:05:01Z</time>
      </trkpt>
      <trkpt lat="46.02138" lon="6.57945">
        <ele>1631.98</ele>
        <time>2019-01-29T16:05:02Z</time>
      </trkpt>
      <trkpt lat="46.02138" lon="6.57942">
        <ele>1631.01</ele>
        <time>2019-01-29T16:05:05Z</time>
      </trkpt>
      <trkpt lat="46.02139" lon="6.57941">
        <ele>1630.53</ele>
        <time>2019-01-29T16:05:06Z</time>
      </trkpt>
      <trkpt lat="46.0214" lon="6.5794">
        <ele>1630.05</ele>
        <time>2019-01-29T16:05:07Z</time>
      </trkpt>
      <trkpt lat="46.02142" lon="6.57939">
        <ele>1629.09</ele>
        <time>2019-01-29T16:05:08Z</time>
      </trkpt>
      <trkpt lat="46.02144" lon="6.57937">
        <ele>1627.65</ele>
        <time>2019-01-29T16:05:09Z</time>
      </trkpt>
      <trkpt lat="46.02145" lon="6.57934">
        <ele>1626.21</ele>
        <time>2019-01-29T16:05:10Z</time>
      </trkpt>
      <trkpt lat="46.02146" lon="6.57932">
        <ele>1624.77</ele>
        <time>2019-01-29T16:05:11Z</time>
      </trkpt>
      <trkpt lat="46.02149" lon="6.5793">
        <ele>1623.8</ele>
        <time>2019-01-29T16:05:12Z</time>
      </trkpt>
      <trkpt lat="46.0215" lon="6.57929">
        <ele>1621.88</ele>
        <time>2019-01-29T16:05:13Z</time>
      </trkpt>
      <trkpt lat="46.02149" lon="6.57929">
        <ele>1619</ele>
        <time>2019-01-29T16:05:17Z</time>
      </trkpt>
      <trkpt lat="46.02152" lon="6.57926">
        <ele>1618.04</ele>
        <time>2019-01-29T16:05:26Z</time>
      </trkpt>
      <trkpt lat="46.02155" lon="6.57927">
        <ele>1617.56</ele>
        <time>2019-01-29T16:05:27Z</time>
      </trkpt>
      <trkpt lat="46.02161" lon="6.5793">
        <ele>1615.15</ele>
        <time>2019-01-29T16:05:29Z</time>
      </trkpt>
      <trkpt lat="46.02164" lon="6.57931">
        <ele>1613.71</ele>
        <time>2019-01-29T16:05:30Z</time>
      </trkpt>
      <trkpt lat="46.02167" lon="6.57933">
        <ele>1611.31</ele>
        <time>2019-01-29T16:05:35Z</time>
      </trkpt>
      <trkpt lat="46.02168" lon="6.57934">
        <ele>1610.83</ele>
        <time>2019-01-29T16:05:36Z</time>
      </trkpt>
      <trkpt lat="46.02171" lon="6.57936">
        <ele>1610.35</ele>
        <time>2019-01-29T16:05:37Z</time>
      </trkpt>
      <trkpt lat="46.02172" lon="6.57938">
        <ele>1609.38</ele>
        <time>2019-01-29T16:05:38Z</time>
      </trkpt>
      <trkpt lat="46.02174" lon="6.5794">
        <ele>1608.42</ele>
        <time>2019-01-29T16:05:39Z</time>
      </trkpt>
      <trkpt lat="46.02176" lon="6.57942">
        <ele>1607.94</ele>
        <time>2019-01-29T16:05:40Z</time>
      </trkpt>
      <trkpt lat="46.02175" lon="6.57945">
        <ele>1606.02</ele>
        <time>2019-01-29T16:05:43Z</time>
      </trkpt>
      <trkpt lat="46.02177" lon="6.57947">
        <ele>1605.54</ele>
        <time>2019-01-29T16:05:45Z</time>
      </trkpt>
      <trkpt lat="46.0218" lon="6.5795">
        <ele>1605.06</ele>
        <time>2019-01-29T16:05:46Z</time>
      </trkpt>
      <trkpt lat="46.02183" lon="6.57953">
        <ele>1603.62</ele>
        <time>2019-01-29T16:05:47Z</time>
      </trkpt>
      <trkpt lat="46.02196" lon="6.57967">
        <ele>1599.29</ele>
        <time>2019-01-29T16:05:50Z</time>
      </trkpt>
      <trkpt lat="46.02205" lon="6.57979">
        <ele>1595.93</ele>
        <time>2019-01-29T16:05:53Z</time>
      </trkpt>
      <trkpt lat="46.02208" lon="6.57981">
        <ele>1594.96</ele>
        <time>2019-01-29T16:05:55Z</time>
      </trkpt>
      <trkpt lat="46.02211" lon="6.5798">
        <ele>1594</ele>
        <time>2019-01-29T16:05:56Z</time>
      </trkpt>
      <trkpt lat="46.02212" lon="6.5798">
        <ele>1592.56</ele>
        <time>2019-01-29T16:05:57Z</time>
      </trkpt>
      <trkpt lat="46.02212" lon="6.57978">
        <ele>1591.6</ele>
        <time>2019-01-29T16:05:58Z</time>
      </trkpt>
      <trkpt lat="46.02214" lon="6.57975">
        <ele>1590.64</ele>
        <time>2019-01-29T16:05:59Z</time>
      </trkpt>
      <trkpt lat="46.02215" lon="6.57972">
        <ele>1589.2</ele>
        <time>2019-01-29T16:06:00Z</time>
      </trkpt>
      <trkpt lat="46.02217" lon="6.5797">
        <ele>1586.31</ele>
        <time>2019-01-29T16:06:03Z</time>
      </trkpt>
      <trkpt lat="46.02217" lon="6.5797">
        <ele>1585.83</ele>
        <time>2019-01-29T16:06:05Z</time>
      </trkpt>
      <trkpt lat="46.02216" lon="6.57968">
        <ele>1585.83</ele>
        <time>2019-01-29T16:06:16Z</time>
      </trkpt>
      <trkpt lat="46.02216" lon="6.57965">
        <ele>1585.35</ele>
        <time>2019-01-29T16:06:17Z</time>
      </trkpt>
      <trkpt lat="46.02216" lon="6.57962">
        <ele>1584.39</ele>
        <time>2019-01-29T16:06:18Z</time>
      </trkpt>
      <trkpt lat="46.02215" lon="6.57959">
        <ele>1583.43</ele>
        <time>2019-01-29T16:06:19Z</time>
      </trkpt>
      <trkpt lat="46.02216" lon="6.57956">
        <ele>1582.95</ele>
        <time>2019-01-29T16:06:20Z</time>
      </trkpt>
      <trkpt lat="46.02218" lon="6.57954">
        <ele>1581.99</ele>
        <time>2019-01-29T16:06:21Z</time>
      </trkpt>
      <trkpt lat="46.0222" lon="6.57953">
        <ele>1581.03</ele>
        <time>2019-01-29T16:06:22Z</time>
      </trkpt>
      <trkpt lat="46.02223" lon="6.57951">
        <ele>1579.58</ele>
        <time>2019-01-29T16:06:23Z</time>
      </trkpt>
      <trkpt lat="46.02226" lon="6.57948">
        <ele>1577.66</ele>
        <time>2019-01-29T16:06:24Z</time>
      </trkpt>
      <trkpt lat="46.02227" lon="6.57941">
        <ele>1573.82</ele>
        <time>2019-01-29T16:06:26Z</time>
      </trkpt>
      <trkpt lat="46.02226" lon="6.57938">
        <ele>1572.37</ele>
        <time>2019-01-29T16:06:27Z</time>
      </trkpt>
      <trkpt lat="46.02227" lon="6.57934">
        <ele>1571.41</ele>
        <time>2019-01-29T16:06:28Z</time>
      </trkpt>
      <trkpt lat="46.02229" lon="6.57931">
        <ele>1569.97</ele>
        <time>2019-01-29T16:06:29Z</time>
      </trkpt>
      <trkpt lat="46.02232" lon="6.57927">
        <ele>1568.53</ele>
        <time>2019-01-29T16:06:30Z</time>
      </trkpt>
      <trkpt lat="46.02237" lon="6.57924">
        <ele>1564.2</ele>
        <time>2019-01-29T16:06:32Z</time>
      </trkpt>
      <trkpt lat="46.02242" lon="6.57922">
        <ele>1559.4</ele>
        <time>2019-01-29T16:06:34Z</time>
      </trkpt>
      <trkpt lat="46.02246" lon="6.57918">
        <ele>1556.99</ele>
        <time>2019-01-29T16:06:36Z</time>
      </trkpt>
      <trkpt lat="46.0225" lon="6.57917">
        <ele>1554.59</ele>
        <time>2019-01-29T16:06:37Z</time>
      </trkpt>
      <trkpt lat="46.02254" lon="6.57915">
        <ele>1552.19</ele>
        <time>2019-01-29T16:06:38Z</time>
      </trkpt>
      <trkpt lat="46.02256" lon="6.57916">
        <ele>1549.78</ele>
        <time>2019-01-29T16:06:39Z</time>
      </trkpt>
      <trkpt lat="46.0226" lon="6.57919">
        <ele>1547.86</ele>
        <time>2019-01-29T16:06:40Z</time>
      </trkpt>
      <trkpt lat="46.02264" lon="6.57923">
        <ele>1546.42</ele>
        <time>2019-01-29T16:06:41Z</time>
      </trkpt>
      <trkpt lat="46.02268" lon="6.57926">
        <ele>1545.46</ele>
        <time>2019-01-29T16:06:42Z</time>
      </trkpt>
      <trkpt lat="46.02274" lon="6.57931">
        <ele>1543.53</ele>
        <time>2019-01-29T16:06:43Z</time>
      </trkpt>
      <trkpt lat="46.02279" lon="6.57936">
        <ele>1541.61</ele>
        <time>2019-01-29T16:06:44Z</time>
      </trkpt>
      <trkpt lat="46.02284" lon="6.57941">
        <ele>1540.17</ele>
        <time>2019-01-29T16:06:45Z</time>
      </trkpt>
      <trkpt lat="46.02288" lon="6.57943">
        <ele>1538.25</ele>
        <time>2019-01-29T16:06:48Z</time>
      </trkpt>
      <trkpt lat="46.02287" lon="6.57944">
        <ele>1537.77</ele>
        <time>2019-01-29T16:06:49Z</time>
      </trkpt>
      <trkpt lat="46.02288" lon="6.57944">
        <ele>1537.77</ele>
        <time>2019-01-29T16:06:51Z</time>
      </trkpt>
      <trkpt lat="46.02287" lon="6.5794">
        <ele>1537.29</ele>
        <time>2019-01-29T16:07:01Z</time>
      </trkpt>
      <trkpt lat="46.0229" lon="6.57938">
        <ele>1536.8</ele>
        <time>2019-01-29T16:07:02Z</time>
      </trkpt>
      <trkpt lat="46.02293" lon="6.57937">
        <ele>1534.88</ele>
        <time>2019-01-29T16:07:03Z</time>
      </trkpt>
      <trkpt lat="46.02297" lon="6.57935">
        <ele>1533.44</ele>
        <time>2019-01-29T16:07:04Z</time>
      </trkpt>
      <trkpt lat="46.02301" lon="6.57932">
        <ele>1532</ele>
        <time>2019-01-29T16:07:05Z</time>
      </trkpt>
      <trkpt lat="46.02306" lon="6.57929">
        <ele>1529.59</ele>
        <time>2019-01-29T16:07:06Z</time>
      </trkpt>
      <trkpt lat="46.02311" lon="6.57928">
        <ele>1526.71</ele>
        <time>2019-01-29T16:07:07Z</time>
      </trkpt>
      <trkpt lat="46.02315" lon="6.57925">
        <ele>1524.79</ele>
        <time>2019-01-29T16:07:08Z</time>
      </trkpt>
      <trkpt lat="46.02318" lon="6.57919">
        <ele>1522.39</ele>
        <time>2019-01-29T16:07:09Z</time>
      </trkpt>
      <trkpt lat="46.02323" lon="6.57915">
        <ele>1519.98</ele>
        <time>2019-01-29T16:07:10Z</time>
      </trkpt>
      <trkpt lat="46.02329" lon="6.57912">
        <ele>1516.62</ele>
        <time>2019-01-29T16:07:11Z</time>
      </trkpt>
      <trkpt lat="46.02334" lon="6.57907">
        <ele>1513.73</ele>
        <time>2019-01-29T16:07:12Z</time>
      </trkpt>
      <trkpt lat="46.02337" lon="6.57901">
        <ele>1510.37</ele>
        <time>2019-01-29T16:07:13Z</time>
      </trkpt>
      <trkpt lat="46.02343" lon="6.57894">
        <ele>1507</ele>
        <time>2019-01-29T16:07:14Z</time>
      </trkpt>
      <trkpt lat="46.02349" lon="6.5789">
        <ele>1503.16</ele>
        <time>2019-01-29T16:07:15Z</time>
      </trkpt>
      <trkpt lat="46.02352" lon="6.57885">
        <ele>1499.79</ele>
        <time>2019-01-29T16:07:16Z</time>
      </trkpt>
      <trkpt lat="46.02355" lon="6.57879">
        <ele>1496.43</ele>
        <time>2019-01-29T16:07:17Z</time>
      </trkpt>
      <trkpt lat="46.02359" lon="6.57873">
        <ele>1492.58</ele>
        <time>2019-01-29T16:07:18Z</time>
      </trkpt>
      <trkpt lat="46.02363" lon="6.57867">
        <ele>1489.22</ele>
        <time>2019-01-29T16:07:19Z</time>
      </trkpt>
      <trkpt lat="46.02368" lon="6.57861">
        <ele>1485.85</ele>
        <time>2019-01-29T16:07:20Z</time>
      </trkpt>
      <trkpt lat="46.02372" lon="6.57857">
        <ele>1481.53</ele>
        <time>2019-01-29T16:07:21Z</time>
      </trkpt>
      <trkpt lat="46.02377" lon="6.57854">
        <ele>1477.68</ele>
        <time>2019-01-29T16:07:22Z</time>
      </trkpt>
      <trkpt lat="46.02381" lon="6.57849">
        <ele>1474.8</ele>
        <time>2019-01-29T16:07:23Z</time>
      </trkpt>
      <trkpt lat="46.02384" lon="6.57842">
        <ele>1471.92</ele>
        <time>2019-01-29T16:07:24Z</time>
      </trkpt>
      <trkpt lat="46.02389" lon="6.57834">
        <ele>1468.55</ele>
        <time>2019-01-29T16:07:25Z</time>
      </trkpt>
      <trkpt lat="46.02394" lon="6.57829">
        <ele>1465.19</ele>
        <time>2019-01-29T16:07:26Z</time>
      </trkpt>
      <trkpt lat="46.02398" lon="6.57824">
        <ele>1461.82</ele>
        <time>2019-01-29T16:07:27Z</time>
      </trkpt>
      <trkpt lat="46.02402" lon="6.57818">
        <ele>1457.98</ele>
        <time>2019-01-29T16:07:28Z</time>
      </trkpt>
      <trkpt lat="46.02407" lon="6.57811">
        <ele>1454.13</ele>
        <time>2019-01-29T16:07:29Z</time>
      </trkpt>
      <trkpt lat="46.02412" lon="6.57806">
        <ele>1449.81</ele>
        <time>2019-01-29T16:07:30Z</time>
      </trkpt>
      <trkpt lat="46.02418" lon="6.57803">
        <ele>1445</ele>
        <time>2019-01-29T16:07:31Z</time>
      </trkpt>
      <trkpt lat="46.02423" lon="6.57801">
        <ele>1441.15</ele>
        <time>2019-01-29T16:07:32Z</time>
      </trkpt>
      <trkpt lat="46.0243" lon="6.57796">
        <ele>1438.27</ele>
        <time>2019-01-29T16:07:33Z</time>
      </trkpt>
      <trkpt lat="46.02435" lon="6.57791">
        <ele>1435.87</ele>
        <time>2019-01-29T16:07:34Z</time>
      </trkpt>
      <trkpt lat="46.0244" lon="6.57787">
        <ele>1432.98</ele>
        <time>2019-01-29T16:07:35Z</time>
      </trkpt>
      <trkpt lat="46.02447" lon="6.57783">
        <ele>1430.1</ele>
        <time>2019-01-29T16:07:36Z</time>
      </trkpt>
      <trkpt lat="46.02452" lon="6.5778">
        <ele>1427.21</ele>
        <time>2019-01-29T16:07:37Z</time>
      </trkpt>
      <trkpt lat="46.02458" lon="6.57778">
        <ele>1424.81</ele>
        <time>2019-01-29T16:07:38Z</time>
      </trkpt>
      <trkpt lat="46.02462" lon="6.57776">
        <ele>1421.45</ele>
        <time>2019-01-29T16:07:39Z</time>
      </trkpt>
      <trkpt lat="46.02467" lon="6.57772">
        <ele>1418.56</ele>
        <time>2019-01-29T16:07:40Z</time>
      </trkpt>
      <trkpt lat="46.02473" lon="6.57769">
        <ele>1415.2</ele>
        <time>2019-01-29T16:07:41Z</time>
      </trkpt>
      <trkpt lat="46.02479" lon="6.57766">
        <ele>1411.35</ele>
        <time>2019-01-29T16:07:42Z</time>
      </trkpt>
      <trkpt lat="46.02485" lon="6.57758">
        <ele>1407.99</ele>
        <time>2019-01-29T16:07:43Z</time>
      </trkpt>
      <trkpt lat="46.02491" lon="6.57752">
        <ele>1404.62</ele>
        <time>2019-01-29T16:07:44Z</time>
      </trkpt>
      <trkpt lat="46.02494" lon="6.57746">
        <ele>1401.26</ele>
        <time>2019-01-29T16:07:45Z</time>
      </trkpt>
      <trkpt lat="46.02498" lon="6.5774">
        <ele>1397.89</ele>
        <time>2019-01-29T16:07:46Z</time>
      </trkpt>
      <trkpt lat="46.02498" lon="6.57737">
        <ele>1395.01</ele>
        <time>2019-01-29T16:07:47Z</time>
      </trkpt>
      <trkpt lat="46.025" lon="6.57734">
        <ele>1391.65</ele>
        <time>2019-01-29T16:07:48Z</time>
      </trkpt>
      <trkpt lat="46.02505" lon="6.57731">
        <ele>1389.24</ele>
        <time>2019-01-29T16:07:49Z</time>
      </trkpt>
      <trkpt lat="46.02511" lon="6.57729">
        <ele>1386.36</ele>
        <time>2019-01-29T16:07:50Z</time>
      </trkpt>
      <trkpt lat="46.02517" lon="6.5773">
        <ele>1382.99</ele>
        <time>2019-01-29T16:07:51Z</time>
      </trkpt>
      <trkpt lat="46.02519" lon="6.57732">
        <ele>1380.59</ele>
        <time>2019-01-29T16:07:52Z</time>
      </trkpt>
      <trkpt lat="46.02523" lon="6.5773">
        <ele>1379.63</ele>
        <time>2019-01-29T16:07:53Z</time>
      </trkpt>
      <trkpt lat="46.02528" lon="6.57726">
        <ele>1377.71</ele>
        <time>2019-01-29T16:07:54Z</time>
      </trkpt>
      <trkpt lat="46.02532" lon="6.5772">
        <ele>1375.78</ele>
        <time>2019-01-29T16:07:55Z</time>
      </trkpt>
      <trkpt lat="46.02538" lon="6.57711">
        <ele>1373.38</ele>
        <time>2019-01-29T16:07:56Z</time>
      </trkpt>
      <trkpt lat="46.02545" lon="6.57703">
        <ele>1370.02</ele>
        <time>2019-01-29T16:07:57Z</time>
      </trkpt>
      <trkpt lat="46.02551" lon="6.57693">
        <ele>1367.13</ele>
        <time>2019-01-29T16:07:58Z</time>
      </trkpt>
      <trkpt lat="46.02558" lon="6.57682">
        <ele>1363.29</ele>
        <time>2019-01-29T16:07:59Z</time>
      </trkpt>
      <trkpt lat="46.02564" lon="6.57671">
        <ele>1359.92</ele>
        <time>2019-01-29T16:08:00Z</time>
      </trkpt>
      <trkpt lat="46.0257" lon="6.5766">
        <ele>1356.08</ele>
        <time>2019-01-29T16:08:01Z</time>
      </trkpt>
      <trkpt lat="46.02576" lon="6.57651">
        <ele>1352.71</ele>
        <time>2019-01-29T16:08:02Z</time>
      </trkpt>
      <trkpt lat="46.02581" lon="6.57645">
        <ele>1349.83</ele>
        <time>2019-01-29T16:08:03Z</time>
      </trkpt>
      <trkpt lat="46.02585" lon="6.5764">
        <ele>1347.91</ele>
        <time>2019-01-29T16:08:04Z</time>
      </trkpt>
      <trkpt lat="46.0259" lon="6.57637">
        <ele>1345.5</ele>
        <time>2019-01-29T16:08:05Z</time>
      </trkpt>
      <trkpt lat="46.02596" lon="6.57633">
        <ele>1343.58</ele>
        <time>2019-01-29T16:08:06Z</time>
      </trkpt>
      <trkpt lat="46.02601" lon="6.57627">
        <ele>1342.14</ele>
        <time>2019-01-29T16:08:07Z</time>
      </trkpt>
      <trkpt lat="46.02608" lon="6.57619">
        <ele>1338.77</ele>
        <time>2019-01-29T16:08:08Z</time>
      </trkpt>
      <trkpt lat="46.02616" lon="6.57612">
        <ele>1335.89</ele>
        <time>2019-01-29T16:08:09Z</time>
      </trkpt>
      <trkpt lat="46.02624" lon="6.57604">
        <ele>1332.52</ele>
        <time>2019-01-29T16:08:10Z</time>
      </trkpt>
      <trkpt lat="46.02632" lon="6.57597">
        <ele>1329.16</ele>
        <time>2019-01-29T16:08:11Z</time>
      </trkpt>
      <trkpt lat="46.0264" lon="6.57589">
        <ele>1327.24</ele>
        <time>2019-01-29T16:08:12Z</time>
      </trkpt>
      <trkpt lat="46.02648" lon="6.57581">
        <ele>1324.83</ele>
        <time>2019-01-29T16:08:13Z</time>
      </trkpt>
      <trkpt lat="46.02655" lon="6.57573">
        <ele>1322.91</ele>
        <time>2019-01-29T16:08:14Z</time>
      </trkpt>
      <trkpt lat="46.02663" lon="6.57566">
        <ele>1320.99</ele>
        <time>2019-01-29T16:08:15Z</time>
      </trkpt>
      <trkpt lat="46.02672" lon="6.57559">
        <ele>1319.55</ele>
        <time>2019-01-29T16:08:16Z</time>
      </trkpt>
      <trkpt lat="46.02687" lon="6.57547">
        <ele>1316.18</ele>
        <time>2019-01-29T16:08:18Z</time>
      </trkpt>
      <trkpt lat="46.02695" lon="6.57541">
        <ele>1314.26</ele>
        <time>2019-01-29T16:08:19Z</time>
      </trkpt>
      <trkpt lat="46.02702" lon="6.57534">
        <ele>1312.82</ele>
        <time>2019-01-29T16:08:20Z</time>
      </trkpt>
      <trkpt lat="46.02717" lon="6.57521">
        <ele>1309.45</ele>
        <time>2019-01-29T16:08:22Z</time>
      </trkpt>
      <trkpt lat="46.02725" lon="6.57514">
        <ele>1307.05</ele>
        <time>2019-01-29T16:08:23Z</time>
      </trkpt>
      <trkpt lat="46.02733" lon="6.57506">
        <ele>1304.17</ele>
        <time>2019-01-29T16:08:24Z</time>
      </trkpt>
      <trkpt lat="46.0274" lon="6.57498">
        <ele>1301.76</ele>
        <time>2019-01-29T16:08:25Z</time>
      </trkpt>
      <trkpt lat="46.02747" lon="6.57491">
        <ele>1299.84</ele>
        <time>2019-01-29T16:08:26Z</time>
      </trkpt>
      <trkpt lat="46.02753" lon="6.57482">
        <ele>1297.92</ele>
        <time>2019-01-29T16:08:27Z</time>
      </trkpt>
      <trkpt lat="46.0276" lon="6.57476">
        <ele>1295.99</ele>
        <time>2019-01-29T16:08:28Z</time>
      </trkpt>
      <trkpt lat="46.02768" lon="6.57476">
        <ele>1294.07</ele>
        <time>2019-01-29T16:08:29Z</time>
      </trkpt>
      <trkpt lat="46.02775" lon="6.57476">
        <ele>1293.11</ele>
        <time>2019-01-29T16:08:30Z</time>
      </trkpt>
      <trkpt lat="46.02783" lon="6.57479">
        <ele>1291.67</ele>
        <time>2019-01-29T16:08:31Z</time>
      </trkpt>
      <trkpt lat="46.0279" lon="6.57482">
        <ele>1290.23</ele>
        <time>2019-01-29T16:08:32Z</time>
      </trkpt>
      <trkpt lat="46.02798" lon="6.57486">
        <ele>1288.3</ele>
        <time>2019-01-29T16:08:33Z</time>
      </trkpt>
      <trkpt lat="46.02805" lon="6.57492">
        <ele>1286.38</ele>
        <time>2019-01-29T16:08:34Z</time>
      </trkpt>
      <trkpt lat="46.02811" lon="6.57499">
        <ele>1284.94</ele>
        <time>2019-01-29T16:08:35Z</time>
      </trkpt>
      <trkpt lat="46.02855" lon="6.57531">
        <ele>1282.06</ele>
        <time>2019-01-29T16:08:47Z</time>
      </trkpt>
      <trkpt lat="46.02869" lon="6.57531">
        <ele>1280.13</ele>
        <time>2019-01-29T16:08:50Z</time>
      </trkpt>
      <trkpt lat="46.02875" lon="6.57529">
        <ele>1279.17</ele>
        <time>2019-01-29T16:08:51Z</time>
      </trkpt>
      <trkpt lat="46.0288" lon="6.57528">
        <ele>1278.21</ele>
        <time>2019-01-29T16:08:52Z</time>
      </trkpt>
      <trkpt lat="46.02885" lon="6.57528">
        <ele>1277.73</ele>
        <time>2019-01-29T16:08:53Z</time>
      </trkpt>
      <trkpt lat="46.02891" lon="6.57526">
        <ele>1276.77</ele>
        <time>2019-01-29T16:08:54Z</time>
      </trkpt>
      <trkpt lat="46.02896" lon="6.57523">
        <ele>1275.81</ele>
        <time>2019-01-29T16:08:55Z</time>
      </trkpt>
      <trkpt lat="46.02901" lon="6.57521">
        <ele>1275.33</ele>
        <time>2019-01-29T16:08:56Z</time>
      </trkpt>
      <trkpt lat="46.02906" lon="6.57521">
        <ele>1274.36</ele>
        <time>2019-01-29T16:08:57Z</time>
      </trkpt>
      <trkpt lat="46.0291" lon="6.57521">
        <ele>1273.88</ele>
        <time>2019-01-29T16:08:58Z</time>
      </trkpt>
      <trkpt lat="46.02918" lon="6.57521">
        <ele>1272.44</ele>
        <time>2019-01-29T16:09:00Z</time>
      </trkpt>
      <trkpt lat="46.02922" lon="6.57519">
        <ele>1271.96</ele>
        <time>2019-01-29T16:09:01Z</time>
      </trkpt>
      <trkpt lat="46.02925" lon="6.57516">
        <ele>1271.96</ele>
        <time>2019-01-29T16:09:02Z</time>
      </trkpt>
      <trkpt lat="46.02926" lon="6.57514">
        <ele>1271</ele>
        <time>2019-01-29T16:09:03Z</time>
      </trkpt>
      <trkpt lat="46.02928" lon="6.57511">
        <ele>1271</ele>
        <time>2019-01-29T16:09:04Z</time>
      </trkpt>
      <trkpt lat="46.0293" lon="6.57509">
        <ele>1270.52</ele>
        <time>2019-01-29T16:09:05Z</time>
      </trkpt>
      <trkpt lat="46.02931" lon="6.57507">
        <ele>1270.04</ele>
        <time>2019-01-29T16:09:06Z</time>
      </trkpt>
      <trkpt lat="46.0293" lon="6.57503">
        <ele>1269.56</ele>
        <time>2019-01-29T16:09:26Z</time>
      </trkpt>
    </trkseg>
  </trk>
</gpx>